<?xml version="1.0" encoding="UTF-8" standalone="no" ?>
<gpx xmlns="http://www.topografix.com/GPX/1/1" xmlns:xsi="http://www.w3.org/2001/XMLSchema-instance" xsi:schemaLocation="http://www.topografix.com/GPX/1/1 http://www.topografix.com/GPX/1/1/gpx.xsd" version="1.1" creator="VisuGPX - https://www.visugpx.com">
  <metadata>
    <name>Course à pied en soirée</name>
  </metadata>
  <trk>
    <name><![CDATA[Course à pied en soirée_1]]></name>
    <trkseg>
      <trkpt lat="43.64752" lon="1.37636">
        <ele>147</ele>
        <time>2024-04-04T16:01:35Z</time>
      </trkpt>
      <trkpt lat="43.64754" lon="1.37634">
        <ele>147</ele>
        <time>2024-04-04T16:01:36Z</time>
      </trkpt>
      <trkpt lat="43.64757" lon="1.37632">
        <ele>147</ele>
        <time>2024-04-04T16:01:37Z</time>
      </trkpt>
      <trkpt lat="43.64757" lon="1.37632">
        <ele>147</ele>
        <time>2024-04-04T16:01:38Z</time>
      </trkpt>
      <trkpt lat="43.64759" lon="1.37628">
        <ele>147</ele>
        <time>2024-04-04T16:01:39Z</time>
      </trkpt>
      <trkpt lat="43.64761" lon="1.37627">
        <ele>147</ele>
        <time>2024-04-04T16:01:40Z</time>
      </trkpt>
      <trkpt lat="43.64762" lon="1.37624">
        <ele>147</ele>
        <time>2024-04-04T16:01:41Z</time>
      </trkpt>
      <trkpt lat="43.64764" lon="1.37622">
        <ele>147</ele>
        <time>2024-04-04T16:01:42Z</time>
      </trkpt>
      <trkpt lat="43.64766" lon="1.3762">
        <ele>147</ele>
        <time>2024-04-04T16:01:43Z</time>
      </trkpt>
      <trkpt lat="43.64769" lon="1.37617">
        <ele>148</ele>
        <time>2024-04-04T16:01:44Z</time>
      </trkpt>
      <trkpt lat="43.64771" lon="1.37616">
        <ele>148</ele>
        <time>2024-04-04T16:01:45Z</time>
      </trkpt>
      <trkpt lat="43.64773" lon="1.37614">
        <ele>147</ele>
        <time>2024-04-04T16:01:46Z</time>
      </trkpt>
      <trkpt lat="43.64775" lon="1.37613">
        <ele>147</ele>
        <time>2024-04-04T16:01:47Z</time>
      </trkpt>
      <trkpt lat="43.64778" lon="1.37612">
        <ele>147</ele>
        <time>2024-04-04T16:01:48Z</time>
      </trkpt>
      <trkpt lat="43.64781" lon="1.37611">
        <ele>147</ele>
        <time>2024-04-04T16:01:49Z</time>
      </trkpt>
      <trkpt lat="43.64783" lon="1.3761">
        <ele>147</ele>
        <time>2024-04-04T16:01:50Z</time>
      </trkpt>
      <trkpt lat="43.64785" lon="1.37608">
        <ele>147</ele>
        <time>2024-04-04T16:01:51Z</time>
      </trkpt>
      <trkpt lat="43.64788" lon="1.37607">
        <ele>147</ele>
        <time>2024-04-04T16:01:52Z</time>
      </trkpt>
      <trkpt lat="43.6479" lon="1.37606">
        <ele>147</ele>
        <time>2024-04-04T16:01:53Z</time>
      </trkpt>
      <trkpt lat="43.64792" lon="1.37605">
        <ele>147</ele>
        <time>2024-04-04T16:01:54Z</time>
      </trkpt>
      <trkpt lat="43.64794" lon="1.37604">
        <ele>147</ele>
        <time>2024-04-04T16:01:55Z</time>
      </trkpt>
      <trkpt lat="43.64796" lon="1.37603">
        <ele>147</ele>
        <time>2024-04-04T16:01:56Z</time>
      </trkpt>
      <trkpt lat="43.64798" lon="1.37602">
        <ele>147</ele>
        <time>2024-04-04T16:01:57Z</time>
      </trkpt>
      <trkpt lat="43.648" lon="1.37601">
        <ele>147</ele>
        <time>2024-04-04T16:01:58Z</time>
      </trkpt>
      <trkpt lat="43.64803" lon="1.37602">
        <ele>147</ele>
        <time>2024-04-04T16:01:59Z</time>
      </trkpt>
      <trkpt lat="43.64805" lon="1.37603">
        <ele>148</ele>
        <time>2024-04-04T16:02:00Z</time>
      </trkpt>
      <trkpt lat="43.64807" lon="1.37604">
        <ele>148</ele>
        <time>2024-04-04T16:02:01Z</time>
      </trkpt>
      <trkpt lat="43.6481" lon="1.37605">
        <ele>148</ele>
        <time>2024-04-04T16:02:02Z</time>
      </trkpt>
      <trkpt lat="43.64812" lon="1.37606">
        <ele>147</ele>
        <time>2024-04-04T16:02:03Z</time>
      </trkpt>
      <trkpt lat="43.64814" lon="1.37606">
        <ele>147</ele>
        <time>2024-04-04T16:02:04Z</time>
      </trkpt>
      <trkpt lat="43.64816" lon="1.37607">
        <ele>147</ele>
        <time>2024-04-04T16:02:05Z</time>
      </trkpt>
      <trkpt lat="43.64818" lon="1.37608">
        <ele>147</ele>
        <time>2024-04-04T16:02:06Z</time>
      </trkpt>
      <trkpt lat="43.64821" lon="1.37609">
        <ele>147</ele>
        <time>2024-04-04T16:02:07Z</time>
      </trkpt>
      <trkpt lat="43.64823" lon="1.3761">
        <ele>147</ele>
        <time>2024-04-04T16:02:08Z</time>
      </trkpt>
      <trkpt lat="43.64826" lon="1.37611">
        <ele>147</ele>
        <time>2024-04-04T16:02:09Z</time>
      </trkpt>
      <trkpt lat="43.64828" lon="1.37612">
        <ele>147</ele>
        <time>2024-04-04T16:02:10Z</time>
      </trkpt>
      <trkpt lat="43.6483" lon="1.37614">
        <ele>148</ele>
        <time>2024-04-04T16:02:11Z</time>
      </trkpt>
      <trkpt lat="43.64832" lon="1.37617">
        <ele>148</ele>
        <time>2024-04-04T16:02:12Z</time>
      </trkpt>
      <trkpt lat="43.64835" lon="1.37618">
        <ele>148</ele>
        <time>2024-04-04T16:02:13Z</time>
      </trkpt>
      <trkpt lat="43.64838" lon="1.3762">
        <ele>148</ele>
        <time>2024-04-04T16:02:14Z</time>
      </trkpt>
      <trkpt lat="43.64841" lon="1.37622">
        <ele>148</ele>
        <time>2024-04-04T16:02:15Z</time>
      </trkpt>
      <trkpt lat="43.64844" lon="1.37624">
        <ele>148</ele>
        <time>2024-04-04T16:02:16Z</time>
      </trkpt>
      <trkpt lat="43.64847" lon="1.37625">
        <ele>148</ele>
        <time>2024-04-04T16:02:17Z</time>
      </trkpt>
      <trkpt lat="43.6485" lon="1.37628">
        <ele>148</ele>
        <time>2024-04-04T16:02:18Z</time>
      </trkpt>
      <trkpt lat="43.64853" lon="1.3763">
        <ele>148</ele>
        <time>2024-04-04T16:02:19Z</time>
      </trkpt>
      <trkpt lat="43.64856" lon="1.37632">
        <ele>148</ele>
        <time>2024-04-04T16:02:20Z</time>
      </trkpt>
      <trkpt lat="43.64858" lon="1.37634">
        <ele>148</ele>
        <time>2024-04-04T16:02:21Z</time>
      </trkpt>
      <trkpt lat="43.64861" lon="1.37635">
        <ele>148</ele>
        <time>2024-04-04T16:02:22Z</time>
      </trkpt>
      <trkpt lat="43.64863" lon="1.37637">
        <ele>148</ele>
        <time>2024-04-04T16:02:23Z</time>
      </trkpt>
      <trkpt lat="43.64866" lon="1.37638">
        <ele>148</ele>
        <time>2024-04-04T16:02:24Z</time>
      </trkpt>
      <trkpt lat="43.64868" lon="1.3764">
        <ele>148</ele>
        <time>2024-04-04T16:02:25Z</time>
      </trkpt>
      <trkpt lat="43.6487" lon="1.37642">
        <ele>148</ele>
        <time>2024-04-04T16:02:26Z</time>
      </trkpt>
      <trkpt lat="43.64872" lon="1.37643">
        <ele>148</ele>
        <time>2024-04-04T16:02:27Z</time>
      </trkpt>
      <trkpt lat="43.64874" lon="1.37645">
        <ele>148</ele>
        <time>2024-04-04T16:02:28Z</time>
      </trkpt>
      <trkpt lat="43.64876" lon="1.37647">
        <ele>148</ele>
        <time>2024-04-04T16:02:29Z</time>
      </trkpt>
      <trkpt lat="43.64878" lon="1.37649">
        <ele>148</ele>
        <time>2024-04-04T16:02:30Z</time>
      </trkpt>
      <trkpt lat="43.64878" lon="1.37649">
        <ele>148</ele>
        <time>2024-04-04T16:02:31Z</time>
      </trkpt>
      <trkpt lat="43.6488" lon="1.37649">
        <ele>148</ele>
        <time>2024-04-04T16:02:32Z</time>
      </trkpt>
      <trkpt lat="43.6488" lon="1.37649">
        <ele>148</ele>
        <time>2024-04-04T16:02:33Z</time>
      </trkpt>
      <trkpt lat="43.64882" lon="1.37649">
        <ele>147</ele>
        <time>2024-04-04T16:02:34Z</time>
      </trkpt>
      <trkpt lat="43.64884" lon="1.37649">
        <ele>147</ele>
        <time>2024-04-04T16:02:35Z</time>
      </trkpt>
      <trkpt lat="43.64886" lon="1.37648">
        <ele>147</ele>
        <time>2024-04-04T16:02:36Z</time>
      </trkpt>
      <trkpt lat="43.64888" lon="1.37648">
        <ele>147</ele>
        <time>2024-04-04T16:02:37Z</time>
      </trkpt>
      <trkpt lat="43.64888" lon="1.37648">
        <ele>147</ele>
        <time>2024-04-04T16:02:38Z</time>
      </trkpt>
      <trkpt lat="43.6489" lon="1.37657">
        <ele>147</ele>
        <time>2024-04-04T16:02:39Z</time>
      </trkpt>
      <trkpt lat="43.6489" lon="1.37659">
        <ele>147</ele>
        <time>2024-04-04T16:02:40Z</time>
      </trkpt>
      <trkpt lat="43.64891" lon="1.37662">
        <ele>148</ele>
        <time>2024-04-04T16:02:41Z</time>
      </trkpt>
      <trkpt lat="43.64892" lon="1.37666">
        <ele>148</ele>
        <time>2024-04-04T16:02:42Z</time>
      </trkpt>
      <trkpt lat="43.64893" lon="1.37669">
        <ele>147</ele>
        <time>2024-04-04T16:02:43Z</time>
      </trkpt>
      <trkpt lat="43.64894" lon="1.37672">
        <ele>147</ele>
        <time>2024-04-04T16:02:44Z</time>
      </trkpt>
      <trkpt lat="43.64894" lon="1.37675">
        <ele>147</ele>
        <time>2024-04-04T16:02:45Z</time>
      </trkpt>
      <trkpt lat="43.64895" lon="1.37679">
        <ele>147</ele>
        <time>2024-04-04T16:02:46Z</time>
      </trkpt>
      <trkpt lat="43.64895" lon="1.37679">
        <ele>147</ele>
        <time>2024-04-04T16:02:47Z</time>
      </trkpt>
      <trkpt lat="43.64896" lon="1.37686">
        <ele>147</ele>
        <time>2024-04-04T16:02:48Z</time>
      </trkpt>
      <trkpt lat="43.64896" lon="1.37688">
        <ele>147</ele>
        <time>2024-04-04T16:02:49Z</time>
      </trkpt>
      <trkpt lat="43.64896" lon="1.37692">
        <ele>147</ele>
        <time>2024-04-04T16:02:50Z</time>
      </trkpt>
      <trkpt lat="43.64897" lon="1.37695">
        <ele>147</ele>
        <time>2024-04-04T16:02:51Z</time>
      </trkpt>
      <trkpt lat="43.64898" lon="1.37698">
        <ele>147</ele>
        <time>2024-04-04T16:02:52Z</time>
      </trkpt>
      <trkpt lat="43.64898" lon="1.37698">
        <ele>147</ele>
        <time>2024-04-04T16:02:53Z</time>
      </trkpt>
      <trkpt lat="43.64898" lon="1.37702">
        <ele>147</ele>
        <time>2024-04-04T16:02:54Z</time>
      </trkpt>
      <trkpt lat="43.64899" lon="1.37705">
        <ele>147</ele>
        <time>2024-04-04T16:02:55Z</time>
      </trkpt>
      <trkpt lat="43.64899" lon="1.37708">
        <ele>147</ele>
        <time>2024-04-04T16:02:56Z</time>
      </trkpt>
      <trkpt lat="43.64899" lon="1.37711">
        <ele>147</ele>
        <time>2024-04-04T16:02:57Z</time>
      </trkpt>
      <trkpt lat="43.64902" lon="1.37719">
        <ele>147</ele>
        <time>2024-04-04T16:02:58Z</time>
      </trkpt>
      <trkpt lat="43.64902" lon="1.37721">
        <ele>147</ele>
        <time>2024-04-04T16:02:59Z</time>
      </trkpt>
      <trkpt lat="43.64903" lon="1.37724">
        <ele>147</ele>
        <time>2024-04-04T16:03:00Z</time>
      </trkpt>
      <trkpt lat="43.64903" lon="1.37724">
        <ele>147</ele>
        <time>2024-04-04T16:03:01Z</time>
      </trkpt>
      <trkpt lat="43.64905" lon="1.37733">
        <ele>147</ele>
        <time>2024-04-04T16:03:02Z</time>
      </trkpt>
      <trkpt lat="43.64906" lon="1.37735">
        <ele>147</ele>
        <time>2024-04-04T16:03:03Z</time>
      </trkpt>
      <trkpt lat="43.64906" lon="1.37738">
        <ele>147</ele>
        <time>2024-04-04T16:03:04Z</time>
      </trkpt>
      <trkpt lat="43.64907" lon="1.37741">
        <ele>147</ele>
        <time>2024-04-04T16:03:05Z</time>
      </trkpt>
      <trkpt lat="43.64907" lon="1.37744">
        <ele>147</ele>
        <time>2024-04-04T16:03:06Z</time>
      </trkpt>
      <trkpt lat="43.64908" lon="1.37748">
        <ele>147</ele>
        <time>2024-04-04T16:03:07Z</time>
      </trkpt>
      <trkpt lat="43.64908" lon="1.37751">
        <ele>147</ele>
        <time>2024-04-04T16:03:08Z</time>
      </trkpt>
      <trkpt lat="43.64909" lon="1.37754">
        <ele>147</ele>
        <time>2024-04-04T16:03:09Z</time>
      </trkpt>
      <trkpt lat="43.6491" lon="1.37757">
        <ele>147</ele>
        <time>2024-04-04T16:03:10Z</time>
      </trkpt>
      <trkpt lat="43.64911" lon="1.3776">
        <ele>147</ele>
        <time>2024-04-04T16:03:11Z</time>
      </trkpt>
      <trkpt lat="43.64912" lon="1.37763">
        <ele>147</ele>
        <time>2024-04-04T16:03:12Z</time>
      </trkpt>
      <trkpt lat="43.64912" lon="1.37766">
        <ele>147</ele>
        <time>2024-04-04T16:03:13Z</time>
      </trkpt>
      <trkpt lat="43.64912" lon="1.37766">
        <ele>147</ele>
        <time>2024-04-04T16:03:14Z</time>
      </trkpt>
      <trkpt lat="43.64913" lon="1.37769">
        <ele>147</ele>
        <time>2024-04-04T16:03:15Z</time>
      </trkpt>
      <trkpt lat="43.64913" lon="1.37772">
        <ele>147</ele>
        <time>2024-04-04T16:03:16Z</time>
      </trkpt>
      <trkpt lat="43.64914" lon="1.37775">
        <ele>147</ele>
        <time>2024-04-04T16:03:17Z</time>
      </trkpt>
      <trkpt lat="43.64914" lon="1.37778">
        <ele>147</ele>
        <time>2024-04-04T16:03:18Z</time>
      </trkpt>
      <trkpt lat="43.64915" lon="1.37781">
        <ele>147</ele>
        <time>2024-04-04T16:03:19Z</time>
      </trkpt>
      <trkpt lat="43.64916" lon="1.37784">
        <ele>147</ele>
        <time>2024-04-04T16:03:20Z</time>
      </trkpt>
      <trkpt lat="43.64917" lon="1.37787">
        <ele>147</ele>
        <time>2024-04-04T16:03:21Z</time>
      </trkpt>
      <trkpt lat="43.64917" lon="1.37791">
        <ele>147</ele>
        <time>2024-04-04T16:03:22Z</time>
      </trkpt>
      <trkpt lat="43.64918" lon="1.37794">
        <ele>147</ele>
        <time>2024-04-04T16:03:23Z</time>
      </trkpt>
      <trkpt lat="43.6492" lon="1.37798">
        <ele>147</ele>
        <time>2024-04-04T16:03:24Z</time>
      </trkpt>
      <trkpt lat="43.64921" lon="1.37802">
        <ele>147</ele>
        <time>2024-04-04T16:03:25Z</time>
      </trkpt>
      <trkpt lat="43.64922" lon="1.37805">
        <ele>147</ele>
        <time>2024-04-04T16:03:26Z</time>
      </trkpt>
      <trkpt lat="43.64922" lon="1.37807">
        <ele>147</ele>
        <time>2024-04-04T16:03:27Z</time>
      </trkpt>
      <trkpt lat="43.64924" lon="1.37814">
        <ele>147</ele>
        <time>2024-04-04T16:03:28Z</time>
      </trkpt>
      <trkpt lat="43.64924" lon="1.37814">
        <ele>147</ele>
        <time>2024-04-04T16:03:29Z</time>
      </trkpt>
      <trkpt lat="43.64926" lon="1.37823">
        <ele>147</ele>
        <time>2024-04-04T16:03:30Z</time>
      </trkpt>
      <trkpt lat="43.64926" lon="1.37825">
        <ele>147</ele>
        <time>2024-04-04T16:03:31Z</time>
      </trkpt>
      <trkpt lat="43.64926" lon="1.37828">
        <ele>147</ele>
        <time>2024-04-04T16:03:32Z</time>
      </trkpt>
      <trkpt lat="43.64927" lon="1.3783">
        <ele>147</ele>
        <time>2024-04-04T16:03:33Z</time>
      </trkpt>
      <trkpt lat="43.64928" lon="1.37833">
        <ele>147</ele>
        <time>2024-04-04T16:03:34Z</time>
      </trkpt>
      <trkpt lat="43.64928" lon="1.37836">
        <ele>147</ele>
        <time>2024-04-04T16:03:35Z</time>
      </trkpt>
      <trkpt lat="43.64928" lon="1.37839">
        <ele>147</ele>
        <time>2024-04-04T16:03:36Z</time>
      </trkpt>
      <trkpt lat="43.64929" lon="1.37842">
        <ele>147</ele>
        <time>2024-04-04T16:03:37Z</time>
      </trkpt>
      <trkpt lat="43.64929" lon="1.37845">
        <ele>147</ele>
        <time>2024-04-04T16:03:38Z</time>
      </trkpt>
      <trkpt lat="43.6493" lon="1.37847">
        <ele>147</ele>
        <time>2024-04-04T16:03:39Z</time>
      </trkpt>
      <trkpt lat="43.6493" lon="1.37847">
        <ele>147</ele>
        <time>2024-04-04T16:03:40Z</time>
      </trkpt>
      <trkpt lat="43.64931" lon="1.37852">
        <ele>147</ele>
        <time>2024-04-04T16:03:41Z</time>
      </trkpt>
      <trkpt lat="43.64933" lon="1.37856">
        <ele>147</ele>
        <time>2024-04-04T16:03:42Z</time>
      </trkpt>
      <trkpt lat="43.64934" lon="1.3786">
        <ele>147</ele>
        <time>2024-04-04T16:03:43Z</time>
      </trkpt>
      <trkpt lat="43.64935" lon="1.37864">
        <ele>147</ele>
        <time>2024-04-04T16:03:44Z</time>
      </trkpt>
      <trkpt lat="43.64936" lon="1.37868">
        <ele>147</ele>
        <time>2024-04-04T16:03:45Z</time>
      </trkpt>
      <trkpt lat="43.64937" lon="1.37871">
        <ele>147</ele>
        <time>2024-04-04T16:03:46Z</time>
      </trkpt>
      <trkpt lat="43.64938" lon="1.37874">
        <ele>147</ele>
        <time>2024-04-04T16:03:47Z</time>
      </trkpt>
      <trkpt lat="43.6494" lon="1.37876">
        <ele>147</ele>
        <time>2024-04-04T16:03:48Z</time>
      </trkpt>
      <trkpt lat="43.64942" lon="1.37878">
        <ele>147</ele>
        <time>2024-04-04T16:03:49Z</time>
      </trkpt>
      <trkpt lat="43.64944" lon="1.37881">
        <ele>147</ele>
        <time>2024-04-04T16:03:50Z</time>
      </trkpt>
      <trkpt lat="43.64946" lon="1.37883">
        <ele>147</ele>
        <time>2024-04-04T16:03:51Z</time>
      </trkpt>
      <trkpt lat="43.64948" lon="1.37886">
        <ele>147</ele>
        <time>2024-04-04T16:03:52Z</time>
      </trkpt>
      <trkpt lat="43.64949" lon="1.37889">
        <ele>147</ele>
        <time>2024-04-04T16:03:53Z</time>
      </trkpt>
      <trkpt lat="43.64951" lon="1.37893">
        <ele>147</ele>
        <time>2024-04-04T16:03:54Z</time>
      </trkpt>
      <trkpt lat="43.64951" lon="1.37893">
        <ele>147</ele>
        <time>2024-04-04T16:03:55Z</time>
      </trkpt>
      <trkpt lat="43.64954" lon="1.37902">
        <ele>147</ele>
        <time>2024-04-04T16:03:56Z</time>
      </trkpt>
      <trkpt lat="43.64955" lon="1.37904">
        <ele>147</ele>
        <time>2024-04-04T16:03:57Z</time>
      </trkpt>
      <trkpt lat="43.64955" lon="1.37904">
        <ele>147</ele>
        <time>2024-04-04T16:03:58Z</time>
      </trkpt>
      <trkpt lat="43.64956" lon="1.37907">
        <ele>147</ele>
        <time>2024-04-04T16:03:59Z</time>
      </trkpt>
      <trkpt lat="43.64957" lon="1.3791">
        <ele>147</ele>
        <time>2024-04-04T16:04:00Z</time>
      </trkpt>
      <trkpt lat="43.64958" lon="1.37914">
        <ele>147</ele>
        <time>2024-04-04T16:04:01Z</time>
      </trkpt>
      <trkpt lat="43.64959" lon="1.37917">
        <ele>147</ele>
        <time>2024-04-04T16:04:02Z</time>
      </trkpt>
      <trkpt lat="43.6496" lon="1.37921">
        <ele>147</ele>
        <time>2024-04-04T16:04:03Z</time>
      </trkpt>
      <trkpt lat="43.64961" lon="1.37926">
        <ele>147</ele>
        <time>2024-04-04T16:04:04Z</time>
      </trkpt>
      <trkpt lat="43.64962" lon="1.3793">
        <ele>146</ele>
        <time>2024-04-04T16:04:05Z</time>
      </trkpt>
      <trkpt lat="43.64963" lon="1.37932">
        <ele>146</ele>
        <time>2024-04-04T16:04:06Z</time>
      </trkpt>
      <trkpt lat="43.64965" lon="1.37935">
        <ele>146</ele>
        <time>2024-04-04T16:04:07Z</time>
      </trkpt>
      <trkpt lat="43.64966" lon="1.37937">
        <ele>146</ele>
        <time>2024-04-04T16:04:08Z</time>
      </trkpt>
      <trkpt lat="43.64968" lon="1.3794">
        <ele>146</ele>
        <time>2024-04-04T16:04:09Z</time>
      </trkpt>
      <trkpt lat="43.64969" lon="1.37942">
        <ele>146</ele>
        <time>2024-04-04T16:04:10Z</time>
      </trkpt>
      <trkpt lat="43.6497" lon="1.37945">
        <ele>146</ele>
        <time>2024-04-04T16:04:11Z</time>
      </trkpt>
      <trkpt lat="43.64972" lon="1.37948">
        <ele>146</ele>
        <time>2024-04-04T16:04:12Z</time>
      </trkpt>
      <trkpt lat="43.64973" lon="1.3795">
        <ele>146</ele>
        <time>2024-04-04T16:04:13Z</time>
      </trkpt>
      <trkpt lat="43.64974" lon="1.37953">
        <ele>146</ele>
        <time>2024-04-04T16:04:14Z</time>
      </trkpt>
      <trkpt lat="43.64975" lon="1.37956">
        <ele>146</ele>
        <time>2024-04-04T16:04:15Z</time>
      </trkpt>
      <trkpt lat="43.64977" lon="1.37959">
        <ele>146</ele>
        <time>2024-04-04T16:04:16Z</time>
      </trkpt>
      <trkpt lat="43.64978" lon="1.37961">
        <ele>146</ele>
        <time>2024-04-04T16:04:17Z</time>
      </trkpt>
      <trkpt lat="43.6498" lon="1.37964">
        <ele>146</ele>
        <time>2024-04-04T16:04:18Z</time>
      </trkpt>
      <trkpt lat="43.64982" lon="1.37966">
        <ele>146</ele>
        <time>2024-04-04T16:04:19Z</time>
      </trkpt>
      <trkpt lat="43.64983" lon="1.37969">
        <ele>145</ele>
        <time>2024-04-04T16:04:20Z</time>
      </trkpt>
      <trkpt lat="43.64985" lon="1.37972">
        <ele>145</ele>
        <time>2024-04-04T16:04:21Z</time>
      </trkpt>
      <trkpt lat="43.64987" lon="1.37974">
        <ele>145</ele>
        <time>2024-04-04T16:04:22Z</time>
      </trkpt>
      <trkpt lat="43.64989" lon="1.37977">
        <ele>145</ele>
        <time>2024-04-04T16:04:23Z</time>
      </trkpt>
      <trkpt lat="43.6499" lon="1.3798">
        <ele>145</ele>
        <time>2024-04-04T16:04:24Z</time>
      </trkpt>
      <trkpt lat="43.64992" lon="1.37982">
        <ele>145</ele>
        <time>2024-04-04T16:04:25Z</time>
      </trkpt>
      <trkpt lat="43.64993" lon="1.37985">
        <ele>145</ele>
        <time>2024-04-04T16:04:26Z</time>
      </trkpt>
      <trkpt lat="43.64995" lon="1.37987">
        <ele>145</ele>
        <time>2024-04-04T16:04:27Z</time>
      </trkpt>
      <trkpt lat="43.64997" lon="1.3799">
        <ele>145</ele>
        <time>2024-04-04T16:04:28Z</time>
      </trkpt>
      <trkpt lat="43.64998" lon="1.37992">
        <ele>145</ele>
        <time>2024-04-04T16:04:29Z</time>
      </trkpt>
      <trkpt lat="43.65" lon="1.37995">
        <ele>145</ele>
        <time>2024-04-04T16:04:30Z</time>
      </trkpt>
      <trkpt lat="43.65002" lon="1.37997">
        <ele>145</ele>
        <time>2024-04-04T16:04:31Z</time>
      </trkpt>
      <trkpt lat="43.65004" lon="1.38">
        <ele>144</ele>
        <time>2024-04-04T16:04:32Z</time>
      </trkpt>
      <trkpt lat="43.65006" lon="1.38003">
        <ele>144</ele>
        <time>2024-04-04T16:04:33Z</time>
      </trkpt>
      <trkpt lat="43.65008" lon="1.38006">
        <ele>144</ele>
        <time>2024-04-04T16:04:34Z</time>
      </trkpt>
      <trkpt lat="43.6501" lon="1.38008">
        <ele>144</ele>
        <time>2024-04-04T16:04:35Z</time>
      </trkpt>
      <trkpt lat="43.65012" lon="1.3801">
        <ele>144</ele>
        <time>2024-04-04T16:04:36Z</time>
      </trkpt>
      <trkpt lat="43.65014" lon="1.38013">
        <ele>144</ele>
        <time>2024-04-04T16:04:37Z</time>
      </trkpt>
      <trkpt lat="43.65015" lon="1.38015">
        <ele>144</ele>
        <time>2024-04-04T16:04:38Z</time>
      </trkpt>
      <trkpt lat="43.65017" lon="1.38019">
        <ele>144</ele>
        <time>2024-04-04T16:04:39Z</time>
      </trkpt>
      <trkpt lat="43.65019" lon="1.38022">
        <ele>145</ele>
        <time>2024-04-04T16:04:40Z</time>
      </trkpt>
      <trkpt lat="43.65021" lon="1.38025">
        <ele>145</ele>
        <time>2024-04-04T16:04:41Z</time>
      </trkpt>
      <trkpt lat="43.65022" lon="1.38027">
        <ele>145</ele>
        <time>2024-04-04T16:04:42Z</time>
      </trkpt>
      <trkpt lat="43.65024" lon="1.3803">
        <ele>145</ele>
        <time>2024-04-04T16:04:43Z</time>
      </trkpt>
      <trkpt lat="43.65026" lon="1.38032">
        <ele>145</ele>
        <time>2024-04-04T16:04:44Z</time>
      </trkpt>
      <trkpt lat="43.65027" lon="1.38034">
        <ele>144</ele>
        <time>2024-04-04T16:04:45Z</time>
      </trkpt>
      <trkpt lat="43.65028" lon="1.38037">
        <ele>144</ele>
        <time>2024-04-04T16:04:46Z</time>
      </trkpt>
      <trkpt lat="43.65029" lon="1.3804">
        <ele>144</ele>
        <time>2024-04-04T16:04:47Z</time>
      </trkpt>
      <trkpt lat="43.65031" lon="1.38043">
        <ele>144</ele>
        <time>2024-04-04T16:04:48Z</time>
      </trkpt>
      <trkpt lat="43.65032" lon="1.38045">
        <ele>144</ele>
        <time>2024-04-04T16:04:49Z</time>
      </trkpt>
      <trkpt lat="43.65033" lon="1.38047">
        <ele>144</ele>
        <time>2024-04-04T16:04:50Z</time>
      </trkpt>
      <trkpt lat="43.65035" lon="1.3805">
        <ele>144</ele>
        <time>2024-04-04T16:04:51Z</time>
      </trkpt>
      <trkpt lat="43.65037" lon="1.38053">
        <ele>144</ele>
        <time>2024-04-04T16:04:52Z</time>
      </trkpt>
      <trkpt lat="43.65038" lon="1.38055">
        <ele>145</ele>
        <time>2024-04-04T16:04:53Z</time>
      </trkpt>
      <trkpt lat="43.65039" lon="1.38058">
        <ele>145</ele>
        <time>2024-04-04T16:04:54Z</time>
      </trkpt>
      <trkpt lat="43.65041" lon="1.38061">
        <ele>145</ele>
        <time>2024-04-04T16:04:55Z</time>
      </trkpt>
      <trkpt lat="43.65042" lon="1.38064">
        <ele>145</ele>
        <time>2024-04-04T16:04:56Z</time>
      </trkpt>
      <trkpt lat="43.65044" lon="1.38066">
        <ele>145</ele>
        <time>2024-04-04T16:04:57Z</time>
      </trkpt>
      <trkpt lat="43.65045" lon="1.38069">
        <ele>145</ele>
        <time>2024-04-04T16:04:58Z</time>
      </trkpt>
      <trkpt lat="43.65046" lon="1.38073">
        <ele>145</ele>
        <time>2024-04-04T16:04:59Z</time>
      </trkpt>
      <trkpt lat="43.65048" lon="1.38076">
        <ele>145</ele>
        <time>2024-04-04T16:05:00Z</time>
      </trkpt>
      <trkpt lat="43.65049" lon="1.38079">
        <ele>145</ele>
        <time>2024-04-04T16:05:01Z</time>
      </trkpt>
      <trkpt lat="43.6505" lon="1.38082">
        <ele>145</ele>
        <time>2024-04-04T16:05:02Z</time>
      </trkpt>
      <trkpt lat="43.65051" lon="1.38085">
        <ele>145</ele>
        <time>2024-04-04T16:05:03Z</time>
      </trkpt>
      <trkpt lat="43.65053" lon="1.38088">
        <ele>145</ele>
        <time>2024-04-04T16:05:04Z</time>
      </trkpt>
      <trkpt lat="43.65054" lon="1.3809">
        <ele>145</ele>
        <time>2024-04-04T16:05:05Z</time>
      </trkpt>
      <trkpt lat="43.65055" lon="1.38092">
        <ele>145</ele>
        <time>2024-04-04T16:05:06Z</time>
      </trkpt>
      <trkpt lat="43.65057" lon="1.38095">
        <ele>145</ele>
        <time>2024-04-04T16:05:07Z</time>
      </trkpt>
      <trkpt lat="43.65058" lon="1.38099">
        <ele>145</ele>
        <time>2024-04-04T16:05:08Z</time>
      </trkpt>
      <trkpt lat="43.65059" lon="1.38102">
        <ele>145</ele>
        <time>2024-04-04T16:05:09Z</time>
      </trkpt>
      <trkpt lat="43.6506" lon="1.38104">
        <ele>145</ele>
        <time>2024-04-04T16:05:10Z</time>
      </trkpt>
      <trkpt lat="43.65062" lon="1.38108">
        <ele>145</ele>
        <time>2024-04-04T16:05:11Z</time>
      </trkpt>
      <trkpt lat="43.65063" lon="1.38111">
        <ele>145</ele>
        <time>2024-04-04T16:05:12Z</time>
      </trkpt>
      <trkpt lat="43.65064" lon="1.38115">
        <ele>146</ele>
        <time>2024-04-04T16:05:13Z</time>
      </trkpt>
      <trkpt lat="43.65066" lon="1.38117">
        <ele>146</ele>
        <time>2024-04-04T16:05:14Z</time>
      </trkpt>
      <trkpt lat="43.65067" lon="1.3812">
        <ele>146</ele>
        <time>2024-04-04T16:05:15Z</time>
      </trkpt>
      <trkpt lat="43.65068" lon="1.38122">
        <ele>146</ele>
        <time>2024-04-04T16:05:16Z</time>
      </trkpt>
      <trkpt lat="43.65069" lon="1.38125">
        <ele>147</ele>
        <time>2024-04-04T16:05:17Z</time>
      </trkpt>
      <trkpt lat="43.65071" lon="1.38128">
        <ele>147</ele>
        <time>2024-04-04T16:05:18Z</time>
      </trkpt>
      <trkpt lat="43.65073" lon="1.38131">
        <ele>147</ele>
        <time>2024-04-04T16:05:19Z</time>
      </trkpt>
      <trkpt lat="43.65076" lon="1.38133">
        <ele>147</ele>
        <time>2024-04-04T16:05:20Z</time>
      </trkpt>
      <trkpt lat="43.65079" lon="1.38133">
        <ele>147</ele>
        <time>2024-04-04T16:05:21Z</time>
      </trkpt>
      <trkpt lat="43.65079" lon="1.38133">
        <ele>147</ele>
        <time>2024-04-04T16:05:22Z</time>
      </trkpt>
      <trkpt lat="43.65082" lon="1.38131">
        <ele>147</ele>
        <time>2024-04-04T16:05:23Z</time>
      </trkpt>
      <trkpt lat="43.65084" lon="1.3813">
        <ele>147</ele>
        <time>2024-04-04T16:05:24Z</time>
      </trkpt>
      <trkpt lat="43.65085" lon="1.38128">
        <ele>147</ele>
        <time>2024-04-04T16:05:25Z</time>
      </trkpt>
      <trkpt lat="43.65088" lon="1.38127">
        <ele>147</ele>
        <time>2024-04-04T16:05:26Z</time>
      </trkpt>
      <trkpt lat="43.6509" lon="1.38125">
        <ele>147</ele>
        <time>2024-04-04T16:05:27Z</time>
      </trkpt>
      <trkpt lat="43.65091" lon="1.38123">
        <ele>147</ele>
        <time>2024-04-04T16:05:28Z</time>
      </trkpt>
      <trkpt lat="43.65094" lon="1.38121">
        <ele>147</ele>
        <time>2024-04-04T16:05:29Z</time>
      </trkpt>
      <trkpt lat="43.65096" lon="1.38119">
        <ele>147</ele>
        <time>2024-04-04T16:05:30Z</time>
      </trkpt>
      <trkpt lat="43.65098" lon="1.38117">
        <ele>147</ele>
        <time>2024-04-04T16:05:31Z</time>
      </trkpt>
      <trkpt lat="43.651" lon="1.38115">
        <ele>147</ele>
        <time>2024-04-04T16:05:32Z</time>
      </trkpt>
      <trkpt lat="43.65103" lon="1.38113">
        <ele>147</ele>
        <time>2024-04-04T16:05:33Z</time>
      </trkpt>
      <trkpt lat="43.65105" lon="1.38111">
        <ele>147</ele>
        <time>2024-04-04T16:05:34Z</time>
      </trkpt>
      <trkpt lat="43.65108" lon="1.38109">
        <ele>147</ele>
        <time>2024-04-04T16:05:35Z</time>
      </trkpt>
      <trkpt lat="43.6511" lon="1.38108">
        <ele>147</ele>
        <time>2024-04-04T16:05:36Z</time>
      </trkpt>
      <trkpt lat="43.65113" lon="1.38106">
        <ele>147</ele>
        <time>2024-04-04T16:05:37Z</time>
      </trkpt>
      <trkpt lat="43.65115" lon="1.38104">
        <ele>147</ele>
        <time>2024-04-04T16:05:38Z</time>
      </trkpt>
      <trkpt lat="43.65117" lon="1.38103">
        <ele>147</ele>
        <time>2024-04-04T16:05:39Z</time>
      </trkpt>
      <trkpt lat="43.65119" lon="1.38101">
        <ele>147</ele>
        <time>2024-04-04T16:05:40Z</time>
      </trkpt>
      <trkpt lat="43.65122" lon="1.38099">
        <ele>147</ele>
        <time>2024-04-04T16:05:41Z</time>
      </trkpt>
      <trkpt lat="43.65124" lon="1.38098">
        <ele>147</ele>
        <time>2024-04-04T16:05:42Z</time>
      </trkpt>
      <trkpt lat="43.65126" lon="1.38097">
        <ele>147</ele>
        <time>2024-04-04T16:05:43Z</time>
      </trkpt>
      <trkpt lat="43.65128" lon="1.38095">
        <ele>147</ele>
        <time>2024-04-04T16:05:44Z</time>
      </trkpt>
      <trkpt lat="43.65131" lon="1.38093">
        <ele>147</ele>
        <time>2024-04-04T16:05:45Z</time>
      </trkpt>
      <trkpt lat="43.65133" lon="1.38092">
        <ele>147</ele>
        <time>2024-04-04T16:05:46Z</time>
      </trkpt>
      <trkpt lat="43.65135" lon="1.3809">
        <ele>147</ele>
        <time>2024-04-04T16:05:47Z</time>
      </trkpt>
      <trkpt lat="43.65137" lon="1.38088">
        <ele>147</ele>
        <time>2024-04-04T16:05:48Z</time>
      </trkpt>
      <trkpt lat="43.65139" lon="1.38087">
        <ele>147</ele>
        <time>2024-04-04T16:05:49Z</time>
      </trkpt>
      <trkpt lat="43.65141" lon="1.38086">
        <ele>147</ele>
        <time>2024-04-04T16:05:50Z</time>
      </trkpt>
      <trkpt lat="43.65143" lon="1.38084">
        <ele>147</ele>
        <time>2024-04-04T16:05:51Z</time>
      </trkpt>
      <trkpt lat="43.65146" lon="1.38083">
        <ele>147</ele>
        <time>2024-04-04T16:05:52Z</time>
      </trkpt>
      <trkpt lat="43.65148" lon="1.38081">
        <ele>147</ele>
        <time>2024-04-04T16:05:53Z</time>
      </trkpt>
      <trkpt lat="43.6515" lon="1.3808">
        <ele>147</ele>
        <time>2024-04-04T16:05:54Z</time>
      </trkpt>
      <trkpt lat="43.65152" lon="1.38079">
        <ele>147</ele>
        <time>2024-04-04T16:05:55Z</time>
      </trkpt>
      <trkpt lat="43.65154" lon="1.38077">
        <ele>147</ele>
        <time>2024-04-04T16:05:56Z</time>
      </trkpt>
      <trkpt lat="43.65156" lon="1.38075">
        <ele>147</ele>
        <time>2024-04-04T16:05:57Z</time>
      </trkpt>
      <trkpt lat="43.65158" lon="1.38073">
        <ele>147</ele>
        <time>2024-04-04T16:05:58Z</time>
      </trkpt>
      <trkpt lat="43.65161" lon="1.38072">
        <ele>147</ele>
        <time>2024-04-04T16:05:59Z</time>
      </trkpt>
      <trkpt lat="43.65164" lon="1.3807">
        <ele>147</ele>
        <time>2024-04-04T16:06:00Z</time>
      </trkpt>
      <trkpt lat="43.65166" lon="1.38068">
        <ele>147</ele>
        <time>2024-04-04T16:06:01Z</time>
      </trkpt>
      <trkpt lat="43.65169" lon="1.38066">
        <ele>147</ele>
        <time>2024-04-04T16:06:02Z</time>
      </trkpt>
      <trkpt lat="43.65172" lon="1.38065">
        <ele>147</ele>
        <time>2024-04-04T16:06:03Z</time>
      </trkpt>
      <trkpt lat="43.65174" lon="1.38063">
        <ele>147</ele>
        <time>2024-04-04T16:06:04Z</time>
      </trkpt>
      <trkpt lat="43.65177" lon="1.38061">
        <ele>147</ele>
        <time>2024-04-04T16:06:05Z</time>
      </trkpt>
      <trkpt lat="43.65179" lon="1.38059">
        <ele>147</ele>
        <time>2024-04-04T16:06:06Z</time>
      </trkpt>
      <trkpt lat="43.65182" lon="1.38058">
        <ele>147</ele>
        <time>2024-04-04T16:06:07Z</time>
      </trkpt>
      <trkpt lat="43.65184" lon="1.38057">
        <ele>147</ele>
        <time>2024-04-04T16:06:08Z</time>
      </trkpt>
      <trkpt lat="43.65186" lon="1.38055">
        <ele>147</ele>
        <time>2024-04-04T16:06:09Z</time>
      </trkpt>
      <trkpt lat="43.65188" lon="1.38054">
        <ele>147</ele>
        <time>2024-04-04T16:06:10Z</time>
      </trkpt>
      <trkpt lat="43.65191" lon="1.38053">
        <ele>147</ele>
        <time>2024-04-04T16:06:11Z</time>
      </trkpt>
      <trkpt lat="43.65193" lon="1.38051">
        <ele>147</ele>
        <time>2024-04-04T16:06:12Z</time>
      </trkpt>
      <trkpt lat="43.65195" lon="1.3805">
        <ele>147</ele>
        <time>2024-04-04T16:06:13Z</time>
      </trkpt>
      <trkpt lat="43.65197" lon="1.38048">
        <ele>147</ele>
        <time>2024-04-04T16:06:14Z</time>
      </trkpt>
      <trkpt lat="43.65199" lon="1.38047">
        <ele>147</ele>
        <time>2024-04-04T16:06:15Z</time>
      </trkpt>
      <trkpt lat="43.65201" lon="1.38045">
        <ele>147</ele>
        <time>2024-04-04T16:06:16Z</time>
      </trkpt>
      <trkpt lat="43.65204" lon="1.38043">
        <ele>147</ele>
        <time>2024-04-04T16:06:17Z</time>
      </trkpt>
      <trkpt lat="43.65206" lon="1.38041">
        <ele>147</ele>
        <time>2024-04-04T16:06:18Z</time>
      </trkpt>
      <trkpt lat="43.65208" lon="1.3804">
        <ele>147</ele>
        <time>2024-04-04T16:06:19Z</time>
      </trkpt>
      <trkpt lat="43.6521" lon="1.38039">
        <ele>147</ele>
        <time>2024-04-04T16:06:20Z</time>
      </trkpt>
      <trkpt lat="43.65213" lon="1.38037">
        <ele>147</ele>
        <time>2024-04-04T16:06:21Z</time>
      </trkpt>
      <trkpt lat="43.65215" lon="1.38036">
        <ele>147</ele>
        <time>2024-04-04T16:06:22Z</time>
      </trkpt>
      <trkpt lat="43.65218" lon="1.38035">
        <ele>147</ele>
        <time>2024-04-04T16:06:23Z</time>
      </trkpt>
      <trkpt lat="43.6522" lon="1.38035">
        <ele>147</ele>
        <time>2024-04-04T16:06:24Z</time>
      </trkpt>
      <trkpt lat="43.65223" lon="1.38038">
        <ele>147</ele>
        <time>2024-04-04T16:06:25Z</time>
      </trkpt>
      <trkpt lat="43.65224" lon="1.38042">
        <ele>147</ele>
        <time>2024-04-04T16:06:26Z</time>
      </trkpt>
      <trkpt lat="43.65225" lon="1.38046">
        <ele>147</ele>
        <time>2024-04-04T16:06:27Z</time>
      </trkpt>
      <trkpt lat="43.65226" lon="1.3805">
        <ele>147</ele>
        <time>2024-04-04T16:06:28Z</time>
      </trkpt>
      <trkpt lat="43.65227" lon="1.38053">
        <ele>147</ele>
        <time>2024-04-04T16:06:29Z</time>
      </trkpt>
      <trkpt lat="43.65228" lon="1.38057">
        <ele>147</ele>
        <time>2024-04-04T16:06:30Z</time>
      </trkpt>
      <trkpt lat="43.6523" lon="1.3806">
        <ele>147</ele>
        <time>2024-04-04T16:06:31Z</time>
      </trkpt>
      <trkpt lat="43.65231" lon="1.38064">
        <ele>147</ele>
        <time>2024-04-04T16:06:32Z</time>
      </trkpt>
      <trkpt lat="43.65232" lon="1.38067">
        <ele>147</ele>
        <time>2024-04-04T16:06:33Z</time>
      </trkpt>
      <trkpt lat="43.65233" lon="1.3807">
        <ele>147</ele>
        <time>2024-04-04T16:06:34Z</time>
      </trkpt>
      <trkpt lat="43.65234" lon="1.38073">
        <ele>147</ele>
        <time>2024-04-04T16:06:35Z</time>
      </trkpt>
      <trkpt lat="43.65235" lon="1.38077">
        <ele>147</ele>
        <time>2024-04-04T16:06:36Z</time>
      </trkpt>
      <trkpt lat="43.65236" lon="1.3808">
        <ele>147</ele>
        <time>2024-04-04T16:06:37Z</time>
      </trkpt>
      <trkpt lat="43.65238" lon="1.38083">
        <ele>147</ele>
        <time>2024-04-04T16:06:38Z</time>
      </trkpt>
      <trkpt lat="43.65239" lon="1.38087">
        <ele>147</ele>
        <time>2024-04-04T16:06:39Z</time>
      </trkpt>
      <trkpt lat="43.6524" lon="1.3809">
        <ele>147</ele>
        <time>2024-04-04T16:06:40Z</time>
      </trkpt>
      <trkpt lat="43.65241" lon="1.38094">
        <ele>147</ele>
        <time>2024-04-04T16:06:41Z</time>
      </trkpt>
      <trkpt lat="43.65242" lon="1.38097">
        <ele>147</ele>
        <time>2024-04-04T16:06:42Z</time>
      </trkpt>
      <trkpt lat="43.65243" lon="1.38101">
        <ele>147</ele>
        <time>2024-04-04T16:06:43Z</time>
      </trkpt>
      <trkpt lat="43.65244" lon="1.38104">
        <ele>147</ele>
        <time>2024-04-04T16:06:44Z</time>
      </trkpt>
      <trkpt lat="43.65245" lon="1.38107">
        <ele>146</ele>
        <time>2024-04-04T16:06:45Z</time>
      </trkpt>
      <trkpt lat="43.65245" lon="1.38107">
        <ele>146</ele>
        <time>2024-04-04T16:06:46Z</time>
      </trkpt>
      <trkpt lat="43.65247" lon="1.38114">
        <ele>147</ele>
        <time>2024-04-04T16:06:47Z</time>
      </trkpt>
      <trkpt lat="43.65248" lon="1.38118">
        <ele>147</ele>
        <time>2024-04-04T16:06:48Z</time>
      </trkpt>
      <trkpt lat="43.65249" lon="1.38121">
        <ele>147</ele>
        <time>2024-04-04T16:06:49Z</time>
      </trkpt>
      <trkpt lat="43.65249" lon="1.38125">
        <ele>147</ele>
        <time>2024-04-04T16:06:50Z</time>
      </trkpt>
      <trkpt lat="43.65249" lon="1.38129">
        <ele>147</ele>
        <time>2024-04-04T16:06:51Z</time>
      </trkpt>
      <trkpt lat="43.65247" lon="1.38132">
        <ele>147</ele>
        <time>2024-04-04T16:06:52Z</time>
      </trkpt>
      <trkpt lat="43.65245" lon="1.38135">
        <ele>147</ele>
        <time>2024-04-04T16:06:53Z</time>
      </trkpt>
      <trkpt lat="43.65243" lon="1.38137">
        <ele>146</ele>
        <time>2024-04-04T16:06:54Z</time>
      </trkpt>
      <trkpt lat="43.6524" lon="1.38138">
        <ele>146</ele>
        <time>2024-04-04T16:06:55Z</time>
      </trkpt>
      <trkpt lat="43.65238" lon="1.38139">
        <ele>146</ele>
        <time>2024-04-04T16:06:56Z</time>
      </trkpt>
      <trkpt lat="43.65235" lon="1.38141">
        <ele>146</ele>
        <time>2024-04-04T16:06:57Z</time>
      </trkpt>
      <trkpt lat="43.65235" lon="1.38141">
        <ele>146</ele>
        <time>2024-04-04T16:06:58Z</time>
      </trkpt>
      <trkpt lat="43.6523" lon="1.38143">
        <ele>147</ele>
        <time>2024-04-04T16:06:59Z</time>
      </trkpt>
      <trkpt lat="43.65227" lon="1.38145">
        <ele>147</ele>
        <time>2024-04-04T16:07:00Z</time>
      </trkpt>
      <trkpt lat="43.65225" lon="1.38147">
        <ele>147</ele>
        <time>2024-04-04T16:07:01Z</time>
      </trkpt>
      <trkpt lat="43.65223" lon="1.38148">
        <ele>146</ele>
        <time>2024-04-04T16:07:02Z</time>
      </trkpt>
      <trkpt lat="43.6522" lon="1.3815">
        <ele>145</ele>
        <time>2024-04-04T16:07:03Z</time>
      </trkpt>
      <trkpt lat="43.65218" lon="1.38151">
        <ele>145</ele>
        <time>2024-04-04T16:07:04Z</time>
      </trkpt>
      <trkpt lat="43.65216" lon="1.38153">
        <ele>145</ele>
        <time>2024-04-04T16:07:05Z</time>
      </trkpt>
      <trkpt lat="43.65213" lon="1.38155">
        <ele>145</ele>
        <time>2024-04-04T16:07:06Z</time>
      </trkpt>
      <trkpt lat="43.65211" lon="1.38157">
        <ele>146</ele>
        <time>2024-04-04T16:07:07Z</time>
      </trkpt>
      <trkpt lat="43.65209" lon="1.38159">
        <ele>146</ele>
        <time>2024-04-04T16:07:08Z</time>
      </trkpt>
      <trkpt lat="43.65207" lon="1.38161">
        <ele>146</ele>
        <time>2024-04-04T16:07:09Z</time>
      </trkpt>
      <trkpt lat="43.65205" lon="1.38163">
        <ele>146</ele>
        <time>2024-04-04T16:07:10Z</time>
      </trkpt>
      <trkpt lat="43.65203" lon="1.38165">
        <ele>146</ele>
        <time>2024-04-04T16:07:11Z</time>
      </trkpt>
      <trkpt lat="43.65201" lon="1.38168">
        <ele>146</ele>
        <time>2024-04-04T16:07:12Z</time>
      </trkpt>
      <trkpt lat="43.65198" lon="1.3817">
        <ele>146</ele>
        <time>2024-04-04T16:07:13Z</time>
      </trkpt>
      <trkpt lat="43.65196" lon="1.38173">
        <ele>146</ele>
        <time>2024-04-04T16:07:14Z</time>
      </trkpt>
      <trkpt lat="43.65194" lon="1.38175">
        <ele>146</ele>
        <time>2024-04-04T16:07:15Z</time>
      </trkpt>
      <trkpt lat="43.65192" lon="1.38177">
        <ele>146</ele>
        <time>2024-04-04T16:07:16Z</time>
      </trkpt>
      <trkpt lat="43.6519" lon="1.38179">
        <ele>146</ele>
        <time>2024-04-04T16:07:17Z</time>
      </trkpt>
      <trkpt lat="43.65187" lon="1.38181">
        <ele>146</ele>
        <time>2024-04-04T16:07:18Z</time>
      </trkpt>
      <trkpt lat="43.65185" lon="1.38183">
        <ele>146</ele>
        <time>2024-04-04T16:07:19Z</time>
      </trkpt>
      <trkpt lat="43.65183" lon="1.38185">
        <ele>146</ele>
        <time>2024-04-04T16:07:20Z</time>
      </trkpt>
      <trkpt lat="43.6518" lon="1.38187">
        <ele>145</ele>
        <time>2024-04-04T16:07:21Z</time>
      </trkpt>
      <trkpt lat="43.6518" lon="1.38187">
        <ele>145</ele>
        <time>2024-04-04T16:07:22Z</time>
      </trkpt>
      <trkpt lat="43.65176" lon="1.38192">
        <ele>145</ele>
        <time>2024-04-04T16:07:23Z</time>
      </trkpt>
      <trkpt lat="43.65174" lon="1.38195">
        <ele>145</ele>
        <time>2024-04-04T16:07:24Z</time>
      </trkpt>
      <trkpt lat="43.65172" lon="1.38197">
        <ele>145</ele>
        <time>2024-04-04T16:07:25Z</time>
      </trkpt>
      <trkpt lat="43.6517" lon="1.38201">
        <ele>145</ele>
        <time>2024-04-04T16:07:26Z</time>
      </trkpt>
      <trkpt lat="43.65169" lon="1.38204">
        <ele>145</ele>
        <time>2024-04-04T16:07:27Z</time>
      </trkpt>
      <trkpt lat="43.65168" lon="1.38208">
        <ele>145</ele>
        <time>2024-04-04T16:07:28Z</time>
      </trkpt>
      <trkpt lat="43.65168" lon="1.38211">
        <ele>145</ele>
        <time>2024-04-04T16:07:29Z</time>
      </trkpt>
      <trkpt lat="43.65168" lon="1.38215">
        <ele>144</ele>
        <time>2024-04-04T16:07:30Z</time>
      </trkpt>
      <trkpt lat="43.65168" lon="1.38219">
        <ele>144</ele>
        <time>2024-04-04T16:07:31Z</time>
      </trkpt>
      <trkpt lat="43.65168" lon="1.38223">
        <ele>144</ele>
        <time>2024-04-04T16:07:32Z</time>
      </trkpt>
      <trkpt lat="43.65168" lon="1.38227">
        <ele>145</ele>
        <time>2024-04-04T16:07:33Z</time>
      </trkpt>
      <trkpt lat="43.65168" lon="1.3823">
        <ele>145</ele>
        <time>2024-04-04T16:07:34Z</time>
      </trkpt>
      <trkpt lat="43.65168" lon="1.38234">
        <ele>145</ele>
        <time>2024-04-04T16:07:35Z</time>
      </trkpt>
      <trkpt lat="43.65168" lon="1.38234">
        <ele>145</ele>
        <time>2024-04-04T16:07:36Z</time>
      </trkpt>
      <trkpt lat="43.65169" lon="1.38241">
        <ele>144</ele>
        <time>2024-04-04T16:07:37Z</time>
      </trkpt>
      <trkpt lat="43.6517" lon="1.38245">
        <ele>144</ele>
        <time>2024-04-04T16:07:38Z</time>
      </trkpt>
      <trkpt lat="43.65171" lon="1.38248">
        <ele>144</ele>
        <time>2024-04-04T16:07:39Z</time>
      </trkpt>
      <trkpt lat="43.65172" lon="1.38252">
        <ele>144</ele>
        <time>2024-04-04T16:07:40Z</time>
      </trkpt>
      <trkpt lat="43.65172" lon="1.38255">
        <ele>144</ele>
        <time>2024-04-04T16:07:41Z</time>
      </trkpt>
      <trkpt lat="43.65173" lon="1.38259">
        <ele>144</ele>
        <time>2024-04-04T16:07:42Z</time>
      </trkpt>
      <trkpt lat="43.65174" lon="1.38262">
        <ele>144</ele>
        <time>2024-04-04T16:07:43Z</time>
      </trkpt>
      <trkpt lat="43.65175" lon="1.38266">
        <ele>144</ele>
        <time>2024-04-04T16:07:44Z</time>
      </trkpt>
      <trkpt lat="43.65176" lon="1.38269">
        <ele>144</ele>
        <time>2024-04-04T16:07:45Z</time>
      </trkpt>
      <trkpt lat="43.65177" lon="1.38273">
        <ele>144</ele>
        <time>2024-04-04T16:07:46Z</time>
      </trkpt>
      <trkpt lat="43.65178" lon="1.38276">
        <ele>145</ele>
        <time>2024-04-04T16:07:47Z</time>
      </trkpt>
      <trkpt lat="43.65178" lon="1.3828">
        <ele>145</ele>
        <time>2024-04-04T16:07:48Z</time>
      </trkpt>
      <trkpt lat="43.6518" lon="1.38283">
        <ele>144</ele>
        <time>2024-04-04T16:07:49Z</time>
      </trkpt>
      <trkpt lat="43.65181" lon="1.38287">
        <ele>144</ele>
        <time>2024-04-04T16:07:50Z</time>
      </trkpt>
      <trkpt lat="43.65181" lon="1.3829">
        <ele>144</ele>
        <time>2024-04-04T16:07:51Z</time>
      </trkpt>
      <trkpt lat="43.65182" lon="1.38294">
        <ele>144</ele>
        <time>2024-04-04T16:07:52Z</time>
      </trkpt>
      <trkpt lat="43.65183" lon="1.38297">
        <ele>144</ele>
        <time>2024-04-04T16:07:53Z</time>
      </trkpt>
      <trkpt lat="43.65184" lon="1.38301">
        <ele>144</ele>
        <time>2024-04-04T16:07:54Z</time>
      </trkpt>
      <trkpt lat="43.65185" lon="1.38305">
        <ele>144</ele>
        <time>2024-04-04T16:07:55Z</time>
      </trkpt>
      <trkpt lat="43.65185" lon="1.38309">
        <ele>144</ele>
        <time>2024-04-04T16:07:56Z</time>
      </trkpt>
      <trkpt lat="43.65186" lon="1.38312">
        <ele>144</ele>
        <time>2024-04-04T16:07:57Z</time>
      </trkpt>
      <trkpt lat="43.65186" lon="1.38316">
        <ele>144</ele>
        <time>2024-04-04T16:07:58Z</time>
      </trkpt>
      <trkpt lat="43.65187" lon="1.38319">
        <ele>143</ele>
        <time>2024-04-04T16:07:59Z</time>
      </trkpt>
      <trkpt lat="43.65187" lon="1.38323">
        <ele>144</ele>
        <time>2024-04-04T16:08:00Z</time>
      </trkpt>
      <trkpt lat="43.65187" lon="1.38327">
        <ele>144</ele>
        <time>2024-04-04T16:08:01Z</time>
      </trkpt>
      <trkpt lat="43.65188" lon="1.3833">
        <ele>144</ele>
        <time>2024-04-04T16:08:02Z</time>
      </trkpt>
      <trkpt lat="43.65188" lon="1.38334">
        <ele>145</ele>
        <time>2024-04-04T16:08:03Z</time>
      </trkpt>
      <trkpt lat="43.65189" lon="1.38337">
        <ele>145</ele>
        <time>2024-04-04T16:08:04Z</time>
      </trkpt>
      <trkpt lat="43.65189" lon="1.38341">
        <ele>145</ele>
        <time>2024-04-04T16:08:05Z</time>
      </trkpt>
      <trkpt lat="43.6519" lon="1.38345">
        <ele>145</ele>
        <time>2024-04-04T16:08:06Z</time>
      </trkpt>
      <trkpt lat="43.6519" lon="1.38349">
        <ele>145</ele>
        <time>2024-04-04T16:08:07Z</time>
      </trkpt>
      <trkpt lat="43.65191" lon="1.38352">
        <ele>145</ele>
        <time>2024-04-04T16:08:08Z</time>
      </trkpt>
      <trkpt lat="43.65191" lon="1.38356">
        <ele>145</ele>
        <time>2024-04-04T16:08:09Z</time>
      </trkpt>
      <trkpt lat="43.65191" lon="1.3836">
        <ele>145</ele>
        <time>2024-04-04T16:08:10Z</time>
      </trkpt>
      <trkpt lat="43.65192" lon="1.38363">
        <ele>145</ele>
        <time>2024-04-04T16:08:11Z</time>
      </trkpt>
      <trkpt lat="43.65192" lon="1.38367">
        <ele>145</ele>
        <time>2024-04-04T16:08:12Z</time>
      </trkpt>
      <trkpt lat="43.65193" lon="1.38371">
        <ele>145</ele>
        <time>2024-04-04T16:08:13Z</time>
      </trkpt>
      <trkpt lat="43.65193" lon="1.38375">
        <ele>145</ele>
        <time>2024-04-04T16:08:14Z</time>
      </trkpt>
      <trkpt lat="43.65194" lon="1.38378">
        <ele>145</ele>
        <time>2024-04-04T16:08:15Z</time>
      </trkpt>
      <trkpt lat="43.65195" lon="1.38382">
        <ele>145</ele>
        <time>2024-04-04T16:08:16Z</time>
      </trkpt>
      <trkpt lat="43.65195" lon="1.38386">
        <ele>145</ele>
        <time>2024-04-04T16:08:17Z</time>
      </trkpt>
      <trkpt lat="43.65196" lon="1.3839">
        <ele>145</ele>
        <time>2024-04-04T16:08:18Z</time>
      </trkpt>
      <trkpt lat="43.65198" lon="1.38393">
        <ele>145</ele>
        <time>2024-04-04T16:08:19Z</time>
      </trkpt>
      <trkpt lat="43.652" lon="1.38397">
        <ele>145</ele>
        <time>2024-04-04T16:08:20Z</time>
      </trkpt>
      <trkpt lat="43.65202" lon="1.384">
        <ele>144</ele>
        <time>2024-04-04T16:08:21Z</time>
      </trkpt>
      <trkpt lat="43.65204" lon="1.38403">
        <ele>144</ele>
        <time>2024-04-04T16:08:22Z</time>
      </trkpt>
      <trkpt lat="43.65206" lon="1.38406">
        <ele>144</ele>
        <time>2024-04-04T16:08:23Z</time>
      </trkpt>
      <trkpt lat="43.65207" lon="1.38409">
        <ele>144</ele>
        <time>2024-04-04T16:08:24Z</time>
      </trkpt>
      <trkpt lat="43.6521" lon="1.38412">
        <ele>144</ele>
        <time>2024-04-04T16:08:25Z</time>
      </trkpt>
      <trkpt lat="43.65212" lon="1.38415">
        <ele>144</ele>
        <time>2024-04-04T16:08:26Z</time>
      </trkpt>
      <trkpt lat="43.65214" lon="1.38418">
        <ele>144</ele>
        <time>2024-04-04T16:08:27Z</time>
      </trkpt>
      <trkpt lat="43.65216" lon="1.38421">
        <ele>144</ele>
        <time>2024-04-04T16:08:28Z</time>
      </trkpt>
      <trkpt lat="43.65217" lon="1.38424">
        <ele>143</ele>
        <time>2024-04-04T16:08:29Z</time>
      </trkpt>
      <trkpt lat="43.65219" lon="1.38428">
        <ele>143</ele>
        <time>2024-04-04T16:08:30Z</time>
      </trkpt>
      <trkpt lat="43.6522" lon="1.38431">
        <ele>143</ele>
        <time>2024-04-04T16:08:31Z</time>
      </trkpt>
      <trkpt lat="43.65222" lon="1.38434">
        <ele>142</ele>
        <time>2024-04-04T16:08:32Z</time>
      </trkpt>
      <trkpt lat="43.65223" lon="1.38437">
        <ele>142</ele>
        <time>2024-04-04T16:08:33Z</time>
      </trkpt>
      <trkpt lat="43.65224" lon="1.3844">
        <ele>142</ele>
        <time>2024-04-04T16:08:34Z</time>
      </trkpt>
      <trkpt lat="43.65225" lon="1.38443">
        <ele>142</ele>
        <time>2024-04-04T16:08:35Z</time>
      </trkpt>
      <trkpt lat="43.65226" lon="1.38445">
        <ele>142</ele>
        <time>2024-04-04T16:08:36Z</time>
      </trkpt>
      <trkpt lat="43.65227" lon="1.38448">
        <ele>142</ele>
        <time>2024-04-04T16:08:37Z</time>
      </trkpt>
      <trkpt lat="43.65228" lon="1.38451">
        <ele>142</ele>
        <time>2024-04-04T16:08:38Z</time>
      </trkpt>
      <trkpt lat="43.65229" lon="1.38454">
        <ele>142</ele>
        <time>2024-04-04T16:08:39Z</time>
      </trkpt>
      <trkpt lat="43.65229" lon="1.38457">
        <ele>142</ele>
        <time>2024-04-04T16:08:40Z</time>
      </trkpt>
      <trkpt lat="43.6523" lon="1.3846">
        <ele>142</ele>
        <time>2024-04-04T16:08:41Z</time>
      </trkpt>
      <trkpt lat="43.65231" lon="1.38462">
        <ele>142</ele>
        <time>2024-04-04T16:08:42Z</time>
      </trkpt>
      <trkpt lat="43.65231" lon="1.38465">
        <ele>142</ele>
        <time>2024-04-04T16:08:43Z</time>
      </trkpt>
      <trkpt lat="43.65232" lon="1.38469">
        <ele>142</ele>
        <time>2024-04-04T16:08:44Z</time>
      </trkpt>
      <trkpt lat="43.65234" lon="1.38472">
        <ele>142</ele>
        <time>2024-04-04T16:08:45Z</time>
      </trkpt>
      <trkpt lat="43.65234" lon="1.38475">
        <ele>142</ele>
        <time>2024-04-04T16:08:46Z</time>
      </trkpt>
      <trkpt lat="43.65235" lon="1.38478">
        <ele>142</ele>
        <time>2024-04-04T16:08:47Z</time>
      </trkpt>
      <trkpt lat="43.65236" lon="1.38482">
        <ele>142</ele>
        <time>2024-04-04T16:08:48Z</time>
      </trkpt>
      <trkpt lat="43.65238" lon="1.38485">
        <ele>142</ele>
        <time>2024-04-04T16:08:49Z</time>
      </trkpt>
      <trkpt lat="43.65238" lon="1.38488">
        <ele>142</ele>
        <time>2024-04-04T16:08:50Z</time>
      </trkpt>
      <trkpt lat="43.65239" lon="1.38492">
        <ele>142</ele>
        <time>2024-04-04T16:08:51Z</time>
      </trkpt>
      <trkpt lat="43.6524" lon="1.38496">
        <ele>142</ele>
        <time>2024-04-04T16:08:52Z</time>
      </trkpt>
      <trkpt lat="43.6524" lon="1.385">
        <ele>142</ele>
        <time>2024-04-04T16:08:53Z</time>
      </trkpt>
      <trkpt lat="43.65241" lon="1.38503">
        <ele>142</ele>
        <time>2024-04-04T16:08:54Z</time>
      </trkpt>
      <trkpt lat="43.65242" lon="1.38506">
        <ele>142</ele>
        <time>2024-04-04T16:08:55Z</time>
      </trkpt>
      <trkpt lat="43.65243" lon="1.38509">
        <ele>142</ele>
        <time>2024-04-04T16:08:56Z</time>
      </trkpt>
      <trkpt lat="43.65244" lon="1.38513">
        <ele>142</ele>
        <time>2024-04-04T16:08:57Z</time>
      </trkpt>
      <trkpt lat="43.65245" lon="1.38517">
        <ele>142</ele>
        <time>2024-04-04T16:08:58Z</time>
      </trkpt>
      <trkpt lat="43.65247" lon="1.3852">
        <ele>142</ele>
        <time>2024-04-04T16:08:59Z</time>
      </trkpt>
      <trkpt lat="43.65248" lon="1.38524">
        <ele>142</ele>
        <time>2024-04-04T16:09:00Z</time>
      </trkpt>
      <trkpt lat="43.65249" lon="1.38527">
        <ele>142</ele>
        <time>2024-04-04T16:09:01Z</time>
      </trkpt>
      <trkpt lat="43.6525" lon="1.3853">
        <ele>142</ele>
        <time>2024-04-04T16:09:02Z</time>
      </trkpt>
      <trkpt lat="43.65251" lon="1.38532">
        <ele>142</ele>
        <time>2024-04-04T16:09:03Z</time>
      </trkpt>
      <trkpt lat="43.65253" lon="1.38535">
        <ele>142</ele>
        <time>2024-04-04T16:09:04Z</time>
      </trkpt>
      <trkpt lat="43.65253" lon="1.38539">
        <ele>142</ele>
        <time>2024-04-04T16:09:05Z</time>
      </trkpt>
      <trkpt lat="43.65254" lon="1.38542">
        <ele>142</ele>
        <time>2024-04-04T16:09:06Z</time>
      </trkpt>
      <trkpt lat="43.65254" lon="1.38545">
        <ele>141</ele>
        <time>2024-04-04T16:09:07Z</time>
      </trkpt>
      <trkpt lat="43.65256" lon="1.38549">
        <ele>141</ele>
        <time>2024-04-04T16:09:08Z</time>
      </trkpt>
      <trkpt lat="43.65257" lon="1.38552">
        <ele>141</ele>
        <time>2024-04-04T16:09:09Z</time>
      </trkpt>
      <trkpt lat="43.65258" lon="1.38556">
        <ele>141</ele>
        <time>2024-04-04T16:09:10Z</time>
      </trkpt>
      <trkpt lat="43.65259" lon="1.3856">
        <ele>142</ele>
        <time>2024-04-04T16:09:11Z</time>
      </trkpt>
      <trkpt lat="43.6526" lon="1.38564">
        <ele>142</ele>
        <time>2024-04-04T16:09:12Z</time>
      </trkpt>
      <trkpt lat="43.65261" lon="1.38567">
        <ele>142</ele>
        <time>2024-04-04T16:09:13Z</time>
      </trkpt>
      <trkpt lat="43.65261" lon="1.3857">
        <ele>142</ele>
        <time>2024-04-04T16:09:14Z</time>
      </trkpt>
      <trkpt lat="43.65262" lon="1.38573">
        <ele>142</ele>
        <time>2024-04-04T16:09:15Z</time>
      </trkpt>
      <trkpt lat="43.65264" lon="1.38577">
        <ele>142</ele>
        <time>2024-04-04T16:09:16Z</time>
      </trkpt>
      <trkpt lat="43.65265" lon="1.3858">
        <ele>142</ele>
        <time>2024-04-04T16:09:17Z</time>
      </trkpt>
      <trkpt lat="43.65266" lon="1.38584">
        <ele>142</ele>
        <time>2024-04-04T16:09:18Z</time>
      </trkpt>
      <trkpt lat="43.65268" lon="1.38587">
        <ele>142</ele>
        <time>2024-04-04T16:09:19Z</time>
      </trkpt>
      <trkpt lat="43.65269" lon="1.3859">
        <ele>142</ele>
        <time>2024-04-04T16:09:20Z</time>
      </trkpt>
      <trkpt lat="43.65271" lon="1.38593">
        <ele>142</ele>
        <time>2024-04-04T16:09:21Z</time>
      </trkpt>
      <trkpt lat="43.65272" lon="1.38597">
        <ele>141</ele>
        <time>2024-04-04T16:09:22Z</time>
      </trkpt>
      <trkpt lat="43.65274" lon="1.386">
        <ele>142</ele>
        <time>2024-04-04T16:09:23Z</time>
      </trkpt>
      <trkpt lat="43.65276" lon="1.38603">
        <ele>142</ele>
        <time>2024-04-04T16:09:24Z</time>
      </trkpt>
      <trkpt lat="43.65278" lon="1.38606">
        <ele>142</ele>
        <time>2024-04-04T16:09:25Z</time>
      </trkpt>
      <trkpt lat="43.65279" lon="1.38609">
        <ele>142</ele>
        <time>2024-04-04T16:09:26Z</time>
      </trkpt>
      <trkpt lat="43.6528" lon="1.38612">
        <ele>142</ele>
        <time>2024-04-04T16:09:27Z</time>
      </trkpt>
      <trkpt lat="43.65282" lon="1.38614">
        <ele>142</ele>
        <time>2024-04-04T16:09:28Z</time>
      </trkpt>
      <trkpt lat="43.65283" lon="1.38617">
        <ele>142</ele>
        <time>2024-04-04T16:09:29Z</time>
      </trkpt>
      <trkpt lat="43.65283" lon="1.38617">
        <ele>142</ele>
        <time>2024-04-04T16:09:30Z</time>
      </trkpt>
      <trkpt lat="43.65287" lon="1.38623">
        <ele>142</ele>
        <time>2024-04-04T16:09:31Z</time>
      </trkpt>
      <trkpt lat="43.65288" lon="1.38625">
        <ele>142</ele>
        <time>2024-04-04T16:09:32Z</time>
      </trkpt>
      <trkpt lat="43.65289" lon="1.38627">
        <ele>142</ele>
        <time>2024-04-04T16:09:33Z</time>
      </trkpt>
      <trkpt lat="43.65291" lon="1.38631">
        <ele>142</ele>
        <time>2024-04-04T16:09:34Z</time>
      </trkpt>
      <trkpt lat="43.65292" lon="1.38634">
        <ele>142</ele>
        <time>2024-04-04T16:09:35Z</time>
      </trkpt>
      <trkpt lat="43.65294" lon="1.38637">
        <ele>142</ele>
        <time>2024-04-04T16:09:36Z</time>
      </trkpt>
      <trkpt lat="43.65295" lon="1.3864">
        <ele>142</ele>
        <time>2024-04-04T16:09:37Z</time>
      </trkpt>
      <trkpt lat="43.65297" lon="1.38643">
        <ele>142</ele>
        <time>2024-04-04T16:09:38Z</time>
      </trkpt>
      <trkpt lat="43.65298" lon="1.38647">
        <ele>142</ele>
        <time>2024-04-04T16:09:39Z</time>
      </trkpt>
      <trkpt lat="43.653" lon="1.3865">
        <ele>142</ele>
        <time>2024-04-04T16:09:40Z</time>
      </trkpt>
      <trkpt lat="43.65301" lon="1.38653">
        <ele>142</ele>
        <time>2024-04-04T16:09:41Z</time>
      </trkpt>
      <trkpt lat="43.65302" lon="1.38657">
        <ele>142</ele>
        <time>2024-04-04T16:09:42Z</time>
      </trkpt>
      <trkpt lat="43.65303" lon="1.3866">
        <ele>142</ele>
        <time>2024-04-04T16:09:43Z</time>
      </trkpt>
      <trkpt lat="43.65304" lon="1.38663">
        <ele>142</ele>
        <time>2024-04-04T16:09:44Z</time>
      </trkpt>
      <trkpt lat="43.65305" lon="1.38667">
        <ele>142</ele>
        <time>2024-04-04T16:09:45Z</time>
      </trkpt>
      <trkpt lat="43.65306" lon="1.3867">
        <ele>142</ele>
        <time>2024-04-04T16:09:46Z</time>
      </trkpt>
      <trkpt lat="43.65308" lon="1.38674">
        <ele>142</ele>
        <time>2024-04-04T16:09:47Z</time>
      </trkpt>
      <trkpt lat="43.65309" lon="1.38677">
        <ele>142</ele>
        <time>2024-04-04T16:09:48Z</time>
      </trkpt>
      <trkpt lat="43.6531" lon="1.3868">
        <ele>142</ele>
        <time>2024-04-04T16:09:49Z</time>
      </trkpt>
      <trkpt lat="43.65311" lon="1.38683">
        <ele>142</ele>
        <time>2024-04-04T16:09:50Z</time>
      </trkpt>
      <trkpt lat="43.65311" lon="1.38686">
        <ele>142</ele>
        <time>2024-04-04T16:09:51Z</time>
      </trkpt>
      <trkpt lat="43.65313" lon="1.3869">
        <ele>142</ele>
        <time>2024-04-04T16:09:52Z</time>
      </trkpt>
      <trkpt lat="43.65314" lon="1.38693">
        <ele>142</ele>
        <time>2024-04-04T16:09:53Z</time>
      </trkpt>
      <trkpt lat="43.65315" lon="1.38697">
        <ele>142</ele>
        <time>2024-04-04T16:09:54Z</time>
      </trkpt>
      <trkpt lat="43.65316" lon="1.387">
        <ele>142</ele>
        <time>2024-04-04T16:09:55Z</time>
      </trkpt>
      <trkpt lat="43.65317" lon="1.38703">
        <ele>141</ele>
        <time>2024-04-04T16:09:56Z</time>
      </trkpt>
      <trkpt lat="43.65317" lon="1.38707">
        <ele>141</ele>
        <time>2024-04-04T16:09:57Z</time>
      </trkpt>
      <trkpt lat="43.65319" lon="1.3871">
        <ele>141</ele>
        <time>2024-04-04T16:09:58Z</time>
      </trkpt>
      <trkpt lat="43.6532" lon="1.38714">
        <ele>141</ele>
        <time>2024-04-04T16:09:59Z</time>
      </trkpt>
      <trkpt lat="43.65321" lon="1.38717">
        <ele>141</ele>
        <time>2024-04-04T16:10:00Z</time>
      </trkpt>
      <trkpt lat="43.65322" lon="1.3872">
        <ele>142</ele>
        <time>2024-04-04T16:10:01Z</time>
      </trkpt>
      <trkpt lat="43.65323" lon="1.38723">
        <ele>142</ele>
        <time>2024-04-04T16:10:02Z</time>
      </trkpt>
      <trkpt lat="43.65324" lon="1.38726">
        <ele>142</ele>
        <time>2024-04-04T16:10:03Z</time>
      </trkpt>
      <trkpt lat="43.65325" lon="1.3873">
        <ele>142</ele>
        <time>2024-04-04T16:10:04Z</time>
      </trkpt>
      <trkpt lat="43.65327" lon="1.38734">
        <ele>142</ele>
        <time>2024-04-04T16:10:05Z</time>
      </trkpt>
      <trkpt lat="43.65327" lon="1.38737">
        <ele>142</ele>
        <time>2024-04-04T16:10:06Z</time>
      </trkpt>
      <trkpt lat="43.65328" lon="1.3874">
        <ele>142</ele>
        <time>2024-04-04T16:10:07Z</time>
      </trkpt>
      <trkpt lat="43.6533" lon="1.38744">
        <ele>142</ele>
        <time>2024-04-04T16:10:08Z</time>
      </trkpt>
      <trkpt lat="43.65331" lon="1.38748">
        <ele>142</ele>
        <time>2024-04-04T16:10:09Z</time>
      </trkpt>
      <trkpt lat="43.65332" lon="1.38751">
        <ele>142</ele>
        <time>2024-04-04T16:10:10Z</time>
      </trkpt>
      <trkpt lat="43.65333" lon="1.38755">
        <ele>142</ele>
        <time>2024-04-04T16:10:11Z</time>
      </trkpt>
      <trkpt lat="43.65334" lon="1.38758">
        <ele>142</ele>
        <time>2024-04-04T16:10:12Z</time>
      </trkpt>
      <trkpt lat="43.65335" lon="1.38762">
        <ele>142</ele>
        <time>2024-04-04T16:10:13Z</time>
      </trkpt>
      <trkpt lat="43.65335" lon="1.38765">
        <ele>142</ele>
        <time>2024-04-04T16:10:14Z</time>
      </trkpt>
      <trkpt lat="43.65336" lon="1.38768">
        <ele>142</ele>
        <time>2024-04-04T16:10:15Z</time>
      </trkpt>
      <trkpt lat="43.65337" lon="1.38772">
        <ele>142</ele>
        <time>2024-04-04T16:10:16Z</time>
      </trkpt>
      <trkpt lat="43.65338" lon="1.38775">
        <ele>142</ele>
        <time>2024-04-04T16:10:17Z</time>
      </trkpt>
      <trkpt lat="43.65338" lon="1.38779">
        <ele>142</ele>
        <time>2024-04-04T16:10:18Z</time>
      </trkpt>
      <trkpt lat="43.65339" lon="1.38782">
        <ele>142</ele>
        <time>2024-04-04T16:10:19Z</time>
      </trkpt>
      <trkpt lat="43.6534" lon="1.38786">
        <ele>142</ele>
        <time>2024-04-04T16:10:20Z</time>
      </trkpt>
      <trkpt lat="43.65341" lon="1.38789">
        <ele>142</ele>
        <time>2024-04-04T16:10:21Z</time>
      </trkpt>
      <trkpt lat="43.65341" lon="1.38792">
        <ele>143</ele>
        <time>2024-04-04T16:10:22Z</time>
      </trkpt>
      <trkpt lat="43.65342" lon="1.38795">
        <ele>143</ele>
        <time>2024-04-04T16:10:23Z</time>
      </trkpt>
      <trkpt lat="43.65343" lon="1.38798">
        <ele>143</ele>
        <time>2024-04-04T16:10:24Z</time>
      </trkpt>
      <trkpt lat="43.65344" lon="1.38801">
        <ele>143</ele>
        <time>2024-04-04T16:10:25Z</time>
      </trkpt>
      <trkpt lat="43.65345" lon="1.38804">
        <ele>143</ele>
        <time>2024-04-04T16:10:26Z</time>
      </trkpt>
      <trkpt lat="43.65346" lon="1.38807">
        <ele>143</ele>
        <time>2024-04-04T16:10:27Z</time>
      </trkpt>
      <trkpt lat="43.65348" lon="1.3881">
        <ele>143</ele>
        <time>2024-04-04T16:10:28Z</time>
      </trkpt>
      <trkpt lat="43.65349" lon="1.38813">
        <ele>143</ele>
        <time>2024-04-04T16:10:29Z</time>
      </trkpt>
      <trkpt lat="43.65351" lon="1.38815">
        <ele>143</ele>
        <time>2024-04-04T16:10:30Z</time>
      </trkpt>
      <trkpt lat="43.65352" lon="1.38818">
        <ele>143</ele>
        <time>2024-04-04T16:10:31Z</time>
      </trkpt>
      <trkpt lat="43.65353" lon="1.38821">
        <ele>143</ele>
        <time>2024-04-04T16:10:32Z</time>
      </trkpt>
      <trkpt lat="43.65354" lon="1.38824">
        <ele>143</ele>
        <time>2024-04-04T16:10:33Z</time>
      </trkpt>
      <trkpt lat="43.65356" lon="1.38827">
        <ele>143</ele>
        <time>2024-04-04T16:10:34Z</time>
      </trkpt>
      <trkpt lat="43.65357" lon="1.3883">
        <ele>143</ele>
        <time>2024-04-04T16:10:35Z</time>
      </trkpt>
      <trkpt lat="43.65359" lon="1.38833">
        <ele>143</ele>
        <time>2024-04-04T16:10:36Z</time>
      </trkpt>
      <trkpt lat="43.65361" lon="1.38835">
        <ele>143</ele>
        <time>2024-04-04T16:10:37Z</time>
      </trkpt>
      <trkpt lat="43.65362" lon="1.38838">
        <ele>143</ele>
        <time>2024-04-04T16:10:38Z</time>
      </trkpt>
      <trkpt lat="43.65364" lon="1.3884">
        <ele>143</ele>
        <time>2024-04-04T16:10:39Z</time>
      </trkpt>
      <trkpt lat="43.65366" lon="1.38842">
        <ele>143</ele>
        <time>2024-04-04T16:10:40Z</time>
      </trkpt>
      <trkpt lat="43.65368" lon="1.38844">
        <ele>143</ele>
        <time>2024-04-04T16:10:41Z</time>
      </trkpt>
      <trkpt lat="43.65369" lon="1.38845">
        <ele>143</ele>
        <time>2024-04-04T16:10:42Z</time>
      </trkpt>
      <trkpt lat="43.65371" lon="1.38847">
        <ele>142</ele>
        <time>2024-04-04T16:10:43Z</time>
      </trkpt>
      <trkpt lat="43.65373" lon="1.38849">
        <ele>142</ele>
        <time>2024-04-04T16:10:44Z</time>
      </trkpt>
      <trkpt lat="43.65376" lon="1.38849">
        <ele>142</ele>
        <time>2024-04-04T16:10:45Z</time>
      </trkpt>
      <trkpt lat="43.65376" lon="1.38849">
        <ele>142</ele>
        <time>2024-04-04T16:10:46Z</time>
      </trkpt>
      <trkpt lat="43.65379" lon="1.38849">
        <ele>142</ele>
        <time>2024-04-04T16:10:47Z</time>
      </trkpt>
      <trkpt lat="43.65379" lon="1.38849">
        <ele>142</ele>
        <time>2024-04-04T16:10:48Z</time>
      </trkpt>
      <trkpt lat="43.65382" lon="1.38849">
        <ele>142</ele>
        <time>2024-04-04T16:10:49Z</time>
      </trkpt>
      <trkpt lat="43.65382" lon="1.38849">
        <ele>142</ele>
        <time>2024-04-04T16:10:50Z</time>
      </trkpt>
      <trkpt lat="43.65387" lon="1.38849">
        <ele>142</ele>
        <time>2024-04-04T16:10:51Z</time>
      </trkpt>
      <trkpt lat="43.65387" lon="1.38849">
        <ele>142</ele>
        <time>2024-04-04T16:10:52Z</time>
      </trkpt>
      <trkpt lat="43.65392" lon="1.38848">
        <ele>142</ele>
        <time>2024-04-04T16:10:53Z</time>
      </trkpt>
      <trkpt lat="43.65394" lon="1.38848">
        <ele>142</ele>
        <time>2024-04-04T16:10:54Z</time>
      </trkpt>
      <trkpt lat="43.65397" lon="1.38849">
        <ele>142</ele>
        <time>2024-04-04T16:10:55Z</time>
      </trkpt>
      <trkpt lat="43.65401" lon="1.3885">
        <ele>142</ele>
        <time>2024-04-04T16:10:56Z</time>
      </trkpt>
      <trkpt lat="43.65405" lon="1.38853">
        <ele>142</ele>
        <time>2024-04-04T16:10:57Z</time>
      </trkpt>
      <trkpt lat="43.65408" lon="1.38857">
        <ele>142</ele>
        <time>2024-04-04T16:10:58Z</time>
      </trkpt>
      <trkpt lat="43.65408" lon="1.38857">
        <ele>142</ele>
        <time>2024-04-04T16:10:59Z</time>
      </trkpt>
      <trkpt lat="43.6541" lon="1.38861">
        <ele>141</ele>
        <time>2024-04-04T16:11:00Z</time>
      </trkpt>
      <trkpt lat="43.65412" lon="1.38866">
        <ele>141</ele>
        <time>2024-04-04T16:11:01Z</time>
      </trkpt>
      <trkpt lat="43.65415" lon="1.38871">
        <ele>141</ele>
        <time>2024-04-04T16:11:02Z</time>
      </trkpt>
      <trkpt lat="43.65417" lon="1.38875">
        <ele>141</ele>
        <time>2024-04-04T16:11:03Z</time>
      </trkpt>
      <trkpt lat="43.65419" lon="1.38879">
        <ele>140</ele>
        <time>2024-04-04T16:11:04Z</time>
      </trkpt>
      <trkpt lat="43.65419" lon="1.38882">
        <ele>140</ele>
        <time>2024-04-04T16:11:05Z</time>
      </trkpt>
      <trkpt lat="43.65421" lon="1.38885">
        <ele>139</ele>
        <time>2024-04-04T16:11:06Z</time>
      </trkpt>
      <trkpt lat="43.65422" lon="1.38889">
        <ele>139</ele>
        <time>2024-04-04T16:11:07Z</time>
      </trkpt>
      <trkpt lat="43.65424" lon="1.38892">
        <ele>139</ele>
        <time>2024-04-04T16:11:08Z</time>
      </trkpt>
      <trkpt lat="43.65426" lon="1.38895">
        <ele>138</ele>
        <time>2024-04-04T16:11:09Z</time>
      </trkpt>
      <trkpt lat="43.65428" lon="1.38899">
        <ele>138</ele>
        <time>2024-04-04T16:11:10Z</time>
      </trkpt>
      <trkpt lat="43.6543" lon="1.38901">
        <ele>138</ele>
        <time>2024-04-04T16:11:11Z</time>
      </trkpt>
      <trkpt lat="43.65433" lon="1.38905">
        <ele>138</ele>
        <time>2024-04-04T16:11:12Z</time>
      </trkpt>
      <trkpt lat="43.65436" lon="1.38908">
        <ele>138</ele>
        <time>2024-04-04T16:11:13Z</time>
      </trkpt>
      <trkpt lat="43.65438" lon="1.38911">
        <ele>137</ele>
        <time>2024-04-04T16:11:14Z</time>
      </trkpt>
      <trkpt lat="43.6544" lon="1.38914">
        <ele>137</ele>
        <time>2024-04-04T16:11:15Z</time>
      </trkpt>
      <trkpt lat="43.65442" lon="1.38918">
        <ele>137</ele>
        <time>2024-04-04T16:11:16Z</time>
      </trkpt>
      <trkpt lat="43.65444" lon="1.38922">
        <ele>136</ele>
        <time>2024-04-04T16:11:17Z</time>
      </trkpt>
      <trkpt lat="43.65446" lon="1.38925">
        <ele>136</ele>
        <time>2024-04-04T16:11:18Z</time>
      </trkpt>
      <trkpt lat="43.65448" lon="1.38928">
        <ele>136</ele>
        <time>2024-04-04T16:11:19Z</time>
      </trkpt>
      <trkpt lat="43.65451" lon="1.38931">
        <ele>135</ele>
        <time>2024-04-04T16:11:20Z</time>
      </trkpt>
      <trkpt lat="43.65453" lon="1.38935">
        <ele>135</ele>
        <time>2024-04-04T16:11:21Z</time>
      </trkpt>
      <trkpt lat="43.65455" lon="1.38938">
        <ele>134</ele>
        <time>2024-04-04T16:11:22Z</time>
      </trkpt>
      <trkpt lat="43.65456" lon="1.38942">
        <ele>133</ele>
        <time>2024-04-04T16:11:23Z</time>
      </trkpt>
      <trkpt lat="43.65458" lon="1.38946">
        <ele>132</ele>
        <time>2024-04-04T16:11:24Z</time>
      </trkpt>
      <trkpt lat="43.6546" lon="1.3895">
        <ele>131</ele>
        <time>2024-04-04T16:11:25Z</time>
      </trkpt>
      <trkpt lat="43.65462" lon="1.38954">
        <ele>131</ele>
        <time>2024-04-04T16:11:26Z</time>
      </trkpt>
      <trkpt lat="43.65463" lon="1.38957">
        <ele>131</ele>
        <time>2024-04-04T16:11:27Z</time>
      </trkpt>
      <trkpt lat="43.65465" lon="1.38961">
        <ele>131</ele>
        <time>2024-04-04T16:11:28Z</time>
      </trkpt>
      <trkpt lat="43.65467" lon="1.38965">
        <ele>131</ele>
        <time>2024-04-04T16:11:29Z</time>
      </trkpt>
      <trkpt lat="43.6547" lon="1.38969">
        <ele>130</ele>
        <time>2024-04-04T16:11:30Z</time>
      </trkpt>
      <trkpt lat="43.65472" lon="1.38972">
        <ele>130</ele>
        <time>2024-04-04T16:11:31Z</time>
      </trkpt>
      <trkpt lat="43.65473" lon="1.38977">
        <ele>130</ele>
        <time>2024-04-04T16:11:32Z</time>
      </trkpt>
      <trkpt lat="43.65474" lon="1.3898">
        <ele>130</ele>
        <time>2024-04-04T16:11:33Z</time>
      </trkpt>
      <trkpt lat="43.65475" lon="1.38984">
        <ele>130</ele>
        <time>2024-04-04T16:11:34Z</time>
      </trkpt>
      <trkpt lat="43.65477" lon="1.38987">
        <ele>130</ele>
        <time>2024-04-04T16:11:35Z</time>
      </trkpt>
      <trkpt lat="43.65478" lon="1.3899">
        <ele>130</ele>
        <time>2024-04-04T16:11:36Z</time>
      </trkpt>
      <trkpt lat="43.65478" lon="1.3899">
        <ele>130</ele>
        <time>2024-04-04T16:11:37Z</time>
      </trkpt>
      <trkpt lat="43.6548" lon="1.38993">
        <ele>130</ele>
        <time>2024-04-04T16:11:38Z</time>
      </trkpt>
      <trkpt lat="43.65482" lon="1.38996">
        <ele>130</ele>
        <time>2024-04-04T16:11:39Z</time>
      </trkpt>
      <trkpt lat="43.65482" lon="1.38996">
        <ele>130</ele>
        <time>2024-04-04T16:11:40Z</time>
      </trkpt>
      <trkpt lat="43.65482" lon="1.38998">
        <ele>130</ele>
        <time>2024-04-04T16:11:41Z</time>
      </trkpt>
      <trkpt lat="43.65482" lon="1.38998">
        <ele>130</ele>
        <time>2024-04-04T16:11:42Z</time>
      </trkpt>
      <trkpt lat="43.65482" lon="1.39001">
        <ele>130</ele>
        <time>2024-04-04T16:11:43Z</time>
      </trkpt>
      <trkpt lat="43.65482" lon="1.39001">
        <ele>130</ele>
        <time>2024-04-04T16:11:44Z</time>
      </trkpt>
      <trkpt lat="43.65484" lon="1.39003">
        <ele>130</ele>
        <time>2024-04-04T16:11:45Z</time>
      </trkpt>
      <trkpt lat="43.65486" lon="1.39006">
        <ele>130</ele>
        <time>2024-04-04T16:11:46Z</time>
      </trkpt>
      <trkpt lat="43.65488" lon="1.39009">
        <ele>130</ele>
        <time>2024-04-04T16:11:47Z</time>
      </trkpt>
      <trkpt lat="43.65491" lon="1.39011">
        <ele>130</ele>
        <time>2024-04-04T16:11:48Z</time>
      </trkpt>
      <trkpt lat="43.65494" lon="1.39012">
        <ele>130</ele>
        <time>2024-04-04T16:11:49Z</time>
      </trkpt>
      <trkpt lat="43.65497" lon="1.39014">
        <ele>130</ele>
        <time>2024-04-04T16:11:50Z</time>
      </trkpt>
      <trkpt lat="43.65499" lon="1.39016">
        <ele>130</ele>
        <time>2024-04-04T16:11:51Z</time>
      </trkpt>
      <trkpt lat="43.65501" lon="1.39018">
        <ele>130</ele>
        <time>2024-04-04T16:11:52Z</time>
      </trkpt>
      <trkpt lat="43.65504" lon="1.39019">
        <ele>130</ele>
        <time>2024-04-04T16:11:53Z</time>
      </trkpt>
      <trkpt lat="43.65505" lon="1.3902">
        <ele>130</ele>
        <time>2024-04-04T16:11:54Z</time>
      </trkpt>
      <trkpt lat="43.65508" lon="1.39022">
        <ele>130</ele>
        <time>2024-04-04T16:11:55Z</time>
      </trkpt>
      <trkpt lat="43.6551" lon="1.39023">
        <ele>130</ele>
        <time>2024-04-04T16:11:56Z</time>
      </trkpt>
      <trkpt lat="43.65512" lon="1.39024">
        <ele>130</ele>
        <time>2024-04-04T16:11:57Z</time>
      </trkpt>
      <trkpt lat="43.65515" lon="1.39025">
        <ele>130</ele>
        <time>2024-04-04T16:11:58Z</time>
      </trkpt>
      <trkpt lat="43.65518" lon="1.39027">
        <ele>130</ele>
        <time>2024-04-04T16:11:59Z</time>
      </trkpt>
      <trkpt lat="43.6552" lon="1.39029">
        <ele>130</ele>
        <time>2024-04-04T16:12:00Z</time>
      </trkpt>
      <trkpt lat="43.65523" lon="1.39031">
        <ele>130</ele>
        <time>2024-04-04T16:12:01Z</time>
      </trkpt>
      <trkpt lat="43.65525" lon="1.39032">
        <ele>130</ele>
        <time>2024-04-04T16:12:02Z</time>
      </trkpt>
      <trkpt lat="43.65528" lon="1.39033">
        <ele>129</ele>
        <time>2024-04-04T16:12:03Z</time>
      </trkpt>
      <trkpt lat="43.65531" lon="1.39034">
        <ele>129</ele>
        <time>2024-04-04T16:12:04Z</time>
      </trkpt>
      <trkpt lat="43.65534" lon="1.39035">
        <ele>129</ele>
        <time>2024-04-04T16:12:05Z</time>
      </trkpt>
      <trkpt lat="43.65537" lon="1.39037">
        <ele>129</ele>
        <time>2024-04-04T16:12:06Z</time>
      </trkpt>
      <trkpt lat="43.65539" lon="1.39038">
        <ele>128</ele>
        <time>2024-04-04T16:12:07Z</time>
      </trkpt>
      <trkpt lat="43.65542" lon="1.3904">
        <ele>128</ele>
        <time>2024-04-04T16:12:08Z</time>
      </trkpt>
      <trkpt lat="43.65544" lon="1.39041">
        <ele>128</ele>
        <time>2024-04-04T16:12:09Z</time>
      </trkpt>
      <trkpt lat="43.65547" lon="1.39043">
        <ele>128</ele>
        <time>2024-04-04T16:12:10Z</time>
      </trkpt>
      <trkpt lat="43.6555" lon="1.39046">
        <ele>128</ele>
        <time>2024-04-04T16:12:11Z</time>
      </trkpt>
      <trkpt lat="43.65553" lon="1.39047">
        <ele>128</ele>
        <time>2024-04-04T16:12:12Z</time>
      </trkpt>
      <trkpt lat="43.65556" lon="1.39049">
        <ele>128</ele>
        <time>2024-04-04T16:12:13Z</time>
      </trkpt>
      <trkpt lat="43.65559" lon="1.39051">
        <ele>128</ele>
        <time>2024-04-04T16:12:14Z</time>
      </trkpt>
      <trkpt lat="43.65562" lon="1.39052">
        <ele>128</ele>
        <time>2024-04-04T16:12:15Z</time>
      </trkpt>
      <trkpt lat="43.65565" lon="1.39054">
        <ele>128</ele>
        <time>2024-04-04T16:12:16Z</time>
      </trkpt>
      <trkpt lat="43.65567" lon="1.39055">
        <ele>128</ele>
        <time>2024-04-04T16:12:17Z</time>
      </trkpt>
      <trkpt lat="43.6557" lon="1.39057">
        <ele>129</ele>
        <time>2024-04-04T16:12:18Z</time>
      </trkpt>
      <trkpt lat="43.65572" lon="1.39059">
        <ele>129</ele>
        <time>2024-04-04T16:12:19Z</time>
      </trkpt>
      <trkpt lat="43.65575" lon="1.39061">
        <ele>129</ele>
        <time>2024-04-04T16:12:20Z</time>
      </trkpt>
      <trkpt lat="43.65577" lon="1.39063">
        <ele>129</ele>
        <time>2024-04-04T16:12:21Z</time>
      </trkpt>
      <trkpt lat="43.6558" lon="1.39065">
        <ele>128</ele>
        <time>2024-04-04T16:12:22Z</time>
      </trkpt>
      <trkpt lat="43.65583" lon="1.39066">
        <ele>128</ele>
        <time>2024-04-04T16:12:23Z</time>
      </trkpt>
      <trkpt lat="43.65585" lon="1.39067">
        <ele>128</ele>
        <time>2024-04-04T16:12:24Z</time>
      </trkpt>
      <trkpt lat="43.65587" lon="1.39069">
        <ele>128</ele>
        <time>2024-04-04T16:12:25Z</time>
      </trkpt>
      <trkpt lat="43.65589" lon="1.3907">
        <ele>128</ele>
        <time>2024-04-04T16:12:26Z</time>
      </trkpt>
      <trkpt lat="43.65591" lon="1.39072">
        <ele>128</ele>
        <time>2024-04-04T16:12:27Z</time>
      </trkpt>
      <trkpt lat="43.65594" lon="1.39073">
        <ele>128</ele>
        <time>2024-04-04T16:12:28Z</time>
      </trkpt>
      <trkpt lat="43.65596" lon="1.39074">
        <ele>128</ele>
        <time>2024-04-04T16:12:29Z</time>
      </trkpt>
      <trkpt lat="43.65598" lon="1.39075">
        <ele>128</ele>
        <time>2024-04-04T16:12:30Z</time>
      </trkpt>
      <trkpt lat="43.656" lon="1.39077">
        <ele>128</ele>
        <time>2024-04-04T16:12:31Z</time>
      </trkpt>
      <trkpt lat="43.65603" lon="1.39078">
        <ele>128</ele>
        <time>2024-04-04T16:12:32Z</time>
      </trkpt>
      <trkpt lat="43.65605" lon="1.3908">
        <ele>128</ele>
        <time>2024-04-04T16:12:33Z</time>
      </trkpt>
      <trkpt lat="43.65607" lon="1.39081">
        <ele>129</ele>
        <time>2024-04-04T16:12:34Z</time>
      </trkpt>
      <trkpt lat="43.6561" lon="1.39082">
        <ele>129</ele>
        <time>2024-04-04T16:12:35Z</time>
      </trkpt>
      <trkpt lat="43.65612" lon="1.39084">
        <ele>129</ele>
        <time>2024-04-04T16:12:36Z</time>
      </trkpt>
      <trkpt lat="43.65615" lon="1.39086">
        <ele>129</ele>
        <time>2024-04-04T16:12:37Z</time>
      </trkpt>
      <trkpt lat="43.65617" lon="1.39087">
        <ele>129</ele>
        <time>2024-04-04T16:12:38Z</time>
      </trkpt>
      <trkpt lat="43.65619" lon="1.39089">
        <ele>129</ele>
        <time>2024-04-04T16:12:39Z</time>
      </trkpt>
      <trkpt lat="43.65621" lon="1.3909">
        <ele>129</ele>
        <time>2024-04-04T16:12:40Z</time>
      </trkpt>
      <trkpt lat="43.65624" lon="1.39092">
        <ele>129</ele>
        <time>2024-04-04T16:12:41Z</time>
      </trkpt>
      <trkpt lat="43.65626" lon="1.39094">
        <ele>129</ele>
        <time>2024-04-04T16:12:42Z</time>
      </trkpt>
      <trkpt lat="43.65628" lon="1.39096">
        <ele>129</ele>
        <time>2024-04-04T16:12:43Z</time>
      </trkpt>
      <trkpt lat="43.65631" lon="1.39097">
        <ele>129</ele>
        <time>2024-04-04T16:12:44Z</time>
      </trkpt>
      <trkpt lat="43.65633" lon="1.39098">
        <ele>129</ele>
        <time>2024-04-04T16:12:45Z</time>
      </trkpt>
      <trkpt lat="43.65635" lon="1.391">
        <ele>128</ele>
        <time>2024-04-04T16:12:46Z</time>
      </trkpt>
      <trkpt lat="43.65637" lon="1.39101">
        <ele>128</ele>
        <time>2024-04-04T16:12:47Z</time>
      </trkpt>
      <trkpt lat="43.6564" lon="1.39103">
        <ele>128</ele>
        <time>2024-04-04T16:12:48Z</time>
      </trkpt>
      <trkpt lat="43.65642" lon="1.39104">
        <ele>128</ele>
        <time>2024-04-04T16:12:49Z</time>
      </trkpt>
      <trkpt lat="43.65645" lon="1.39106">
        <ele>128</ele>
        <time>2024-04-04T16:12:50Z</time>
      </trkpt>
      <trkpt lat="43.65648" lon="1.39108">
        <ele>128</ele>
        <time>2024-04-04T16:12:51Z</time>
      </trkpt>
      <trkpt lat="43.65651" lon="1.3911">
        <ele>128</ele>
        <time>2024-04-04T16:12:52Z</time>
      </trkpt>
      <trkpt lat="43.65653" lon="1.39111">
        <ele>128</ele>
        <time>2024-04-04T16:12:53Z</time>
      </trkpt>
      <trkpt lat="43.65656" lon="1.39114">
        <ele>129</ele>
        <time>2024-04-04T16:12:54Z</time>
      </trkpt>
      <trkpt lat="43.65658" lon="1.39115">
        <ele>129</ele>
        <time>2024-04-04T16:12:55Z</time>
      </trkpt>
      <trkpt lat="43.65661" lon="1.39117">
        <ele>129</ele>
        <time>2024-04-04T16:12:56Z</time>
      </trkpt>
      <trkpt lat="43.65663" lon="1.39118">
        <ele>129</ele>
        <time>2024-04-04T16:12:57Z</time>
      </trkpt>
      <trkpt lat="43.65666" lon="1.3912">
        <ele>129</ele>
        <time>2024-04-04T16:12:58Z</time>
      </trkpt>
      <trkpt lat="43.65669" lon="1.3912">
        <ele>129</ele>
        <time>2024-04-04T16:12:59Z</time>
      </trkpt>
      <trkpt lat="43.65671" lon="1.39121">
        <ele>128</ele>
        <time>2024-04-04T16:13:00Z</time>
      </trkpt>
      <trkpt lat="43.65673" lon="1.39121">
        <ele>128</ele>
        <time>2024-04-04T16:13:01Z</time>
      </trkpt>
      <trkpt lat="43.65676" lon="1.39121">
        <ele>128</ele>
        <time>2024-04-04T16:13:02Z</time>
      </trkpt>
      <trkpt lat="43.65679" lon="1.39122">
        <ele>128</ele>
        <time>2024-04-04T16:13:03Z</time>
      </trkpt>
      <trkpt lat="43.65681" lon="1.39124">
        <ele>128</ele>
        <time>2024-04-04T16:13:04Z</time>
      </trkpt>
      <trkpt lat="43.65684" lon="1.39126">
        <ele>128</ele>
        <time>2024-04-04T16:13:05Z</time>
      </trkpt>
      <trkpt lat="43.65686" lon="1.39129">
        <ele>128</ele>
        <time>2024-04-04T16:13:06Z</time>
      </trkpt>
      <trkpt lat="43.65689" lon="1.39131">
        <ele>128</ele>
        <time>2024-04-04T16:13:07Z</time>
      </trkpt>
      <trkpt lat="43.65692" lon="1.39133">
        <ele>128</ele>
        <time>2024-04-04T16:13:08Z</time>
      </trkpt>
      <trkpt lat="43.65694" lon="1.39135">
        <ele>128</ele>
        <time>2024-04-04T16:13:09Z</time>
      </trkpt>
      <trkpt lat="43.65697" lon="1.39136">
        <ele>128</ele>
        <time>2024-04-04T16:13:10Z</time>
      </trkpt>
      <trkpt lat="43.65699" lon="1.39138">
        <ele>128</ele>
        <time>2024-04-04T16:13:11Z</time>
      </trkpt>
      <trkpt lat="43.65701" lon="1.39139">
        <ele>127</ele>
        <time>2024-04-04T16:13:12Z</time>
      </trkpt>
      <trkpt lat="43.65703" lon="1.39141">
        <ele>127</ele>
        <time>2024-04-04T16:13:13Z</time>
      </trkpt>
      <trkpt lat="43.65705" lon="1.39143">
        <ele>127</ele>
        <time>2024-04-04T16:13:14Z</time>
      </trkpt>
      <trkpt lat="43.65707" lon="1.39145">
        <ele>127</ele>
        <time>2024-04-04T16:13:15Z</time>
      </trkpt>
      <trkpt lat="43.65708" lon="1.39147">
        <ele>128</ele>
        <time>2024-04-04T16:13:16Z</time>
      </trkpt>
      <trkpt lat="43.6571" lon="1.39148">
        <ele>128</ele>
        <time>2024-04-04T16:13:17Z</time>
      </trkpt>
      <trkpt lat="43.65712" lon="1.39148">
        <ele>127</ele>
        <time>2024-04-04T16:13:18Z</time>
      </trkpt>
      <trkpt lat="43.65715" lon="1.3915">
        <ele>127</ele>
        <time>2024-04-04T16:13:19Z</time>
      </trkpt>
      <trkpt lat="43.65718" lon="1.39151">
        <ele>127</ele>
        <time>2024-04-04T16:13:20Z</time>
      </trkpt>
      <trkpt lat="43.6572" lon="1.39152">
        <ele>128</ele>
        <time>2024-04-04T16:13:21Z</time>
      </trkpt>
      <trkpt lat="43.65722" lon="1.39154">
        <ele>128</ele>
        <time>2024-04-04T16:13:22Z</time>
      </trkpt>
      <trkpt lat="43.65724" lon="1.39155">
        <ele>128</ele>
        <time>2024-04-04T16:13:23Z</time>
      </trkpt>
      <trkpt lat="43.65727" lon="1.39157">
        <ele>128</ele>
        <time>2024-04-04T16:13:24Z</time>
      </trkpt>
      <trkpt lat="43.65729" lon="1.3916">
        <ele>128</ele>
        <time>2024-04-04T16:13:25Z</time>
      </trkpt>
      <trkpt lat="43.65731" lon="1.39162">
        <ele>128</ele>
        <time>2024-04-04T16:13:26Z</time>
      </trkpt>
      <trkpt lat="43.65733" lon="1.39163">
        <ele>128</ele>
        <time>2024-04-04T16:13:27Z</time>
      </trkpt>
      <trkpt lat="43.65735" lon="1.39165">
        <ele>128</ele>
        <time>2024-04-04T16:13:28Z</time>
      </trkpt>
      <trkpt lat="43.65737" lon="1.39166">
        <ele>127</ele>
        <time>2024-04-04T16:13:29Z</time>
      </trkpt>
      <trkpt lat="43.6574" lon="1.39168">
        <ele>127</ele>
        <time>2024-04-04T16:13:30Z</time>
      </trkpt>
      <trkpt lat="43.65742" lon="1.39169">
        <ele>127</ele>
        <time>2024-04-04T16:13:31Z</time>
      </trkpt>
      <trkpt lat="43.65744" lon="1.39171">
        <ele>127</ele>
        <time>2024-04-04T16:13:32Z</time>
      </trkpt>
      <trkpt lat="43.65746" lon="1.39173">
        <ele>127</ele>
        <time>2024-04-04T16:13:33Z</time>
      </trkpt>
      <trkpt lat="43.65749" lon="1.39175">
        <ele>128</ele>
        <time>2024-04-04T16:13:34Z</time>
      </trkpt>
      <trkpt lat="43.65752" lon="1.39177">
        <ele>129</ele>
        <time>2024-04-04T16:13:35Z</time>
      </trkpt>
      <trkpt lat="43.65754" lon="1.39179">
        <ele>129</ele>
        <time>2024-04-04T16:13:36Z</time>
      </trkpt>
      <trkpt lat="43.65757" lon="1.3918">
        <ele>129</ele>
        <time>2024-04-04T16:13:37Z</time>
      </trkpt>
      <trkpt lat="43.65761" lon="1.39182">
        <ele>129</ele>
        <time>2024-04-04T16:13:38Z</time>
      </trkpt>
      <trkpt lat="43.65765" lon="1.39185">
        <ele>129</ele>
        <time>2024-04-04T16:13:39Z</time>
      </trkpt>
      <trkpt lat="43.65767" lon="1.39188">
        <ele>129</ele>
        <time>2024-04-04T16:13:40Z</time>
      </trkpt>
      <trkpt lat="43.6577" lon="1.39191">
        <ele>129</ele>
        <time>2024-04-04T16:13:41Z</time>
      </trkpt>
      <trkpt lat="43.65773" lon="1.39193">
        <ele>129</ele>
        <time>2024-04-04T16:13:42Z</time>
      </trkpt>
      <trkpt lat="43.65777" lon="1.39196">
        <ele>129</ele>
        <time>2024-04-04T16:13:43Z</time>
      </trkpt>
      <trkpt lat="43.6578" lon="1.39198">
        <ele>129</ele>
        <time>2024-04-04T16:13:44Z</time>
      </trkpt>
      <trkpt lat="43.65782" lon="1.39201">
        <ele>129</ele>
        <time>2024-04-04T16:13:45Z</time>
      </trkpt>
      <trkpt lat="43.65784" lon="1.39204">
        <ele>129</ele>
        <time>2024-04-04T16:13:46Z</time>
      </trkpt>
      <trkpt lat="43.65786" lon="1.39206">
        <ele>129</ele>
        <time>2024-04-04T16:13:47Z</time>
      </trkpt>
      <trkpt lat="43.65788" lon="1.39208">
        <ele>129</ele>
        <time>2024-04-04T16:13:48Z</time>
      </trkpt>
      <trkpt lat="43.65791" lon="1.3921">
        <ele>128</ele>
        <time>2024-04-04T16:13:49Z</time>
      </trkpt>
      <trkpt lat="43.65792" lon="1.39211">
        <ele>128</ele>
        <time>2024-04-04T16:13:50Z</time>
      </trkpt>
      <trkpt lat="43.65796" lon="1.39211">
        <ele>128</ele>
        <time>2024-04-04T16:13:51Z</time>
      </trkpt>
      <trkpt lat="43.65799" lon="1.39212">
        <ele>127</ele>
        <time>2024-04-04T16:13:52Z</time>
      </trkpt>
      <trkpt lat="43.65799" lon="1.39212">
        <ele>127</ele>
        <time>2024-04-04T16:13:53Z</time>
      </trkpt>
      <trkpt lat="43.65802" lon="1.39214">
        <ele>127</ele>
        <time>2024-04-04T16:13:54Z</time>
      </trkpt>
      <trkpt lat="43.65804" lon="1.39215">
        <ele>127</ele>
        <time>2024-04-04T16:13:55Z</time>
      </trkpt>
      <trkpt lat="43.65806" lon="1.39216">
        <ele>126</ele>
        <time>2024-04-04T16:13:56Z</time>
      </trkpt>
      <trkpt lat="43.65808" lon="1.39217">
        <ele>126</ele>
        <time>2024-04-04T16:13:57Z</time>
      </trkpt>
      <trkpt lat="43.65811" lon="1.39219">
        <ele>126</ele>
        <time>2024-04-04T16:13:58Z</time>
      </trkpt>
      <trkpt lat="43.65813" lon="1.3922">
        <ele>126</ele>
        <time>2024-04-04T16:13:59Z</time>
      </trkpt>
      <trkpt lat="43.65813" lon="1.3922">
        <ele>126</ele>
        <time>2024-04-04T16:14:00Z</time>
      </trkpt>
      <trkpt lat="43.65817" lon="1.39222">
        <ele>126</ele>
        <time>2024-04-04T16:14:01Z</time>
      </trkpt>
      <trkpt lat="43.65819" lon="1.39223">
        <ele>126</ele>
        <time>2024-04-04T16:14:02Z</time>
      </trkpt>
      <trkpt lat="43.65821" lon="1.39223">
        <ele>127</ele>
        <time>2024-04-04T16:14:03Z</time>
      </trkpt>
      <trkpt lat="43.65824" lon="1.39224">
        <ele>127</ele>
        <time>2024-04-04T16:14:04Z</time>
      </trkpt>
      <trkpt lat="43.65827" lon="1.39225">
        <ele>127</ele>
        <time>2024-04-04T16:14:05Z</time>
      </trkpt>
      <trkpt lat="43.65829" lon="1.39227">
        <ele>127</ele>
        <time>2024-04-04T16:14:06Z</time>
      </trkpt>
      <trkpt lat="43.65831" lon="1.39228">
        <ele>127</ele>
        <time>2024-04-04T16:14:07Z</time>
      </trkpt>
      <trkpt lat="43.65833" lon="1.39229">
        <ele>126</ele>
        <time>2024-04-04T16:14:08Z</time>
      </trkpt>
      <trkpt lat="43.65836" lon="1.39231">
        <ele>127</ele>
        <time>2024-04-04T16:14:09Z</time>
      </trkpt>
      <trkpt lat="43.65838" lon="1.39232">
        <ele>127</ele>
        <time>2024-04-04T16:14:10Z</time>
      </trkpt>
      <trkpt lat="43.6584" lon="1.39234">
        <ele>127</ele>
        <time>2024-04-04T16:14:11Z</time>
      </trkpt>
      <trkpt lat="43.65843" lon="1.39236">
        <ele>127</ele>
        <time>2024-04-04T16:14:12Z</time>
      </trkpt>
      <trkpt lat="43.65844" lon="1.39237">
        <ele>126</ele>
        <time>2024-04-04T16:14:13Z</time>
      </trkpt>
      <trkpt lat="43.65847" lon="1.39239">
        <ele>126</ele>
        <time>2024-04-04T16:14:14Z</time>
      </trkpt>
      <trkpt lat="43.6585" lon="1.39242">
        <ele>126</ele>
        <time>2024-04-04T16:14:15Z</time>
      </trkpt>
      <trkpt lat="43.65853" lon="1.39244">
        <ele>126</ele>
        <time>2024-04-04T16:14:16Z</time>
      </trkpt>
      <trkpt lat="43.65855" lon="1.39245">
        <ele>126</ele>
        <time>2024-04-04T16:14:17Z</time>
      </trkpt>
      <trkpt lat="43.65857" lon="1.39247">
        <ele>126</ele>
        <time>2024-04-04T16:14:18Z</time>
      </trkpt>
      <trkpt lat="43.65859" lon="1.39247">
        <ele>126</ele>
        <time>2024-04-04T16:14:19Z</time>
      </trkpt>
      <trkpt lat="43.65862" lon="1.39247">
        <ele>126</ele>
        <time>2024-04-04T16:14:20Z</time>
      </trkpt>
      <trkpt lat="43.65865" lon="1.39247">
        <ele>126</ele>
        <time>2024-04-04T16:14:21Z</time>
      </trkpt>
      <trkpt lat="43.65868" lon="1.39246">
        <ele>126</ele>
        <time>2024-04-04T16:14:22Z</time>
      </trkpt>
      <trkpt lat="43.65871" lon="1.39246">
        <ele>126</ele>
        <time>2024-04-04T16:14:23Z</time>
      </trkpt>
      <trkpt lat="43.65874" lon="1.39246">
        <ele>126</ele>
        <time>2024-04-04T16:14:24Z</time>
      </trkpt>
      <trkpt lat="43.65876" lon="1.39247">
        <ele>126</ele>
        <time>2024-04-04T16:14:25Z</time>
      </trkpt>
      <trkpt lat="43.65879" lon="1.39247">
        <ele>126</ele>
        <time>2024-04-04T16:14:26Z</time>
      </trkpt>
      <trkpt lat="43.65881" lon="1.39248">
        <ele>126</ele>
        <time>2024-04-04T16:14:27Z</time>
      </trkpt>
      <trkpt lat="43.65884" lon="1.39249">
        <ele>126</ele>
        <time>2024-04-04T16:14:28Z</time>
      </trkpt>
      <trkpt lat="43.65886" lon="1.3925">
        <ele>126</ele>
        <time>2024-04-04T16:14:29Z</time>
      </trkpt>
      <trkpt lat="43.65889" lon="1.39251">
        <ele>127</ele>
        <time>2024-04-04T16:14:30Z</time>
      </trkpt>
      <trkpt lat="43.65891" lon="1.39251">
        <ele>127</ele>
        <time>2024-04-04T16:14:31Z</time>
      </trkpt>
      <trkpt lat="43.65894" lon="1.39251">
        <ele>126</ele>
        <time>2024-04-04T16:14:32Z</time>
      </trkpt>
      <trkpt lat="43.65897" lon="1.39251">
        <ele>126</ele>
        <time>2024-04-04T16:14:33Z</time>
      </trkpt>
      <trkpt lat="43.659" lon="1.39251">
        <ele>126</ele>
        <time>2024-04-04T16:14:34Z</time>
      </trkpt>
      <trkpt lat="43.65902" lon="1.39251">
        <ele>126</ele>
        <time>2024-04-04T16:14:35Z</time>
      </trkpt>
      <trkpt lat="43.65905" lon="1.39251">
        <ele>126</ele>
        <time>2024-04-04T16:14:36Z</time>
      </trkpt>
      <trkpt lat="43.65908" lon="1.39251">
        <ele>126</ele>
        <time>2024-04-04T16:14:37Z</time>
      </trkpt>
      <trkpt lat="43.6591" lon="1.39251">
        <ele>126</ele>
        <time>2024-04-04T16:14:38Z</time>
      </trkpt>
      <trkpt lat="43.65912" lon="1.39251">
        <ele>126</ele>
        <time>2024-04-04T16:14:39Z</time>
      </trkpt>
      <trkpt lat="43.65915" lon="1.39251">
        <ele>126</ele>
        <time>2024-04-04T16:14:40Z</time>
      </trkpt>
      <trkpt lat="43.65918" lon="1.39251">
        <ele>126</ele>
        <time>2024-04-04T16:14:41Z</time>
      </trkpt>
      <trkpt lat="43.65921" lon="1.39251">
        <ele>126</ele>
        <time>2024-04-04T16:14:42Z</time>
      </trkpt>
      <trkpt lat="43.65924" lon="1.39251">
        <ele>126</ele>
        <time>2024-04-04T16:14:43Z</time>
      </trkpt>
      <trkpt lat="43.65926" lon="1.39252">
        <ele>126</ele>
        <time>2024-04-04T16:14:44Z</time>
      </trkpt>
      <trkpt lat="43.65928" lon="1.39253">
        <ele>126</ele>
        <time>2024-04-04T16:14:45Z</time>
      </trkpt>
      <trkpt lat="43.65928" lon="1.39253">
        <ele>126</ele>
        <time>2024-04-04T16:14:46Z</time>
      </trkpt>
      <trkpt lat="43.6593" lon="1.39253">
        <ele>126</ele>
        <time>2024-04-04T16:14:47Z</time>
      </trkpt>
      <trkpt lat="43.6593" lon="1.39253">
        <ele>126</ele>
        <time>2024-04-04T16:14:48Z</time>
      </trkpt>
      <trkpt lat="43.6593" lon="1.39253">
        <ele>126</ele>
        <time>2024-04-04T16:14:49Z</time>
      </trkpt>
      <trkpt lat="43.6593" lon="1.39253">
        <ele>126</ele>
        <time>2024-04-04T16:14:50Z</time>
      </trkpt>
      <trkpt lat="43.6593" lon="1.39253">
        <ele>126</ele>
        <time>2024-04-04T16:14:51Z</time>
      </trkpt>
      <trkpt lat="43.65933" lon="1.39254">
        <ele>126</ele>
        <time>2024-04-04T16:14:52Z</time>
      </trkpt>
      <trkpt lat="43.65933" lon="1.39254">
        <ele>126</ele>
        <time>2024-04-04T16:14:53Z</time>
      </trkpt>
      <trkpt lat="43.65933" lon="1.39254">
        <ele>126</ele>
        <time>2024-04-04T16:14:54Z</time>
      </trkpt>
      <trkpt lat="43.65937" lon="1.39255">
        <ele>126</ele>
        <time>2024-04-04T16:14:55Z</time>
      </trkpt>
      <trkpt lat="43.6594" lon="1.39255">
        <ele>126</ele>
        <time>2024-04-04T16:14:56Z</time>
      </trkpt>
      <trkpt lat="43.65943" lon="1.39253">
        <ele>126</ele>
        <time>2024-04-04T16:14:57Z</time>
      </trkpt>
      <trkpt lat="43.65945" lon="1.39253">
        <ele>126</ele>
        <time>2024-04-04T16:14:58Z</time>
      </trkpt>
      <trkpt lat="43.65948" lon="1.39252">
        <ele>126</ele>
        <time>2024-04-04T16:14:59Z</time>
      </trkpt>
      <trkpt lat="43.65951" lon="1.39252">
        <ele>126</ele>
        <time>2024-04-04T16:15:00Z</time>
      </trkpt>
      <trkpt lat="43.65954" lon="1.39251">
        <ele>126</ele>
        <time>2024-04-04T16:15:01Z</time>
      </trkpt>
      <trkpt lat="43.65956" lon="1.39251">
        <ele>126</ele>
        <time>2024-04-04T16:15:02Z</time>
      </trkpt>
      <trkpt lat="43.65958" lon="1.3925">
        <ele>126</ele>
        <time>2024-04-04T16:15:03Z</time>
      </trkpt>
      <trkpt lat="43.6596" lon="1.39248">
        <ele>126</ele>
        <time>2024-04-04T16:15:04Z</time>
      </trkpt>
      <trkpt lat="43.65962" lon="1.39247">
        <ele>126</ele>
        <time>2024-04-04T16:15:05Z</time>
      </trkpt>
      <trkpt lat="43.65964" lon="1.39246">
        <ele>126</ele>
        <time>2024-04-04T16:15:06Z</time>
      </trkpt>
      <trkpt lat="43.65966" lon="1.39245">
        <ele>126</ele>
        <time>2024-04-04T16:15:07Z</time>
      </trkpt>
      <trkpt lat="43.65968" lon="1.39244">
        <ele>126</ele>
        <time>2024-04-04T16:15:08Z</time>
      </trkpt>
      <trkpt lat="43.65971" lon="1.39244">
        <ele>126</ele>
        <time>2024-04-04T16:15:09Z</time>
      </trkpt>
      <trkpt lat="43.65973" lon="1.39244">
        <ele>126</ele>
        <time>2024-04-04T16:15:10Z</time>
      </trkpt>
      <trkpt lat="43.65973" lon="1.39244">
        <ele>126</ele>
        <time>2024-04-04T16:15:11Z</time>
      </trkpt>
      <trkpt lat="43.65977" lon="1.39243">
        <ele>126</ele>
        <time>2024-04-04T16:15:12Z</time>
      </trkpt>
      <trkpt lat="43.65978" lon="1.39242">
        <ele>126</ele>
        <time>2024-04-04T16:15:13Z</time>
      </trkpt>
      <trkpt lat="43.6598" lon="1.39241">
        <ele>126</ele>
        <time>2024-04-04T16:15:14Z</time>
      </trkpt>
      <trkpt lat="43.6598" lon="1.39241">
        <ele>126</ele>
        <time>2024-04-04T16:15:15Z</time>
      </trkpt>
      <trkpt lat="43.65987" lon="1.39236">
        <ele>126</ele>
        <time>2024-04-04T16:15:16Z</time>
      </trkpt>
      <trkpt lat="43.65988" lon="1.39235">
        <ele>126</ele>
        <time>2024-04-04T16:15:17Z</time>
      </trkpt>
      <trkpt lat="43.6599" lon="1.39233">
        <ele>127</ele>
        <time>2024-04-04T16:15:18Z</time>
      </trkpt>
      <trkpt lat="43.65992" lon="1.39232">
        <ele>127</ele>
        <time>2024-04-04T16:15:19Z</time>
      </trkpt>
      <trkpt lat="43.65995" lon="1.39232">
        <ele>126</ele>
        <time>2024-04-04T16:15:20Z</time>
      </trkpt>
      <trkpt lat="43.65995" lon="1.39232">
        <ele>126</ele>
        <time>2024-04-04T16:15:21Z</time>
      </trkpt>
      <trkpt lat="43.66002" lon="1.39227">
        <ele>126</ele>
        <time>2024-04-04T16:15:22Z</time>
      </trkpt>
      <trkpt lat="43.66003" lon="1.39227">
        <ele>126</ele>
        <time>2024-04-04T16:15:23Z</time>
      </trkpt>
      <trkpt lat="43.66006" lon="1.39225">
        <ele>126</ele>
        <time>2024-04-04T16:15:24Z</time>
      </trkpt>
      <trkpt lat="43.66008" lon="1.39224">
        <ele>126</ele>
        <time>2024-04-04T16:15:25Z</time>
      </trkpt>
      <trkpt lat="43.6601" lon="1.39223">
        <ele>126</ele>
        <time>2024-04-04T16:15:26Z</time>
      </trkpt>
      <trkpt lat="43.66013" lon="1.39222">
        <ele>126</ele>
        <time>2024-04-04T16:15:27Z</time>
      </trkpt>
      <trkpt lat="43.66015" lon="1.39221">
        <ele>126</ele>
        <time>2024-04-04T16:15:28Z</time>
      </trkpt>
      <trkpt lat="43.66017" lon="1.39221">
        <ele>126</ele>
        <time>2024-04-04T16:15:29Z</time>
      </trkpt>
      <trkpt lat="43.66019" lon="1.39221">
        <ele>126</ele>
        <time>2024-04-04T16:15:30Z</time>
      </trkpt>
      <trkpt lat="43.66019" lon="1.39221">
        <ele>126</ele>
        <time>2024-04-04T16:15:31Z</time>
      </trkpt>
      <trkpt lat="43.66023" lon="1.3922">
        <ele>126</ele>
        <time>2024-04-04T16:15:32Z</time>
      </trkpt>
      <trkpt lat="43.66025" lon="1.3922">
        <ele>126</ele>
        <time>2024-04-04T16:15:33Z</time>
      </trkpt>
      <trkpt lat="43.66028" lon="1.39219">
        <ele>126</ele>
        <time>2024-04-04T16:15:34Z</time>
      </trkpt>
      <trkpt lat="43.66031" lon="1.39219">
        <ele>126</ele>
        <time>2024-04-04T16:15:35Z</time>
      </trkpt>
      <trkpt lat="43.66034" lon="1.39218">
        <ele>126</ele>
        <time>2024-04-04T16:15:36Z</time>
      </trkpt>
      <trkpt lat="43.66038" lon="1.39218">
        <ele>126</ele>
        <time>2024-04-04T16:15:37Z</time>
      </trkpt>
      <trkpt lat="43.66042" lon="1.39217">
        <ele>126</ele>
        <time>2024-04-04T16:15:38Z</time>
      </trkpt>
      <trkpt lat="43.66045" lon="1.39217">
        <ele>125</ele>
        <time>2024-04-04T16:15:39Z</time>
      </trkpt>
      <trkpt lat="43.66047" lon="1.39217">
        <ele>126</ele>
        <time>2024-04-04T16:15:40Z</time>
      </trkpt>
      <trkpt lat="43.6605" lon="1.39217">
        <ele>126</ele>
        <time>2024-04-04T16:15:41Z</time>
      </trkpt>
      <trkpt lat="43.6605" lon="1.39217">
        <ele>126</ele>
        <time>2024-04-04T16:15:42Z</time>
      </trkpt>
      <trkpt lat="43.66053" lon="1.39217">
        <ele>126</ele>
        <time>2024-04-04T16:15:43Z</time>
      </trkpt>
      <trkpt lat="43.66055" lon="1.39216">
        <ele>126</ele>
        <time>2024-04-04T16:15:44Z</time>
      </trkpt>
      <trkpt lat="43.66058" lon="1.39216">
        <ele>126</ele>
        <time>2024-04-04T16:15:45Z</time>
      </trkpt>
      <trkpt lat="43.6606" lon="1.39215">
        <ele>126</ele>
        <time>2024-04-04T16:15:46Z</time>
      </trkpt>
      <trkpt lat="43.66063" lon="1.39213">
        <ele>126</ele>
        <time>2024-04-04T16:15:47Z</time>
      </trkpt>
      <trkpt lat="43.66065" lon="1.39212">
        <ele>126</ele>
        <time>2024-04-04T16:15:48Z</time>
      </trkpt>
      <trkpt lat="43.66067" lon="1.3921">
        <ele>126</ele>
        <time>2024-04-04T16:15:49Z</time>
      </trkpt>
      <trkpt lat="43.66069" lon="1.39208">
        <ele>126</ele>
        <time>2024-04-04T16:15:50Z</time>
      </trkpt>
      <trkpt lat="43.66072" lon="1.39206">
        <ele>126</ele>
        <time>2024-04-04T16:15:51Z</time>
      </trkpt>
      <trkpt lat="43.66074" lon="1.39204">
        <ele>126</ele>
        <time>2024-04-04T16:15:52Z</time>
      </trkpt>
      <trkpt lat="43.66076" lon="1.39202">
        <ele>126</ele>
        <time>2024-04-04T16:15:53Z</time>
      </trkpt>
      <trkpt lat="43.66079" lon="1.392">
        <ele>125</ele>
        <time>2024-04-04T16:15:54Z</time>
      </trkpt>
      <trkpt lat="43.66081" lon="1.39198">
        <ele>125</ele>
        <time>2024-04-04T16:15:55Z</time>
      </trkpt>
      <trkpt lat="43.66083" lon="1.39197">
        <ele>125</ele>
        <time>2024-04-04T16:15:56Z</time>
      </trkpt>
      <trkpt lat="43.66084" lon="1.39195">
        <ele>125</ele>
        <time>2024-04-04T16:15:57Z</time>
      </trkpt>
      <trkpt lat="43.66087" lon="1.39195">
        <ele>126</ele>
        <time>2024-04-04T16:15:58Z</time>
      </trkpt>
      <trkpt lat="43.6609" lon="1.39195">
        <ele>126</ele>
        <time>2024-04-04T16:15:59Z</time>
      </trkpt>
      <trkpt lat="43.66094" lon="1.39195">
        <ele>126</ele>
        <time>2024-04-04T16:16:00Z</time>
      </trkpt>
      <trkpt lat="43.66096" lon="1.39194">
        <ele>126</ele>
        <time>2024-04-04T16:16:01Z</time>
      </trkpt>
      <trkpt lat="43.66099" lon="1.39192">
        <ele>126</ele>
        <time>2024-04-04T16:16:02Z</time>
      </trkpt>
      <trkpt lat="43.66102" lon="1.39192">
        <ele>126</ele>
        <time>2024-04-04T16:16:03Z</time>
      </trkpt>
      <trkpt lat="43.66105" lon="1.3919">
        <ele>126</ele>
        <time>2024-04-04T16:16:04Z</time>
      </trkpt>
      <trkpt lat="43.66108" lon="1.39189">
        <ele>126</ele>
        <time>2024-04-04T16:16:05Z</time>
      </trkpt>
      <trkpt lat="43.66111" lon="1.39189">
        <ele>126</ele>
        <time>2024-04-04T16:16:06Z</time>
      </trkpt>
      <trkpt lat="43.66113" lon="1.39189">
        <ele>126</ele>
        <time>2024-04-04T16:16:07Z</time>
      </trkpt>
      <trkpt lat="43.66115" lon="1.39188">
        <ele>125</ele>
        <time>2024-04-04T16:16:08Z</time>
      </trkpt>
      <trkpt lat="43.66119" lon="1.39188">
        <ele>125</ele>
        <time>2024-04-04T16:16:09Z</time>
      </trkpt>
      <trkpt lat="43.66121" lon="1.39187">
        <ele>125</ele>
        <time>2024-04-04T16:16:10Z</time>
      </trkpt>
      <trkpt lat="43.66124" lon="1.39186">
        <ele>125</ele>
        <time>2024-04-04T16:16:11Z</time>
      </trkpt>
      <trkpt lat="43.66124" lon="1.39186">
        <ele>125</ele>
        <time>2024-04-04T16:16:12Z</time>
      </trkpt>
      <trkpt lat="43.66126" lon="1.39185">
        <ele>125</ele>
        <time>2024-04-04T16:16:13Z</time>
      </trkpt>
      <trkpt lat="43.66129" lon="1.39183">
        <ele>125</ele>
        <time>2024-04-04T16:16:14Z</time>
      </trkpt>
      <trkpt lat="43.66131" lon="1.39182">
        <ele>125</ele>
        <time>2024-04-04T16:16:15Z</time>
      </trkpt>
      <trkpt lat="43.66134" lon="1.3918">
        <ele>125</ele>
        <time>2024-04-04T16:16:16Z</time>
      </trkpt>
      <trkpt lat="43.66137" lon="1.39178">
        <ele>125</ele>
        <time>2024-04-04T16:16:17Z</time>
      </trkpt>
      <trkpt lat="43.66139" lon="1.39176">
        <ele>125</ele>
        <time>2024-04-04T16:16:18Z</time>
      </trkpt>
      <trkpt lat="43.66142" lon="1.39174">
        <ele>125</ele>
        <time>2024-04-04T16:16:19Z</time>
      </trkpt>
      <trkpt lat="43.66145" lon="1.39173">
        <ele>125</ele>
        <time>2024-04-04T16:16:20Z</time>
      </trkpt>
      <trkpt lat="43.66148" lon="1.39171">
        <ele>125</ele>
        <time>2024-04-04T16:16:21Z</time>
      </trkpt>
      <trkpt lat="43.66151" lon="1.3917">
        <ele>125</ele>
        <time>2024-04-04T16:16:22Z</time>
      </trkpt>
      <trkpt lat="43.66153" lon="1.39169">
        <ele>125</ele>
        <time>2024-04-04T16:16:23Z</time>
      </trkpt>
      <trkpt lat="43.66156" lon="1.39167">
        <ele>126</ele>
        <time>2024-04-04T16:16:24Z</time>
      </trkpt>
      <trkpt lat="43.66158" lon="1.39165">
        <ele>126</ele>
        <time>2024-04-04T16:16:25Z</time>
      </trkpt>
      <trkpt lat="43.6616" lon="1.39163">
        <ele>126</ele>
        <time>2024-04-04T16:16:26Z</time>
      </trkpt>
      <trkpt lat="43.66162" lon="1.39162">
        <ele>126</ele>
        <time>2024-04-04T16:16:27Z</time>
      </trkpt>
      <trkpt lat="43.66167" lon="1.39156">
        <ele>126</ele>
        <time>2024-04-04T16:16:28Z</time>
      </trkpt>
      <trkpt lat="43.66169" lon="1.39155">
        <ele>126</ele>
        <time>2024-04-04T16:16:29Z</time>
      </trkpt>
      <trkpt lat="43.66171" lon="1.39153">
        <ele>126</ele>
        <time>2024-04-04T16:16:30Z</time>
      </trkpt>
      <trkpt lat="43.66174" lon="1.39152">
        <ele>126</ele>
        <time>2024-04-04T16:16:31Z</time>
      </trkpt>
      <trkpt lat="43.66177" lon="1.3915">
        <ele>125</ele>
        <time>2024-04-04T16:16:32Z</time>
      </trkpt>
      <trkpt lat="43.66179" lon="1.39148">
        <ele>125</ele>
        <time>2024-04-04T16:16:33Z</time>
      </trkpt>
      <trkpt lat="43.66181" lon="1.39146">
        <ele>125</ele>
        <time>2024-04-04T16:16:34Z</time>
      </trkpt>
      <trkpt lat="43.66183" lon="1.39144">
        <ele>125</ele>
        <time>2024-04-04T16:16:35Z</time>
      </trkpt>
      <trkpt lat="43.66185" lon="1.39142">
        <ele>125</ele>
        <time>2024-04-04T16:16:36Z</time>
      </trkpt>
      <trkpt lat="43.66187" lon="1.39139">
        <ele>125</ele>
        <time>2024-04-04T16:16:37Z</time>
      </trkpt>
      <trkpt lat="43.66189" lon="1.39137">
        <ele>125</ele>
        <time>2024-04-04T16:16:38Z</time>
      </trkpt>
      <trkpt lat="43.66191" lon="1.39136">
        <ele>125</ele>
        <time>2024-04-04T16:16:39Z</time>
      </trkpt>
      <trkpt lat="43.66194" lon="1.39134">
        <ele>125</ele>
        <time>2024-04-04T16:16:40Z</time>
      </trkpt>
      <trkpt lat="43.66198" lon="1.39134">
        <ele>125</ele>
        <time>2024-04-04T16:16:41Z</time>
      </trkpt>
      <trkpt lat="43.66198" lon="1.39134">
        <ele>125</ele>
        <time>2024-04-04T16:16:42Z</time>
      </trkpt>
      <trkpt lat="43.66211" lon="1.39138">
        <ele>125</ele>
        <time>2024-04-04T16:16:43Z</time>
      </trkpt>
      <trkpt lat="43.66213" lon="1.39139">
        <ele>126</ele>
        <time>2024-04-04T16:16:44Z</time>
      </trkpt>
      <trkpt lat="43.66217" lon="1.39141">
        <ele>126</ele>
        <time>2024-04-04T16:16:45Z</time>
      </trkpt>
      <trkpt lat="43.66219" lon="1.39145">
        <ele>126</ele>
        <time>2024-04-04T16:16:46Z</time>
      </trkpt>
      <trkpt lat="43.66222" lon="1.39148">
        <ele>126</ele>
        <time>2024-04-04T16:16:47Z</time>
      </trkpt>
      <trkpt lat="43.66225" lon="1.3915">
        <ele>126</ele>
        <time>2024-04-04T16:16:48Z</time>
      </trkpt>
      <trkpt lat="43.66227" lon="1.39153">
        <ele>126</ele>
        <time>2024-04-04T16:16:49Z</time>
      </trkpt>
      <trkpt lat="43.6623" lon="1.39156">
        <ele>126</ele>
        <time>2024-04-04T16:16:50Z</time>
      </trkpt>
      <trkpt lat="43.6623" lon="1.39156">
        <ele>125</ele>
        <time>2024-04-04T16:16:51Z</time>
      </trkpt>
      <trkpt lat="43.66237" lon="1.39162">
        <ele>125</ele>
        <time>2024-04-04T16:16:52Z</time>
      </trkpt>
      <trkpt lat="43.66239" lon="1.39163">
        <ele>125</ele>
        <time>2024-04-04T16:16:53Z</time>
      </trkpt>
      <trkpt lat="43.66241" lon="1.39165">
        <ele>125</ele>
        <time>2024-04-04T16:16:54Z</time>
      </trkpt>
      <trkpt lat="43.66243" lon="1.39166">
        <ele>125</ele>
        <time>2024-04-04T16:16:55Z</time>
      </trkpt>
      <trkpt lat="43.66246" lon="1.39167">
        <ele>125</ele>
        <time>2024-04-04T16:16:56Z</time>
      </trkpt>
      <trkpt lat="43.66248" lon="1.39166">
        <ele>126</ele>
        <time>2024-04-04T16:16:57Z</time>
      </trkpt>
      <trkpt lat="43.6625" lon="1.39164">
        <ele>126</ele>
        <time>2024-04-04T16:16:58Z</time>
      </trkpt>
      <trkpt lat="43.66252" lon="1.39161">
        <ele>126</ele>
        <time>2024-04-04T16:16:59Z</time>
      </trkpt>
      <trkpt lat="43.66253" lon="1.39158">
        <ele>125</ele>
        <time>2024-04-04T16:17:00Z</time>
      </trkpt>
      <trkpt lat="43.66254" lon="1.39155">
        <ele>125</ele>
        <time>2024-04-04T16:17:01Z</time>
      </trkpt>
      <trkpt lat="43.66254" lon="1.39152">
        <ele>125</ele>
        <time>2024-04-04T16:17:02Z</time>
      </trkpt>
      <trkpt lat="43.66254" lon="1.3915">
        <ele>125</ele>
        <time>2024-04-04T16:17:03Z</time>
      </trkpt>
      <trkpt lat="43.66255" lon="1.39147">
        <ele>125</ele>
        <time>2024-04-04T16:17:04Z</time>
      </trkpt>
      <trkpt lat="43.66255" lon="1.39143">
        <ele>125</ele>
        <time>2024-04-04T16:17:05Z</time>
      </trkpt>
      <trkpt lat="43.66255" lon="1.3914">
        <ele>125</ele>
        <time>2024-04-04T16:17:06Z</time>
      </trkpt>
      <trkpt lat="43.66254" lon="1.39136">
        <ele>125</ele>
        <time>2024-04-04T16:17:07Z</time>
      </trkpt>
      <trkpt lat="43.66254" lon="1.39133">
        <ele>125</ele>
        <time>2024-04-04T16:17:08Z</time>
      </trkpt>
      <trkpt lat="43.66254" lon="1.39129">
        <ele>125</ele>
        <time>2024-04-04T16:17:09Z</time>
      </trkpt>
      <trkpt lat="43.66254" lon="1.39126">
        <ele>125</ele>
        <time>2024-04-04T16:17:10Z</time>
      </trkpt>
      <trkpt lat="43.66254" lon="1.39122">
        <ele>125</ele>
        <time>2024-04-04T16:17:11Z</time>
      </trkpt>
      <trkpt lat="43.66254" lon="1.39119">
        <ele>125</ele>
        <time>2024-04-04T16:17:12Z</time>
      </trkpt>
      <trkpt lat="43.66254" lon="1.39115">
        <ele>125</ele>
        <time>2024-04-04T16:17:13Z</time>
      </trkpt>
      <trkpt lat="43.66254" lon="1.39111">
        <ele>125</ele>
        <time>2024-04-04T16:17:14Z</time>
      </trkpt>
      <trkpt lat="43.66255" lon="1.39108">
        <ele>125</ele>
        <time>2024-04-04T16:17:15Z</time>
      </trkpt>
      <trkpt lat="43.66256" lon="1.39105">
        <ele>125</ele>
        <time>2024-04-04T16:17:16Z</time>
      </trkpt>
      <trkpt lat="43.66258" lon="1.39101">
        <ele>125</ele>
        <time>2024-04-04T16:17:17Z</time>
      </trkpt>
      <trkpt lat="43.66258" lon="1.39098">
        <ele>125</ele>
        <time>2024-04-04T16:17:18Z</time>
      </trkpt>
      <trkpt lat="43.66259" lon="1.39094">
        <ele>124</ele>
        <time>2024-04-04T16:17:19Z</time>
      </trkpt>
      <trkpt lat="43.6626" lon="1.39091">
        <ele>124</ele>
        <time>2024-04-04T16:17:20Z</time>
      </trkpt>
      <trkpt lat="43.66262" lon="1.39087">
        <ele>124</ele>
        <time>2024-04-04T16:17:21Z</time>
      </trkpt>
      <trkpt lat="43.66263" lon="1.39084">
        <ele>124</ele>
        <time>2024-04-04T16:17:22Z</time>
      </trkpt>
      <trkpt lat="43.66265" lon="1.3908">
        <ele>124</ele>
        <time>2024-04-04T16:17:23Z</time>
      </trkpt>
      <trkpt lat="43.66265" lon="1.39076">
        <ele>124</ele>
        <time>2024-04-04T16:17:24Z</time>
      </trkpt>
      <trkpt lat="43.66266" lon="1.39073">
        <ele>124</ele>
        <time>2024-04-04T16:17:25Z</time>
      </trkpt>
      <trkpt lat="43.66267" lon="1.39071">
        <ele>124</ele>
        <time>2024-04-04T16:17:26Z</time>
      </trkpt>
      <trkpt lat="43.66269" lon="1.39068">
        <ele>124</ele>
        <time>2024-04-04T16:17:27Z</time>
      </trkpt>
      <trkpt lat="43.66269" lon="1.39065">
        <ele>124</ele>
        <time>2024-04-04T16:17:28Z</time>
      </trkpt>
      <trkpt lat="43.66269" lon="1.39062">
        <ele>124</ele>
        <time>2024-04-04T16:17:29Z</time>
      </trkpt>
      <trkpt lat="43.66269" lon="1.39058">
        <ele>124</ele>
        <time>2024-04-04T16:17:30Z</time>
      </trkpt>
      <trkpt lat="43.66268" lon="1.39055">
        <ele>124</ele>
        <time>2024-04-04T16:17:31Z</time>
      </trkpt>
      <trkpt lat="43.66269" lon="1.39051">
        <ele>124</ele>
        <time>2024-04-04T16:17:32Z</time>
      </trkpt>
      <trkpt lat="43.66269" lon="1.39047">
        <ele>124</ele>
        <time>2024-04-04T16:17:33Z</time>
      </trkpt>
      <trkpt lat="43.66271" lon="1.39044">
        <ele>124</ele>
        <time>2024-04-04T16:17:34Z</time>
      </trkpt>
      <trkpt lat="43.66272" lon="1.3904">
        <ele>124</ele>
        <time>2024-04-04T16:17:35Z</time>
      </trkpt>
      <trkpt lat="43.66273" lon="1.39036">
        <ele>124</ele>
        <time>2024-04-04T16:17:36Z</time>
      </trkpt>
      <trkpt lat="43.66275" lon="1.39033">
        <ele>124</ele>
        <time>2024-04-04T16:17:37Z</time>
      </trkpt>
      <trkpt lat="43.66277" lon="1.3903">
        <ele>124</ele>
        <time>2024-04-04T16:17:38Z</time>
      </trkpt>
      <trkpt lat="43.66278" lon="1.39026">
        <ele>124</ele>
        <time>2024-04-04T16:17:39Z</time>
      </trkpt>
      <trkpt lat="43.66279" lon="1.39023">
        <ele>124</ele>
        <time>2024-04-04T16:17:40Z</time>
      </trkpt>
      <trkpt lat="43.6628" lon="1.3902">
        <ele>124</ele>
        <time>2024-04-04T16:17:41Z</time>
      </trkpt>
      <trkpt lat="43.66282" lon="1.39016">
        <ele>124</ele>
        <time>2024-04-04T16:17:42Z</time>
      </trkpt>
      <trkpt lat="43.66282" lon="1.39013">
        <ele>124</ele>
        <time>2024-04-04T16:17:43Z</time>
      </trkpt>
      <trkpt lat="43.66283" lon="1.39009">
        <ele>124</ele>
        <time>2024-04-04T16:17:44Z</time>
      </trkpt>
      <trkpt lat="43.66283" lon="1.39005">
        <ele>124</ele>
        <time>2024-04-04T16:17:45Z</time>
      </trkpt>
      <trkpt lat="43.66285" lon="1.39002">
        <ele>124</ele>
        <time>2024-04-04T16:17:46Z</time>
      </trkpt>
      <trkpt lat="43.66285" lon="1.38997">
        <ele>124</ele>
        <time>2024-04-04T16:17:47Z</time>
      </trkpt>
      <trkpt lat="43.66286" lon="1.38993">
        <ele>124</ele>
        <time>2024-04-04T16:17:48Z</time>
      </trkpt>
      <trkpt lat="43.66286" lon="1.3899">
        <ele>124</ele>
        <time>2024-04-04T16:17:49Z</time>
      </trkpt>
      <trkpt lat="43.66287" lon="1.38987">
        <ele>124</ele>
        <time>2024-04-04T16:17:50Z</time>
      </trkpt>
      <trkpt lat="43.66289" lon="1.38985">
        <ele>124</ele>
        <time>2024-04-04T16:17:51Z</time>
      </trkpt>
      <trkpt lat="43.6629" lon="1.38982">
        <ele>124</ele>
        <time>2024-04-04T16:17:52Z</time>
      </trkpt>
      <trkpt lat="43.66292" lon="1.38979">
        <ele>124</ele>
        <time>2024-04-04T16:17:53Z</time>
      </trkpt>
      <trkpt lat="43.66294" lon="1.38976">
        <ele>124</ele>
        <time>2024-04-04T16:17:54Z</time>
      </trkpt>
      <trkpt lat="43.66297" lon="1.38973">
        <ele>124</ele>
        <time>2024-04-04T16:17:55Z</time>
      </trkpt>
      <trkpt lat="43.66299" lon="1.38969">
        <ele>124</ele>
        <time>2024-04-04T16:17:56Z</time>
      </trkpt>
      <trkpt lat="43.663" lon="1.38966">
        <ele>124</ele>
        <time>2024-04-04T16:17:57Z</time>
      </trkpt>
      <trkpt lat="43.66303" lon="1.38963">
        <ele>124</ele>
        <time>2024-04-04T16:17:58Z</time>
      </trkpt>
      <trkpt lat="43.66305" lon="1.3896">
        <ele>124</ele>
        <time>2024-04-04T16:17:59Z</time>
      </trkpt>
      <trkpt lat="43.66306" lon="1.38956">
        <ele>124</ele>
        <time>2024-04-04T16:18:00Z</time>
      </trkpt>
      <trkpt lat="43.66308" lon="1.38954">
        <ele>124</ele>
        <time>2024-04-04T16:18:01Z</time>
      </trkpt>
      <trkpt lat="43.66312" lon="1.38954">
        <ele>124</ele>
        <time>2024-04-04T16:18:02Z</time>
      </trkpt>
      <trkpt lat="43.66314" lon="1.38953">
        <ele>124</ele>
        <time>2024-04-04T16:18:03Z</time>
      </trkpt>
      <trkpt lat="43.66316" lon="1.38951">
        <ele>123</ele>
        <time>2024-04-04T16:18:04Z</time>
      </trkpt>
      <trkpt lat="43.66318" lon="1.38949">
        <ele>123</ele>
        <time>2024-04-04T16:18:05Z</time>
      </trkpt>
      <trkpt lat="43.6632" lon="1.38947">
        <ele>124</ele>
        <time>2024-04-04T16:18:06Z</time>
      </trkpt>
      <trkpt lat="43.66321" lon="1.38944">
        <ele>124</ele>
        <time>2024-04-04T16:18:07Z</time>
      </trkpt>
      <trkpt lat="43.66323" lon="1.38941">
        <ele>124</ele>
        <time>2024-04-04T16:18:08Z</time>
      </trkpt>
      <trkpt lat="43.66324" lon="1.38938">
        <ele>124</ele>
        <time>2024-04-04T16:18:09Z</time>
      </trkpt>
      <trkpt lat="43.66326" lon="1.38936">
        <ele>124</ele>
        <time>2024-04-04T16:18:10Z</time>
      </trkpt>
      <trkpt lat="43.66327" lon="1.38934">
        <ele>124</ele>
        <time>2024-04-04T16:18:11Z</time>
      </trkpt>
      <trkpt lat="43.66329" lon="1.38931">
        <ele>124</ele>
        <time>2024-04-04T16:18:12Z</time>
      </trkpt>
      <trkpt lat="43.66331" lon="1.38929">
        <ele>124</ele>
        <time>2024-04-04T16:18:13Z</time>
      </trkpt>
      <trkpt lat="43.66333" lon="1.38926">
        <ele>124</ele>
        <time>2024-04-04T16:18:14Z</time>
      </trkpt>
      <trkpt lat="43.66335" lon="1.38923">
        <ele>124</ele>
        <time>2024-04-04T16:18:15Z</time>
      </trkpt>
      <trkpt lat="43.66337" lon="1.3892">
        <ele>124</ele>
        <time>2024-04-04T16:18:16Z</time>
      </trkpt>
      <trkpt lat="43.66337" lon="1.3892">
        <ele>124</ele>
        <time>2024-04-04T16:18:17Z</time>
      </trkpt>
      <trkpt lat="43.66338" lon="1.38917">
        <ele>123</ele>
        <time>2024-04-04T16:18:18Z</time>
      </trkpt>
      <trkpt lat="43.66339" lon="1.38914">
        <ele>123</ele>
        <time>2024-04-04T16:18:19Z</time>
      </trkpt>
      <trkpt lat="43.6634" lon="1.38911">
        <ele>123</ele>
        <time>2024-04-04T16:18:20Z</time>
      </trkpt>
      <trkpt lat="43.66341" lon="1.38908">
        <ele>123</ele>
        <time>2024-04-04T16:18:21Z</time>
      </trkpt>
      <trkpt lat="43.66344" lon="1.38902">
        <ele>123</ele>
        <time>2024-04-04T16:18:22Z</time>
      </trkpt>
      <trkpt lat="43.66345" lon="1.389">
        <ele>123</ele>
        <time>2024-04-04T16:18:23Z</time>
      </trkpt>
      <trkpt lat="43.66347" lon="1.38897">
        <ele>123</ele>
        <time>2024-04-04T16:18:24Z</time>
      </trkpt>
      <trkpt lat="43.66349" lon="1.38895">
        <ele>123</ele>
        <time>2024-04-04T16:18:25Z</time>
      </trkpt>
      <trkpt lat="43.66352" lon="1.38892">
        <ele>124</ele>
        <time>2024-04-04T16:18:26Z</time>
      </trkpt>
      <trkpt lat="43.66354" lon="1.38889">
        <ele>124</ele>
        <time>2024-04-04T16:18:27Z</time>
      </trkpt>
      <trkpt lat="43.66356" lon="1.38886">
        <ele>124</ele>
        <time>2024-04-04T16:18:28Z</time>
      </trkpt>
      <trkpt lat="43.66358" lon="1.38883">
        <ele>124</ele>
        <time>2024-04-04T16:18:29Z</time>
      </trkpt>
      <trkpt lat="43.66359" lon="1.3888">
        <ele>124</ele>
        <time>2024-04-04T16:18:30Z</time>
      </trkpt>
      <trkpt lat="43.6636" lon="1.38877">
        <ele>124</ele>
        <time>2024-04-04T16:18:31Z</time>
      </trkpt>
      <trkpt lat="43.66362" lon="1.38874">
        <ele>124</ele>
        <time>2024-04-04T16:18:32Z</time>
      </trkpt>
      <trkpt lat="43.66364" lon="1.38872">
        <ele>124</ele>
        <time>2024-04-04T16:18:33Z</time>
      </trkpt>
      <trkpt lat="43.66367" lon="1.3887">
        <ele>124</ele>
        <time>2024-04-04T16:18:34Z</time>
      </trkpt>
      <trkpt lat="43.66369" lon="1.38867">
        <ele>124</ele>
        <time>2024-04-04T16:18:35Z</time>
      </trkpt>
      <trkpt lat="43.66371" lon="1.38865">
        <ele>124</ele>
        <time>2024-04-04T16:18:36Z</time>
      </trkpt>
      <trkpt lat="43.66373" lon="1.38862">
        <ele>124</ele>
        <time>2024-04-04T16:18:37Z</time>
      </trkpt>
      <trkpt lat="43.66375" lon="1.38859">
        <ele>124</ele>
        <time>2024-04-04T16:18:38Z</time>
      </trkpt>
      <trkpt lat="43.66377" lon="1.38856">
        <ele>124</ele>
        <time>2024-04-04T16:18:39Z</time>
      </trkpt>
      <trkpt lat="43.66379" lon="1.38853">
        <ele>124</ele>
        <time>2024-04-04T16:18:40Z</time>
      </trkpt>
      <trkpt lat="43.66381" lon="1.38851">
        <ele>124</ele>
        <time>2024-04-04T16:18:41Z</time>
      </trkpt>
      <trkpt lat="43.66384" lon="1.38849">
        <ele>124</ele>
        <time>2024-04-04T16:18:42Z</time>
      </trkpt>
      <trkpt lat="43.66385" lon="1.38848">
        <ele>124</ele>
        <time>2024-04-04T16:18:43Z</time>
      </trkpt>
      <trkpt lat="43.66388" lon="1.38847">
        <ele>124</ele>
        <time>2024-04-04T16:18:44Z</time>
      </trkpt>
      <trkpt lat="43.6639" lon="1.38845">
        <ele>124</ele>
        <time>2024-04-04T16:18:45Z</time>
      </trkpt>
      <trkpt lat="43.66392" lon="1.38843">
        <ele>124</ele>
        <time>2024-04-04T16:18:46Z</time>
      </trkpt>
      <trkpt lat="43.66394" lon="1.38841">
        <ele>124</ele>
        <time>2024-04-04T16:18:47Z</time>
      </trkpt>
      <trkpt lat="43.66397" lon="1.38839">
        <ele>124</ele>
        <time>2024-04-04T16:18:48Z</time>
      </trkpt>
      <trkpt lat="43.66399" lon="1.38837">
        <ele>124</ele>
        <time>2024-04-04T16:18:49Z</time>
      </trkpt>
      <trkpt lat="43.66401" lon="1.38834">
        <ele>124</ele>
        <time>2024-04-04T16:18:50Z</time>
      </trkpt>
      <trkpt lat="43.66402" lon="1.38832">
        <ele>124</ele>
        <time>2024-04-04T16:18:51Z</time>
      </trkpt>
      <trkpt lat="43.66404" lon="1.3883">
        <ele>124</ele>
        <time>2024-04-04T16:18:52Z</time>
      </trkpt>
      <trkpt lat="43.66407" lon="1.38828">
        <ele>124</ele>
        <time>2024-04-04T16:18:53Z</time>
      </trkpt>
      <trkpt lat="43.6641" lon="1.38827">
        <ele>124</ele>
        <time>2024-04-04T16:18:54Z</time>
      </trkpt>
      <trkpt lat="43.66412" lon="1.38825">
        <ele>124</ele>
        <time>2024-04-04T16:18:55Z</time>
      </trkpt>
      <trkpt lat="43.66414" lon="1.38823">
        <ele>124</ele>
        <time>2024-04-04T16:18:56Z</time>
      </trkpt>
      <trkpt lat="43.66416" lon="1.38821">
        <ele>124</ele>
        <time>2024-04-04T16:18:57Z</time>
      </trkpt>
      <trkpt lat="43.66418" lon="1.3882">
        <ele>124</ele>
        <time>2024-04-04T16:18:58Z</time>
      </trkpt>
      <trkpt lat="43.66421" lon="1.38819">
        <ele>124</ele>
        <time>2024-04-04T16:18:59Z</time>
      </trkpt>
      <trkpt lat="43.66423" lon="1.38818">
        <ele>124</ele>
        <time>2024-04-04T16:19:00Z</time>
      </trkpt>
      <trkpt lat="43.66426" lon="1.38817">
        <ele>124</ele>
        <time>2024-04-04T16:19:01Z</time>
      </trkpt>
      <trkpt lat="43.66429" lon="1.38815">
        <ele>124</ele>
        <time>2024-04-04T16:19:02Z</time>
      </trkpt>
      <trkpt lat="43.66432" lon="1.38814">
        <ele>124</ele>
        <time>2024-04-04T16:19:03Z</time>
      </trkpt>
      <trkpt lat="43.66436" lon="1.38812">
        <ele>124</ele>
        <time>2024-04-04T16:19:04Z</time>
      </trkpt>
      <trkpt lat="43.66438" lon="1.38811">
        <ele>124</ele>
        <time>2024-04-04T16:19:05Z</time>
      </trkpt>
      <trkpt lat="43.66441" lon="1.38808">
        <ele>124</ele>
        <time>2024-04-04T16:19:06Z</time>
      </trkpt>
      <trkpt lat="43.66444" lon="1.38806">
        <ele>124</ele>
        <time>2024-04-04T16:19:07Z</time>
      </trkpt>
      <trkpt lat="43.66447" lon="1.38803">
        <ele>124</ele>
        <time>2024-04-04T16:19:08Z</time>
      </trkpt>
      <trkpt lat="43.6645" lon="1.38801">
        <ele>124</ele>
        <time>2024-04-04T16:19:09Z</time>
      </trkpt>
      <trkpt lat="43.66453" lon="1.38798">
        <ele>124</ele>
        <time>2024-04-04T16:19:10Z</time>
      </trkpt>
      <trkpt lat="43.66456" lon="1.38796">
        <ele>124</ele>
        <time>2024-04-04T16:19:11Z</time>
      </trkpt>
      <trkpt lat="43.66459" lon="1.38793">
        <ele>124</ele>
        <time>2024-04-04T16:19:12Z</time>
      </trkpt>
      <trkpt lat="43.66461" lon="1.3879">
        <ele>124</ele>
        <time>2024-04-04T16:19:13Z</time>
      </trkpt>
      <trkpt lat="43.66463" lon="1.38788">
        <ele>124</ele>
        <time>2024-04-04T16:19:14Z</time>
      </trkpt>
      <trkpt lat="43.66465" lon="1.38786">
        <ele>124</ele>
        <time>2024-04-04T16:19:15Z</time>
      </trkpt>
      <trkpt lat="43.66467" lon="1.38783">
        <ele>124</ele>
        <time>2024-04-04T16:19:16Z</time>
      </trkpt>
      <trkpt lat="43.6647" lon="1.38782">
        <ele>124</ele>
        <time>2024-04-04T16:19:17Z</time>
      </trkpt>
      <trkpt lat="43.66473" lon="1.3878">
        <ele>124</ele>
        <time>2024-04-04T16:19:18Z</time>
      </trkpt>
      <trkpt lat="43.66476" lon="1.38778">
        <ele>124</ele>
        <time>2024-04-04T16:19:19Z</time>
      </trkpt>
      <trkpt lat="43.66481" lon="1.38775">
        <ele>124</ele>
        <time>2024-04-04T16:19:20Z</time>
      </trkpt>
      <trkpt lat="43.66483" lon="1.38773">
        <ele>124</ele>
        <time>2024-04-04T16:19:21Z</time>
      </trkpt>
      <trkpt lat="43.66486" lon="1.38771">
        <ele>124</ele>
        <time>2024-04-04T16:19:22Z</time>
      </trkpt>
      <trkpt lat="43.66488" lon="1.38768">
        <ele>124</ele>
        <time>2024-04-04T16:19:23Z</time>
      </trkpt>
      <trkpt lat="43.66491" lon="1.38765">
        <ele>124</ele>
        <time>2024-04-04T16:19:24Z</time>
      </trkpt>
      <trkpt lat="43.66493" lon="1.38763">
        <ele>124</ele>
        <time>2024-04-04T16:19:25Z</time>
      </trkpt>
      <trkpt lat="43.66494" lon="1.3876">
        <ele>124</ele>
        <time>2024-04-04T16:19:26Z</time>
      </trkpt>
      <trkpt lat="43.66496" lon="1.38758">
        <ele>124</ele>
        <time>2024-04-04T16:19:27Z</time>
      </trkpt>
      <trkpt lat="43.66497" lon="1.38756">
        <ele>124</ele>
        <time>2024-04-04T16:19:28Z</time>
      </trkpt>
      <trkpt lat="43.66499" lon="1.38753">
        <ele>124</ele>
        <time>2024-04-04T16:19:29Z</time>
      </trkpt>
      <trkpt lat="43.66501" lon="1.38751">
        <ele>124</ele>
        <time>2024-04-04T16:19:30Z</time>
      </trkpt>
      <trkpt lat="43.66504" lon="1.38749">
        <ele>124</ele>
        <time>2024-04-04T16:19:31Z</time>
      </trkpt>
      <trkpt lat="43.66506" lon="1.38747">
        <ele>124</ele>
        <time>2024-04-04T16:19:32Z</time>
      </trkpt>
      <trkpt lat="43.66507" lon="1.38745">
        <ele>124</ele>
        <time>2024-04-04T16:19:33Z</time>
      </trkpt>
      <trkpt lat="43.6651" lon="1.38743">
        <ele>124</ele>
        <time>2024-04-04T16:19:34Z</time>
      </trkpt>
      <trkpt lat="43.66512" lon="1.38741">
        <ele>124</ele>
        <time>2024-04-04T16:19:35Z</time>
      </trkpt>
      <trkpt lat="43.66515" lon="1.38739">
        <ele>124</ele>
        <time>2024-04-04T16:19:36Z</time>
      </trkpt>
      <trkpt lat="43.66518" lon="1.38737">
        <ele>124</ele>
        <time>2024-04-04T16:19:37Z</time>
      </trkpt>
      <trkpt lat="43.6652" lon="1.38736">
        <ele>124</ele>
        <time>2024-04-04T16:19:38Z</time>
      </trkpt>
      <trkpt lat="43.66523" lon="1.38734">
        <ele>124</ele>
        <time>2024-04-04T16:19:39Z</time>
      </trkpt>
      <trkpt lat="43.66524" lon="1.38731">
        <ele>124</ele>
        <time>2024-04-04T16:19:40Z</time>
      </trkpt>
      <trkpt lat="43.66527" lon="1.38729">
        <ele>124</ele>
        <time>2024-04-04T16:19:41Z</time>
      </trkpt>
      <trkpt lat="43.66529" lon="1.38726">
        <ele>124</ele>
        <time>2024-04-04T16:19:42Z</time>
      </trkpt>
      <trkpt lat="43.66532" lon="1.38724">
        <ele>124</ele>
        <time>2024-04-04T16:19:43Z</time>
      </trkpt>
      <trkpt lat="43.66534" lon="1.38722">
        <ele>124</ele>
        <time>2024-04-04T16:19:44Z</time>
      </trkpt>
      <trkpt lat="43.66536" lon="1.3872">
        <ele>124</ele>
        <time>2024-04-04T16:19:45Z</time>
      </trkpt>
      <trkpt lat="43.6654" lon="1.38718">
        <ele>124</ele>
        <time>2024-04-04T16:19:46Z</time>
      </trkpt>
      <trkpt lat="43.66542" lon="1.38717">
        <ele>124</ele>
        <time>2024-04-04T16:19:47Z</time>
      </trkpt>
      <trkpt lat="43.66545" lon="1.38716">
        <ele>124</ele>
        <time>2024-04-04T16:19:48Z</time>
      </trkpt>
      <trkpt lat="43.66548" lon="1.38718">
        <ele>124</ele>
        <time>2024-04-04T16:19:49Z</time>
      </trkpt>
      <trkpt lat="43.66551" lon="1.38719">
        <ele>124</ele>
        <time>2024-04-04T16:19:50Z</time>
      </trkpt>
      <trkpt lat="43.66554" lon="1.3872">
        <ele>124</ele>
        <time>2024-04-04T16:19:51Z</time>
      </trkpt>
      <trkpt lat="43.66557" lon="1.38721">
        <ele>124</ele>
        <time>2024-04-04T16:19:52Z</time>
      </trkpt>
      <trkpt lat="43.66561" lon="1.38722">
        <ele>124</ele>
        <time>2024-04-04T16:19:53Z</time>
      </trkpt>
      <trkpt lat="43.66564" lon="1.38724">
        <ele>124</ele>
        <time>2024-04-04T16:19:54Z</time>
      </trkpt>
      <trkpt lat="43.66567" lon="1.38727">
        <ele>124</ele>
        <time>2024-04-04T16:19:55Z</time>
      </trkpt>
      <trkpt lat="43.66569" lon="1.3873">
        <ele>124</ele>
        <time>2024-04-04T16:19:56Z</time>
      </trkpt>
      <trkpt lat="43.66572" lon="1.38734">
        <ele>124</ele>
        <time>2024-04-04T16:19:57Z</time>
      </trkpt>
      <trkpt lat="43.66575" lon="1.38736">
        <ele>124</ele>
        <time>2024-04-04T16:19:58Z</time>
      </trkpt>
      <trkpt lat="43.66578" lon="1.38739">
        <ele>124</ele>
        <time>2024-04-04T16:19:59Z</time>
      </trkpt>
      <trkpt lat="43.6658" lon="1.38742">
        <ele>124</ele>
        <time>2024-04-04T16:20:00Z</time>
      </trkpt>
      <trkpt lat="43.66582" lon="1.38745">
        <ele>124</ele>
        <time>2024-04-04T16:20:01Z</time>
      </trkpt>
      <trkpt lat="43.66584" lon="1.38748">
        <ele>124</ele>
        <time>2024-04-04T16:20:02Z</time>
      </trkpt>
      <trkpt lat="43.66586" lon="1.38751">
        <ele>124</ele>
        <time>2024-04-04T16:20:03Z</time>
      </trkpt>
      <trkpt lat="43.66589" lon="1.38753">
        <ele>124</ele>
        <time>2024-04-04T16:20:04Z</time>
      </trkpt>
      <trkpt lat="43.66591" lon="1.38756">
        <ele>124</ele>
        <time>2024-04-04T16:20:05Z</time>
      </trkpt>
      <trkpt lat="43.66593" lon="1.38759">
        <ele>124</ele>
        <time>2024-04-04T16:20:06Z</time>
      </trkpt>
      <trkpt lat="43.66595" lon="1.38762">
        <ele>124</ele>
        <time>2024-04-04T16:20:07Z</time>
      </trkpt>
      <trkpt lat="43.66596" lon="1.38766">
        <ele>124</ele>
        <time>2024-04-04T16:20:08Z</time>
      </trkpt>
      <trkpt lat="43.66598" lon="1.38769">
        <ele>124</ele>
        <time>2024-04-04T16:20:09Z</time>
      </trkpt>
      <trkpt lat="43.666" lon="1.38772">
        <ele>124</ele>
        <time>2024-04-04T16:20:10Z</time>
      </trkpt>
      <trkpt lat="43.66601" lon="1.38776">
        <ele>124</ele>
        <time>2024-04-04T16:20:11Z</time>
      </trkpt>
      <trkpt lat="43.66603" lon="1.3878">
        <ele>124</ele>
        <time>2024-04-04T16:20:12Z</time>
      </trkpt>
      <trkpt lat="43.66604" lon="1.38783">
        <ele>124</ele>
        <time>2024-04-04T16:20:13Z</time>
      </trkpt>
      <trkpt lat="43.66605" lon="1.38787">
        <ele>124</ele>
        <time>2024-04-04T16:20:14Z</time>
      </trkpt>
      <trkpt lat="43.66606" lon="1.3879">
        <ele>124</ele>
        <time>2024-04-04T16:20:15Z</time>
      </trkpt>
      <trkpt lat="43.66607" lon="1.38794">
        <ele>124</ele>
        <time>2024-04-04T16:20:16Z</time>
      </trkpt>
      <trkpt lat="43.66609" lon="1.38798">
        <ele>124</ele>
        <time>2024-04-04T16:20:17Z</time>
      </trkpt>
      <trkpt lat="43.66611" lon="1.38801">
        <ele>124</ele>
        <time>2024-04-04T16:20:18Z</time>
      </trkpt>
      <trkpt lat="43.66612" lon="1.38804">
        <ele>124</ele>
        <time>2024-04-04T16:20:19Z</time>
      </trkpt>
      <trkpt lat="43.66613" lon="1.38808">
        <ele>124</ele>
        <time>2024-04-04T16:20:20Z</time>
      </trkpt>
      <trkpt lat="43.66614" lon="1.38812">
        <ele>124</ele>
        <time>2024-04-04T16:20:21Z</time>
      </trkpt>
      <trkpt lat="43.66615" lon="1.38815">
        <ele>124</ele>
        <time>2024-04-04T16:20:22Z</time>
      </trkpt>
      <trkpt lat="43.66616" lon="1.38819">
        <ele>125</ele>
        <time>2024-04-04T16:20:23Z</time>
      </trkpt>
      <trkpt lat="43.66617" lon="1.38822">
        <ele>125</ele>
        <time>2024-04-04T16:20:24Z</time>
      </trkpt>
      <trkpt lat="43.66618" lon="1.38827">
        <ele>124</ele>
        <time>2024-04-04T16:20:25Z</time>
      </trkpt>
      <trkpt lat="43.66618" lon="1.38831">
        <ele>124</ele>
        <time>2024-04-04T16:20:26Z</time>
      </trkpt>
      <trkpt lat="43.66618" lon="1.38835">
        <ele>124</ele>
        <time>2024-04-04T16:20:27Z</time>
      </trkpt>
      <trkpt lat="43.66619" lon="1.38839">
        <ele>124</ele>
        <time>2024-04-04T16:20:28Z</time>
      </trkpt>
      <trkpt lat="43.66619" lon="1.38843">
        <ele>124</ele>
        <time>2024-04-04T16:20:29Z</time>
      </trkpt>
      <trkpt lat="43.66619" lon="1.38847">
        <ele>124</ele>
        <time>2024-04-04T16:20:30Z</time>
      </trkpt>
      <trkpt lat="43.66619" lon="1.38851">
        <ele>124</ele>
        <time>2024-04-04T16:20:31Z</time>
      </trkpt>
      <trkpt lat="43.66618" lon="1.38855">
        <ele>124</ele>
        <time>2024-04-04T16:20:32Z</time>
      </trkpt>
      <trkpt lat="43.66618" lon="1.38859">
        <ele>124</ele>
        <time>2024-04-04T16:20:33Z</time>
      </trkpt>
      <trkpt lat="43.66617" lon="1.38863">
        <ele>125</ele>
        <time>2024-04-04T16:20:34Z</time>
      </trkpt>
      <trkpt lat="43.66616" lon="1.38866">
        <ele>125</ele>
        <time>2024-04-04T16:20:35Z</time>
      </trkpt>
      <trkpt lat="43.66615" lon="1.3887">
        <ele>125</ele>
        <time>2024-04-04T16:20:36Z</time>
      </trkpt>
      <trkpt lat="43.66615" lon="1.38874">
        <ele>125</ele>
        <time>2024-04-04T16:20:37Z</time>
      </trkpt>
      <trkpt lat="43.66614" lon="1.38878">
        <ele>125</ele>
        <time>2024-04-04T16:20:38Z</time>
      </trkpt>
      <trkpt lat="43.66614" lon="1.38882">
        <ele>125</ele>
        <time>2024-04-04T16:20:39Z</time>
      </trkpt>
      <trkpt lat="43.66615" lon="1.38886">
        <ele>125</ele>
        <time>2024-04-04T16:20:40Z</time>
      </trkpt>
      <trkpt lat="43.66615" lon="1.38889">
        <ele>125</ele>
        <time>2024-04-04T16:20:41Z</time>
      </trkpt>
      <trkpt lat="43.66614" lon="1.38893">
        <ele>125</ele>
        <time>2024-04-04T16:20:42Z</time>
      </trkpt>
      <trkpt lat="43.66613" lon="1.38897">
        <ele>125</ele>
        <time>2024-04-04T16:20:43Z</time>
      </trkpt>
      <trkpt lat="43.66612" lon="1.389">
        <ele>125</ele>
        <time>2024-04-04T16:20:44Z</time>
      </trkpt>
      <trkpt lat="43.66612" lon="1.38903">
        <ele>125</ele>
        <time>2024-04-04T16:20:45Z</time>
      </trkpt>
      <trkpt lat="43.66612" lon="1.38907">
        <ele>125</ele>
        <time>2024-04-04T16:20:46Z</time>
      </trkpt>
      <trkpt lat="43.66612" lon="1.38911">
        <ele>125</ele>
        <time>2024-04-04T16:20:47Z</time>
      </trkpt>
      <trkpt lat="43.66611" lon="1.38914">
        <ele>125</ele>
        <time>2024-04-04T16:20:48Z</time>
      </trkpt>
      <trkpt lat="43.66611" lon="1.38918">
        <ele>125</ele>
        <time>2024-04-04T16:20:49Z</time>
      </trkpt>
      <trkpt lat="43.66611" lon="1.38922">
        <ele>125</ele>
        <time>2024-04-04T16:20:50Z</time>
      </trkpt>
      <trkpt lat="43.6661" lon="1.38926">
        <ele>125</ele>
        <time>2024-04-04T16:20:51Z</time>
      </trkpt>
      <trkpt lat="43.6661" lon="1.38929">
        <ele>125</ele>
        <time>2024-04-04T16:20:52Z</time>
      </trkpt>
      <trkpt lat="43.66611" lon="1.38933">
        <ele>125</ele>
        <time>2024-04-04T16:20:53Z</time>
      </trkpt>
      <trkpt lat="43.66611" lon="1.38937">
        <ele>125</ele>
        <time>2024-04-04T16:20:54Z</time>
      </trkpt>
      <trkpt lat="43.66611" lon="1.38941">
        <ele>125</ele>
        <time>2024-04-04T16:20:55Z</time>
      </trkpt>
      <trkpt lat="43.6661" lon="1.38944">
        <ele>125</ele>
        <time>2024-04-04T16:20:56Z</time>
      </trkpt>
      <trkpt lat="43.6661" lon="1.38948">
        <ele>125</ele>
        <time>2024-04-04T16:20:57Z</time>
      </trkpt>
      <trkpt lat="43.66609" lon="1.38952">
        <ele>125</ele>
        <time>2024-04-04T16:20:58Z</time>
      </trkpt>
      <trkpt lat="43.66609" lon="1.38955">
        <ele>125</ele>
        <time>2024-04-04T16:20:59Z</time>
      </trkpt>
      <trkpt lat="43.66609" lon="1.38959">
        <ele>125</ele>
        <time>2024-04-04T16:21:00Z</time>
      </trkpt>
      <trkpt lat="43.66608" lon="1.38962">
        <ele>125</ele>
        <time>2024-04-04T16:21:01Z</time>
      </trkpt>
      <trkpt lat="43.66608" lon="1.38966">
        <ele>125</ele>
        <time>2024-04-04T16:21:02Z</time>
      </trkpt>
      <trkpt lat="43.66608" lon="1.3897">
        <ele>124</ele>
        <time>2024-04-04T16:21:03Z</time>
      </trkpt>
      <trkpt lat="43.66608" lon="1.38973">
        <ele>124</ele>
        <time>2024-04-04T16:21:04Z</time>
      </trkpt>
      <trkpt lat="43.66607" lon="1.38977">
        <ele>124</ele>
        <time>2024-04-04T16:21:05Z</time>
      </trkpt>
      <trkpt lat="43.66607" lon="1.38981">
        <ele>124</ele>
        <time>2024-04-04T16:21:06Z</time>
      </trkpt>
      <trkpt lat="43.66607" lon="1.38985">
        <ele>124</ele>
        <time>2024-04-04T16:21:07Z</time>
      </trkpt>
      <trkpt lat="43.66606" lon="1.38989">
        <ele>124</ele>
        <time>2024-04-04T16:21:08Z</time>
      </trkpt>
      <trkpt lat="43.66606" lon="1.38993">
        <ele>124</ele>
        <time>2024-04-04T16:21:09Z</time>
      </trkpt>
      <trkpt lat="43.66605" lon="1.38997">
        <ele>124</ele>
        <time>2024-04-04T16:21:10Z</time>
      </trkpt>
      <trkpt lat="43.66605" lon="1.39001">
        <ele>124</ele>
        <time>2024-04-04T16:21:11Z</time>
      </trkpt>
      <trkpt lat="43.66605" lon="1.39004">
        <ele>124</ele>
        <time>2024-04-04T16:21:12Z</time>
      </trkpt>
      <trkpt lat="43.66604" lon="1.39008">
        <ele>124</ele>
        <time>2024-04-04T16:21:13Z</time>
      </trkpt>
      <trkpt lat="43.66604" lon="1.39011">
        <ele>124</ele>
        <time>2024-04-04T16:21:14Z</time>
      </trkpt>
      <trkpt lat="43.66603" lon="1.39016">
        <ele>124</ele>
        <time>2024-04-04T16:21:15Z</time>
      </trkpt>
      <trkpt lat="43.66603" lon="1.3902">
        <ele>124</ele>
        <time>2024-04-04T16:21:16Z</time>
      </trkpt>
      <trkpt lat="43.66602" lon="1.39024">
        <ele>124</ele>
        <time>2024-04-04T16:21:17Z</time>
      </trkpt>
      <trkpt lat="43.66601" lon="1.39028">
        <ele>124</ele>
        <time>2024-04-04T16:21:18Z</time>
      </trkpt>
      <trkpt lat="43.66601" lon="1.39032">
        <ele>124</ele>
        <time>2024-04-04T16:21:19Z</time>
      </trkpt>
      <trkpt lat="43.666" lon="1.39037">
        <ele>124</ele>
        <time>2024-04-04T16:21:20Z</time>
      </trkpt>
      <trkpt lat="43.666" lon="1.39041">
        <ele>125</ele>
        <time>2024-04-04T16:21:21Z</time>
      </trkpt>
      <trkpt lat="43.66599" lon="1.39045">
        <ele>125</ele>
        <time>2024-04-04T16:21:22Z</time>
      </trkpt>
      <trkpt lat="43.66598" lon="1.39049">
        <ele>125</ele>
        <time>2024-04-04T16:21:23Z</time>
      </trkpt>
      <trkpt lat="43.66597" lon="1.39052">
        <ele>125</ele>
        <time>2024-04-04T16:21:24Z</time>
      </trkpt>
      <trkpt lat="43.66596" lon="1.39056">
        <ele>125</ele>
        <time>2024-04-04T16:21:25Z</time>
      </trkpt>
      <trkpt lat="43.66595" lon="1.39059">
        <ele>124</ele>
        <time>2024-04-04T16:21:26Z</time>
      </trkpt>
      <trkpt lat="43.66593" lon="1.39063">
        <ele>124</ele>
        <time>2024-04-04T16:21:27Z</time>
      </trkpt>
      <trkpt lat="43.66592" lon="1.39066">
        <ele>124</ele>
        <time>2024-04-04T16:21:28Z</time>
      </trkpt>
      <trkpt lat="43.66591" lon="1.3907">
        <ele>124</ele>
        <time>2024-04-04T16:21:29Z</time>
      </trkpt>
      <trkpt lat="43.6659" lon="1.39073">
        <ele>124</ele>
        <time>2024-04-04T16:21:30Z</time>
      </trkpt>
      <trkpt lat="43.66589" lon="1.39077">
        <ele>124</ele>
        <time>2024-04-04T16:21:31Z</time>
      </trkpt>
      <trkpt lat="43.66588" lon="1.39081">
        <ele>124</ele>
        <time>2024-04-04T16:21:32Z</time>
      </trkpt>
      <trkpt lat="43.66587" lon="1.39084">
        <ele>124</ele>
        <time>2024-04-04T16:21:33Z</time>
      </trkpt>
      <trkpt lat="43.66586" lon="1.39088">
        <ele>124</ele>
        <time>2024-04-04T16:21:34Z</time>
      </trkpt>
      <trkpt lat="43.66585" lon="1.39091">
        <ele>124</ele>
        <time>2024-04-04T16:21:35Z</time>
      </trkpt>
      <trkpt lat="43.66584" lon="1.39095">
        <ele>124</ele>
        <time>2024-04-04T16:21:36Z</time>
      </trkpt>
      <trkpt lat="43.66583" lon="1.39099">
        <ele>125</ele>
        <time>2024-04-04T16:21:37Z</time>
      </trkpt>
      <trkpt lat="43.66583" lon="1.39103">
        <ele>125</ele>
        <time>2024-04-04T16:21:38Z</time>
      </trkpt>
      <trkpt lat="43.66582" lon="1.39106">
        <ele>125</ele>
        <time>2024-04-04T16:21:39Z</time>
      </trkpt>
      <trkpt lat="43.66581" lon="1.3911">
        <ele>125</ele>
        <time>2024-04-04T16:21:40Z</time>
      </trkpt>
      <trkpt lat="43.6658" lon="1.39114">
        <ele>125</ele>
        <time>2024-04-04T16:21:41Z</time>
      </trkpt>
      <trkpt lat="43.6658" lon="1.39118">
        <ele>125</ele>
        <time>2024-04-04T16:21:42Z</time>
      </trkpt>
      <trkpt lat="43.66579" lon="1.39121">
        <ele>125</ele>
        <time>2024-04-04T16:21:43Z</time>
      </trkpt>
      <trkpt lat="43.66579" lon="1.39125">
        <ele>125</ele>
        <time>2024-04-04T16:21:44Z</time>
      </trkpt>
      <trkpt lat="43.66578" lon="1.39129">
        <ele>125</ele>
        <time>2024-04-04T16:21:45Z</time>
      </trkpt>
      <trkpt lat="43.66577" lon="1.39133">
        <ele>125</ele>
        <time>2024-04-04T16:21:46Z</time>
      </trkpt>
      <trkpt lat="43.66577" lon="1.39137">
        <ele>125</ele>
        <time>2024-04-04T16:21:47Z</time>
      </trkpt>
      <trkpt lat="43.66577" lon="1.39141">
        <ele>125</ele>
        <time>2024-04-04T16:21:48Z</time>
      </trkpt>
      <trkpt lat="43.66576" lon="1.39145">
        <ele>125</ele>
        <time>2024-04-04T16:21:49Z</time>
      </trkpt>
      <trkpt lat="43.66576" lon="1.39148">
        <ele>125</ele>
        <time>2024-04-04T16:21:50Z</time>
      </trkpt>
      <trkpt lat="43.66575" lon="1.39152">
        <ele>125</ele>
        <time>2024-04-04T16:21:51Z</time>
      </trkpt>
      <trkpt lat="43.66574" lon="1.39155">
        <ele>125</ele>
        <time>2024-04-04T16:21:52Z</time>
      </trkpt>
      <trkpt lat="43.66574" lon="1.39159">
        <ele>125</ele>
        <time>2024-04-04T16:21:53Z</time>
      </trkpt>
      <trkpt lat="43.66573" lon="1.39163">
        <ele>125</ele>
        <time>2024-04-04T16:21:54Z</time>
      </trkpt>
      <trkpt lat="43.66573" lon="1.39166">
        <ele>125</ele>
        <time>2024-04-04T16:21:55Z</time>
      </trkpt>
      <trkpt lat="43.66572" lon="1.3917">
        <ele>125</ele>
        <time>2024-04-04T16:21:56Z</time>
      </trkpt>
      <trkpt lat="43.66571" lon="1.39173">
        <ele>125</ele>
        <time>2024-04-04T16:21:57Z</time>
      </trkpt>
      <trkpt lat="43.66571" lon="1.39177">
        <ele>125</ele>
        <time>2024-04-04T16:21:58Z</time>
      </trkpt>
      <trkpt lat="43.66571" lon="1.3918">
        <ele>125</ele>
        <time>2024-04-04T16:21:59Z</time>
      </trkpt>
      <trkpt lat="43.6657" lon="1.39184">
        <ele>125</ele>
        <time>2024-04-04T16:22:00Z</time>
      </trkpt>
      <trkpt lat="43.6657" lon="1.39188">
        <ele>125</ele>
        <time>2024-04-04T16:22:01Z</time>
      </trkpt>
      <trkpt lat="43.66569" lon="1.39192">
        <ele>125</ele>
        <time>2024-04-04T16:22:02Z</time>
      </trkpt>
      <trkpt lat="43.66569" lon="1.39196">
        <ele>125</ele>
        <time>2024-04-04T16:22:03Z</time>
      </trkpt>
      <trkpt lat="43.66568" lon="1.39199">
        <ele>125</ele>
        <time>2024-04-04T16:22:04Z</time>
      </trkpt>
      <trkpt lat="43.66567" lon="1.39202">
        <ele>125</ele>
        <time>2024-04-04T16:22:05Z</time>
      </trkpt>
      <trkpt lat="43.66566" lon="1.39204">
        <ele>125</ele>
        <time>2024-04-04T16:22:06Z</time>
      </trkpt>
      <trkpt lat="43.66566" lon="1.39204">
        <ele>125</ele>
        <time>2024-04-04T16:22:07Z</time>
      </trkpt>
      <trkpt lat="43.66549" lon="1.39263">
        <ele>125</ele>
        <time>2024-04-04T16:35:06Z</time>
      </trkpt>
      <trkpt lat="43.6655" lon="1.39258">
        <ele>125</ele>
        <time>2024-04-04T16:35:07Z</time>
      </trkpt>
      <trkpt lat="43.6655" lon="1.39256">
        <ele>125</ele>
        <time>2024-04-04T16:35:08Z</time>
      </trkpt>
      <trkpt lat="43.66551" lon="1.39253">
        <ele>125</ele>
        <time>2024-04-04T16:35:09Z</time>
      </trkpt>
      <trkpt lat="43.66551" lon="1.3925">
        <ele>125</ele>
        <time>2024-04-04T16:35:10Z</time>
      </trkpt>
      <trkpt lat="43.66552" lon="1.39247">
        <ele>125</ele>
        <time>2024-04-04T16:35:11Z</time>
      </trkpt>
      <trkpt lat="43.66552" lon="1.39245">
        <ele>125</ele>
        <time>2024-04-04T16:35:12Z</time>
      </trkpt>
      <trkpt lat="43.66553" lon="1.39241">
        <ele>125</ele>
        <time>2024-04-04T16:35:13Z</time>
      </trkpt>
      <trkpt lat="43.66554" lon="1.39238">
        <ele>125</ele>
        <time>2024-04-04T16:35:14Z</time>
      </trkpt>
      <trkpt lat="43.66554" lon="1.39235">
        <ele>125</ele>
        <time>2024-04-04T16:35:15Z</time>
      </trkpt>
      <trkpt lat="43.66555" lon="1.39232">
        <ele>125</ele>
        <time>2024-04-04T16:35:16Z</time>
      </trkpt>
      <trkpt lat="43.66555" lon="1.39229">
        <ele>125</ele>
        <time>2024-04-04T16:35:17Z</time>
      </trkpt>
      <trkpt lat="43.66555" lon="1.39226">
        <ele>125</ele>
        <time>2024-04-04T16:35:18Z</time>
      </trkpt>
      <trkpt lat="43.66556" lon="1.39223">
        <ele>125</ele>
        <time>2024-04-04T16:35:19Z</time>
      </trkpt>
      <trkpt lat="43.66557" lon="1.39221">
        <ele>125</ele>
        <time>2024-04-04T16:35:20Z</time>
      </trkpt>
      <trkpt lat="43.66557" lon="1.39218">
        <ele>125</ele>
        <time>2024-04-04T16:35:21Z</time>
      </trkpt>
      <trkpt lat="43.66558" lon="1.39215">
        <ele>125</ele>
        <time>2024-04-04T16:35:22Z</time>
      </trkpt>
      <trkpt lat="43.66559" lon="1.39213">
        <ele>125</ele>
        <time>2024-04-04T16:35:23Z</time>
      </trkpt>
      <trkpt lat="43.6656" lon="1.3921">
        <ele>124</ele>
        <time>2024-04-04T16:35:24Z</time>
      </trkpt>
      <trkpt lat="43.66561" lon="1.39207">
        <ele>124</ele>
        <time>2024-04-04T16:35:25Z</time>
      </trkpt>
      <trkpt lat="43.66562" lon="1.39204">
        <ele>125</ele>
        <time>2024-04-04T16:35:26Z</time>
      </trkpt>
      <trkpt lat="43.66562" lon="1.39201">
        <ele>125</ele>
        <time>2024-04-04T16:35:27Z</time>
      </trkpt>
      <trkpt lat="43.66563" lon="1.39199">
        <ele>125</ele>
        <time>2024-04-04T16:35:28Z</time>
      </trkpt>
      <trkpt lat="43.66564" lon="1.39196">
        <ele>125</ele>
        <time>2024-04-04T16:35:29Z</time>
      </trkpt>
      <trkpt lat="43.66565" lon="1.39193">
        <ele>125</ele>
        <time>2024-04-04T16:35:30Z</time>
      </trkpt>
      <trkpt lat="43.66565" lon="1.3919">
        <ele>125</ele>
        <time>2024-04-04T16:35:31Z</time>
      </trkpt>
      <trkpt lat="43.66565" lon="1.39188">
        <ele>125</ele>
        <time>2024-04-04T16:35:32Z</time>
      </trkpt>
      <trkpt lat="43.66565" lon="1.39184">
        <ele>125</ele>
        <time>2024-04-04T16:35:33Z</time>
      </trkpt>
      <trkpt lat="43.66566" lon="1.39181">
        <ele>125</ele>
        <time>2024-04-04T16:35:34Z</time>
      </trkpt>
      <trkpt lat="43.66566" lon="1.39178">
        <ele>125</ele>
        <time>2024-04-04T16:35:35Z</time>
      </trkpt>
      <trkpt lat="43.66566" lon="1.39175">
        <ele>125</ele>
        <time>2024-04-04T16:35:36Z</time>
      </trkpt>
      <trkpt lat="43.66566" lon="1.39172">
        <ele>125</ele>
        <time>2024-04-04T16:35:37Z</time>
      </trkpt>
      <trkpt lat="43.66567" lon="1.3917">
        <ele>125</ele>
        <time>2024-04-04T16:35:38Z</time>
      </trkpt>
      <trkpt lat="43.66568" lon="1.39167">
        <ele>125</ele>
        <time>2024-04-04T16:35:39Z</time>
      </trkpt>
      <trkpt lat="43.66568" lon="1.39164">
        <ele>125</ele>
        <time>2024-04-04T16:35:40Z</time>
      </trkpt>
      <trkpt lat="43.66569" lon="1.39161">
        <ele>125</ele>
        <time>2024-04-04T16:35:41Z</time>
      </trkpt>
      <trkpt lat="43.66569" lon="1.39159">
        <ele>125</ele>
        <time>2024-04-04T16:35:42Z</time>
      </trkpt>
      <trkpt lat="43.66569" lon="1.39156">
        <ele>125</ele>
        <time>2024-04-04T16:35:43Z</time>
      </trkpt>
      <trkpt lat="43.66569" lon="1.39153">
        <ele>125</ele>
        <time>2024-04-04T16:35:44Z</time>
      </trkpt>
      <trkpt lat="43.6657" lon="1.3915">
        <ele>125</ele>
        <time>2024-04-04T16:35:45Z</time>
      </trkpt>
      <trkpt lat="43.6657" lon="1.39146">
        <ele>125</ele>
        <time>2024-04-04T16:35:46Z</time>
      </trkpt>
      <trkpt lat="43.6657" lon="1.39144">
        <ele>125</ele>
        <time>2024-04-04T16:35:47Z</time>
      </trkpt>
      <trkpt lat="43.6657" lon="1.39144">
        <ele>125</ele>
        <time>2024-04-04T16:35:48Z</time>
      </trkpt>
      <trkpt lat="43.6657" lon="1.3914">
        <ele>125</ele>
        <time>2024-04-04T16:35:49Z</time>
      </trkpt>
      <trkpt lat="43.6657" lon="1.3914">
        <ele>125</ele>
        <time>2024-04-04T16:35:50Z</time>
      </trkpt>
      <trkpt lat="43.6657" lon="1.3914">
        <ele>125</ele>
        <time>2024-04-04T16:35:51Z</time>
      </trkpt>
      <trkpt lat="43.66571" lon="1.39138">
        <ele>125</ele>
        <time>2024-04-04T16:35:52Z</time>
      </trkpt>
      <trkpt lat="43.66571" lon="1.39138">
        <ele>125</ele>
        <time>2024-04-04T16:35:53Z</time>
      </trkpt>
      <trkpt lat="43.66571" lon="1.39138">
        <ele>125</ele>
        <time>2024-04-04T16:35:54Z</time>
      </trkpt>
      <trkpt lat="43.66572" lon="1.39138">
        <ele>126</ele>
        <time>2024-04-04T16:36:32Z</time>
      </trkpt>
      <trkpt lat="43.66572" lon="1.39135">
        <ele>126</ele>
        <time>2024-04-04T16:36:33Z</time>
      </trkpt>
      <trkpt lat="43.66572" lon="1.39132">
        <ele>126</ele>
        <time>2024-04-04T16:36:34Z</time>
      </trkpt>
      <trkpt lat="43.66572" lon="1.39129">
        <ele>126</ele>
        <time>2024-04-04T16:36:35Z</time>
      </trkpt>
      <trkpt lat="43.66572" lon="1.39127">
        <ele>126</ele>
        <time>2024-04-04T16:36:36Z</time>
      </trkpt>
      <trkpt lat="43.66573" lon="1.39124">
        <ele>126</ele>
        <time>2024-04-04T16:36:37Z</time>
      </trkpt>
      <trkpt lat="43.66573" lon="1.39121">
        <ele>126</ele>
        <time>2024-04-04T16:36:38Z</time>
      </trkpt>
      <trkpt lat="43.66574" lon="1.39119">
        <ele>126</ele>
        <time>2024-04-04T16:36:39Z</time>
      </trkpt>
      <trkpt lat="43.66574" lon="1.39116">
        <ele>126</ele>
        <time>2024-04-04T16:36:40Z</time>
      </trkpt>
      <trkpt lat="43.66575" lon="1.39112">
        <ele>126</ele>
        <time>2024-04-04T16:36:41Z</time>
      </trkpt>
      <trkpt lat="43.66575" lon="1.3911">
        <ele>126</ele>
        <time>2024-04-04T16:36:42Z</time>
      </trkpt>
      <trkpt lat="43.66575" lon="1.39107">
        <ele>126</ele>
        <time>2024-04-04T16:36:43Z</time>
      </trkpt>
      <trkpt lat="43.66576" lon="1.39104">
        <ele>126</ele>
        <time>2024-04-04T16:36:44Z</time>
      </trkpt>
      <trkpt lat="43.66576" lon="1.39101">
        <ele>126</ele>
        <time>2024-04-04T16:36:45Z</time>
      </trkpt>
      <trkpt lat="43.66577" lon="1.39098">
        <ele>126</ele>
        <time>2024-04-04T16:36:46Z</time>
      </trkpt>
      <trkpt lat="43.66578" lon="1.39095">
        <ele>126</ele>
        <time>2024-04-04T16:36:47Z</time>
      </trkpt>
      <trkpt lat="43.66578" lon="1.39092">
        <ele>126</ele>
        <time>2024-04-04T16:36:48Z</time>
      </trkpt>
      <trkpt lat="43.66579" lon="1.39089">
        <ele>126</ele>
        <time>2024-04-04T16:36:49Z</time>
      </trkpt>
      <trkpt lat="43.6658" lon="1.39086">
        <ele>126</ele>
        <time>2024-04-04T16:36:50Z</time>
      </trkpt>
      <trkpt lat="43.6658" lon="1.39083">
        <ele>126</ele>
        <time>2024-04-04T16:36:51Z</time>
      </trkpt>
      <trkpt lat="43.66581" lon="1.39081">
        <ele>126</ele>
        <time>2024-04-04T16:36:52Z</time>
      </trkpt>
      <trkpt lat="43.66581" lon="1.39078">
        <ele>126</ele>
        <time>2024-04-04T16:36:53Z</time>
      </trkpt>
      <trkpt lat="43.66582" lon="1.39075">
        <ele>126</ele>
        <time>2024-04-04T16:36:54Z</time>
      </trkpt>
      <trkpt lat="43.66583" lon="1.39072">
        <ele>126</ele>
        <time>2024-04-04T16:36:55Z</time>
      </trkpt>
      <trkpt lat="43.66584" lon="1.39069">
        <ele>126</ele>
        <time>2024-04-04T16:36:56Z</time>
      </trkpt>
      <trkpt lat="43.66585" lon="1.39066">
        <ele>126</ele>
        <time>2024-04-04T16:36:57Z</time>
      </trkpt>
      <trkpt lat="43.66586" lon="1.39063">
        <ele>126</ele>
        <time>2024-04-04T16:36:58Z</time>
      </trkpt>
      <trkpt lat="43.66587" lon="1.3906">
        <ele>126</ele>
        <time>2024-04-04T16:36:59Z</time>
      </trkpt>
      <trkpt lat="43.66587" lon="1.39057">
        <ele>126</ele>
        <time>2024-04-04T16:37:00Z</time>
      </trkpt>
      <trkpt lat="43.66588" lon="1.39054">
        <ele>126</ele>
        <time>2024-04-04T16:37:01Z</time>
      </trkpt>
      <trkpt lat="43.66589" lon="1.3905">
        <ele>126</ele>
        <time>2024-04-04T16:37:02Z</time>
      </trkpt>
      <trkpt lat="43.66589" lon="1.39047">
        <ele>126</ele>
        <time>2024-04-04T16:37:03Z</time>
      </trkpt>
      <trkpt lat="43.6659" lon="1.39044">
        <ele>126</ele>
        <time>2024-04-04T16:37:04Z</time>
      </trkpt>
      <trkpt lat="43.66591" lon="1.3904">
        <ele>126</ele>
        <time>2024-04-04T16:37:05Z</time>
      </trkpt>
      <trkpt lat="43.66591" lon="1.39038">
        <ele>126</ele>
        <time>2024-04-04T16:37:06Z</time>
      </trkpt>
      <trkpt lat="43.66591" lon="1.39035">
        <ele>126</ele>
        <time>2024-04-04T16:37:07Z</time>
      </trkpt>
      <trkpt lat="43.66592" lon="1.39032">
        <ele>126</ele>
        <time>2024-04-04T16:37:08Z</time>
      </trkpt>
      <trkpt lat="43.66593" lon="1.39029">
        <ele>126</ele>
        <time>2024-04-04T16:37:09Z</time>
      </trkpt>
      <trkpt lat="43.66593" lon="1.39025">
        <ele>126</ele>
        <time>2024-04-04T16:37:10Z</time>
      </trkpt>
      <trkpt lat="43.66593" lon="1.39022">
        <ele>125</ele>
        <time>2024-04-04T16:37:11Z</time>
      </trkpt>
      <trkpt lat="43.66594" lon="1.39019">
        <ele>126</ele>
        <time>2024-04-04T16:37:12Z</time>
      </trkpt>
      <trkpt lat="43.66595" lon="1.39016">
        <ele>126</ele>
        <time>2024-04-04T16:37:13Z</time>
      </trkpt>
      <trkpt lat="43.66595" lon="1.39016">
        <ele>126</ele>
        <time>2024-04-04T16:37:14Z</time>
      </trkpt>
      <trkpt lat="43.66596" lon="1.39011">
        <ele>126</ele>
        <time>2024-04-04T16:37:15Z</time>
      </trkpt>
      <trkpt lat="43.66597" lon="1.39008">
        <ele>126</ele>
        <time>2024-04-04T16:37:16Z</time>
      </trkpt>
      <trkpt lat="43.66597" lon="1.39005">
        <ele>126</ele>
        <time>2024-04-04T16:37:17Z</time>
      </trkpt>
      <trkpt lat="43.66598" lon="1.39003">
        <ele>126</ele>
        <time>2024-04-04T16:37:18Z</time>
      </trkpt>
      <trkpt lat="43.66599" lon="1.39">
        <ele>126</ele>
        <time>2024-04-04T16:37:19Z</time>
      </trkpt>
      <trkpt lat="43.666" lon="1.38998">
        <ele>126</ele>
        <time>2024-04-04T16:37:20Z</time>
      </trkpt>
      <trkpt lat="43.66601" lon="1.38995">
        <ele>126</ele>
        <time>2024-04-04T16:37:21Z</time>
      </trkpt>
      <trkpt lat="43.66602" lon="1.38991">
        <ele>125</ele>
        <time>2024-04-04T16:37:22Z</time>
      </trkpt>
      <trkpt lat="43.66602" lon="1.38988">
        <ele>125</ele>
        <time>2024-04-04T16:37:23Z</time>
      </trkpt>
      <trkpt lat="43.66602" lon="1.38984">
        <ele>125</ele>
        <time>2024-04-04T16:37:24Z</time>
      </trkpt>
      <trkpt lat="43.66602" lon="1.3898">
        <ele>125</ele>
        <time>2024-04-04T16:37:25Z</time>
      </trkpt>
      <trkpt lat="43.66602" lon="1.38977">
        <ele>125</ele>
        <time>2024-04-04T16:37:26Z</time>
      </trkpt>
      <trkpt lat="43.66602" lon="1.38973">
        <ele>125</ele>
        <time>2024-04-04T16:37:27Z</time>
      </trkpt>
      <trkpt lat="43.66602" lon="1.3897">
        <ele>125</ele>
        <time>2024-04-04T16:37:28Z</time>
      </trkpt>
      <trkpt lat="43.66602" lon="1.38967">
        <ele>125</ele>
        <time>2024-04-04T16:37:29Z</time>
      </trkpt>
      <trkpt lat="43.66601" lon="1.38964">
        <ele>125</ele>
        <time>2024-04-04T16:37:30Z</time>
      </trkpt>
      <trkpt lat="43.66602" lon="1.38961">
        <ele>125</ele>
        <time>2024-04-04T16:37:31Z</time>
      </trkpt>
      <trkpt lat="43.66602" lon="1.38958">
        <ele>125</ele>
        <time>2024-04-04T16:37:32Z</time>
      </trkpt>
      <trkpt lat="43.66602" lon="1.38955">
        <ele>125</ele>
        <time>2024-04-04T16:37:33Z</time>
      </trkpt>
      <trkpt lat="43.66603" lon="1.38952">
        <ele>125</ele>
        <time>2024-04-04T16:37:34Z</time>
      </trkpt>
      <trkpt lat="43.66603" lon="1.38949">
        <ele>125</ele>
        <time>2024-04-04T16:37:35Z</time>
      </trkpt>
      <trkpt lat="43.66603" lon="1.38946">
        <ele>125</ele>
        <time>2024-04-04T16:37:36Z</time>
      </trkpt>
      <trkpt lat="43.66604" lon="1.38944">
        <ele>126</ele>
        <time>2024-04-04T16:37:37Z</time>
      </trkpt>
      <trkpt lat="43.66604" lon="1.38941">
        <ele>126</ele>
        <time>2024-04-04T16:37:38Z</time>
      </trkpt>
      <trkpt lat="43.66604" lon="1.38938">
        <ele>126</ele>
        <time>2024-04-04T16:37:39Z</time>
      </trkpt>
      <trkpt lat="43.66604" lon="1.38934">
        <ele>126</ele>
        <time>2024-04-04T16:37:40Z</time>
      </trkpt>
      <trkpt lat="43.66603" lon="1.3893">
        <ele>126</ele>
        <time>2024-04-04T16:37:41Z</time>
      </trkpt>
      <trkpt lat="43.66603" lon="1.38926">
        <ele>126</ele>
        <time>2024-04-04T16:37:42Z</time>
      </trkpt>
      <trkpt lat="43.66604" lon="1.38923">
        <ele>126</ele>
        <time>2024-04-04T16:37:43Z</time>
      </trkpt>
      <trkpt lat="43.66605" lon="1.38919">
        <ele>126</ele>
        <time>2024-04-04T16:37:44Z</time>
      </trkpt>
      <trkpt lat="43.66605" lon="1.38915">
        <ele>126</ele>
        <time>2024-04-04T16:37:45Z</time>
      </trkpt>
      <trkpt lat="43.66605" lon="1.38912">
        <ele>126</ele>
        <time>2024-04-04T16:37:46Z</time>
      </trkpt>
      <trkpt lat="43.66605" lon="1.38909">
        <ele>126</ele>
        <time>2024-04-04T16:37:47Z</time>
      </trkpt>
      <trkpt lat="43.66605" lon="1.38905">
        <ele>126</ele>
        <time>2024-04-04T16:37:48Z</time>
      </trkpt>
      <trkpt lat="43.66605" lon="1.38902">
        <ele>126</ele>
        <time>2024-04-04T16:37:49Z</time>
      </trkpt>
      <trkpt lat="43.66605" lon="1.38898">
        <ele>126</ele>
        <time>2024-04-04T16:37:50Z</time>
      </trkpt>
      <trkpt lat="43.66605" lon="1.38894">
        <ele>126</ele>
        <time>2024-04-04T16:37:51Z</time>
      </trkpt>
      <trkpt lat="43.66605" lon="1.38891">
        <ele>125</ele>
        <time>2024-04-04T16:37:52Z</time>
      </trkpt>
      <trkpt lat="43.66605" lon="1.38888">
        <ele>125</ele>
        <time>2024-04-04T16:37:53Z</time>
      </trkpt>
      <trkpt lat="43.66605" lon="1.38885">
        <ele>126</ele>
        <time>2024-04-04T16:37:54Z</time>
      </trkpt>
      <trkpt lat="43.66605" lon="1.38881">
        <ele>126</ele>
        <time>2024-04-04T16:37:55Z</time>
      </trkpt>
      <trkpt lat="43.66605" lon="1.38878">
        <ele>126</ele>
        <time>2024-04-04T16:37:56Z</time>
      </trkpt>
      <trkpt lat="43.66606" lon="1.38874">
        <ele>126</ele>
        <time>2024-04-04T16:37:57Z</time>
      </trkpt>
      <trkpt lat="43.66606" lon="1.38871">
        <ele>126</ele>
        <time>2024-04-04T16:37:58Z</time>
      </trkpt>
      <trkpt lat="43.66607" lon="1.38868">
        <ele>126</ele>
        <time>2024-04-04T16:37:59Z</time>
      </trkpt>
      <trkpt lat="43.66607" lon="1.38864">
        <ele>125</ele>
        <time>2024-04-04T16:38:00Z</time>
      </trkpt>
      <trkpt lat="43.66607" lon="1.38861">
        <ele>125</ele>
        <time>2024-04-04T16:38:01Z</time>
      </trkpt>
      <trkpt lat="43.66608" lon="1.38859">
        <ele>125</ele>
        <time>2024-04-04T16:38:02Z</time>
      </trkpt>
      <trkpt lat="43.66607" lon="1.38856">
        <ele>125</ele>
        <time>2024-04-04T16:38:03Z</time>
      </trkpt>
      <trkpt lat="43.66607" lon="1.38853">
        <ele>125</ele>
        <time>2024-04-04T16:38:04Z</time>
      </trkpt>
      <trkpt lat="43.66607" lon="1.38849">
        <ele>125</ele>
        <time>2024-04-04T16:38:05Z</time>
      </trkpt>
      <trkpt lat="43.66607" lon="1.38846">
        <ele>125</ele>
        <time>2024-04-04T16:38:06Z</time>
      </trkpt>
      <trkpt lat="43.66607" lon="1.38843">
        <ele>125</ele>
        <time>2024-04-04T16:38:07Z</time>
      </trkpt>
      <trkpt lat="43.66606" lon="1.38835">
        <ele>125</ele>
        <time>2024-04-04T16:38:09Z</time>
      </trkpt>
      <trkpt lat="43.66605" lon="1.38832">
        <ele>125</ele>
        <time>2024-04-04T16:38:10Z</time>
      </trkpt>
      <trkpt lat="43.66605" lon="1.38829">
        <ele>125</ele>
        <time>2024-04-04T16:38:11Z</time>
      </trkpt>
      <trkpt lat="43.66604" lon="1.38826">
        <ele>125</ele>
        <time>2024-04-04T16:38:12Z</time>
      </trkpt>
      <trkpt lat="43.66604" lon="1.38826">
        <ele>125</ele>
        <time>2024-04-04T16:38:13Z</time>
      </trkpt>
      <trkpt lat="43.66604" lon="1.38821">
        <ele>126</ele>
        <time>2024-04-04T16:38:14Z</time>
      </trkpt>
      <trkpt lat="43.66604" lon="1.38819">
        <ele>126</ele>
        <time>2024-04-04T16:38:15Z</time>
      </trkpt>
      <trkpt lat="43.66603" lon="1.38816">
        <ele>126</ele>
        <time>2024-04-04T16:38:16Z</time>
      </trkpt>
      <trkpt lat="43.66602" lon="1.38813">
        <ele>126</ele>
        <time>2024-04-04T16:38:17Z</time>
      </trkpt>
      <trkpt lat="43.66601" lon="1.38809">
        <ele>126</ele>
        <time>2024-04-04T16:38:18Z</time>
      </trkpt>
      <trkpt lat="43.666" lon="1.38806">
        <ele>126</ele>
        <time>2024-04-04T16:38:19Z</time>
      </trkpt>
      <trkpt lat="43.66599" lon="1.38802">
        <ele>126</ele>
        <time>2024-04-04T16:38:20Z</time>
      </trkpt>
      <trkpt lat="43.66599" lon="1.38799">
        <ele>126</ele>
        <time>2024-04-04T16:38:21Z</time>
      </trkpt>
      <trkpt lat="43.66598" lon="1.38796">
        <ele>126</ele>
        <time>2024-04-04T16:38:22Z</time>
      </trkpt>
      <trkpt lat="43.66598" lon="1.38793">
        <ele>126</ele>
        <time>2024-04-04T16:38:23Z</time>
      </trkpt>
      <trkpt lat="43.66597" lon="1.38791">
        <ele>126</ele>
        <time>2024-04-04T16:38:24Z</time>
      </trkpt>
      <trkpt lat="43.66596" lon="1.38788">
        <ele>126</ele>
        <time>2024-04-04T16:38:25Z</time>
      </trkpt>
      <trkpt lat="43.66595" lon="1.38785">
        <ele>126</ele>
        <time>2024-04-04T16:38:26Z</time>
      </trkpt>
      <trkpt lat="43.66594" lon="1.38782">
        <ele>126</ele>
        <time>2024-04-04T16:38:27Z</time>
      </trkpt>
      <trkpt lat="43.66593" lon="1.3878">
        <ele>126</ele>
        <time>2024-04-04T16:38:28Z</time>
      </trkpt>
      <trkpt lat="43.66592" lon="1.38777">
        <ele>126</ele>
        <time>2024-04-04T16:38:29Z</time>
      </trkpt>
      <trkpt lat="43.66591" lon="1.38775">
        <ele>126</ele>
        <time>2024-04-04T16:38:30Z</time>
      </trkpt>
      <trkpt lat="43.6659" lon="1.38773">
        <ele>126</ele>
        <time>2024-04-04T16:38:31Z</time>
      </trkpt>
      <trkpt lat="43.66589" lon="1.3877">
        <ele>126</ele>
        <time>2024-04-04T16:38:32Z</time>
      </trkpt>
      <trkpt lat="43.66589" lon="1.3877">
        <ele>126</ele>
        <time>2024-04-04T16:38:33Z</time>
      </trkpt>
      <trkpt lat="43.66587" lon="1.38766">
        <ele>126</ele>
        <time>2024-04-04T16:38:34Z</time>
      </trkpt>
      <trkpt lat="43.66585" lon="1.38764">
        <ele>126</ele>
        <time>2024-04-04T16:38:35Z</time>
      </trkpt>
      <trkpt lat="43.66584" lon="1.38761">
        <ele>126</ele>
        <time>2024-04-04T16:38:36Z</time>
      </trkpt>
      <trkpt lat="43.66582" lon="1.38759">
        <ele>126</ele>
        <time>2024-04-04T16:38:37Z</time>
      </trkpt>
      <trkpt lat="43.6658" lon="1.38757">
        <ele>125</ele>
        <time>2024-04-04T16:38:38Z</time>
      </trkpt>
      <trkpt lat="43.66579" lon="1.38755">
        <ele>125</ele>
        <time>2024-04-04T16:38:39Z</time>
      </trkpt>
      <trkpt lat="43.66577" lon="1.38753">
        <ele>125</ele>
        <time>2024-04-04T16:38:40Z</time>
      </trkpt>
      <trkpt lat="43.66575" lon="1.3875">
        <ele>125</ele>
        <time>2024-04-04T16:38:41Z</time>
      </trkpt>
      <trkpt lat="43.66573" lon="1.38748">
        <ele>125</ele>
        <time>2024-04-04T16:38:42Z</time>
      </trkpt>
      <trkpt lat="43.66572" lon="1.38746">
        <ele>125</ele>
        <time>2024-04-04T16:38:43Z</time>
      </trkpt>
      <trkpt lat="43.6657" lon="1.38744">
        <ele>125</ele>
        <time>2024-04-04T16:38:44Z</time>
      </trkpt>
      <trkpt lat="43.66569" lon="1.38741">
        <ele>125</ele>
        <time>2024-04-04T16:38:45Z</time>
      </trkpt>
      <trkpt lat="43.66567" lon="1.38738">
        <ele>125</ele>
        <time>2024-04-04T16:38:46Z</time>
      </trkpt>
      <trkpt lat="43.66566" lon="1.38736">
        <ele>125</ele>
        <time>2024-04-04T16:38:47Z</time>
      </trkpt>
      <trkpt lat="43.66565" lon="1.38735">
        <ele>125</ele>
        <time>2024-04-04T16:38:48Z</time>
      </trkpt>
      <trkpt lat="43.66565" lon="1.38735">
        <ele>125</ele>
        <time>2024-04-04T16:38:49Z</time>
      </trkpt>
      <trkpt lat="43.66562" lon="1.38732">
        <ele>125</ele>
        <time>2024-04-04T16:38:50Z</time>
      </trkpt>
      <trkpt lat="43.6656" lon="1.38731">
        <ele>125</ele>
        <time>2024-04-04T16:38:51Z</time>
      </trkpt>
      <trkpt lat="43.6656" lon="1.38731">
        <ele>125</ele>
        <time>2024-04-04T16:38:52Z</time>
      </trkpt>
      <trkpt lat="43.66556" lon="1.3873">
        <ele>125</ele>
        <time>2024-04-04T16:38:53Z</time>
      </trkpt>
      <trkpt lat="43.66554" lon="1.3873">
        <ele>125</ele>
        <time>2024-04-04T16:38:54Z</time>
      </trkpt>
      <trkpt lat="43.66553" lon="1.38729">
        <ele>125</ele>
        <time>2024-04-04T16:38:55Z</time>
      </trkpt>
      <trkpt lat="43.66551" lon="1.38729">
        <ele>125</ele>
        <time>2024-04-04T16:38:56Z</time>
      </trkpt>
      <trkpt lat="43.66548" lon="1.38729">
        <ele>125</ele>
        <time>2024-04-04T16:38:57Z</time>
      </trkpt>
      <trkpt lat="43.66546" lon="1.3873">
        <ele>126</ele>
        <time>2024-04-04T16:38:58Z</time>
      </trkpt>
      <trkpt lat="43.66544" lon="1.38731">
        <ele>126</ele>
        <time>2024-04-04T16:38:59Z</time>
      </trkpt>
      <trkpt lat="43.66543" lon="1.38732">
        <ele>126</ele>
        <time>2024-04-04T16:39:00Z</time>
      </trkpt>
      <trkpt lat="43.66541" lon="1.38734">
        <ele>126</ele>
        <time>2024-04-04T16:39:01Z</time>
      </trkpt>
      <trkpt lat="43.66539" lon="1.38735">
        <ele>126</ele>
        <time>2024-04-04T16:39:02Z</time>
      </trkpt>
      <trkpt lat="43.66538" lon="1.38737">
        <ele>126</ele>
        <time>2024-04-04T16:39:03Z</time>
      </trkpt>
      <trkpt lat="43.66536" lon="1.38738">
        <ele>126</ele>
        <time>2024-04-04T16:39:04Z</time>
      </trkpt>
      <trkpt lat="43.66535" lon="1.3874">
        <ele>126</ele>
        <time>2024-04-04T16:39:05Z</time>
      </trkpt>
      <trkpt lat="43.66533" lon="1.38741">
        <ele>126</ele>
        <time>2024-04-04T16:39:06Z</time>
      </trkpt>
      <trkpt lat="43.66531" lon="1.38743">
        <ele>126</ele>
        <time>2024-04-04T16:39:07Z</time>
      </trkpt>
      <trkpt lat="43.6653" lon="1.38745">
        <ele>126</ele>
        <time>2024-04-04T16:39:08Z</time>
      </trkpt>
      <trkpt lat="43.66528" lon="1.38747">
        <ele>126</ele>
        <time>2024-04-04T16:39:09Z</time>
      </trkpt>
      <trkpt lat="43.66526" lon="1.38748">
        <ele>126</ele>
        <time>2024-04-04T16:39:10Z</time>
      </trkpt>
      <trkpt lat="43.66524" lon="1.3875">
        <ele>126</ele>
        <time>2024-04-04T16:39:11Z</time>
      </trkpt>
      <trkpt lat="43.66523" lon="1.38752">
        <ele>126</ele>
        <time>2024-04-04T16:39:12Z</time>
      </trkpt>
      <trkpt lat="43.66521" lon="1.38754">
        <ele>126</ele>
        <time>2024-04-04T16:39:13Z</time>
      </trkpt>
      <trkpt lat="43.6652" lon="1.38756">
        <ele>126</ele>
        <time>2024-04-04T16:39:14Z</time>
      </trkpt>
      <trkpt lat="43.66518" lon="1.38758">
        <ele>126</ele>
        <time>2024-04-04T16:39:15Z</time>
      </trkpt>
      <trkpt lat="43.66517" lon="1.3876">
        <ele>126</ele>
        <time>2024-04-04T16:39:16Z</time>
      </trkpt>
      <trkpt lat="43.66515" lon="1.38761">
        <ele>126</ele>
        <time>2024-04-04T16:39:17Z</time>
      </trkpt>
      <trkpt lat="43.66514" lon="1.38763">
        <ele>126</ele>
        <time>2024-04-04T16:39:18Z</time>
      </trkpt>
      <trkpt lat="43.66511" lon="1.38765">
        <ele>126</ele>
        <time>2024-04-04T16:39:19Z</time>
      </trkpt>
      <trkpt lat="43.6651" lon="1.38766">
        <ele>126</ele>
        <time>2024-04-04T16:39:20Z</time>
      </trkpt>
      <trkpt lat="43.66509" lon="1.38768">
        <ele>126</ele>
        <time>2024-04-04T16:39:21Z</time>
      </trkpt>
      <trkpt lat="43.66507" lon="1.3877">
        <ele>126</ele>
        <time>2024-04-04T16:39:22Z</time>
      </trkpt>
      <trkpt lat="43.66506" lon="1.38773">
        <ele>126</ele>
        <time>2024-04-04T16:39:23Z</time>
      </trkpt>
      <trkpt lat="43.66504" lon="1.38775">
        <ele>126</ele>
        <time>2024-04-04T16:39:24Z</time>
      </trkpt>
      <trkpt lat="43.66502" lon="1.38777">
        <ele>126</ele>
        <time>2024-04-04T16:39:25Z</time>
      </trkpt>
      <trkpt lat="43.665" lon="1.38778">
        <ele>126</ele>
        <time>2024-04-04T16:39:26Z</time>
      </trkpt>
      <trkpt lat="43.66498" lon="1.3878">
        <ele>125</ele>
        <time>2024-04-04T16:39:27Z</time>
      </trkpt>
      <trkpt lat="43.66497" lon="1.38782">
        <ele>125</ele>
        <time>2024-04-04T16:39:28Z</time>
      </trkpt>
      <trkpt lat="43.66495" lon="1.38784">
        <ele>126</ele>
        <time>2024-04-04T16:39:29Z</time>
      </trkpt>
      <trkpt lat="43.66494" lon="1.38786">
        <ele>126</ele>
        <time>2024-04-04T16:39:30Z</time>
      </trkpt>
      <trkpt lat="43.66492" lon="1.38788">
        <ele>126</ele>
        <time>2024-04-04T16:39:31Z</time>
      </trkpt>
      <trkpt lat="43.6649" lon="1.38789">
        <ele>126</ele>
        <time>2024-04-04T16:39:32Z</time>
      </trkpt>
      <trkpt lat="43.66489" lon="1.38791">
        <ele>126</ele>
        <time>2024-04-04T16:39:33Z</time>
      </trkpt>
      <trkpt lat="43.66489" lon="1.38791">
        <ele>126</ele>
        <time>2024-04-04T16:39:34Z</time>
      </trkpt>
      <trkpt lat="43.66486" lon="1.38794">
        <ele>126</ele>
        <time>2024-04-04T16:39:35Z</time>
      </trkpt>
      <trkpt lat="43.66485" lon="1.38796">
        <ele>126</ele>
        <time>2024-04-04T16:39:36Z</time>
      </trkpt>
      <trkpt lat="43.66485" lon="1.38796">
        <ele>126</ele>
        <time>2024-04-04T16:39:37Z</time>
      </trkpt>
      <trkpt lat="43.66483" lon="1.388">
        <ele>126</ele>
        <time>2024-04-04T16:39:38Z</time>
      </trkpt>
      <trkpt lat="43.66481" lon="1.38801">
        <ele>126</ele>
        <time>2024-04-04T16:39:39Z</time>
      </trkpt>
      <trkpt lat="43.66479" lon="1.38802">
        <ele>126</ele>
        <time>2024-04-04T16:39:40Z</time>
      </trkpt>
      <trkpt lat="43.66479" lon="1.38802">
        <ele>126</ele>
        <time>2024-04-04T16:39:41Z</time>
      </trkpt>
      <trkpt lat="43.66476" lon="1.38804">
        <ele>126</ele>
        <time>2024-04-04T16:39:42Z</time>
      </trkpt>
      <trkpt lat="43.66474" lon="1.38806">
        <ele>126</ele>
        <time>2024-04-04T16:39:43Z</time>
      </trkpt>
      <trkpt lat="43.66472" lon="1.38808">
        <ele>126</ele>
        <time>2024-04-04T16:39:44Z</time>
      </trkpt>
      <trkpt lat="43.6647" lon="1.3881">
        <ele>126</ele>
        <time>2024-04-04T16:39:45Z</time>
      </trkpt>
      <trkpt lat="43.66467" lon="1.38811">
        <ele>126</ele>
        <time>2024-04-04T16:39:46Z</time>
      </trkpt>
      <trkpt lat="43.66465" lon="1.38813">
        <ele>126</ele>
        <time>2024-04-04T16:39:47Z</time>
      </trkpt>
      <trkpt lat="43.66463" lon="1.38815">
        <ele>126</ele>
        <time>2024-04-04T16:39:48Z</time>
      </trkpt>
      <trkpt lat="43.66461" lon="1.38817">
        <ele>126</ele>
        <time>2024-04-04T16:39:49Z</time>
      </trkpt>
      <trkpt lat="43.66458" lon="1.38819">
        <ele>126</ele>
        <time>2024-04-04T16:39:50Z</time>
      </trkpt>
      <trkpt lat="43.66456" lon="1.3882">
        <ele>126</ele>
        <time>2024-04-04T16:39:51Z</time>
      </trkpt>
      <trkpt lat="43.66454" lon="1.38822">
        <ele>126</ele>
        <time>2024-04-04T16:39:52Z</time>
      </trkpt>
      <trkpt lat="43.66452" lon="1.38823">
        <ele>126</ele>
        <time>2024-04-04T16:39:53Z</time>
      </trkpt>
      <trkpt lat="43.6645" lon="1.38825">
        <ele>126</ele>
        <time>2024-04-04T16:39:54Z</time>
      </trkpt>
      <trkpt lat="43.66448" lon="1.38826">
        <ele>125</ele>
        <time>2024-04-04T16:39:55Z</time>
      </trkpt>
      <trkpt lat="43.66448" lon="1.38826">
        <ele>125</ele>
        <time>2024-04-04T16:39:56Z</time>
      </trkpt>
      <trkpt lat="43.66445" lon="1.38829">
        <ele>125</ele>
        <time>2024-04-04T16:39:57Z</time>
      </trkpt>
      <trkpt lat="43.66445" lon="1.38829">
        <ele>125</ele>
        <time>2024-04-04T16:39:58Z</time>
      </trkpt>
      <trkpt lat="43.66442" lon="1.3883">
        <ele>125</ele>
        <time>2024-04-04T16:39:59Z</time>
      </trkpt>
      <trkpt lat="43.6644" lon="1.38831">
        <ele>125</ele>
        <time>2024-04-04T16:40:00Z</time>
      </trkpt>
      <trkpt lat="43.66438" lon="1.38832">
        <ele>125</ele>
        <time>2024-04-04T16:40:01Z</time>
      </trkpt>
      <trkpt lat="43.66436" lon="1.38834">
        <ele>125</ele>
        <time>2024-04-04T16:40:02Z</time>
      </trkpt>
      <trkpt lat="43.66434" lon="1.38836">
        <ele>125</ele>
        <time>2024-04-04T16:40:03Z</time>
      </trkpt>
      <trkpt lat="43.66433" lon="1.38838">
        <ele>125</ele>
        <time>2024-04-04T16:40:04Z</time>
      </trkpt>
      <trkpt lat="43.66431" lon="1.3884">
        <ele>125</ele>
        <time>2024-04-04T16:40:05Z</time>
      </trkpt>
      <trkpt lat="43.66429" lon="1.38843">
        <ele>125</ele>
        <time>2024-04-04T16:40:06Z</time>
      </trkpt>
      <trkpt lat="43.66427" lon="1.38845">
        <ele>125</ele>
        <time>2024-04-04T16:40:07Z</time>
      </trkpt>
      <trkpt lat="43.66425" lon="1.38846">
        <ele>125</ele>
        <time>2024-04-04T16:40:08Z</time>
      </trkpt>
      <trkpt lat="43.66423" lon="1.38848">
        <ele>125</ele>
        <time>2024-04-04T16:40:09Z</time>
      </trkpt>
      <trkpt lat="43.66421" lon="1.38849">
        <ele>125</ele>
        <time>2024-04-04T16:40:10Z</time>
      </trkpt>
      <trkpt lat="43.66418" lon="1.38851">
        <ele>126</ele>
        <time>2024-04-04T16:40:11Z</time>
      </trkpt>
      <trkpt lat="43.66416" lon="1.38852">
        <ele>126</ele>
        <time>2024-04-04T16:40:12Z</time>
      </trkpt>
      <trkpt lat="43.66414" lon="1.38853">
        <ele>126</ele>
        <time>2024-04-04T16:40:13Z</time>
      </trkpt>
      <trkpt lat="43.66412" lon="1.38855">
        <ele>126</ele>
        <time>2024-04-04T16:40:14Z</time>
      </trkpt>
      <trkpt lat="43.6641" lon="1.38856">
        <ele>126</ele>
        <time>2024-04-04T16:40:15Z</time>
      </trkpt>
      <trkpt lat="43.66408" lon="1.38857">
        <ele>125</ele>
        <time>2024-04-04T16:40:16Z</time>
      </trkpt>
      <trkpt lat="43.66406" lon="1.38859">
        <ele>126</ele>
        <time>2024-04-04T16:40:17Z</time>
      </trkpt>
      <trkpt lat="43.66404" lon="1.3886">
        <ele>126</ele>
        <time>2024-04-04T16:40:18Z</time>
      </trkpt>
      <trkpt lat="43.66403" lon="1.38862">
        <ele>126</ele>
        <time>2024-04-04T16:40:19Z</time>
      </trkpt>
      <trkpt lat="43.664" lon="1.38863">
        <ele>126</ele>
        <time>2024-04-04T16:40:20Z</time>
      </trkpt>
      <trkpt lat="43.66399" lon="1.38866">
        <ele>126</ele>
        <time>2024-04-04T16:40:21Z</time>
      </trkpt>
      <trkpt lat="43.66397" lon="1.38868">
        <ele>126</ele>
        <time>2024-04-04T16:40:22Z</time>
      </trkpt>
      <trkpt lat="43.66397" lon="1.38868">
        <ele>126</ele>
        <time>2024-04-04T16:40:23Z</time>
      </trkpt>
      <trkpt lat="43.66395" lon="1.38872">
        <ele>126</ele>
        <time>2024-04-04T16:40:24Z</time>
      </trkpt>
      <trkpt lat="43.66393" lon="1.38874">
        <ele>125</ele>
        <time>2024-04-04T16:40:25Z</time>
      </trkpt>
      <trkpt lat="43.66391" lon="1.38876">
        <ele>125</ele>
        <time>2024-04-04T16:40:26Z</time>
      </trkpt>
      <trkpt lat="43.66389" lon="1.38877">
        <ele>125</ele>
        <time>2024-04-04T16:40:27Z</time>
      </trkpt>
      <trkpt lat="43.66387" lon="1.38879">
        <ele>125</ele>
        <time>2024-04-04T16:40:28Z</time>
      </trkpt>
      <trkpt lat="43.66385" lon="1.38881">
        <ele>125</ele>
        <time>2024-04-04T16:40:29Z</time>
      </trkpt>
      <trkpt lat="43.66383" lon="1.38882">
        <ele>125</ele>
        <time>2024-04-04T16:40:30Z</time>
      </trkpt>
      <trkpt lat="43.66381" lon="1.38884">
        <ele>125</ele>
        <time>2024-04-04T16:40:31Z</time>
      </trkpt>
      <trkpt lat="43.6638" lon="1.38886">
        <ele>125</ele>
        <time>2024-04-04T16:40:32Z</time>
      </trkpt>
      <trkpt lat="43.66378" lon="1.38887">
        <ele>125</ele>
        <time>2024-04-04T16:40:33Z</time>
      </trkpt>
      <trkpt lat="43.66376" lon="1.38889">
        <ele>125</ele>
        <time>2024-04-04T16:40:34Z</time>
      </trkpt>
      <trkpt lat="43.66375" lon="1.38891">
        <ele>125</ele>
        <time>2024-04-04T16:40:35Z</time>
      </trkpt>
      <trkpt lat="43.66373" lon="1.38894">
        <ele>125</ele>
        <time>2024-04-04T16:40:36Z</time>
      </trkpt>
      <trkpt lat="43.66371" lon="1.38896">
        <ele>125</ele>
        <time>2024-04-04T16:40:37Z</time>
      </trkpt>
      <trkpt lat="43.66369" lon="1.38898">
        <ele>125</ele>
        <time>2024-04-04T16:40:38Z</time>
      </trkpt>
      <trkpt lat="43.66367" lon="1.38899">
        <ele>125</ele>
        <time>2024-04-04T16:40:39Z</time>
      </trkpt>
      <trkpt lat="43.66365" lon="1.38901">
        <ele>125</ele>
        <time>2024-04-04T16:40:40Z</time>
      </trkpt>
      <trkpt lat="43.66364" lon="1.38903">
        <ele>125</ele>
        <time>2024-04-04T16:40:41Z</time>
      </trkpt>
      <trkpt lat="43.66363" lon="1.38906">
        <ele>125</ele>
        <time>2024-04-04T16:40:42Z</time>
      </trkpt>
      <trkpt lat="43.66363" lon="1.38906">
        <ele>125</ele>
        <time>2024-04-04T16:40:43Z</time>
      </trkpt>
      <trkpt lat="43.66361" lon="1.38909">
        <ele>125</ele>
        <time>2024-04-04T16:40:44Z</time>
      </trkpt>
      <trkpt lat="43.66361" lon="1.38909">
        <ele>125</ele>
        <time>2024-04-04T16:40:45Z</time>
      </trkpt>
      <trkpt lat="43.66358" lon="1.38913">
        <ele>125</ele>
        <time>2024-04-04T16:40:46Z</time>
      </trkpt>
      <trkpt lat="43.66357" lon="1.38915">
        <ele>125</ele>
        <time>2024-04-04T16:40:47Z</time>
      </trkpt>
      <trkpt lat="43.66357" lon="1.38915">
        <ele>125</ele>
        <time>2024-04-04T16:40:48Z</time>
      </trkpt>
      <trkpt lat="43.66355" lon="1.38919">
        <ele>125</ele>
        <time>2024-04-04T16:40:49Z</time>
      </trkpt>
      <trkpt lat="43.66353" lon="1.38922">
        <ele>125</ele>
        <time>2024-04-04T16:40:50Z</time>
      </trkpt>
      <trkpt lat="43.66352" lon="1.38924">
        <ele>125</ele>
        <time>2024-04-04T16:40:51Z</time>
      </trkpt>
      <trkpt lat="43.66351" lon="1.38926">
        <ele>125</ele>
        <time>2024-04-04T16:40:52Z</time>
      </trkpt>
      <trkpt lat="43.66349" lon="1.38929">
        <ele>125</ele>
        <time>2024-04-04T16:40:53Z</time>
      </trkpt>
      <trkpt lat="43.66348" lon="1.38932">
        <ele>125</ele>
        <time>2024-04-04T16:40:54Z</time>
      </trkpt>
      <trkpt lat="43.66346" lon="1.38934">
        <ele>125</ele>
        <time>2024-04-04T16:40:55Z</time>
      </trkpt>
      <trkpt lat="43.66344" lon="1.38936">
        <ele>125</ele>
        <time>2024-04-04T16:40:56Z</time>
      </trkpt>
      <trkpt lat="43.66343" lon="1.38938">
        <ele>125</ele>
        <time>2024-04-04T16:40:57Z</time>
      </trkpt>
      <trkpt lat="43.66343" lon="1.38938">
        <ele>126</ele>
        <time>2024-04-04T16:40:58Z</time>
      </trkpt>
      <trkpt lat="43.6634" lon="1.38941">
        <ele>126</ele>
        <time>2024-04-04T16:40:59Z</time>
      </trkpt>
      <trkpt lat="43.66338" lon="1.38944">
        <ele>125</ele>
        <time>2024-04-04T16:41:00Z</time>
      </trkpt>
      <trkpt lat="43.66337" lon="1.38946">
        <ele>125</ele>
        <time>2024-04-04T16:41:01Z</time>
      </trkpt>
      <trkpt lat="43.66335" lon="1.38948">
        <ele>125</ele>
        <time>2024-04-04T16:41:02Z</time>
      </trkpt>
      <trkpt lat="43.66334" lon="1.38951">
        <ele>125</ele>
        <time>2024-04-04T16:41:03Z</time>
      </trkpt>
      <trkpt lat="43.66332" lon="1.38952">
        <ele>125</ele>
        <time>2024-04-04T16:41:04Z</time>
      </trkpt>
      <trkpt lat="43.6633" lon="1.38955">
        <ele>126</ele>
        <time>2024-04-04T16:41:05Z</time>
      </trkpt>
      <trkpt lat="43.66329" lon="1.38957">
        <ele>126</ele>
        <time>2024-04-04T16:41:06Z</time>
      </trkpt>
      <trkpt lat="43.66327" lon="1.38958">
        <ele>126</ele>
        <time>2024-04-04T16:41:07Z</time>
      </trkpt>
      <trkpt lat="43.66325" lon="1.3896">
        <ele>126</ele>
        <time>2024-04-04T16:41:08Z</time>
      </trkpt>
      <trkpt lat="43.66325" lon="1.3896">
        <ele>126</ele>
        <time>2024-04-04T16:41:09Z</time>
      </trkpt>
      <trkpt lat="43.66323" lon="1.38961">
        <ele>125</ele>
        <time>2024-04-04T16:41:10Z</time>
      </trkpt>
      <trkpt lat="43.66323" lon="1.38961">
        <ele>125</ele>
        <time>2024-04-04T16:41:11Z</time>
      </trkpt>
      <trkpt lat="43.6632" lon="1.38961">
        <ele>125</ele>
        <time>2024-04-04T16:41:12Z</time>
      </trkpt>
      <trkpt lat="43.6632" lon="1.38961">
        <ele>125</ele>
        <time>2024-04-04T16:41:13Z</time>
      </trkpt>
      <trkpt lat="43.66318" lon="1.38964">
        <ele>125</ele>
        <time>2024-04-04T16:41:14Z</time>
      </trkpt>
      <trkpt lat="43.66317" lon="1.38967">
        <ele>125</ele>
        <time>2024-04-04T16:41:15Z</time>
      </trkpt>
      <trkpt lat="43.66315" lon="1.38969">
        <ele>125</ele>
        <time>2024-04-04T16:41:16Z</time>
      </trkpt>
      <trkpt lat="43.66314" lon="1.38972">
        <ele>125</ele>
        <time>2024-04-04T16:41:17Z</time>
      </trkpt>
      <trkpt lat="43.66314" lon="1.38972">
        <ele>125</ele>
        <time>2024-04-04T16:41:18Z</time>
      </trkpt>
      <trkpt lat="43.66311" lon="1.38977">
        <ele>125</ele>
        <time>2024-04-04T16:41:19Z</time>
      </trkpt>
      <trkpt lat="43.66309" lon="1.38979">
        <ele>125</ele>
        <time>2024-04-04T16:41:20Z</time>
      </trkpt>
      <trkpt lat="43.66308" lon="1.38981">
        <ele>125</ele>
        <time>2024-04-04T16:41:21Z</time>
      </trkpt>
      <trkpt lat="43.66307" lon="1.38984">
        <ele>126</ele>
        <time>2024-04-04T16:41:22Z</time>
      </trkpt>
      <trkpt lat="43.66306" lon="1.38986">
        <ele>126</ele>
        <time>2024-04-04T16:41:23Z</time>
      </trkpt>
      <trkpt lat="43.66305" lon="1.38988">
        <ele>126</ele>
        <time>2024-04-04T16:41:24Z</time>
      </trkpt>
      <trkpt lat="43.66305" lon="1.38988">
        <ele>126</ele>
        <time>2024-04-04T16:41:25Z</time>
      </trkpt>
      <trkpt lat="43.66302" lon="1.38992">
        <ele>126</ele>
        <time>2024-04-04T16:41:26Z</time>
      </trkpt>
      <trkpt lat="43.66302" lon="1.38992">
        <ele>126</ele>
        <time>2024-04-04T16:41:27Z</time>
      </trkpt>
      <trkpt lat="43.66301" lon="1.38995">
        <ele>127</ele>
        <time>2024-04-04T16:41:28Z</time>
      </trkpt>
      <trkpt lat="43.663" lon="1.38998">
        <ele>127</ele>
        <time>2024-04-04T16:41:29Z</time>
      </trkpt>
      <trkpt lat="43.66298" lon="1.39001">
        <ele>127</ele>
        <time>2024-04-04T16:41:30Z</time>
      </trkpt>
      <trkpt lat="43.66297" lon="1.39004">
        <ele>126</ele>
        <time>2024-04-04T16:41:31Z</time>
      </trkpt>
      <trkpt lat="43.66295" lon="1.39007">
        <ele>126</ele>
        <time>2024-04-04T16:41:32Z</time>
      </trkpt>
      <trkpt lat="43.66294" lon="1.39009">
        <ele>125</ele>
        <time>2024-04-04T16:41:33Z</time>
      </trkpt>
      <trkpt lat="43.66293" lon="1.39011">
        <ele>125</ele>
        <time>2024-04-04T16:41:34Z</time>
      </trkpt>
      <trkpt lat="43.66292" lon="1.39013">
        <ele>125</ele>
        <time>2024-04-04T16:41:35Z</time>
      </trkpt>
      <trkpt lat="43.6629" lon="1.39016">
        <ele>125</ele>
        <time>2024-04-04T16:41:36Z</time>
      </trkpt>
      <trkpt lat="43.6629" lon="1.39016">
        <ele>125</ele>
        <time>2024-04-04T16:41:37Z</time>
      </trkpt>
      <trkpt lat="43.66289" lon="1.3902">
        <ele>125</ele>
        <time>2024-04-04T16:41:38Z</time>
      </trkpt>
      <trkpt lat="43.66287" lon="1.39022">
        <ele>125</ele>
        <time>2024-04-04T16:41:39Z</time>
      </trkpt>
      <trkpt lat="43.66286" lon="1.39025">
        <ele>125</ele>
        <time>2024-04-04T16:41:40Z</time>
      </trkpt>
      <trkpt lat="43.66284" lon="1.39027">
        <ele>125</ele>
        <time>2024-04-04T16:41:41Z</time>
      </trkpt>
      <trkpt lat="43.66283" lon="1.39029">
        <ele>125</ele>
        <time>2024-04-04T16:41:42Z</time>
      </trkpt>
      <trkpt lat="43.66282" lon="1.39031">
        <ele>125</ele>
        <time>2024-04-04T16:41:43Z</time>
      </trkpt>
      <trkpt lat="43.6628" lon="1.39034">
        <ele>125</ele>
        <time>2024-04-04T16:41:44Z</time>
      </trkpt>
      <trkpt lat="43.6628" lon="1.39034">
        <ele>125</ele>
        <time>2024-04-04T16:41:45Z</time>
      </trkpt>
      <trkpt lat="43.66279" lon="1.39039">
        <ele>125</ele>
        <time>2024-04-04T16:41:46Z</time>
      </trkpt>
      <trkpt lat="43.66278" lon="1.39041">
        <ele>125</ele>
        <time>2024-04-04T16:41:47Z</time>
      </trkpt>
      <trkpt lat="43.66277" lon="1.39044">
        <ele>125</ele>
        <time>2024-04-04T16:41:48Z</time>
      </trkpt>
      <trkpt lat="43.66277" lon="1.39048">
        <ele>125</ele>
        <time>2024-04-04T16:41:49Z</time>
      </trkpt>
      <trkpt lat="43.66277" lon="1.3905">
        <ele>125</ele>
        <time>2024-04-04T16:41:50Z</time>
      </trkpt>
      <trkpt lat="43.66277" lon="1.39054">
        <ele>125</ele>
        <time>2024-04-04T16:41:51Z</time>
      </trkpt>
      <trkpt lat="43.66277" lon="1.39057">
        <ele>125</ele>
        <time>2024-04-04T16:41:52Z</time>
      </trkpt>
      <trkpt lat="43.66277" lon="1.39059">
        <ele>125</ele>
        <time>2024-04-04T16:41:53Z</time>
      </trkpt>
      <trkpt lat="43.66277" lon="1.39062">
        <ele>125</ele>
        <time>2024-04-04T16:41:54Z</time>
      </trkpt>
      <trkpt lat="43.66277" lon="1.39066">
        <ele>125</ele>
        <time>2024-04-04T16:41:55Z</time>
      </trkpt>
      <trkpt lat="43.66277" lon="1.39066">
        <ele>125</ele>
        <time>2024-04-04T16:41:56Z</time>
      </trkpt>
      <trkpt lat="43.66275" lon="1.39071">
        <ele>126</ele>
        <time>2024-04-04T16:41:57Z</time>
      </trkpt>
      <trkpt lat="43.66275" lon="1.39071">
        <ele>126</ele>
        <time>2024-04-04T16:41:58Z</time>
      </trkpt>
      <trkpt lat="43.66274" lon="1.39075">
        <ele>126</ele>
        <time>2024-04-04T16:41:59Z</time>
      </trkpt>
      <trkpt lat="43.66273" lon="1.39078">
        <ele>126</ele>
        <time>2024-04-04T16:42:00Z</time>
      </trkpt>
      <trkpt lat="43.66272" lon="1.39081">
        <ele>126</ele>
        <time>2024-04-04T16:42:01Z</time>
      </trkpt>
      <trkpt lat="43.66271" lon="1.39085">
        <ele>126</ele>
        <time>2024-04-04T16:42:02Z</time>
      </trkpt>
      <trkpt lat="43.6627" lon="1.39088">
        <ele>126</ele>
        <time>2024-04-04T16:42:03Z</time>
      </trkpt>
      <trkpt lat="43.66268" lon="1.39091">
        <ele>126</ele>
        <time>2024-04-04T16:42:04Z</time>
      </trkpt>
      <trkpt lat="43.66267" lon="1.39094">
        <ele>126</ele>
        <time>2024-04-04T16:42:05Z</time>
      </trkpt>
      <trkpt lat="43.66265" lon="1.39097">
        <ele>126</ele>
        <time>2024-04-04T16:42:06Z</time>
      </trkpt>
      <trkpt lat="43.66264" lon="1.391">
        <ele>126</ele>
        <time>2024-04-04T16:42:07Z</time>
      </trkpt>
      <trkpt lat="43.66263" lon="1.39102">
        <ele>126</ele>
        <time>2024-04-04T16:42:08Z</time>
      </trkpt>
      <trkpt lat="43.66261" lon="1.39105">
        <ele>126</ele>
        <time>2024-04-04T16:42:09Z</time>
      </trkpt>
      <trkpt lat="43.6626" lon="1.39107">
        <ele>126</ele>
        <time>2024-04-04T16:42:10Z</time>
      </trkpt>
      <trkpt lat="43.6626" lon="1.39107">
        <ele>126</ele>
        <time>2024-04-04T16:42:11Z</time>
      </trkpt>
      <trkpt lat="43.66258" lon="1.39112">
        <ele>126</ele>
        <time>2024-04-04T16:42:12Z</time>
      </trkpt>
      <trkpt lat="43.66257" lon="1.39114">
        <ele>126</ele>
        <time>2024-04-04T16:42:13Z</time>
      </trkpt>
      <trkpt lat="43.66256" lon="1.39117">
        <ele>126</ele>
        <time>2024-04-04T16:42:14Z</time>
      </trkpt>
      <trkpt lat="43.66256" lon="1.3912">
        <ele>126</ele>
        <time>2024-04-04T16:42:15Z</time>
      </trkpt>
      <trkpt lat="43.66256" lon="1.3912">
        <ele>126</ele>
        <time>2024-04-04T16:42:16Z</time>
      </trkpt>
      <trkpt lat="43.66256" lon="1.39125">
        <ele>126</ele>
        <time>2024-04-04T16:42:17Z</time>
      </trkpt>
      <trkpt lat="43.66257" lon="1.39128">
        <ele>126</ele>
        <time>2024-04-04T16:42:18Z</time>
      </trkpt>
      <trkpt lat="43.66256" lon="1.39131">
        <ele>126</ele>
        <time>2024-04-04T16:42:19Z</time>
      </trkpt>
      <trkpt lat="43.66256" lon="1.39133">
        <ele>127</ele>
        <time>2024-04-04T16:42:20Z</time>
      </trkpt>
      <trkpt lat="43.66256" lon="1.39133">
        <ele>128</ele>
        <time>2024-04-04T16:42:21Z</time>
      </trkpt>
      <trkpt lat="43.66256" lon="1.39137">
        <ele>128</ele>
        <time>2024-04-04T16:42:22Z</time>
      </trkpt>
      <trkpt lat="43.66256" lon="1.39137">
        <ele>128</ele>
        <time>2024-04-04T16:42:23Z</time>
      </trkpt>
      <trkpt lat="43.66257" lon="1.39142">
        <ele>128</ele>
        <time>2024-04-04T16:42:24Z</time>
      </trkpt>
      <trkpt lat="43.66258" lon="1.39145">
        <ele>128</ele>
        <time>2024-04-04T16:42:25Z</time>
      </trkpt>
      <trkpt lat="43.66259" lon="1.39147">
        <ele>128</ele>
        <time>2024-04-04T16:42:26Z</time>
      </trkpt>
      <trkpt lat="43.6626" lon="1.3915">
        <ele>128</ele>
        <time>2024-04-04T16:42:27Z</time>
      </trkpt>
      <trkpt lat="43.66261" lon="1.39152">
        <ele>128</ele>
        <time>2024-04-04T16:42:28Z</time>
      </trkpt>
      <trkpt lat="43.66261" lon="1.39152">
        <ele>128</ele>
        <time>2024-04-04T16:42:29Z</time>
      </trkpt>
      <trkpt lat="43.66263" lon="1.39156">
        <ele>127</ele>
        <time>2024-04-04T16:42:30Z</time>
      </trkpt>
      <trkpt lat="43.66265" lon="1.39157">
        <ele>127</ele>
        <time>2024-04-04T16:42:31Z</time>
      </trkpt>
      <trkpt lat="43.66265" lon="1.39157">
        <ele>127</ele>
        <time>2024-04-04T16:42:32Z</time>
      </trkpt>
      <trkpt lat="43.66269" lon="1.39161">
        <ele>127</ele>
        <time>2024-04-04T16:42:33Z</time>
      </trkpt>
      <trkpt lat="43.6627" lon="1.39162">
        <ele>127</ele>
        <time>2024-04-04T16:42:34Z</time>
      </trkpt>
      <trkpt lat="43.66272" lon="1.39163">
        <ele>127</ele>
        <time>2024-04-04T16:42:35Z</time>
      </trkpt>
      <trkpt lat="43.66274" lon="1.39164">
        <ele>127</ele>
        <time>2024-04-04T16:42:36Z</time>
      </trkpt>
      <trkpt lat="43.66277" lon="1.39166">
        <ele>127</ele>
        <time>2024-04-04T16:42:37Z</time>
      </trkpt>
      <trkpt lat="43.66279" lon="1.39168">
        <ele>127</ele>
        <time>2024-04-04T16:42:38Z</time>
      </trkpt>
      <trkpt lat="43.6628" lon="1.3917">
        <ele>127</ele>
        <time>2024-04-04T16:42:39Z</time>
      </trkpt>
      <trkpt lat="43.66282" lon="1.39172">
        <ele>127</ele>
        <time>2024-04-04T16:42:40Z</time>
      </trkpt>
      <trkpt lat="43.66283" lon="1.39174">
        <ele>127</ele>
        <time>2024-04-04T16:42:41Z</time>
      </trkpt>
      <trkpt lat="43.66283" lon="1.39177">
        <ele>127</ele>
        <time>2024-04-04T16:42:42Z</time>
      </trkpt>
      <trkpt lat="43.66283" lon="1.3918">
        <ele>127</ele>
        <time>2024-04-04T16:42:43Z</time>
      </trkpt>
      <trkpt lat="43.66284" lon="1.39184">
        <ele>127</ele>
        <time>2024-04-04T16:42:44Z</time>
      </trkpt>
      <trkpt lat="43.66284" lon="1.39184">
        <ele>126</ele>
        <time>2024-04-04T16:42:45Z</time>
      </trkpt>
      <trkpt lat="43.66284" lon="1.39186">
        <ele>126</ele>
        <time>2024-04-04T16:42:46Z</time>
      </trkpt>
      <trkpt lat="43.66284" lon="1.39189">
        <ele>126</ele>
        <time>2024-04-04T16:42:47Z</time>
      </trkpt>
      <trkpt lat="43.66284" lon="1.39191">
        <ele>126</ele>
        <time>2024-04-04T16:42:48Z</time>
      </trkpt>
      <trkpt lat="43.66284" lon="1.39194">
        <ele>126</ele>
        <time>2024-04-04T16:42:49Z</time>
      </trkpt>
      <trkpt lat="43.66285" lon="1.39197">
        <ele>126</ele>
        <time>2024-04-04T16:42:50Z</time>
      </trkpt>
      <trkpt lat="43.66285" lon="1.392">
        <ele>126</ele>
        <time>2024-04-04T16:42:51Z</time>
      </trkpt>
      <trkpt lat="43.66286" lon="1.39204">
        <ele>126</ele>
        <time>2024-04-04T16:42:52Z</time>
      </trkpt>
      <trkpt lat="43.66286" lon="1.39207">
        <ele>126</ele>
        <time>2024-04-04T16:42:53Z</time>
      </trkpt>
      <trkpt lat="43.66286" lon="1.3921">
        <ele>126</ele>
        <time>2024-04-04T16:42:54Z</time>
      </trkpt>
      <trkpt lat="43.66287" lon="1.39214">
        <ele>126</ele>
        <time>2024-04-04T16:42:55Z</time>
      </trkpt>
      <trkpt lat="43.66288" lon="1.39217">
        <ele>126</ele>
        <time>2024-04-04T16:42:56Z</time>
      </trkpt>
      <trkpt lat="43.66288" lon="1.39217">
        <ele>126</ele>
        <time>2024-04-04T16:42:57Z</time>
      </trkpt>
      <trkpt lat="43.66288" lon="1.3922">
        <ele>126</ele>
        <time>2024-04-04T16:42:58Z</time>
      </trkpt>
      <trkpt lat="43.66289" lon="1.39223">
        <ele>126</ele>
        <time>2024-04-04T16:42:59Z</time>
      </trkpt>
      <trkpt lat="43.66289" lon="1.39227">
        <ele>126</ele>
        <time>2024-04-04T16:43:00Z</time>
      </trkpt>
      <trkpt lat="43.66289" lon="1.3923">
        <ele>127</ele>
        <time>2024-04-04T16:43:01Z</time>
      </trkpt>
      <trkpt lat="43.66289" lon="1.39233">
        <ele>127</ele>
        <time>2024-04-04T16:43:02Z</time>
      </trkpt>
      <trkpt lat="43.6629" lon="1.39236">
        <ele>127</ele>
        <time>2024-04-04T16:43:03Z</time>
      </trkpt>
      <trkpt lat="43.66292" lon="1.39239">
        <ele>127</ele>
        <time>2024-04-04T16:43:04Z</time>
      </trkpt>
      <trkpt lat="43.66293" lon="1.39242">
        <ele>127</ele>
        <time>2024-04-04T16:43:05Z</time>
      </trkpt>
      <trkpt lat="43.66293" lon="1.39242">
        <ele>127</ele>
        <time>2024-04-04T16:43:06Z</time>
      </trkpt>
      <trkpt lat="43.66296" lon="1.39249">
        <ele>127</ele>
        <time>2024-04-04T16:43:07Z</time>
      </trkpt>
      <trkpt lat="43.66297" lon="1.39251">
        <ele>127</ele>
        <time>2024-04-04T16:43:08Z</time>
      </trkpt>
      <trkpt lat="43.66299" lon="1.39254">
        <ele>127</ele>
        <time>2024-04-04T16:43:09Z</time>
      </trkpt>
      <trkpt lat="43.663" lon="1.39257">
        <ele>127</ele>
        <time>2024-04-04T16:43:10Z</time>
      </trkpt>
      <trkpt lat="43.66301" lon="1.3926">
        <ele>127</ele>
        <time>2024-04-04T16:43:11Z</time>
      </trkpt>
      <trkpt lat="43.66303" lon="1.39262">
        <ele>127</ele>
        <time>2024-04-04T16:43:12Z</time>
      </trkpt>
      <trkpt lat="43.66305" lon="1.39265">
        <ele>127</ele>
        <time>2024-04-04T16:43:13Z</time>
      </trkpt>
      <trkpt lat="43.66306" lon="1.39267">
        <ele>127</ele>
        <time>2024-04-04T16:43:14Z</time>
      </trkpt>
      <trkpt lat="43.66308" lon="1.39269">
        <ele>127</ele>
        <time>2024-04-04T16:43:15Z</time>
      </trkpt>
      <trkpt lat="43.6631" lon="1.39271">
        <ele>127</ele>
        <time>2024-04-04T16:43:16Z</time>
      </trkpt>
      <trkpt lat="43.66312" lon="1.39273">
        <ele>127</ele>
        <time>2024-04-04T16:43:17Z</time>
      </trkpt>
      <trkpt lat="43.66314" lon="1.39275">
        <ele>127</ele>
        <time>2024-04-04T16:43:18Z</time>
      </trkpt>
      <trkpt lat="43.66316" lon="1.39277">
        <ele>127</ele>
        <time>2024-04-04T16:43:19Z</time>
      </trkpt>
      <trkpt lat="43.66317" lon="1.39279">
        <ele>127</ele>
        <time>2024-04-04T16:43:20Z</time>
      </trkpt>
      <trkpt lat="43.66319" lon="1.3928">
        <ele>127</ele>
        <time>2024-04-04T16:43:21Z</time>
      </trkpt>
      <trkpt lat="43.66319" lon="1.3928">
        <ele>127</ele>
        <time>2024-04-04T16:43:22Z</time>
      </trkpt>
      <trkpt lat="43.66321" lon="1.39282">
        <ele>127</ele>
        <time>2024-04-04T16:43:23Z</time>
      </trkpt>
      <trkpt lat="43.66321" lon="1.39282">
        <ele>127</ele>
        <time>2024-04-04T16:43:24Z</time>
      </trkpt>
      <trkpt lat="43.66325" lon="1.39283">
        <ele>127</ele>
        <time>2024-04-04T16:43:25Z</time>
      </trkpt>
      <trkpt lat="43.66325" lon="1.39283">
        <ele>127</ele>
        <time>2024-04-04T16:43:26Z</time>
      </trkpt>
      <trkpt lat="43.66328" lon="1.39284">
        <ele>127</ele>
        <time>2024-04-04T16:43:27Z</time>
      </trkpt>
      <trkpt lat="43.66328" lon="1.39284">
        <ele>127</ele>
        <time>2024-04-04T16:43:28Z</time>
      </trkpt>
      <trkpt lat="43.66331" lon="1.39285">
        <ele>127</ele>
        <time>2024-04-04T16:43:29Z</time>
      </trkpt>
      <trkpt lat="43.66331" lon="1.39285">
        <ele>127</ele>
        <time>2024-04-04T16:43:30Z</time>
      </trkpt>
      <trkpt lat="43.66334" lon="1.39284">
        <ele>127</ele>
        <time>2024-04-04T16:43:31Z</time>
      </trkpt>
      <trkpt lat="43.66334" lon="1.39284">
        <ele>127</ele>
        <time>2024-04-04T16:43:32Z</time>
      </trkpt>
      <trkpt lat="43.66337" lon="1.39281">
        <ele>127</ele>
        <time>2024-04-04T16:43:33Z</time>
      </trkpt>
      <trkpt lat="43.66339" lon="1.39281">
        <ele>126</ele>
        <time>2024-04-04T16:43:34Z</time>
      </trkpt>
      <trkpt lat="43.66341" lon="1.3928">
        <ele>126</ele>
        <time>2024-04-04T16:43:35Z</time>
      </trkpt>
      <trkpt lat="43.66341" lon="1.3928">
        <ele>127</ele>
        <time>2024-04-04T16:43:36Z</time>
      </trkpt>
      <trkpt lat="43.66343" lon="1.39278">
        <ele>127</ele>
        <time>2024-04-04T16:43:37Z</time>
      </trkpt>
      <trkpt lat="43.66345" lon="1.39276">
        <ele>127</ele>
        <time>2024-04-04T16:43:38Z</time>
      </trkpt>
      <trkpt lat="43.66347" lon="1.39276">
        <ele>127</ele>
        <time>2024-04-04T16:43:39Z</time>
      </trkpt>
      <trkpt lat="43.66349" lon="1.39275">
        <ele>127</ele>
        <time>2024-04-04T16:43:40Z</time>
      </trkpt>
      <trkpt lat="43.66351" lon="1.39274">
        <ele>127</ele>
        <time>2024-04-04T16:43:41Z</time>
      </trkpt>
      <trkpt lat="43.66353" lon="1.39273">
        <ele>127</ele>
        <time>2024-04-04T16:43:42Z</time>
      </trkpt>
      <trkpt lat="43.66355" lon="1.39273">
        <ele>127</ele>
        <time>2024-04-04T16:43:43Z</time>
      </trkpt>
      <trkpt lat="43.66357" lon="1.39273">
        <ele>127</ele>
        <time>2024-04-04T16:43:44Z</time>
      </trkpt>
      <trkpt lat="43.6636" lon="1.39272">
        <ele>127</ele>
        <time>2024-04-04T16:43:45Z</time>
      </trkpt>
      <trkpt lat="43.66362" lon="1.39273">
        <ele>127</ele>
        <time>2024-04-04T16:43:46Z</time>
      </trkpt>
      <trkpt lat="43.66365" lon="1.39274">
        <ele>127</ele>
        <time>2024-04-04T16:43:47Z</time>
      </trkpt>
      <trkpt lat="43.66367" lon="1.39274">
        <ele>127</ele>
        <time>2024-04-04T16:43:48Z</time>
      </trkpt>
      <trkpt lat="43.66369" lon="1.39275">
        <ele>127</ele>
        <time>2024-04-04T16:43:49Z</time>
      </trkpt>
      <trkpt lat="43.66372" lon="1.39277">
        <ele>127</ele>
        <time>2024-04-04T16:43:50Z</time>
      </trkpt>
      <trkpt lat="43.66374" lon="1.39278">
        <ele>127</ele>
        <time>2024-04-04T16:43:51Z</time>
      </trkpt>
      <trkpt lat="43.66375" lon="1.39279">
        <ele>127</ele>
        <time>2024-04-04T16:43:52Z</time>
      </trkpt>
      <trkpt lat="43.66378" lon="1.39281">
        <ele>127</ele>
        <time>2024-04-04T16:43:53Z</time>
      </trkpt>
      <trkpt lat="43.6638" lon="1.39283">
        <ele>126</ele>
        <time>2024-04-04T16:43:54Z</time>
      </trkpt>
      <trkpt lat="43.66382" lon="1.39285">
        <ele>126</ele>
        <time>2024-04-04T16:43:55Z</time>
      </trkpt>
      <trkpt lat="43.66383" lon="1.39287">
        <ele>126</ele>
        <time>2024-04-04T16:43:56Z</time>
      </trkpt>
      <trkpt lat="43.66385" lon="1.39288">
        <ele>126</ele>
        <time>2024-04-04T16:43:57Z</time>
      </trkpt>
      <trkpt lat="43.66386" lon="1.3929">
        <ele>126</ele>
        <time>2024-04-04T16:43:58Z</time>
      </trkpt>
      <trkpt lat="43.66388" lon="1.39291">
        <ele>126</ele>
        <time>2024-04-04T16:43:59Z</time>
      </trkpt>
      <trkpt lat="43.6639" lon="1.39293">
        <ele>127</ele>
        <time>2024-04-04T16:44:00Z</time>
      </trkpt>
      <trkpt lat="43.66392" lon="1.39294">
        <ele>127</ele>
        <time>2024-04-04T16:44:01Z</time>
      </trkpt>
      <trkpt lat="43.66393" lon="1.39296">
        <ele>127</ele>
        <time>2024-04-04T16:44:02Z</time>
      </trkpt>
      <trkpt lat="43.66396" lon="1.39298">
        <ele>127</ele>
        <time>2024-04-04T16:44:03Z</time>
      </trkpt>
      <trkpt lat="43.66397" lon="1.39301">
        <ele>127</ele>
        <time>2024-04-04T16:44:04Z</time>
      </trkpt>
      <trkpt lat="43.66399" lon="1.39302">
        <ele>127</ele>
        <time>2024-04-04T16:44:05Z</time>
      </trkpt>
      <trkpt lat="43.66401" lon="1.39304">
        <ele>127</ele>
        <time>2024-04-04T16:44:06Z</time>
      </trkpt>
      <trkpt lat="43.66401" lon="1.39304">
        <ele>127</ele>
        <time>2024-04-04T16:44:07Z</time>
      </trkpt>
      <trkpt lat="43.66405" lon="1.39307">
        <ele>127</ele>
        <time>2024-04-04T16:44:08Z</time>
      </trkpt>
      <trkpt lat="43.66406" lon="1.39308">
        <ele>127</ele>
        <time>2024-04-04T16:44:09Z</time>
      </trkpt>
      <trkpt lat="43.66408" lon="1.3931">
        <ele>126</ele>
        <time>2024-04-04T16:44:10Z</time>
      </trkpt>
      <trkpt lat="43.6641" lon="1.39311">
        <ele>126</ele>
        <time>2024-04-04T16:44:11Z</time>
      </trkpt>
      <trkpt lat="43.66412" lon="1.39312">
        <ele>127</ele>
        <time>2024-04-04T16:44:12Z</time>
      </trkpt>
      <trkpt lat="43.66414" lon="1.39314">
        <ele>127</ele>
        <time>2024-04-04T16:44:13Z</time>
      </trkpt>
      <trkpt lat="43.66417" lon="1.39315">
        <ele>127</ele>
        <time>2024-04-04T16:44:14Z</time>
      </trkpt>
      <trkpt lat="43.66419" lon="1.39316">
        <ele>127</ele>
        <time>2024-04-04T16:44:15Z</time>
      </trkpt>
      <trkpt lat="43.66419" lon="1.39316">
        <ele>127</ele>
        <time>2024-04-04T16:44:16Z</time>
      </trkpt>
      <trkpt lat="43.66422" lon="1.39317">
        <ele>127</ele>
        <time>2024-04-04T16:44:17Z</time>
      </trkpt>
      <trkpt lat="43.66424" lon="1.39318">
        <ele>127</ele>
        <time>2024-04-04T16:44:18Z</time>
      </trkpt>
      <trkpt lat="43.66426" lon="1.39319">
        <ele>127</ele>
        <time>2024-04-04T16:44:19Z</time>
      </trkpt>
      <trkpt lat="43.66428" lon="1.3932">
        <ele>127</ele>
        <time>2024-04-04T16:44:20Z</time>
      </trkpt>
      <trkpt lat="43.6643" lon="1.3932">
        <ele>127</ele>
        <time>2024-04-04T16:44:21Z</time>
      </trkpt>
      <trkpt lat="43.66432" lon="1.3932">
        <ele>127</ele>
        <time>2024-04-04T16:44:22Z</time>
      </trkpt>
      <trkpt lat="43.66434" lon="1.39321">
        <ele>127</ele>
        <time>2024-04-04T16:44:23Z</time>
      </trkpt>
      <trkpt lat="43.66436" lon="1.39321">
        <ele>127</ele>
        <time>2024-04-04T16:44:24Z</time>
      </trkpt>
      <trkpt lat="43.66438" lon="1.39321">
        <ele>127</ele>
        <time>2024-04-04T16:44:25Z</time>
      </trkpt>
      <trkpt lat="43.6644" lon="1.39321">
        <ele>127</ele>
        <time>2024-04-04T16:44:26Z</time>
      </trkpt>
      <trkpt lat="43.66443" lon="1.39321">
        <ele>127</ele>
        <time>2024-04-04T16:44:27Z</time>
      </trkpt>
      <trkpt lat="43.66445" lon="1.39321">
        <ele>127</ele>
        <time>2024-04-04T16:44:28Z</time>
      </trkpt>
      <trkpt lat="43.66447" lon="1.39321">
        <ele>127</ele>
        <time>2024-04-04T16:44:29Z</time>
      </trkpt>
      <trkpt lat="43.66449" lon="1.39321">
        <ele>127</ele>
        <time>2024-04-04T16:44:30Z</time>
      </trkpt>
      <trkpt lat="43.66452" lon="1.39322">
        <ele>127</ele>
        <time>2024-04-04T16:44:31Z</time>
      </trkpt>
      <trkpt lat="43.66454" lon="1.39321">
        <ele>127</ele>
        <time>2024-04-04T16:44:32Z</time>
      </trkpt>
      <trkpt lat="43.66456" lon="1.39321">
        <ele>127</ele>
        <time>2024-04-04T16:44:33Z</time>
      </trkpt>
      <trkpt lat="43.66458" lon="1.39321">
        <ele>127</ele>
        <time>2024-04-04T16:44:34Z</time>
      </trkpt>
      <trkpt lat="43.6646" lon="1.39321">
        <ele>127</ele>
        <time>2024-04-04T16:44:35Z</time>
      </trkpt>
      <trkpt lat="43.66462" lon="1.39322">
        <ele>127</ele>
        <time>2024-04-04T16:44:36Z</time>
      </trkpt>
      <trkpt lat="43.66464" lon="1.39321">
        <ele>127</ele>
        <time>2024-04-04T16:44:37Z</time>
      </trkpt>
      <trkpt lat="43.66467" lon="1.39321">
        <ele>127</ele>
        <time>2024-04-04T16:44:38Z</time>
      </trkpt>
      <trkpt lat="43.66469" lon="1.3932">
        <ele>127</ele>
        <time>2024-04-04T16:44:39Z</time>
      </trkpt>
      <trkpt lat="43.66471" lon="1.3932">
        <ele>127</ele>
        <time>2024-04-04T16:44:40Z</time>
      </trkpt>
      <trkpt lat="43.66472" lon="1.39319">
        <ele>127</ele>
        <time>2024-04-04T16:44:41Z</time>
      </trkpt>
      <trkpt lat="43.66472" lon="1.39319">
        <ele>127</ele>
        <time>2024-04-04T16:44:42Z</time>
      </trkpt>
      <trkpt lat="43.66476" lon="1.39318">
        <ele>127</ele>
        <time>2024-04-04T16:44:43Z</time>
      </trkpt>
      <trkpt lat="43.66478" lon="1.39317">
        <ele>127</ele>
        <time>2024-04-04T16:44:44Z</time>
      </trkpt>
      <trkpt lat="43.6648" lon="1.39316">
        <ele>127</ele>
        <time>2024-04-04T16:44:45Z</time>
      </trkpt>
      <trkpt lat="43.66482" lon="1.39315">
        <ele>127</ele>
        <time>2024-04-04T16:44:46Z</time>
      </trkpt>
      <trkpt lat="43.66483" lon="1.39314">
        <ele>127</ele>
        <time>2024-04-04T16:44:47Z</time>
      </trkpt>
      <trkpt lat="43.66485" lon="1.39312">
        <ele>127</ele>
        <time>2024-04-04T16:44:48Z</time>
      </trkpt>
      <trkpt lat="43.66485" lon="1.39312">
        <ele>127</ele>
        <time>2024-04-04T16:44:49Z</time>
      </trkpt>
      <trkpt lat="43.66488" lon="1.39309">
        <ele>127</ele>
        <time>2024-04-04T16:44:50Z</time>
      </trkpt>
      <trkpt lat="43.66488" lon="1.39309">
        <ele>127</ele>
        <time>2024-04-04T16:44:51Z</time>
      </trkpt>
      <trkpt lat="43.66491" lon="1.39307">
        <ele>127</ele>
        <time>2024-04-04T16:44:52Z</time>
      </trkpt>
      <trkpt lat="43.66493" lon="1.39305">
        <ele>127</ele>
        <time>2024-04-04T16:44:53Z</time>
      </trkpt>
      <trkpt lat="43.66494" lon="1.39303">
        <ele>126</ele>
        <time>2024-04-04T16:44:54Z</time>
      </trkpt>
      <trkpt lat="43.66495" lon="1.393">
        <ele>126</ele>
        <time>2024-04-04T16:44:55Z</time>
      </trkpt>
      <trkpt lat="43.66496" lon="1.39298">
        <ele>126</ele>
        <time>2024-04-04T16:44:56Z</time>
      </trkpt>
      <trkpt lat="43.66497" lon="1.39296">
        <ele>126</ele>
        <time>2024-04-04T16:44:57Z</time>
      </trkpt>
      <trkpt lat="43.66498" lon="1.39293">
        <ele>126</ele>
        <time>2024-04-04T16:44:58Z</time>
      </trkpt>
      <trkpt lat="43.66499" lon="1.39291">
        <ele>126</ele>
        <time>2024-04-04T16:44:59Z</time>
      </trkpt>
      <trkpt lat="43.665" lon="1.39289">
        <ele>126</ele>
        <time>2024-04-04T16:45:00Z</time>
      </trkpt>
      <trkpt lat="43.665" lon="1.39289">
        <ele>126</ele>
        <time>2024-04-04T16:45:01Z</time>
      </trkpt>
      <trkpt lat="43.66502" lon="1.39285">
        <ele>126</ele>
        <time>2024-04-04T16:45:02Z</time>
      </trkpt>
      <trkpt lat="43.66502" lon="1.39285">
        <ele>126</ele>
        <time>2024-04-04T16:45:03Z</time>
      </trkpt>
      <trkpt lat="43.66503" lon="1.39281">
        <ele>126</ele>
        <time>2024-04-04T16:45:04Z</time>
      </trkpt>
      <trkpt lat="43.66505" lon="1.39278">
        <ele>126</ele>
        <time>2024-04-04T16:45:05Z</time>
      </trkpt>
      <trkpt lat="43.66506" lon="1.39275">
        <ele>126</ele>
        <time>2024-04-04T16:45:06Z</time>
      </trkpt>
      <trkpt lat="43.66507" lon="1.39272">
        <ele>126</ele>
        <time>2024-04-04T16:45:07Z</time>
      </trkpt>
      <trkpt lat="43.66508" lon="1.3927">
        <ele>126</ele>
        <time>2024-04-04T16:45:08Z</time>
      </trkpt>
      <trkpt lat="43.6651" lon="1.39268">
        <ele>126</ele>
        <time>2024-04-04T16:45:09Z</time>
      </trkpt>
      <trkpt lat="43.66512" lon="1.39266">
        <ele>126</ele>
        <time>2024-04-04T16:45:10Z</time>
      </trkpt>
      <trkpt lat="43.66515" lon="1.39265">
        <ele>126</ele>
        <time>2024-04-04T16:45:11Z</time>
      </trkpt>
      <trkpt lat="43.66517" lon="1.39264">
        <ele>126</ele>
        <time>2024-04-04T16:45:12Z</time>
      </trkpt>
      <trkpt lat="43.6652" lon="1.39264">
        <ele>126</ele>
        <time>2024-04-04T16:45:13Z</time>
      </trkpt>
      <trkpt lat="43.66523" lon="1.39264">
        <ele>126</ele>
        <time>2024-04-04T16:45:14Z</time>
      </trkpt>
      <trkpt lat="43.66526" lon="1.39264">
        <ele>126</ele>
        <time>2024-04-04T16:45:15Z</time>
      </trkpt>
      <trkpt lat="43.66528" lon="1.39263">
        <ele>126</ele>
        <time>2024-04-04T16:45:16Z</time>
      </trkpt>
      <trkpt lat="43.6653" lon="1.39264">
        <ele>126</ele>
        <time>2024-04-04T16:45:17Z</time>
      </trkpt>
      <trkpt lat="43.66533" lon="1.39264">
        <ele>126</ele>
        <time>2024-04-04T16:45:18Z</time>
      </trkpt>
      <trkpt lat="43.66536" lon="1.39264">
        <ele>126</ele>
        <time>2024-04-04T16:45:19Z</time>
      </trkpt>
      <trkpt lat="43.66539" lon="1.39263">
        <ele>126</ele>
        <time>2024-04-04T16:45:20Z</time>
      </trkpt>
      <trkpt lat="43.66541" lon="1.39262">
        <ele>126</ele>
        <time>2024-04-04T16:45:21Z</time>
      </trkpt>
      <trkpt lat="43.66544" lon="1.39262">
        <ele>126</ele>
        <time>2024-04-04T16:45:22Z</time>
      </trkpt>
      <trkpt lat="43.66546" lon="1.3926">
        <ele>126</ele>
        <time>2024-04-04T16:45:23Z</time>
      </trkpt>
      <trkpt lat="43.66548" lon="1.3926">
        <ele>126</ele>
        <time>2024-04-04T16:45:24Z</time>
      </trkpt>
      <trkpt lat="43.6655" lon="1.39259">
        <ele>126</ele>
        <time>2024-04-04T16:45:25Z</time>
      </trkpt>
      <trkpt lat="43.6655" lon="1.39259">
        <ele>126</ele>
        <time>2024-04-04T16:45:26Z</time>
      </trkpt>
      <trkpt lat="43.66553" lon="1.39258">
        <ele>126</ele>
        <time>2024-04-04T16:45:27Z</time>
      </trkpt>
      <trkpt lat="43.66555" lon="1.39258">
        <ele>126</ele>
        <time>2024-04-04T16:45:28Z</time>
      </trkpt>
      <trkpt lat="43.66557" lon="1.3926">
        <ele>126</ele>
        <time>2024-04-04T16:45:29Z</time>
      </trkpt>
      <trkpt lat="43.66559" lon="1.39263">
        <ele>126</ele>
        <time>2024-04-04T16:45:30Z</time>
      </trkpt>
      <trkpt lat="43.66561" lon="1.39265">
        <ele>126</ele>
        <time>2024-04-04T16:45:31Z</time>
      </trkpt>
      <trkpt lat="43.66563" lon="1.39267">
        <ele>126</ele>
        <time>2024-04-04T16:45:32Z</time>
      </trkpt>
      <trkpt lat="43.66565" lon="1.39269">
        <ele>126</ele>
        <time>2024-04-04T16:45:33Z</time>
      </trkpt>
      <trkpt lat="43.66566" lon="1.39271">
        <ele>126</ele>
        <time>2024-04-04T16:45:34Z</time>
      </trkpt>
      <trkpt lat="43.66568" lon="1.39273">
        <ele>126</ele>
        <time>2024-04-04T16:45:35Z</time>
      </trkpt>
      <trkpt lat="43.6657" lon="1.39275">
        <ele>126</ele>
        <time>2024-04-04T16:45:36Z</time>
      </trkpt>
      <trkpt lat="43.66571" lon="1.39278">
        <ele>126</ele>
        <time>2024-04-04T16:45:37Z</time>
      </trkpt>
      <trkpt lat="43.66572" lon="1.39281">
        <ele>126</ele>
        <time>2024-04-04T16:45:38Z</time>
      </trkpt>
      <trkpt lat="43.66573" lon="1.39284">
        <ele>126</ele>
        <time>2024-04-04T16:45:39Z</time>
      </trkpt>
      <trkpt lat="43.66574" lon="1.39288">
        <ele>126</ele>
        <time>2024-04-04T16:45:40Z</time>
      </trkpt>
      <trkpt lat="43.66574" lon="1.39291">
        <ele>127</ele>
        <time>2024-04-04T16:45:41Z</time>
      </trkpt>
      <trkpt lat="43.66574" lon="1.39294">
        <ele>127</ele>
        <time>2024-04-04T16:45:42Z</time>
      </trkpt>
      <trkpt lat="43.66574" lon="1.39297">
        <ele>127</ele>
        <time>2024-04-04T16:45:43Z</time>
      </trkpt>
      <trkpt lat="43.66573" lon="1.39301">
        <ele>127</ele>
        <time>2024-04-04T16:45:44Z</time>
      </trkpt>
      <trkpt lat="43.66573" lon="1.39304">
        <ele>127</ele>
        <time>2024-04-04T16:45:45Z</time>
      </trkpt>
      <trkpt lat="43.66574" lon="1.39307">
        <ele>127</ele>
        <time>2024-04-04T16:45:46Z</time>
      </trkpt>
      <trkpt lat="43.66574" lon="1.3931">
        <ele>127</ele>
        <time>2024-04-04T16:45:47Z</time>
      </trkpt>
      <trkpt lat="43.66575" lon="1.39313">
        <ele>127</ele>
        <time>2024-04-04T16:45:48Z</time>
      </trkpt>
      <trkpt lat="43.66575" lon="1.39317">
        <ele>127</ele>
        <time>2024-04-04T16:45:49Z</time>
      </trkpt>
      <trkpt lat="43.66575" lon="1.3932">
        <ele>127</ele>
        <time>2024-04-04T16:45:50Z</time>
      </trkpt>
      <trkpt lat="43.66575" lon="1.39322">
        <ele>127</ele>
        <time>2024-04-04T16:45:51Z</time>
      </trkpt>
      <trkpt lat="43.66576" lon="1.39326">
        <ele>127</ele>
        <time>2024-04-04T16:45:52Z</time>
      </trkpt>
      <trkpt lat="43.66576" lon="1.39329">
        <ele>128</ele>
        <time>2024-04-04T16:45:53Z</time>
      </trkpt>
      <trkpt lat="43.66577" lon="1.39332">
        <ele>128</ele>
        <time>2024-04-04T16:45:54Z</time>
      </trkpt>
      <trkpt lat="43.66577" lon="1.39335">
        <ele>128</ele>
        <time>2024-04-04T16:45:55Z</time>
      </trkpt>
      <trkpt lat="43.66577" lon="1.39338">
        <ele>128</ele>
        <time>2024-04-04T16:45:56Z</time>
      </trkpt>
      <trkpt lat="43.66577" lon="1.39341">
        <ele>128</ele>
        <time>2024-04-04T16:45:57Z</time>
      </trkpt>
      <trkpt lat="43.66577" lon="1.39344">
        <ele>127</ele>
        <time>2024-04-04T16:45:58Z</time>
      </trkpt>
      <trkpt lat="43.66576" lon="1.39348">
        <ele>127</ele>
        <time>2024-04-04T16:45:59Z</time>
      </trkpt>
      <trkpt lat="43.66576" lon="1.39351">
        <ele>127</ele>
        <time>2024-04-04T16:46:00Z</time>
      </trkpt>
      <trkpt lat="43.66576" lon="1.39354">
        <ele>127</ele>
        <time>2024-04-04T16:46:01Z</time>
      </trkpt>
      <trkpt lat="43.66577" lon="1.39357">
        <ele>127</ele>
        <time>2024-04-04T16:46:02Z</time>
      </trkpt>
      <trkpt lat="43.66577" lon="1.39357">
        <ele>127</ele>
        <time>2024-04-04T16:46:03Z</time>
      </trkpt>
      <trkpt lat="43.66578" lon="1.39363">
        <ele>127</ele>
        <time>2024-04-04T16:46:04Z</time>
      </trkpt>
      <trkpt lat="43.66579" lon="1.39366">
        <ele>127</ele>
        <time>2024-04-04T16:46:05Z</time>
      </trkpt>
      <trkpt lat="43.6658" lon="1.39369">
        <ele>127</ele>
        <time>2024-04-04T16:46:06Z</time>
      </trkpt>
      <trkpt lat="43.66581" lon="1.39372">
        <ele>127</ele>
        <time>2024-04-04T16:46:07Z</time>
      </trkpt>
      <trkpt lat="43.66582" lon="1.39375">
        <ele>127</ele>
        <time>2024-04-04T16:46:08Z</time>
      </trkpt>
      <trkpt lat="43.66583" lon="1.39378">
        <ele>127</ele>
        <time>2024-04-04T16:46:09Z</time>
      </trkpt>
      <trkpt lat="43.66583" lon="1.39381">
        <ele>127</ele>
        <time>2024-04-04T16:46:10Z</time>
      </trkpt>
      <trkpt lat="43.66583" lon="1.39384">
        <ele>127</ele>
        <time>2024-04-04T16:46:11Z</time>
      </trkpt>
      <trkpt lat="43.66584" lon="1.39387">
        <ele>127</ele>
        <time>2024-04-04T16:46:12Z</time>
      </trkpt>
      <trkpt lat="43.66584" lon="1.3939">
        <ele>127</ele>
        <time>2024-04-04T16:46:13Z</time>
      </trkpt>
      <trkpt lat="43.66584" lon="1.39393">
        <ele>127</ele>
        <time>2024-04-04T16:46:14Z</time>
      </trkpt>
      <trkpt lat="43.66584" lon="1.39396">
        <ele>127</ele>
        <time>2024-04-04T16:46:15Z</time>
      </trkpt>
      <trkpt lat="43.66584" lon="1.39399">
        <ele>127</ele>
        <time>2024-04-04T16:46:16Z</time>
      </trkpt>
      <trkpt lat="43.66584" lon="1.39403">
        <ele>127</ele>
        <time>2024-04-04T16:46:17Z</time>
      </trkpt>
      <trkpt lat="43.66584" lon="1.39406">
        <ele>127</ele>
        <time>2024-04-04T16:46:18Z</time>
      </trkpt>
      <trkpt lat="43.66585" lon="1.39409">
        <ele>127</ele>
        <time>2024-04-04T16:46:19Z</time>
      </trkpt>
      <trkpt lat="43.66585" lon="1.39412">
        <ele>128</ele>
        <time>2024-04-04T16:46:20Z</time>
      </trkpt>
      <trkpt lat="43.66585" lon="1.39415">
        <ele>128</ele>
        <time>2024-04-04T16:46:21Z</time>
      </trkpt>
      <trkpt lat="43.66585" lon="1.39418">
        <ele>128</ele>
        <time>2024-04-04T16:46:22Z</time>
      </trkpt>
      <trkpt lat="43.66585" lon="1.39421">
        <ele>128</ele>
        <time>2024-04-04T16:46:23Z</time>
      </trkpt>
      <trkpt lat="43.66586" lon="1.39424">
        <ele>128</ele>
        <time>2024-04-04T16:46:24Z</time>
      </trkpt>
      <trkpt lat="43.66586" lon="1.39428">
        <ele>128</ele>
        <time>2024-04-04T16:46:25Z</time>
      </trkpt>
      <trkpt lat="43.66587" lon="1.39432">
        <ele>127</ele>
        <time>2024-04-04T16:46:26Z</time>
      </trkpt>
      <trkpt lat="43.66588" lon="1.39435">
        <ele>127</ele>
        <time>2024-04-04T16:46:27Z</time>
      </trkpt>
      <trkpt lat="43.66588" lon="1.39439">
        <ele>128</ele>
        <time>2024-04-04T16:46:28Z</time>
      </trkpt>
      <trkpt lat="43.66589" lon="1.39442">
        <ele>128</ele>
        <time>2024-04-04T16:46:29Z</time>
      </trkpt>
      <trkpt lat="43.6659" lon="1.39445">
        <ele>128</ele>
        <time>2024-04-04T16:46:30Z</time>
      </trkpt>
      <trkpt lat="43.66591" lon="1.39449">
        <ele>128</ele>
        <time>2024-04-04T16:46:31Z</time>
      </trkpt>
      <trkpt lat="43.66592" lon="1.39452">
        <ele>128</ele>
        <time>2024-04-04T16:46:32Z</time>
      </trkpt>
      <trkpt lat="43.66593" lon="1.39455">
        <ele>127</ele>
        <time>2024-04-04T16:46:33Z</time>
      </trkpt>
      <trkpt lat="43.66594" lon="1.39458">
        <ele>127</ele>
        <time>2024-04-04T16:46:34Z</time>
      </trkpt>
      <trkpt lat="43.66595" lon="1.39462">
        <ele>127</ele>
        <time>2024-04-04T16:46:35Z</time>
      </trkpt>
      <trkpt lat="43.66595" lon="1.39465">
        <ele>127</ele>
        <time>2024-04-04T16:46:36Z</time>
      </trkpt>
      <trkpt lat="43.66595" lon="1.39468">
        <ele>127</ele>
        <time>2024-04-04T16:46:37Z</time>
      </trkpt>
      <trkpt lat="43.66596" lon="1.39471">
        <ele>126</ele>
        <time>2024-04-04T16:46:38Z</time>
      </trkpt>
      <trkpt lat="43.66596" lon="1.39474">
        <ele>126</ele>
        <time>2024-04-04T16:46:39Z</time>
      </trkpt>
      <trkpt lat="43.66597" lon="1.39477">
        <ele>127</ele>
        <time>2024-04-04T16:46:40Z</time>
      </trkpt>
      <trkpt lat="43.66598" lon="1.3948">
        <ele>127</ele>
        <time>2024-04-04T16:46:41Z</time>
      </trkpt>
      <trkpt lat="43.666" lon="1.39482">
        <ele>127</ele>
        <time>2024-04-04T16:46:42Z</time>
      </trkpt>
      <trkpt lat="43.66601" lon="1.39485">
        <ele>127</ele>
        <time>2024-04-04T16:46:43Z</time>
      </trkpt>
      <trkpt lat="43.66603" lon="1.39488">
        <ele>127</ele>
        <time>2024-04-04T16:46:44Z</time>
      </trkpt>
      <trkpt lat="43.66604" lon="1.39491">
        <ele>127</ele>
        <time>2024-04-04T16:46:45Z</time>
      </trkpt>
      <trkpt lat="43.66604" lon="1.39494">
        <ele>127</ele>
        <time>2024-04-04T16:46:46Z</time>
      </trkpt>
      <trkpt lat="43.66604" lon="1.39498">
        <ele>127</ele>
        <time>2024-04-04T16:46:47Z</time>
      </trkpt>
      <trkpt lat="43.66604" lon="1.39501">
        <ele>127</ele>
        <time>2024-04-04T16:46:48Z</time>
      </trkpt>
      <trkpt lat="43.66603" lon="1.39504">
        <ele>127</ele>
        <time>2024-04-04T16:46:49Z</time>
      </trkpt>
      <trkpt lat="43.66603" lon="1.39508">
        <ele>127</ele>
        <time>2024-04-04T16:46:50Z</time>
      </trkpt>
      <trkpt lat="43.66603" lon="1.39511">
        <ele>127</ele>
        <time>2024-04-04T16:46:51Z</time>
      </trkpt>
      <trkpt lat="43.66603" lon="1.39514">
        <ele>127</ele>
        <time>2024-04-04T16:46:52Z</time>
      </trkpt>
      <trkpt lat="43.66603" lon="1.39516">
        <ele>127</ele>
        <time>2024-04-04T16:46:53Z</time>
      </trkpt>
      <trkpt lat="43.66603" lon="1.39519">
        <ele>126</ele>
        <time>2024-04-04T16:46:54Z</time>
      </trkpt>
      <trkpt lat="43.66602" lon="1.39522">
        <ele>126</ele>
        <time>2024-04-04T16:46:55Z</time>
      </trkpt>
      <trkpt lat="43.66602" lon="1.39525">
        <ele>126</ele>
        <time>2024-04-04T16:46:56Z</time>
      </trkpt>
      <trkpt lat="43.66602" lon="1.39528">
        <ele>126</ele>
        <time>2024-04-04T16:46:57Z</time>
      </trkpt>
      <trkpt lat="43.66602" lon="1.39531">
        <ele>126</ele>
        <time>2024-04-04T16:46:58Z</time>
      </trkpt>
      <trkpt lat="43.66602" lon="1.39534">
        <ele>126</ele>
        <time>2024-04-04T16:46:59Z</time>
      </trkpt>
      <trkpt lat="43.66603" lon="1.39537">
        <ele>126</ele>
        <time>2024-04-04T16:47:00Z</time>
      </trkpt>
      <trkpt lat="43.66603" lon="1.3954">
        <ele>126</ele>
        <time>2024-04-04T16:47:01Z</time>
      </trkpt>
      <trkpt lat="43.66604" lon="1.39543">
        <ele>126</ele>
        <time>2024-04-04T16:47:02Z</time>
      </trkpt>
      <trkpt lat="43.66605" lon="1.39546">
        <ele>126</ele>
        <time>2024-04-04T16:47:03Z</time>
      </trkpt>
      <trkpt lat="43.66606" lon="1.39548">
        <ele>126</ele>
        <time>2024-04-04T16:47:04Z</time>
      </trkpt>
      <trkpt lat="43.66607" lon="1.3955">
        <ele>127</ele>
        <time>2024-04-04T16:47:05Z</time>
      </trkpt>
      <trkpt lat="43.66608" lon="1.39553">
        <ele>127</ele>
        <time>2024-04-04T16:47:06Z</time>
      </trkpt>
      <trkpt lat="43.66609" lon="1.39555">
        <ele>127</ele>
        <time>2024-04-04T16:47:07Z</time>
      </trkpt>
      <trkpt lat="43.6661" lon="1.39558">
        <ele>127</ele>
        <time>2024-04-04T16:47:08Z</time>
      </trkpt>
      <trkpt lat="43.6661" lon="1.39561">
        <ele>127</ele>
        <time>2024-04-04T16:47:09Z</time>
      </trkpt>
      <trkpt lat="43.66611" lon="1.39564">
        <ele>127</ele>
        <time>2024-04-04T16:47:10Z</time>
      </trkpt>
      <trkpt lat="43.66611" lon="1.39564">
        <ele>127</ele>
        <time>2024-04-04T16:47:11Z</time>
      </trkpt>
      <trkpt lat="43.66612" lon="1.39567">
        <ele>127</ele>
        <time>2024-04-04T16:47:12Z</time>
      </trkpt>
      <trkpt lat="43.66612" lon="1.39567">
        <ele>127</ele>
        <time>2024-04-04T16:47:13Z</time>
      </trkpt>
      <trkpt lat="43.66613" lon="1.39572">
        <ele>127</ele>
        <time>2024-04-04T16:47:14Z</time>
      </trkpt>
      <trkpt lat="43.66613" lon="1.39574">
        <ele>127</ele>
        <time>2024-04-04T16:47:15Z</time>
      </trkpt>
      <trkpt lat="43.66614" lon="1.39577">
        <ele>127</ele>
        <time>2024-04-04T16:47:16Z</time>
      </trkpt>
      <trkpt lat="43.66615" lon="1.39579">
        <ele>127</ele>
        <time>2024-04-04T16:47:17Z</time>
      </trkpt>
      <trkpt lat="43.66616" lon="1.39581">
        <ele>127</ele>
        <time>2024-04-04T16:47:18Z</time>
      </trkpt>
      <trkpt lat="43.66616" lon="1.39584">
        <ele>127</ele>
        <time>2024-04-04T16:47:19Z</time>
      </trkpt>
      <trkpt lat="43.66616" lon="1.39587">
        <ele>127</ele>
        <time>2024-04-04T16:47:20Z</time>
      </trkpt>
      <trkpt lat="43.66617" lon="1.3959">
        <ele>127</ele>
        <time>2024-04-04T16:47:21Z</time>
      </trkpt>
      <trkpt lat="43.66618" lon="1.39593">
        <ele>127</ele>
        <time>2024-04-04T16:47:22Z</time>
      </trkpt>
      <trkpt lat="43.66618" lon="1.39596">
        <ele>127</ele>
        <time>2024-04-04T16:47:23Z</time>
      </trkpt>
      <trkpt lat="43.66618" lon="1.39599">
        <ele>127</ele>
        <time>2024-04-04T16:47:24Z</time>
      </trkpt>
      <trkpt lat="43.66619" lon="1.39601">
        <ele>127</ele>
        <time>2024-04-04T16:47:25Z</time>
      </trkpt>
      <trkpt lat="43.6662" lon="1.39604">
        <ele>127</ele>
        <time>2024-04-04T16:47:26Z</time>
      </trkpt>
      <trkpt lat="43.66622" lon="1.39608">
        <ele>127</ele>
        <time>2024-04-04T16:47:27Z</time>
      </trkpt>
      <trkpt lat="43.66624" lon="1.39611">
        <ele>127</ele>
        <time>2024-04-04T16:47:28Z</time>
      </trkpt>
      <trkpt lat="43.66626" lon="1.39614">
        <ele>127</ele>
        <time>2024-04-04T16:47:29Z</time>
      </trkpt>
      <trkpt lat="43.66627" lon="1.39618">
        <ele>127</ele>
        <time>2024-04-04T16:47:30Z</time>
      </trkpt>
      <trkpt lat="43.66628" lon="1.39621">
        <ele>126</ele>
        <time>2024-04-04T16:47:31Z</time>
      </trkpt>
      <trkpt lat="43.66628" lon="1.39624">
        <ele>126</ele>
        <time>2024-04-04T16:47:32Z</time>
      </trkpt>
      <trkpt lat="43.66629" lon="1.39627">
        <ele>126</ele>
        <time>2024-04-04T16:47:33Z</time>
      </trkpt>
      <trkpt lat="43.66629" lon="1.3963">
        <ele>126</ele>
        <time>2024-04-04T16:47:34Z</time>
      </trkpt>
      <trkpt lat="43.66629" lon="1.39633">
        <ele>126</ele>
        <time>2024-04-04T16:47:35Z</time>
      </trkpt>
      <trkpt lat="43.66629" lon="1.39637">
        <ele>127</ele>
        <time>2024-04-04T16:47:36Z</time>
      </trkpt>
      <trkpt lat="43.6663" lon="1.3964">
        <ele>127</ele>
        <time>2024-04-04T16:47:37Z</time>
      </trkpt>
      <trkpt lat="43.6663" lon="1.39643">
        <ele>127</ele>
        <time>2024-04-04T16:47:38Z</time>
      </trkpt>
      <trkpt lat="43.66631" lon="1.39646">
        <ele>126</ele>
        <time>2024-04-04T16:47:39Z</time>
      </trkpt>
      <trkpt lat="43.66631" lon="1.3965">
        <ele>126</ele>
        <time>2024-04-04T16:47:40Z</time>
      </trkpt>
      <trkpt lat="43.66631" lon="1.39653">
        <ele>126</ele>
        <time>2024-04-04T16:47:41Z</time>
      </trkpt>
      <trkpt lat="43.66631" lon="1.39656">
        <ele>126</ele>
        <time>2024-04-04T16:47:42Z</time>
      </trkpt>
      <trkpt lat="43.66631" lon="1.39658">
        <ele>127</ele>
        <time>2024-04-04T16:47:43Z</time>
      </trkpt>
      <trkpt lat="43.66631" lon="1.39661">
        <ele>127</ele>
        <time>2024-04-04T16:47:44Z</time>
      </trkpt>
      <trkpt lat="43.66632" lon="1.39664">
        <ele>127</ele>
        <time>2024-04-04T16:47:45Z</time>
      </trkpt>
      <trkpt lat="43.66632" lon="1.39666">
        <ele>127</ele>
        <time>2024-04-04T16:47:46Z</time>
      </trkpt>
      <trkpt lat="43.66633" lon="1.39669">
        <ele>127</ele>
        <time>2024-04-04T16:47:47Z</time>
      </trkpt>
      <trkpt lat="43.66634" lon="1.39672">
        <ele>127</ele>
        <time>2024-04-04T16:47:48Z</time>
      </trkpt>
      <trkpt lat="43.66634" lon="1.39675">
        <ele>126</ele>
        <time>2024-04-04T16:47:49Z</time>
      </trkpt>
      <trkpt lat="43.66635" lon="1.39678">
        <ele>127</ele>
        <time>2024-04-04T16:47:50Z</time>
      </trkpt>
      <trkpt lat="43.66635" lon="1.39681">
        <ele>127</ele>
        <time>2024-04-04T16:47:51Z</time>
      </trkpt>
      <trkpt lat="43.66635" lon="1.39684">
        <ele>127</ele>
        <time>2024-04-04T16:47:52Z</time>
      </trkpt>
      <trkpt lat="43.66636" lon="1.39687">
        <ele>127</ele>
        <time>2024-04-04T16:47:53Z</time>
      </trkpt>
      <trkpt lat="43.66636" lon="1.3969">
        <ele>127</ele>
        <time>2024-04-04T16:47:54Z</time>
      </trkpt>
      <trkpt lat="43.66636" lon="1.3969">
        <ele>127</ele>
        <time>2024-04-04T16:47:55Z</time>
      </trkpt>
      <trkpt lat="43.66635" lon="1.39696">
        <ele>127</ele>
        <time>2024-04-04T16:47:56Z</time>
      </trkpt>
      <trkpt lat="43.66635" lon="1.39698">
        <ele>127</ele>
        <time>2024-04-04T16:47:57Z</time>
      </trkpt>
      <trkpt lat="43.66635" lon="1.39701">
        <ele>127</ele>
        <time>2024-04-04T16:47:58Z</time>
      </trkpt>
      <trkpt lat="43.66635" lon="1.39701">
        <ele>127</ele>
        <time>2024-04-04T16:47:59Z</time>
      </trkpt>
      <trkpt lat="43.66636" lon="1.39706">
        <ele>127</ele>
        <time>2024-04-04T16:48:00Z</time>
      </trkpt>
      <trkpt lat="43.66636" lon="1.39709">
        <ele>127</ele>
        <time>2024-04-04T16:48:01Z</time>
      </trkpt>
      <trkpt lat="43.66636" lon="1.39711">
        <ele>126</ele>
        <time>2024-04-04T16:48:02Z</time>
      </trkpt>
      <trkpt lat="43.66636" lon="1.39714">
        <ele>127</ele>
        <time>2024-04-04T16:48:03Z</time>
      </trkpt>
      <trkpt lat="43.66636" lon="1.39717">
        <ele>127</ele>
        <time>2024-04-04T16:48:04Z</time>
      </trkpt>
      <trkpt lat="43.66636" lon="1.39717">
        <ele>127</ele>
        <time>2024-04-04T16:48:05Z</time>
      </trkpt>
      <trkpt lat="43.66636" lon="1.39722">
        <ele>127</ele>
        <time>2024-04-04T16:48:06Z</time>
      </trkpt>
      <trkpt lat="43.66635" lon="1.39725">
        <ele>127</ele>
        <time>2024-04-04T16:48:07Z</time>
      </trkpt>
      <trkpt lat="43.66636" lon="1.39729">
        <ele>127</ele>
        <time>2024-04-04T16:48:08Z</time>
      </trkpt>
      <trkpt lat="43.66636" lon="1.39733">
        <ele>127</ele>
        <time>2024-04-04T16:48:09Z</time>
      </trkpt>
      <trkpt lat="43.66636" lon="1.39737">
        <ele>127</ele>
        <time>2024-04-04T16:48:10Z</time>
      </trkpt>
      <trkpt lat="43.66636" lon="1.3974">
        <ele>127</ele>
        <time>2024-04-04T16:48:11Z</time>
      </trkpt>
      <trkpt lat="43.66636" lon="1.39743">
        <ele>127</ele>
        <time>2024-04-04T16:48:12Z</time>
      </trkpt>
      <trkpt lat="43.66636" lon="1.39746">
        <ele>127</ele>
        <time>2024-04-04T16:48:13Z</time>
      </trkpt>
      <trkpt lat="43.66636" lon="1.39749">
        <ele>127</ele>
        <time>2024-04-04T16:48:14Z</time>
      </trkpt>
      <trkpt lat="43.66636" lon="1.39752">
        <ele>127</ele>
        <time>2024-04-04T16:48:15Z</time>
      </trkpt>
      <trkpt lat="43.66637" lon="1.39755">
        <ele>127</ele>
        <time>2024-04-04T16:48:16Z</time>
      </trkpt>
      <trkpt lat="43.66637" lon="1.39758">
        <ele>127</ele>
        <time>2024-04-04T16:48:17Z</time>
      </trkpt>
      <trkpt lat="43.66636" lon="1.39761">
        <ele>127</ele>
        <time>2024-04-04T16:48:18Z</time>
      </trkpt>
      <trkpt lat="43.66636" lon="1.39764">
        <ele>127</ele>
        <time>2024-04-04T16:48:19Z</time>
      </trkpt>
      <trkpt lat="43.66635" lon="1.39767">
        <ele>127</ele>
        <time>2024-04-04T16:48:20Z</time>
      </trkpt>
      <trkpt lat="43.66635" lon="1.3977">
        <ele>127</ele>
        <time>2024-04-04T16:48:21Z</time>
      </trkpt>
      <trkpt lat="43.66636" lon="1.39773">
        <ele>128</ele>
        <time>2024-04-04T16:48:22Z</time>
      </trkpt>
      <trkpt lat="43.66636" lon="1.39776">
        <ele>128</ele>
        <time>2024-04-04T16:48:23Z</time>
      </trkpt>
      <trkpt lat="43.66636" lon="1.39778">
        <ele>128</ele>
        <time>2024-04-04T16:48:24Z</time>
      </trkpt>
      <trkpt lat="43.66636" lon="1.39781">
        <ele>127</ele>
        <time>2024-04-04T16:48:25Z</time>
      </trkpt>
      <trkpt lat="43.66636" lon="1.39784">
        <ele>127</ele>
        <time>2024-04-04T16:48:26Z</time>
      </trkpt>
      <trkpt lat="43.66635" lon="1.39787">
        <ele>127</ele>
        <time>2024-04-04T16:48:27Z</time>
      </trkpt>
      <trkpt lat="43.66635" lon="1.39789">
        <ele>127</ele>
        <time>2024-04-04T16:48:28Z</time>
      </trkpt>
      <trkpt lat="43.66635" lon="1.39789">
        <ele>127</ele>
        <time>2024-04-04T16:48:29Z</time>
      </trkpt>
      <trkpt lat="43.66632" lon="1.39791">
        <ele>127</ele>
        <time>2024-04-04T16:48:30Z</time>
      </trkpt>
      <trkpt lat="43.66632" lon="1.39791">
        <ele>127</ele>
        <time>2024-04-04T16:48:31Z</time>
      </trkpt>
      <trkpt lat="43.66632" lon="1.39796">
        <ele>127</ele>
        <time>2024-04-04T16:48:32Z</time>
      </trkpt>
      <trkpt lat="43.66633" lon="1.39799">
        <ele>127</ele>
        <time>2024-04-04T16:48:33Z</time>
      </trkpt>
      <trkpt lat="43.66634" lon="1.39801">
        <ele>127</ele>
        <time>2024-04-04T16:48:34Z</time>
      </trkpt>
      <trkpt lat="43.66635" lon="1.39804">
        <ele>127</ele>
        <time>2024-04-04T16:48:35Z</time>
      </trkpt>
      <trkpt lat="43.66636" lon="1.39807">
        <ele>127</ele>
        <time>2024-04-04T16:48:36Z</time>
      </trkpt>
      <trkpt lat="43.66636" lon="1.3981">
        <ele>127</ele>
        <time>2024-04-04T16:48:37Z</time>
      </trkpt>
      <trkpt lat="43.66636" lon="1.39813">
        <ele>127</ele>
        <time>2024-04-04T16:48:38Z</time>
      </trkpt>
      <trkpt lat="43.66636" lon="1.39815">
        <ele>127</ele>
        <time>2024-04-04T16:48:39Z</time>
      </trkpt>
      <trkpt lat="43.66635" lon="1.39818">
        <ele>127</ele>
        <time>2024-04-04T16:48:40Z</time>
      </trkpt>
      <trkpt lat="43.66635" lon="1.39821">
        <ele>127</ele>
        <time>2024-04-04T16:48:41Z</time>
      </trkpt>
      <trkpt lat="43.66635" lon="1.39824">
        <ele>127</ele>
        <time>2024-04-04T16:48:42Z</time>
      </trkpt>
      <trkpt lat="43.66635" lon="1.39827">
        <ele>127</ele>
        <time>2024-04-04T16:48:43Z</time>
      </trkpt>
      <trkpt lat="43.66635" lon="1.3983">
        <ele>126</ele>
        <time>2024-04-04T16:48:44Z</time>
      </trkpt>
      <trkpt lat="43.66635" lon="1.39833">
        <ele>126</ele>
        <time>2024-04-04T16:48:45Z</time>
      </trkpt>
      <trkpt lat="43.66635" lon="1.39836">
        <ele>126</ele>
        <time>2024-04-04T16:48:46Z</time>
      </trkpt>
      <trkpt lat="43.66636" lon="1.3984">
        <ele>126</ele>
        <time>2024-04-04T16:48:47Z</time>
      </trkpt>
      <trkpt lat="43.66637" lon="1.39843">
        <ele>126</ele>
        <time>2024-04-04T16:48:48Z</time>
      </trkpt>
      <trkpt lat="43.66637" lon="1.39847">
        <ele>126</ele>
        <time>2024-04-04T16:48:49Z</time>
      </trkpt>
      <trkpt lat="43.66638" lon="1.39851">
        <ele>126</ele>
        <time>2024-04-04T16:48:50Z</time>
      </trkpt>
      <trkpt lat="43.66638" lon="1.39854">
        <ele>126</ele>
        <time>2024-04-04T16:48:51Z</time>
      </trkpt>
      <trkpt lat="43.66638" lon="1.39858">
        <ele>126</ele>
        <time>2024-04-04T16:48:52Z</time>
      </trkpt>
      <trkpt lat="43.66638" lon="1.39861">
        <ele>126</ele>
        <time>2024-04-04T16:48:53Z</time>
      </trkpt>
      <trkpt lat="43.66638" lon="1.39864">
        <ele>126</ele>
        <time>2024-04-04T16:48:54Z</time>
      </trkpt>
      <trkpt lat="43.66638" lon="1.39864">
        <ele>126</ele>
        <time>2024-04-04T16:48:55Z</time>
      </trkpt>
      <trkpt lat="43.66638" lon="1.3987">
        <ele>126</ele>
        <time>2024-04-04T16:48:56Z</time>
      </trkpt>
      <trkpt lat="43.66638" lon="1.39873">
        <ele>126</ele>
        <time>2024-04-04T16:48:57Z</time>
      </trkpt>
      <trkpt lat="43.66637" lon="1.39876">
        <ele>126</ele>
        <time>2024-04-04T16:48:58Z</time>
      </trkpt>
      <trkpt lat="43.66636" lon="1.39878">
        <ele>126</ele>
        <time>2024-04-04T16:48:59Z</time>
      </trkpt>
      <trkpt lat="43.66636" lon="1.39878">
        <ele>126</ele>
        <time>2024-04-04T16:49:00Z</time>
      </trkpt>
      <trkpt lat="43.66635" lon="1.39882">
        <ele>126</ele>
        <time>2024-04-04T16:49:01Z</time>
      </trkpt>
      <trkpt lat="43.66635" lon="1.39882">
        <ele>126</ele>
        <time>2024-04-04T16:49:02Z</time>
      </trkpt>
      <trkpt lat="43.66633" lon="1.39889">
        <ele>126</ele>
        <time>2024-04-04T16:49:03Z</time>
      </trkpt>
      <trkpt lat="43.66632" lon="1.3989">
        <ele>126</ele>
        <time>2024-04-04T16:49:04Z</time>
      </trkpt>
      <trkpt lat="43.66631" lon="1.39894">
        <ele>126</ele>
        <time>2024-04-04T16:49:05Z</time>
      </trkpt>
      <trkpt lat="43.66629" lon="1.39897">
        <ele>126</ele>
        <time>2024-04-04T16:49:06Z</time>
      </trkpt>
      <trkpt lat="43.66628" lon="1.399">
        <ele>126</ele>
        <time>2024-04-04T16:49:07Z</time>
      </trkpt>
      <trkpt lat="43.66626" lon="1.39902">
        <ele>126</ele>
        <time>2024-04-04T16:49:08Z</time>
      </trkpt>
      <trkpt lat="43.66625" lon="1.39905">
        <ele>127</ele>
        <time>2024-04-04T16:49:09Z</time>
      </trkpt>
      <trkpt lat="43.66624" lon="1.39908">
        <ele>127</ele>
        <time>2024-04-04T16:49:10Z</time>
      </trkpt>
      <trkpt lat="43.66623" lon="1.3991">
        <ele>127</ele>
        <time>2024-04-04T16:49:11Z</time>
      </trkpt>
      <trkpt lat="43.66622" lon="1.39913">
        <ele>127</ele>
        <time>2024-04-04T16:49:12Z</time>
      </trkpt>
      <trkpt lat="43.66622" lon="1.39916">
        <ele>127</ele>
        <time>2024-04-04T16:49:13Z</time>
      </trkpt>
      <trkpt lat="43.66621" lon="1.39919">
        <ele>127</ele>
        <time>2024-04-04T16:49:14Z</time>
      </trkpt>
      <trkpt lat="43.66621" lon="1.39919">
        <ele>127</ele>
        <time>2024-04-04T16:49:15Z</time>
      </trkpt>
      <trkpt lat="43.6662" lon="1.39922">
        <ele>127</ele>
        <time>2024-04-04T16:49:16Z</time>
      </trkpt>
      <trkpt lat="43.66618" lon="1.39923">
        <ele>127</ele>
        <time>2024-04-04T16:49:17Z</time>
      </trkpt>
      <trkpt lat="43.66617" lon="1.39926">
        <ele>127</ele>
        <time>2024-04-04T16:49:18Z</time>
      </trkpt>
      <trkpt lat="43.66616" lon="1.39928">
        <ele>127</ele>
        <time>2024-04-04T16:49:19Z</time>
      </trkpt>
      <trkpt lat="43.66616" lon="1.39931">
        <ele>127</ele>
        <time>2024-04-04T16:49:20Z</time>
      </trkpt>
      <trkpt lat="43.66616" lon="1.39931">
        <ele>127</ele>
        <time>2024-04-04T16:49:21Z</time>
      </trkpt>
      <trkpt lat="43.66616" lon="1.39936">
        <ele>127</ele>
        <time>2024-04-04T16:49:22Z</time>
      </trkpt>
      <trkpt lat="43.66616" lon="1.3994">
        <ele>127</ele>
        <time>2024-04-04T16:49:23Z</time>
      </trkpt>
      <trkpt lat="43.66615" lon="1.39943">
        <ele>127</ele>
        <time>2024-04-04T16:49:24Z</time>
      </trkpt>
      <trkpt lat="43.66614" lon="1.39946">
        <ele>127</ele>
        <time>2024-04-04T16:49:25Z</time>
      </trkpt>
      <trkpt lat="43.66613" lon="1.39948">
        <ele>127</ele>
        <time>2024-04-04T16:49:26Z</time>
      </trkpt>
      <trkpt lat="43.66612" lon="1.3995">
        <ele>127</ele>
        <time>2024-04-04T16:49:27Z</time>
      </trkpt>
      <trkpt lat="43.66611" lon="1.39953">
        <ele>127</ele>
        <time>2024-04-04T16:49:28Z</time>
      </trkpt>
      <trkpt lat="43.6661" lon="1.39956">
        <ele>127</ele>
        <time>2024-04-04T16:49:29Z</time>
      </trkpt>
      <trkpt lat="43.66609" lon="1.39958">
        <ele>127</ele>
        <time>2024-04-04T16:49:30Z</time>
      </trkpt>
      <trkpt lat="43.66608" lon="1.39961">
        <ele>127</ele>
        <time>2024-04-04T16:49:31Z</time>
      </trkpt>
      <trkpt lat="43.66606" lon="1.39964">
        <ele>127</ele>
        <time>2024-04-04T16:49:32Z</time>
      </trkpt>
      <trkpt lat="43.66606" lon="1.39966">
        <ele>127</ele>
        <time>2024-04-04T16:49:33Z</time>
      </trkpt>
      <trkpt lat="43.66605" lon="1.39969">
        <ele>127</ele>
        <time>2024-04-04T16:49:34Z</time>
      </trkpt>
      <trkpt lat="43.66605" lon="1.39971">
        <ele>127</ele>
        <time>2024-04-04T16:49:35Z</time>
      </trkpt>
      <trkpt lat="43.66605" lon="1.39974">
        <ele>127</ele>
        <time>2024-04-04T16:49:36Z</time>
      </trkpt>
      <trkpt lat="43.66604" lon="1.39976">
        <ele>127</ele>
        <time>2024-04-04T16:49:37Z</time>
      </trkpt>
      <trkpt lat="43.66603" lon="1.39978">
        <ele>127</ele>
        <time>2024-04-04T16:49:38Z</time>
      </trkpt>
      <trkpt lat="43.66601" lon="1.3998">
        <ele>127</ele>
        <time>2024-04-04T16:49:39Z</time>
      </trkpt>
      <trkpt lat="43.666" lon="1.39983">
        <ele>127</ele>
        <time>2024-04-04T16:49:40Z</time>
      </trkpt>
      <trkpt lat="43.66599" lon="1.39985">
        <ele>127</ele>
        <time>2024-04-04T16:49:41Z</time>
      </trkpt>
      <trkpt lat="43.66599" lon="1.39988">
        <ele>127</ele>
        <time>2024-04-04T16:49:42Z</time>
      </trkpt>
      <trkpt lat="43.66598" lon="1.3999">
        <ele>127</ele>
        <time>2024-04-04T16:49:43Z</time>
      </trkpt>
      <trkpt lat="43.66596" lon="1.39993">
        <ele>127</ele>
        <time>2024-04-04T16:49:44Z</time>
      </trkpt>
      <trkpt lat="43.66595" lon="1.39996">
        <ele>127</ele>
        <time>2024-04-04T16:49:45Z</time>
      </trkpt>
      <trkpt lat="43.66596" lon="1.39999">
        <ele>127</ele>
        <time>2024-04-04T16:49:46Z</time>
      </trkpt>
      <trkpt lat="43.66596" lon="1.40002">
        <ele>127</ele>
        <time>2024-04-04T16:49:47Z</time>
      </trkpt>
      <trkpt lat="43.66595" lon="1.40006">
        <ele>127</ele>
        <time>2024-04-04T16:49:48Z</time>
      </trkpt>
      <trkpt lat="43.66595" lon="1.40009">
        <ele>127</ele>
        <time>2024-04-04T16:49:49Z</time>
      </trkpt>
      <trkpt lat="43.66594" lon="1.40011">
        <ele>127</ele>
        <time>2024-04-04T16:49:50Z</time>
      </trkpt>
      <trkpt lat="43.66593" lon="1.40014">
        <ele>127</ele>
        <time>2024-04-04T16:49:51Z</time>
      </trkpt>
      <trkpt lat="43.66592" lon="1.40016">
        <ele>127</ele>
        <time>2024-04-04T16:49:52Z</time>
      </trkpt>
      <trkpt lat="43.6659" lon="1.40019">
        <ele>127</ele>
        <time>2024-04-04T16:49:53Z</time>
      </trkpt>
      <trkpt lat="43.6659" lon="1.40022">
        <ele>127</ele>
        <time>2024-04-04T16:49:54Z</time>
      </trkpt>
      <trkpt lat="43.66589" lon="1.40025">
        <ele>127</ele>
        <time>2024-04-04T16:49:55Z</time>
      </trkpt>
      <trkpt lat="43.66588" lon="1.40027">
        <ele>127</ele>
        <time>2024-04-04T16:49:56Z</time>
      </trkpt>
      <trkpt lat="43.66587" lon="1.4003">
        <ele>127</ele>
        <time>2024-04-04T16:49:57Z</time>
      </trkpt>
      <trkpt lat="43.66585" lon="1.40033">
        <ele>127</ele>
        <time>2024-04-04T16:49:58Z</time>
      </trkpt>
      <trkpt lat="43.66584" lon="1.40035">
        <ele>127</ele>
        <time>2024-04-04T16:49:59Z</time>
      </trkpt>
      <trkpt lat="43.66583" lon="1.40038">
        <ele>127</ele>
        <time>2024-04-04T16:50:00Z</time>
      </trkpt>
      <trkpt lat="43.66581" lon="1.4004">
        <ele>127</ele>
        <time>2024-04-04T16:50:01Z</time>
      </trkpt>
      <trkpt lat="43.66581" lon="1.40043">
        <ele>127</ele>
        <time>2024-04-04T16:50:02Z</time>
      </trkpt>
      <trkpt lat="43.6658" lon="1.40046">
        <ele>127</ele>
        <time>2024-04-04T16:50:03Z</time>
      </trkpt>
      <trkpt lat="43.66578" lon="1.40049">
        <ele>127</ele>
        <time>2024-04-04T16:50:04Z</time>
      </trkpt>
      <trkpt lat="43.66577" lon="1.40051">
        <ele>127</ele>
        <time>2024-04-04T16:50:05Z</time>
      </trkpt>
      <trkpt lat="43.66577" lon="1.40053">
        <ele>128</ele>
        <time>2024-04-04T16:50:06Z</time>
      </trkpt>
      <trkpt lat="43.66576" lon="1.40056">
        <ele>128</ele>
        <time>2024-04-04T16:50:07Z</time>
      </trkpt>
      <trkpt lat="43.66575" lon="1.40058">
        <ele>128</ele>
        <time>2024-04-04T16:50:08Z</time>
      </trkpt>
      <trkpt lat="43.66574" lon="1.4006">
        <ele>128</ele>
        <time>2024-04-04T16:50:09Z</time>
      </trkpt>
      <trkpt lat="43.66573" lon="1.40063">
        <ele>128</ele>
        <time>2024-04-04T16:50:10Z</time>
      </trkpt>
      <trkpt lat="43.66571" lon="1.40065">
        <ele>127</ele>
        <time>2024-04-04T16:50:11Z</time>
      </trkpt>
      <trkpt lat="43.6657" lon="1.40067">
        <ele>127</ele>
        <time>2024-04-04T16:50:12Z</time>
      </trkpt>
      <trkpt lat="43.6657" lon="1.40067">
        <ele>127</ele>
        <time>2024-04-04T16:50:13Z</time>
      </trkpt>
      <trkpt lat="43.66567" lon="1.40073">
        <ele>127</ele>
        <time>2024-04-04T16:50:14Z</time>
      </trkpt>
      <trkpt lat="43.66567" lon="1.40074">
        <ele>127</ele>
        <time>2024-04-04T16:50:15Z</time>
      </trkpt>
      <trkpt lat="43.66566" lon="1.40077">
        <ele>127</ele>
        <time>2024-04-04T16:50:16Z</time>
      </trkpt>
      <trkpt lat="43.66564" lon="1.4008">
        <ele>127</ele>
        <time>2024-04-04T16:50:17Z</time>
      </trkpt>
      <trkpt lat="43.66563" lon="1.40083">
        <ele>127</ele>
        <time>2024-04-04T16:50:18Z</time>
      </trkpt>
      <trkpt lat="43.66563" lon="1.40083">
        <ele>127</ele>
        <time>2024-04-04T16:50:19Z</time>
      </trkpt>
      <trkpt lat="43.6656" lon="1.40088">
        <ele>127</ele>
        <time>2024-04-04T16:50:20Z</time>
      </trkpt>
      <trkpt lat="43.66559" lon="1.40089">
        <ele>127</ele>
        <time>2024-04-04T16:50:21Z</time>
      </trkpt>
      <trkpt lat="43.66557" lon="1.40092">
        <ele>128</ele>
        <time>2024-04-04T16:50:22Z</time>
      </trkpt>
      <trkpt lat="43.66555" lon="1.40094">
        <ele>128</ele>
        <time>2024-04-04T16:50:23Z</time>
      </trkpt>
      <trkpt lat="43.66554" lon="1.40097">
        <ele>128</ele>
        <time>2024-04-04T16:50:24Z</time>
      </trkpt>
      <trkpt lat="43.66552" lon="1.401">
        <ele>128</ele>
        <time>2024-04-04T16:50:25Z</time>
      </trkpt>
      <trkpt lat="43.66551" lon="1.40102">
        <ele>128</ele>
        <time>2024-04-04T16:50:26Z</time>
      </trkpt>
      <trkpt lat="43.66551" lon="1.40102">
        <ele>128</ele>
        <time>2024-04-04T16:50:27Z</time>
      </trkpt>
      <trkpt lat="43.6655" lon="1.40107">
        <ele>127</ele>
        <time>2024-04-04T16:50:28Z</time>
      </trkpt>
      <trkpt lat="43.6655" lon="1.40109">
        <ele>127</ele>
        <time>2024-04-04T16:50:29Z</time>
      </trkpt>
      <trkpt lat="43.66548" lon="1.40112">
        <ele>127</ele>
        <time>2024-04-04T16:50:30Z</time>
      </trkpt>
      <trkpt lat="43.66548" lon="1.40114">
        <ele>127</ele>
        <time>2024-04-04T16:50:31Z</time>
      </trkpt>
      <trkpt lat="43.66548" lon="1.40114">
        <ele>127</ele>
        <time>2024-04-04T16:50:32Z</time>
      </trkpt>
      <trkpt lat="43.66547" lon="1.40119">
        <ele>127</ele>
        <time>2024-04-04T16:50:33Z</time>
      </trkpt>
      <trkpt lat="43.66546" lon="1.40121">
        <ele>127</ele>
        <time>2024-04-04T16:50:34Z</time>
      </trkpt>
      <trkpt lat="43.66545" lon="1.40123">
        <ele>127</ele>
        <time>2024-04-04T16:50:35Z</time>
      </trkpt>
      <trkpt lat="43.66543" lon="1.40125">
        <ele>127</ele>
        <time>2024-04-04T16:50:36Z</time>
      </trkpt>
      <trkpt lat="43.66541" lon="1.40127">
        <ele>127</ele>
        <time>2024-04-04T16:50:37Z</time>
      </trkpt>
      <trkpt lat="43.66539" lon="1.40129">
        <ele>127</ele>
        <time>2024-04-04T16:50:38Z</time>
      </trkpt>
      <trkpt lat="43.66538" lon="1.40132">
        <ele>127</ele>
        <time>2024-04-04T16:50:39Z</time>
      </trkpt>
      <trkpt lat="43.66536" lon="1.40135">
        <ele>127</ele>
        <time>2024-04-04T16:50:40Z</time>
      </trkpt>
      <trkpt lat="43.66534" lon="1.40137">
        <ele>128</ele>
        <time>2024-04-04T16:50:41Z</time>
      </trkpt>
      <trkpt lat="43.66532" lon="1.40139">
        <ele>128</ele>
        <time>2024-04-04T16:50:42Z</time>
      </trkpt>
      <trkpt lat="43.6653" lon="1.40141">
        <ele>128</ele>
        <time>2024-04-04T16:50:43Z</time>
      </trkpt>
      <trkpt lat="43.66528" lon="1.40143">
        <ele>128</ele>
        <time>2024-04-04T16:50:44Z</time>
      </trkpt>
      <trkpt lat="43.66526" lon="1.40145">
        <ele>128</ele>
        <time>2024-04-04T16:50:45Z</time>
      </trkpt>
      <trkpt lat="43.66524" lon="1.40147">
        <ele>128</ele>
        <time>2024-04-04T16:50:46Z</time>
      </trkpt>
      <trkpt lat="43.66522" lon="1.4015">
        <ele>128</ele>
        <time>2024-04-04T16:50:47Z</time>
      </trkpt>
      <trkpt lat="43.66521" lon="1.40152">
        <ele>128</ele>
        <time>2024-04-04T16:50:48Z</time>
      </trkpt>
      <trkpt lat="43.66519" lon="1.40155">
        <ele>128</ele>
        <time>2024-04-04T16:50:49Z</time>
      </trkpt>
      <trkpt lat="43.66518" lon="1.40159">
        <ele>128</ele>
        <time>2024-04-04T16:50:50Z</time>
      </trkpt>
      <trkpt lat="43.66518" lon="1.40162">
        <ele>127</ele>
        <time>2024-04-04T16:50:51Z</time>
      </trkpt>
      <trkpt lat="43.66517" lon="1.40164">
        <ele>127</ele>
        <time>2024-04-04T16:50:52Z</time>
      </trkpt>
      <trkpt lat="43.66516" lon="1.40167">
        <ele>127</ele>
        <time>2024-04-04T16:50:53Z</time>
      </trkpt>
      <trkpt lat="43.66514" lon="1.40169">
        <ele>127</ele>
        <time>2024-04-04T16:50:54Z</time>
      </trkpt>
      <trkpt lat="43.66513" lon="1.40171">
        <ele>127</ele>
        <time>2024-04-04T16:50:55Z</time>
      </trkpt>
      <trkpt lat="43.66511" lon="1.40173">
        <ele>127</ele>
        <time>2024-04-04T16:50:56Z</time>
      </trkpt>
      <trkpt lat="43.66509" lon="1.40175">
        <ele>127</ele>
        <time>2024-04-04T16:50:57Z</time>
      </trkpt>
      <trkpt lat="43.66507" lon="1.40176">
        <ele>127</ele>
        <time>2024-04-04T16:50:58Z</time>
      </trkpt>
      <trkpt lat="43.66505" lon="1.40177">
        <ele>127</ele>
        <time>2024-04-04T16:50:59Z</time>
      </trkpt>
      <trkpt lat="43.66503" lon="1.40179">
        <ele>127</ele>
        <time>2024-04-04T16:51:00Z</time>
      </trkpt>
      <trkpt lat="43.66502" lon="1.40182">
        <ele>127</ele>
        <time>2024-04-04T16:51:01Z</time>
      </trkpt>
      <trkpt lat="43.66501" lon="1.40184">
        <ele>127</ele>
        <time>2024-04-04T16:51:02Z</time>
      </trkpt>
      <trkpt lat="43.66501" lon="1.40184">
        <ele>127</ele>
        <time>2024-04-04T16:51:03Z</time>
      </trkpt>
      <trkpt lat="43.66499" lon="1.40187">
        <ele>127</ele>
        <time>2024-04-04T16:51:04Z</time>
      </trkpt>
      <trkpt lat="43.66499" lon="1.40187">
        <ele>127</ele>
        <time>2024-04-04T16:51:05Z</time>
      </trkpt>
      <trkpt lat="43.66496" lon="1.4019">
        <ele>128</ele>
        <time>2024-04-04T16:51:06Z</time>
      </trkpt>
      <trkpt lat="43.66496" lon="1.4019">
        <ele>128</ele>
        <time>2024-04-04T16:51:07Z</time>
      </trkpt>
      <trkpt lat="43.66491" lon="1.40193">
        <ele>128</ele>
        <time>2024-04-04T16:51:08Z</time>
      </trkpt>
      <trkpt lat="43.66489" lon="1.40195">
        <ele>128</ele>
        <time>2024-04-04T16:51:09Z</time>
      </trkpt>
      <trkpt lat="43.66488" lon="1.40197">
        <ele>128</ele>
        <time>2024-04-04T16:51:10Z</time>
      </trkpt>
      <trkpt lat="43.66486" lon="1.40198">
        <ele>127</ele>
        <time>2024-04-04T16:51:11Z</time>
      </trkpt>
      <trkpt lat="43.66483" lon="1.40199">
        <ele>128</ele>
        <time>2024-04-04T16:51:12Z</time>
      </trkpt>
      <trkpt lat="43.66481" lon="1.40199">
        <ele>128</ele>
        <time>2024-04-04T16:51:13Z</time>
      </trkpt>
      <trkpt lat="43.66481" lon="1.40199">
        <ele>128</ele>
        <time>2024-04-04T16:51:14Z</time>
      </trkpt>
      <trkpt lat="43.66478" lon="1.40198">
        <ele>127</ele>
        <time>2024-04-04T16:51:15Z</time>
      </trkpt>
      <trkpt lat="43.66478" lon="1.40198">
        <ele>127</ele>
        <time>2024-04-04T16:51:16Z</time>
      </trkpt>
      <trkpt lat="43.66479" lon="1.40192">
        <ele>127</ele>
        <time>2024-04-04T16:52:26Z</time>
      </trkpt>
      <trkpt lat="43.66479" lon="1.40192">
        <ele>127</ele>
        <time>2024-04-04T16:52:27Z</time>
      </trkpt>
      <trkpt lat="43.6648" lon="1.40189">
        <ele>127</ele>
        <time>2024-04-04T16:52:28Z</time>
      </trkpt>
      <trkpt lat="43.6648" lon="1.40189">
        <ele>127</ele>
        <time>2024-04-04T16:52:29Z</time>
      </trkpt>
      <trkpt lat="43.66481" lon="1.40187">
        <ele>127</ele>
        <time>2024-04-04T16:52:30Z</time>
      </trkpt>
      <trkpt lat="43.66481" lon="1.40187">
        <ele>127</ele>
        <time>2024-04-04T16:52:31Z</time>
      </trkpt>
      <trkpt lat="43.66482" lon="1.40185">
        <ele>127</ele>
        <time>2024-04-04T16:52:32Z</time>
      </trkpt>
      <trkpt lat="43.66484" lon="1.40183">
        <ele>127</ele>
        <time>2024-04-04T16:52:33Z</time>
      </trkpt>
      <trkpt lat="43.66485" lon="1.4018">
        <ele>127</ele>
        <time>2024-04-04T16:52:34Z</time>
      </trkpt>
      <trkpt lat="43.66485" lon="1.40177">
        <ele>127</ele>
        <time>2024-04-04T16:52:35Z</time>
      </trkpt>
      <trkpt lat="43.66486" lon="1.40175">
        <ele>127</ele>
        <time>2024-04-04T16:52:36Z</time>
      </trkpt>
      <trkpt lat="43.66487" lon="1.40172">
        <ele>127</ele>
        <time>2024-04-04T16:52:37Z</time>
      </trkpt>
      <trkpt lat="43.66488" lon="1.40169">
        <ele>127</ele>
        <time>2024-04-04T16:52:38Z</time>
      </trkpt>
      <trkpt lat="43.66489" lon="1.40166">
        <ele>126</ele>
        <time>2024-04-04T16:52:39Z</time>
      </trkpt>
      <trkpt lat="43.66491" lon="1.40163">
        <ele>126</ele>
        <time>2024-04-04T16:52:40Z</time>
      </trkpt>
      <trkpt lat="43.66493" lon="1.4016">
        <ele>126</ele>
        <time>2024-04-04T16:52:41Z</time>
      </trkpt>
      <trkpt lat="43.66494" lon="1.40157">
        <ele>126</ele>
        <time>2024-04-04T16:52:42Z</time>
      </trkpt>
      <trkpt lat="43.66495" lon="1.40154">
        <ele>126</ele>
        <time>2024-04-04T16:52:43Z</time>
      </trkpt>
      <trkpt lat="43.66496" lon="1.40151">
        <ele>126</ele>
        <time>2024-04-04T16:52:44Z</time>
      </trkpt>
      <trkpt lat="43.66498" lon="1.40147">
        <ele>126</ele>
        <time>2024-04-04T16:52:45Z</time>
      </trkpt>
      <trkpt lat="43.66499" lon="1.40145">
        <ele>126</ele>
        <time>2024-04-04T16:52:46Z</time>
      </trkpt>
      <trkpt lat="43.66501" lon="1.40143">
        <ele>126</ele>
        <time>2024-04-04T16:52:47Z</time>
      </trkpt>
      <trkpt lat="43.66502" lon="1.4014">
        <ele>126</ele>
        <time>2024-04-04T16:52:48Z</time>
      </trkpt>
      <trkpt lat="43.66503" lon="1.40137">
        <ele>127</ele>
        <time>2024-04-04T16:52:49Z</time>
      </trkpt>
      <trkpt lat="43.66504" lon="1.40135">
        <ele>127</ele>
        <time>2024-04-04T16:52:50Z</time>
      </trkpt>
      <trkpt lat="43.66504" lon="1.40132">
        <ele>126</ele>
        <time>2024-04-04T16:52:51Z</time>
      </trkpt>
      <trkpt lat="43.66505" lon="1.40129">
        <ele>126</ele>
        <time>2024-04-04T16:52:52Z</time>
      </trkpt>
      <trkpt lat="43.66506" lon="1.40126">
        <ele>126</ele>
        <time>2024-04-04T16:52:53Z</time>
      </trkpt>
      <trkpt lat="43.66508" lon="1.40124">
        <ele>126</ele>
        <time>2024-04-04T16:52:54Z</time>
      </trkpt>
      <trkpt lat="43.66509" lon="1.40121">
        <ele>126</ele>
        <time>2024-04-04T16:52:55Z</time>
      </trkpt>
      <trkpt lat="43.6651" lon="1.40118">
        <ele>126</ele>
        <time>2024-04-04T16:52:56Z</time>
      </trkpt>
      <trkpt lat="43.66512" lon="1.40116">
        <ele>126</ele>
        <time>2024-04-04T16:52:57Z</time>
      </trkpt>
      <trkpt lat="43.66514" lon="1.40112">
        <ele>126</ele>
        <time>2024-04-04T16:52:58Z</time>
      </trkpt>
      <trkpt lat="43.66515" lon="1.40109">
        <ele>126</ele>
        <time>2024-04-04T16:52:59Z</time>
      </trkpt>
      <trkpt lat="43.66517" lon="1.40106">
        <ele>126</ele>
        <time>2024-04-04T16:53:00Z</time>
      </trkpt>
      <trkpt lat="43.66519" lon="1.40104">
        <ele>126</ele>
        <time>2024-04-04T16:53:01Z</time>
      </trkpt>
      <trkpt lat="43.66521" lon="1.40101">
        <ele>126</ele>
        <time>2024-04-04T16:53:02Z</time>
      </trkpt>
      <trkpt lat="43.66522" lon="1.40099">
        <ele>126</ele>
        <time>2024-04-04T16:53:03Z</time>
      </trkpt>
      <trkpt lat="43.66523" lon="1.40097">
        <ele>126</ele>
        <time>2024-04-04T16:53:04Z</time>
      </trkpt>
      <trkpt lat="43.66525" lon="1.40094">
        <ele>126</ele>
        <time>2024-04-04T16:53:05Z</time>
      </trkpt>
      <trkpt lat="43.66526" lon="1.40092">
        <ele>126</ele>
        <time>2024-04-04T16:53:06Z</time>
      </trkpt>
      <trkpt lat="43.66527" lon="1.4009">
        <ele>126</ele>
        <time>2024-04-04T16:53:07Z</time>
      </trkpt>
      <trkpt lat="43.66527" lon="1.4009">
        <ele>126</ele>
        <time>2024-04-04T16:53:08Z</time>
      </trkpt>
      <trkpt lat="43.66529" lon="1.40085">
        <ele>126</ele>
        <time>2024-04-04T16:53:09Z</time>
      </trkpt>
      <trkpt lat="43.66531" lon="1.40083">
        <ele>126</ele>
        <time>2024-04-04T16:53:10Z</time>
      </trkpt>
      <trkpt lat="43.66532" lon="1.40081">
        <ele>126</ele>
        <time>2024-04-04T16:53:11Z</time>
      </trkpt>
      <trkpt lat="43.66533" lon="1.40079">
        <ele>126</ele>
        <time>2024-04-04T16:53:12Z</time>
      </trkpt>
      <trkpt lat="43.66535" lon="1.40076">
        <ele>126</ele>
        <time>2024-04-04T16:53:13Z</time>
      </trkpt>
      <trkpt lat="43.66536" lon="1.40074">
        <ele>127</ele>
        <time>2024-04-04T16:53:14Z</time>
      </trkpt>
      <trkpt lat="43.66537" lon="1.40071">
        <ele>127</ele>
        <time>2024-04-04T16:53:15Z</time>
      </trkpt>
      <trkpt lat="43.66538" lon="1.40069">
        <ele>127</ele>
        <time>2024-04-04T16:53:16Z</time>
      </trkpt>
      <trkpt lat="43.66539" lon="1.40068">
        <ele>127</ele>
        <time>2024-04-04T16:53:17Z</time>
      </trkpt>
      <trkpt lat="43.66539" lon="1.40068">
        <ele>127</ele>
        <time>2024-04-04T16:53:18Z</time>
      </trkpt>
      <trkpt lat="43.66542" lon="1.40066">
        <ele>127</ele>
        <time>2024-04-04T16:53:19Z</time>
      </trkpt>
      <trkpt lat="43.66542" lon="1.40066">
        <ele>127</ele>
        <time>2024-04-04T16:53:20Z</time>
      </trkpt>
      <trkpt lat="43.66541" lon="1.40063">
        <ele>127</ele>
        <time>2024-04-04T16:53:21Z</time>
      </trkpt>
      <trkpt lat="43.6654" lon="1.4006">
        <ele>127</ele>
        <time>2024-04-04T16:53:22Z</time>
      </trkpt>
      <trkpt lat="43.6654" lon="1.40057">
        <ele>127</ele>
        <time>2024-04-04T16:53:23Z</time>
      </trkpt>
      <trkpt lat="43.6654" lon="1.40057">
        <ele>127</ele>
        <time>2024-04-04T16:53:24Z</time>
      </trkpt>
      <trkpt lat="43.6654" lon="1.40053">
        <ele>127</ele>
        <time>2024-04-04T16:53:25Z</time>
      </trkpt>
      <trkpt lat="43.6654" lon="1.4005">
        <ele>127</ele>
        <time>2024-04-04T16:53:26Z</time>
      </trkpt>
      <trkpt lat="43.66539" lon="1.40047">
        <ele>127</ele>
        <time>2024-04-04T16:53:27Z</time>
      </trkpt>
      <trkpt lat="43.66538" lon="1.40045">
        <ele>127</ele>
        <time>2024-04-04T16:53:28Z</time>
      </trkpt>
      <trkpt lat="43.66538" lon="1.40045">
        <ele>127</ele>
        <time>2024-04-04T16:53:29Z</time>
      </trkpt>
      <trkpt lat="43.66537" lon="1.40041">
        <ele>127</ele>
        <time>2024-04-04T16:53:30Z</time>
      </trkpt>
      <trkpt lat="43.66535" lon="1.40038">
        <ele>126</ele>
        <time>2024-04-04T16:53:31Z</time>
      </trkpt>
      <trkpt lat="43.66534" lon="1.40036">
        <ele>126</ele>
        <time>2024-04-04T16:53:32Z</time>
      </trkpt>
      <trkpt lat="43.66532" lon="1.40033">
        <ele>126</ele>
        <time>2024-04-04T16:53:33Z</time>
      </trkpt>
      <trkpt lat="43.6653" lon="1.40031">
        <ele>126</ele>
        <time>2024-04-04T16:53:34Z</time>
      </trkpt>
      <trkpt lat="43.66529" lon="1.40029">
        <ele>126</ele>
        <time>2024-04-04T16:53:35Z</time>
      </trkpt>
      <trkpt lat="43.66528" lon="1.40027">
        <ele>126</ele>
        <time>2024-04-04T16:53:36Z</time>
      </trkpt>
      <trkpt lat="43.66526" lon="1.40025">
        <ele>126</ele>
        <time>2024-04-04T16:53:37Z</time>
      </trkpt>
      <trkpt lat="43.66525" lon="1.40023">
        <ele>126</ele>
        <time>2024-04-04T16:53:38Z</time>
      </trkpt>
      <trkpt lat="43.66523" lon="1.40021">
        <ele>126</ele>
        <time>2024-04-04T16:53:39Z</time>
      </trkpt>
      <trkpt lat="43.66521" lon="1.40019">
        <ele>126</ele>
        <time>2024-04-04T16:53:40Z</time>
      </trkpt>
      <trkpt lat="43.66519" lon="1.40018">
        <ele>126</ele>
        <time>2024-04-04T16:53:41Z</time>
      </trkpt>
      <trkpt lat="43.66519" lon="1.40018">
        <ele>126</ele>
        <time>2024-04-04T16:53:42Z</time>
      </trkpt>
      <trkpt lat="43.66516" lon="1.40015">
        <ele>127</ele>
        <time>2024-04-04T16:53:43Z</time>
      </trkpt>
      <trkpt lat="43.66515" lon="1.40013">
        <ele>127</ele>
        <time>2024-04-04T16:53:44Z</time>
      </trkpt>
      <trkpt lat="43.66513" lon="1.40012">
        <ele>127</ele>
        <time>2024-04-04T16:53:45Z</time>
      </trkpt>
      <trkpt lat="43.66511" lon="1.4001">
        <ele>127</ele>
        <time>2024-04-04T16:53:46Z</time>
      </trkpt>
      <trkpt lat="43.66509" lon="1.4001">
        <ele>127</ele>
        <time>2024-04-04T16:53:47Z</time>
      </trkpt>
      <trkpt lat="43.66507" lon="1.4001">
        <ele>127</ele>
        <time>2024-04-04T16:53:48Z</time>
      </trkpt>
      <trkpt lat="43.66504" lon="1.40009">
        <ele>127</ele>
        <time>2024-04-04T16:53:49Z</time>
      </trkpt>
      <trkpt lat="43.66502" lon="1.40009">
        <ele>127</ele>
        <time>2024-04-04T16:53:50Z</time>
      </trkpt>
      <trkpt lat="43.665" lon="1.40008">
        <ele>127</ele>
        <time>2024-04-04T16:53:51Z</time>
      </trkpt>
      <trkpt lat="43.66498" lon="1.40007">
        <ele>127</ele>
        <time>2024-04-04T16:53:52Z</time>
      </trkpt>
      <trkpt lat="43.66496" lon="1.40006">
        <ele>127</ele>
        <time>2024-04-04T16:53:53Z</time>
      </trkpt>
      <trkpt lat="43.66494" lon="1.40005">
        <ele>127</ele>
        <time>2024-04-04T16:53:54Z</time>
      </trkpt>
      <trkpt lat="43.66492" lon="1.40004">
        <ele>127</ele>
        <time>2024-04-04T16:53:55Z</time>
      </trkpt>
      <trkpt lat="43.6649" lon="1.40002">
        <ele>127</ele>
        <time>2024-04-04T16:53:56Z</time>
      </trkpt>
      <trkpt lat="43.66487" lon="1.40001">
        <ele>127</ele>
        <time>2024-04-04T16:53:57Z</time>
      </trkpt>
      <trkpt lat="43.66485" lon="1.4">
        <ele>127</ele>
        <time>2024-04-04T16:53:58Z</time>
      </trkpt>
      <trkpt lat="43.66483" lon="1.39998">
        <ele>127</ele>
        <time>2024-04-04T16:53:59Z</time>
      </trkpt>
      <trkpt lat="43.66481" lon="1.39997">
        <ele>127</ele>
        <time>2024-04-04T16:54:00Z</time>
      </trkpt>
      <trkpt lat="43.6648" lon="1.39995">
        <ele>127</ele>
        <time>2024-04-04T16:54:01Z</time>
      </trkpt>
      <trkpt lat="43.66478" lon="1.39993">
        <ele>127</ele>
        <time>2024-04-04T16:54:02Z</time>
      </trkpt>
      <trkpt lat="43.66476" lon="1.39992">
        <ele>127</ele>
        <time>2024-04-04T16:54:03Z</time>
      </trkpt>
      <trkpt lat="43.66474" lon="1.3999">
        <ele>127</ele>
        <time>2024-04-04T16:54:04Z</time>
      </trkpt>
      <trkpt lat="43.66473" lon="1.39988">
        <ele>127</ele>
        <time>2024-04-04T16:54:05Z</time>
      </trkpt>
      <trkpt lat="43.66472" lon="1.39985">
        <ele>127</ele>
        <time>2024-04-04T16:54:06Z</time>
      </trkpt>
      <trkpt lat="43.66471" lon="1.39983">
        <ele>126</ele>
        <time>2024-04-04T16:54:07Z</time>
      </trkpt>
      <trkpt lat="43.66469" lon="1.3998">
        <ele>127</ele>
        <time>2024-04-04T16:54:08Z</time>
      </trkpt>
      <trkpt lat="43.66467" lon="1.39977">
        <ele>127</ele>
        <time>2024-04-04T16:54:09Z</time>
      </trkpt>
      <trkpt lat="43.66466" lon="1.39974">
        <ele>127</ele>
        <time>2024-04-04T16:54:10Z</time>
      </trkpt>
      <trkpt lat="43.66464" lon="1.39971">
        <ele>127</ele>
        <time>2024-04-04T16:54:11Z</time>
      </trkpt>
      <trkpt lat="43.66463" lon="1.39968">
        <ele>127</ele>
        <time>2024-04-04T16:54:12Z</time>
      </trkpt>
      <trkpt lat="43.66462" lon="1.39965">
        <ele>127</ele>
        <time>2024-04-04T16:54:13Z</time>
      </trkpt>
      <trkpt lat="43.6646" lon="1.39963">
        <ele>127</ele>
        <time>2024-04-04T16:54:14Z</time>
      </trkpt>
      <trkpt lat="43.66459" lon="1.39961">
        <ele>127</ele>
        <time>2024-04-04T16:54:15Z</time>
      </trkpt>
      <trkpt lat="43.66458" lon="1.39958">
        <ele>127</ele>
        <time>2024-04-04T16:54:16Z</time>
      </trkpt>
      <trkpt lat="43.66457" lon="1.39956">
        <ele>127</ele>
        <time>2024-04-04T16:54:17Z</time>
      </trkpt>
      <trkpt lat="43.66456" lon="1.39953">
        <ele>127</ele>
        <time>2024-04-04T16:54:18Z</time>
      </trkpt>
      <trkpt lat="43.66455" lon="1.3995">
        <ele>127</ele>
        <time>2024-04-04T16:54:19Z</time>
      </trkpt>
      <trkpt lat="43.66454" lon="1.39948">
        <ele>126</ele>
        <time>2024-04-04T16:54:20Z</time>
      </trkpt>
      <trkpt lat="43.66452" lon="1.39946">
        <ele>126</ele>
        <time>2024-04-04T16:54:21Z</time>
      </trkpt>
      <trkpt lat="43.6645" lon="1.39943">
        <ele>126</ele>
        <time>2024-04-04T16:54:22Z</time>
      </trkpt>
      <trkpt lat="43.66448" lon="1.3994">
        <ele>126</ele>
        <time>2024-04-04T16:54:23Z</time>
      </trkpt>
      <trkpt lat="43.66447" lon="1.39937">
        <ele>126</ele>
        <time>2024-04-04T16:54:24Z</time>
      </trkpt>
      <trkpt lat="43.66447" lon="1.39937">
        <ele>126</ele>
        <time>2024-04-04T16:54:25Z</time>
      </trkpt>
      <trkpt lat="43.66443" lon="1.3993">
        <ele>126</ele>
        <time>2024-04-04T16:54:26Z</time>
      </trkpt>
      <trkpt lat="43.66442" lon="1.39928">
        <ele>126</ele>
        <time>2024-04-04T16:54:27Z</time>
      </trkpt>
      <trkpt lat="43.66441" lon="1.39925">
        <ele>126</ele>
        <time>2024-04-04T16:54:28Z</time>
      </trkpt>
      <trkpt lat="43.66439" lon="1.39923">
        <ele>126</ele>
        <time>2024-04-04T16:54:29Z</time>
      </trkpt>
      <trkpt lat="43.66438" lon="1.3992">
        <ele>126</ele>
        <time>2024-04-04T16:54:30Z</time>
      </trkpt>
      <trkpt lat="43.66436" lon="1.39917">
        <ele>126</ele>
        <time>2024-04-04T16:54:31Z</time>
      </trkpt>
      <trkpt lat="43.66436" lon="1.39914">
        <ele>126</ele>
        <time>2024-04-04T16:54:32Z</time>
      </trkpt>
      <trkpt lat="43.66435" lon="1.39911">
        <ele>126</ele>
        <time>2024-04-04T16:54:33Z</time>
      </trkpt>
      <trkpt lat="43.66434" lon="1.39908">
        <ele>126</ele>
        <time>2024-04-04T16:54:34Z</time>
      </trkpt>
      <trkpt lat="43.66433" lon="1.39906">
        <ele>126</ele>
        <time>2024-04-04T16:54:35Z</time>
      </trkpt>
      <trkpt lat="43.66432" lon="1.39903">
        <ele>126</ele>
        <time>2024-04-04T16:54:36Z</time>
      </trkpt>
      <trkpt lat="43.66431" lon="1.399">
        <ele>126</ele>
        <time>2024-04-04T16:54:37Z</time>
      </trkpt>
      <trkpt lat="43.66429" lon="1.39897">
        <ele>126</ele>
        <time>2024-04-04T16:54:38Z</time>
      </trkpt>
      <trkpt lat="43.66428" lon="1.39894">
        <ele>126</ele>
        <time>2024-04-04T16:54:39Z</time>
      </trkpt>
      <trkpt lat="43.66426" lon="1.39891">
        <ele>127</ele>
        <time>2024-04-04T16:54:40Z</time>
      </trkpt>
      <trkpt lat="43.66425" lon="1.39888">
        <ele>127</ele>
        <time>2024-04-04T16:54:41Z</time>
      </trkpt>
      <trkpt lat="43.66423" lon="1.39885">
        <ele>127</ele>
        <time>2024-04-04T16:54:42Z</time>
      </trkpt>
      <trkpt lat="43.66421" lon="1.39882">
        <ele>127</ele>
        <time>2024-04-04T16:54:43Z</time>
      </trkpt>
      <trkpt lat="43.66421" lon="1.3988">
        <ele>127</ele>
        <time>2024-04-04T16:54:44Z</time>
      </trkpt>
      <trkpt lat="43.6642" lon="1.39876">
        <ele>127</ele>
        <time>2024-04-04T16:54:45Z</time>
      </trkpt>
      <trkpt lat="43.66419" lon="1.39874">
        <ele>127</ele>
        <time>2024-04-04T16:54:46Z</time>
      </trkpt>
      <trkpt lat="43.66418" lon="1.39871">
        <ele>127</ele>
        <time>2024-04-04T16:54:47Z</time>
      </trkpt>
      <trkpt lat="43.66417" lon="1.39868">
        <ele>126</ele>
        <time>2024-04-04T16:54:48Z</time>
      </trkpt>
      <trkpt lat="43.66416" lon="1.39865">
        <ele>126</ele>
        <time>2024-04-04T16:54:49Z</time>
      </trkpt>
      <trkpt lat="43.66415" lon="1.39862">
        <ele>126</ele>
        <time>2024-04-04T16:54:50Z</time>
      </trkpt>
      <trkpt lat="43.66414" lon="1.39859">
        <ele>126</ele>
        <time>2024-04-04T16:54:51Z</time>
      </trkpt>
      <trkpt lat="43.66413" lon="1.39856">
        <ele>126</ele>
        <time>2024-04-04T16:54:52Z</time>
      </trkpt>
      <trkpt lat="43.66412" lon="1.39853">
        <ele>126</ele>
        <time>2024-04-04T16:54:53Z</time>
      </trkpt>
      <trkpt lat="43.66412" lon="1.3985">
        <ele>126</ele>
        <time>2024-04-04T16:54:54Z</time>
      </trkpt>
      <trkpt lat="43.6641" lon="1.39847">
        <ele>126</ele>
        <time>2024-04-04T16:54:55Z</time>
      </trkpt>
      <trkpt lat="43.66409" lon="1.39844">
        <ele>126</ele>
        <time>2024-04-04T16:54:56Z</time>
      </trkpt>
      <trkpt lat="43.66409" lon="1.3984">
        <ele>126</ele>
        <time>2024-04-04T16:54:57Z</time>
      </trkpt>
      <trkpt lat="43.66408" lon="1.39837">
        <ele>126</ele>
        <time>2024-04-04T16:54:58Z</time>
      </trkpt>
      <trkpt lat="43.66408" lon="1.39835">
        <ele>126</ele>
        <time>2024-04-04T16:54:59Z</time>
      </trkpt>
      <trkpt lat="43.66408" lon="1.39835">
        <ele>126</ele>
        <time>2024-04-04T16:55:00Z</time>
      </trkpt>
      <trkpt lat="43.66407" lon="1.3983">
        <ele>126</ele>
        <time>2024-04-04T16:55:01Z</time>
      </trkpt>
      <trkpt lat="43.66407" lon="1.3983">
        <ele>126</ele>
        <time>2024-04-04T16:55:02Z</time>
      </trkpt>
      <trkpt lat="43.66406" lon="1.39825">
        <ele>126</ele>
        <time>2024-04-04T16:55:03Z</time>
      </trkpt>
      <trkpt lat="43.66405" lon="1.39823">
        <ele>126</ele>
        <time>2024-04-04T16:55:04Z</time>
      </trkpt>
      <trkpt lat="43.66403" lon="1.3982">
        <ele>126</ele>
        <time>2024-04-04T16:55:05Z</time>
      </trkpt>
      <trkpt lat="43.66402" lon="1.39817">
        <ele>126</ele>
        <time>2024-04-04T16:55:06Z</time>
      </trkpt>
      <trkpt lat="43.66401" lon="1.39814">
        <ele>126</ele>
        <time>2024-04-04T16:55:07Z</time>
      </trkpt>
      <trkpt lat="43.66399" lon="1.39812">
        <ele>126</ele>
        <time>2024-04-04T16:55:08Z</time>
      </trkpt>
      <trkpt lat="43.66398" lon="1.39809">
        <ele>127</ele>
        <time>2024-04-04T16:55:09Z</time>
      </trkpt>
      <trkpt lat="43.66396" lon="1.39807">
        <ele>127</ele>
        <time>2024-04-04T16:55:10Z</time>
      </trkpt>
      <trkpt lat="43.66395" lon="1.39804">
        <ele>126</ele>
        <time>2024-04-04T16:55:11Z</time>
      </trkpt>
      <trkpt lat="43.66393" lon="1.39801">
        <ele>126</ele>
        <time>2024-04-04T16:55:12Z</time>
      </trkpt>
      <trkpt lat="43.66391" lon="1.39798">
        <ele>126</ele>
        <time>2024-04-04T16:55:13Z</time>
      </trkpt>
      <trkpt lat="43.6639" lon="1.39796">
        <ele>126</ele>
        <time>2024-04-04T16:55:14Z</time>
      </trkpt>
      <trkpt lat="43.66388" lon="1.39794">
        <ele>126</ele>
        <time>2024-04-04T16:55:15Z</time>
      </trkpt>
      <trkpt lat="43.66386" lon="1.39792">
        <ele>126</ele>
        <time>2024-04-04T16:55:16Z</time>
      </trkpt>
      <trkpt lat="43.66384" lon="1.3979">
        <ele>127</ele>
        <time>2024-04-04T16:55:17Z</time>
      </trkpt>
      <trkpt lat="43.66382" lon="1.39789">
        <ele>127</ele>
        <time>2024-04-04T16:55:18Z</time>
      </trkpt>
      <trkpt lat="43.66382" lon="1.39789">
        <ele>127</ele>
        <time>2024-04-04T16:55:19Z</time>
      </trkpt>
      <trkpt lat="43.66381" lon="1.39788">
        <ele>128</ele>
        <time>2024-04-04T16:55:20Z</time>
      </trkpt>
      <trkpt lat="43.66377" lon="1.39787">
        <ele>128</ele>
        <time>2024-04-04T16:55:21Z</time>
      </trkpt>
      <trkpt lat="43.66375" lon="1.39787">
        <ele>128</ele>
        <time>2024-04-04T16:55:22Z</time>
      </trkpt>
      <trkpt lat="43.66373" lon="1.39788">
        <ele>128</ele>
        <time>2024-04-04T16:55:23Z</time>
      </trkpt>
      <trkpt lat="43.66372" lon="1.3979">
        <ele>128</ele>
        <time>2024-04-04T16:55:24Z</time>
      </trkpt>
      <trkpt lat="43.66372" lon="1.3979">
        <ele>128</ele>
        <time>2024-04-04T16:55:25Z</time>
      </trkpt>
      <trkpt lat="43.66367" lon="1.39793">
        <ele>128</ele>
        <time>2024-04-04T16:55:26Z</time>
      </trkpt>
      <trkpt lat="43.66366" lon="1.39793">
        <ele>128</ele>
        <time>2024-04-04T16:55:27Z</time>
      </trkpt>
      <trkpt lat="43.66364" lon="1.39794">
        <ele>128</ele>
        <time>2024-04-04T16:55:28Z</time>
      </trkpt>
      <trkpt lat="43.66362" lon="1.39795">
        <ele>128</ele>
        <time>2024-04-04T16:55:29Z</time>
      </trkpt>
      <trkpt lat="43.6636" lon="1.39796">
        <ele>128</ele>
        <time>2024-04-04T16:55:30Z</time>
      </trkpt>
      <trkpt lat="43.66357" lon="1.39797">
        <ele>127</ele>
        <time>2024-04-04T16:55:31Z</time>
      </trkpt>
      <trkpt lat="43.66355" lon="1.39797">
        <ele>127</ele>
        <time>2024-04-04T16:55:32Z</time>
      </trkpt>
      <trkpt lat="43.66353" lon="1.39797">
        <ele>127</ele>
        <time>2024-04-04T16:55:33Z</time>
      </trkpt>
      <trkpt lat="43.66351" lon="1.39797">
        <ele>127</ele>
        <time>2024-04-04T16:55:34Z</time>
      </trkpt>
      <trkpt lat="43.66348" lon="1.39796">
        <ele>127</ele>
        <time>2024-04-04T16:55:35Z</time>
      </trkpt>
      <trkpt lat="43.66347" lon="1.39794">
        <ele>127</ele>
        <time>2024-04-04T16:55:36Z</time>
      </trkpt>
      <trkpt lat="43.66345" lon="1.39792">
        <ele>127</ele>
        <time>2024-04-04T16:55:37Z</time>
      </trkpt>
      <trkpt lat="43.66343" lon="1.39789">
        <ele>127</ele>
        <time>2024-04-04T16:55:38Z</time>
      </trkpt>
      <trkpt lat="43.66341" lon="1.39786">
        <ele>127</ele>
        <time>2024-04-04T16:55:39Z</time>
      </trkpt>
      <trkpt lat="43.6634" lon="1.39783">
        <ele>127</ele>
        <time>2024-04-04T16:55:40Z</time>
      </trkpt>
      <trkpt lat="43.66338" lon="1.39778">
        <ele>127</ele>
        <time>2024-04-04T16:55:41Z</time>
      </trkpt>
      <trkpt lat="43.66337" lon="1.39774">
        <ele>127</ele>
        <time>2024-04-04T16:55:42Z</time>
      </trkpt>
      <trkpt lat="43.66337" lon="1.3977">
        <ele>127</ele>
        <time>2024-04-04T16:55:43Z</time>
      </trkpt>
      <trkpt lat="43.66336" lon="1.39767">
        <ele>127</ele>
        <time>2024-04-04T16:55:44Z</time>
      </trkpt>
      <trkpt lat="43.66336" lon="1.39763">
        <ele>127</ele>
        <time>2024-04-04T16:55:45Z</time>
      </trkpt>
      <trkpt lat="43.66335" lon="1.3976">
        <ele>127</ele>
        <time>2024-04-04T16:55:46Z</time>
      </trkpt>
      <trkpt lat="43.66335" lon="1.39757">
        <ele>127</ele>
        <time>2024-04-04T16:55:47Z</time>
      </trkpt>
      <trkpt lat="43.66335" lon="1.39754">
        <ele>127</ele>
        <time>2024-04-04T16:55:48Z</time>
      </trkpt>
      <trkpt lat="43.66334" lon="1.39751">
        <ele>127</ele>
        <time>2024-04-04T16:55:49Z</time>
      </trkpt>
      <trkpt lat="43.66333" lon="1.39748">
        <ele>128</ele>
        <time>2024-04-04T16:55:50Z</time>
      </trkpt>
      <trkpt lat="43.66333" lon="1.39746">
        <ele>128</ele>
        <time>2024-04-04T16:55:51Z</time>
      </trkpt>
      <trkpt lat="43.66332" lon="1.39743">
        <ele>128</ele>
        <time>2024-04-04T16:55:52Z</time>
      </trkpt>
      <trkpt lat="43.66331" lon="1.3974">
        <ele>128</ele>
        <time>2024-04-04T16:55:53Z</time>
      </trkpt>
      <trkpt lat="43.6633" lon="1.39737">
        <ele>128</ele>
        <time>2024-04-04T16:55:54Z</time>
      </trkpt>
      <trkpt lat="43.66329" lon="1.39733">
        <ele>128</ele>
        <time>2024-04-04T16:55:55Z</time>
      </trkpt>
      <trkpt lat="43.66328" lon="1.3973">
        <ele>128</ele>
        <time>2024-04-04T16:55:56Z</time>
      </trkpt>
      <trkpt lat="43.66327" lon="1.39727">
        <ele>128</ele>
        <time>2024-04-04T16:55:57Z</time>
      </trkpt>
      <trkpt lat="43.66327" lon="1.39723">
        <ele>128</ele>
        <time>2024-04-04T16:55:58Z</time>
      </trkpt>
      <trkpt lat="43.66326" lon="1.3972">
        <ele>128</ele>
        <time>2024-04-04T16:55:59Z</time>
      </trkpt>
      <trkpt lat="43.66325" lon="1.39717">
        <ele>128</ele>
        <time>2024-04-04T16:56:00Z</time>
      </trkpt>
      <trkpt lat="43.66324" lon="1.39713">
        <ele>128</ele>
        <time>2024-04-04T16:56:01Z</time>
      </trkpt>
      <trkpt lat="43.66324" lon="1.3971">
        <ele>128</ele>
        <time>2024-04-04T16:56:02Z</time>
      </trkpt>
      <trkpt lat="43.66323" lon="1.39707">
        <ele>128</ele>
        <time>2024-04-04T16:56:03Z</time>
      </trkpt>
      <trkpt lat="43.66322" lon="1.39703">
        <ele>128</ele>
        <time>2024-04-04T16:56:04Z</time>
      </trkpt>
      <trkpt lat="43.66322" lon="1.397">
        <ele>128</ele>
        <time>2024-04-04T16:56:05Z</time>
      </trkpt>
      <trkpt lat="43.66321" lon="1.39696">
        <ele>128</ele>
        <time>2024-04-04T16:56:06Z</time>
      </trkpt>
      <trkpt lat="43.6632" lon="1.39693">
        <ele>128</ele>
        <time>2024-04-04T16:56:07Z</time>
      </trkpt>
      <trkpt lat="43.6632" lon="1.3969">
        <ele>127</ele>
        <time>2024-04-04T16:56:08Z</time>
      </trkpt>
      <trkpt lat="43.66319" lon="1.39687">
        <ele>127</ele>
        <time>2024-04-04T16:56:09Z</time>
      </trkpt>
      <trkpt lat="43.66318" lon="1.39684">
        <ele>127</ele>
        <time>2024-04-04T16:56:10Z</time>
      </trkpt>
      <trkpt lat="43.66317" lon="1.39681">
        <ele>127</ele>
        <time>2024-04-04T16:56:11Z</time>
      </trkpt>
      <trkpt lat="43.66315" lon="1.39677">
        <ele>127</ele>
        <time>2024-04-04T16:56:12Z</time>
      </trkpt>
      <trkpt lat="43.66315" lon="1.39674">
        <ele>127</ele>
        <time>2024-04-04T16:56:13Z</time>
      </trkpt>
      <trkpt lat="43.66314" lon="1.3967">
        <ele>127</ele>
        <time>2024-04-04T16:56:14Z</time>
      </trkpt>
      <trkpt lat="43.66313" lon="1.39667">
        <ele>127</ele>
        <time>2024-04-04T16:56:15Z</time>
      </trkpt>
      <trkpt lat="43.66312" lon="1.39664">
        <ele>127</ele>
        <time>2024-04-04T16:56:16Z</time>
      </trkpt>
      <trkpt lat="43.66311" lon="1.39661">
        <ele>127</ele>
        <time>2024-04-04T16:56:17Z</time>
      </trkpt>
      <trkpt lat="43.6631" lon="1.39658">
        <ele>127</ele>
        <time>2024-04-04T16:56:18Z</time>
      </trkpt>
      <trkpt lat="43.66309" lon="1.39655">
        <ele>127</ele>
        <time>2024-04-04T16:56:19Z</time>
      </trkpt>
      <trkpt lat="43.66308" lon="1.39652">
        <ele>127</ele>
        <time>2024-04-04T16:56:20Z</time>
      </trkpt>
      <trkpt lat="43.66308" lon="1.39649">
        <ele>127</ele>
        <time>2024-04-04T16:56:21Z</time>
      </trkpt>
      <trkpt lat="43.66308" lon="1.39646">
        <ele>127</ele>
        <time>2024-04-04T16:56:22Z</time>
      </trkpt>
      <trkpt lat="43.66307" lon="1.39642">
        <ele>127</ele>
        <time>2024-04-04T16:56:23Z</time>
      </trkpt>
      <trkpt lat="43.66307" lon="1.39639">
        <ele>127</ele>
        <time>2024-04-04T16:56:24Z</time>
      </trkpt>
      <trkpt lat="43.66306" lon="1.39635">
        <ele>127</ele>
        <time>2024-04-04T16:56:25Z</time>
      </trkpt>
      <trkpt lat="43.66305" lon="1.39632">
        <ele>127</ele>
        <time>2024-04-04T16:56:26Z</time>
      </trkpt>
      <trkpt lat="43.66305" lon="1.39629">
        <ele>127</ele>
        <time>2024-04-04T16:56:27Z</time>
      </trkpt>
      <trkpt lat="43.66304" lon="1.39625">
        <ele>127</ele>
        <time>2024-04-04T16:56:28Z</time>
      </trkpt>
      <trkpt lat="43.66304" lon="1.39622">
        <ele>127</ele>
        <time>2024-04-04T16:56:29Z</time>
      </trkpt>
      <trkpt lat="43.66303" lon="1.39619">
        <ele>127</ele>
        <time>2024-04-04T16:56:30Z</time>
      </trkpt>
      <trkpt lat="43.66303" lon="1.39616">
        <ele>127</ele>
        <time>2024-04-04T16:56:31Z</time>
      </trkpt>
      <trkpt lat="43.66302" lon="1.39613">
        <ele>127</ele>
        <time>2024-04-04T16:56:32Z</time>
      </trkpt>
      <trkpt lat="43.66301" lon="1.3961">
        <ele>128</ele>
        <time>2024-04-04T16:56:33Z</time>
      </trkpt>
      <trkpt lat="43.66299" lon="1.39607">
        <ele>128</ele>
        <time>2024-04-04T16:56:34Z</time>
      </trkpt>
      <trkpt lat="43.66298" lon="1.39605">
        <ele>128</ele>
        <time>2024-04-04T16:56:35Z</time>
      </trkpt>
      <trkpt lat="43.66298" lon="1.39605">
        <ele>127</ele>
        <time>2024-04-04T16:56:36Z</time>
      </trkpt>
      <trkpt lat="43.66295" lon="1.39602">
        <ele>127</ele>
        <time>2024-04-04T16:56:37Z</time>
      </trkpt>
      <trkpt lat="43.66292" lon="1.39599">
        <ele>127</ele>
        <time>2024-04-04T16:56:38Z</time>
      </trkpt>
      <trkpt lat="43.66291" lon="1.39597">
        <ele>128</ele>
        <time>2024-04-04T16:56:39Z</time>
      </trkpt>
      <trkpt lat="43.66289" lon="1.39595">
        <ele>128</ele>
        <time>2024-04-04T16:56:40Z</time>
      </trkpt>
      <trkpt lat="43.66287" lon="1.39593">
        <ele>127</ele>
        <time>2024-04-04T16:56:41Z</time>
      </trkpt>
      <trkpt lat="43.66285" lon="1.39591">
        <ele>127</ele>
        <time>2024-04-04T16:56:42Z</time>
      </trkpt>
      <trkpt lat="43.66284" lon="1.3959">
        <ele>128</ele>
        <time>2024-04-04T16:56:43Z</time>
      </trkpt>
      <trkpt lat="43.66282" lon="1.39588">
        <ele>128</ele>
        <time>2024-04-04T16:56:44Z</time>
      </trkpt>
      <trkpt lat="43.6628" lon="1.39586">
        <ele>128</ele>
        <time>2024-04-04T16:56:45Z</time>
      </trkpt>
      <trkpt lat="43.66278" lon="1.39584">
        <ele>127</ele>
        <time>2024-04-04T16:56:46Z</time>
      </trkpt>
      <trkpt lat="43.66276" lon="1.39581">
        <ele>127</ele>
        <time>2024-04-04T16:56:47Z</time>
      </trkpt>
      <trkpt lat="43.66274" lon="1.39579">
        <ele>127</ele>
        <time>2024-04-04T16:56:48Z</time>
      </trkpt>
      <trkpt lat="43.66273" lon="1.39576">
        <ele>127</ele>
        <time>2024-04-04T16:56:49Z</time>
      </trkpt>
      <trkpt lat="43.66271" lon="1.39573">
        <ele>128</ele>
        <time>2024-04-04T16:56:50Z</time>
      </trkpt>
      <trkpt lat="43.6627" lon="1.39571">
        <ele>128</ele>
        <time>2024-04-04T16:56:51Z</time>
      </trkpt>
      <trkpt lat="43.66269" lon="1.39568">
        <ele>127</ele>
        <time>2024-04-04T16:56:52Z</time>
      </trkpt>
      <trkpt lat="43.66268" lon="1.39565">
        <ele>127</ele>
        <time>2024-04-04T16:56:53Z</time>
      </trkpt>
      <trkpt lat="43.66267" lon="1.39562">
        <ele>127</ele>
        <time>2024-04-04T16:56:54Z</time>
      </trkpt>
      <trkpt lat="43.66267" lon="1.39558">
        <ele>127</ele>
        <time>2024-04-04T16:56:55Z</time>
      </trkpt>
      <trkpt lat="43.66267" lon="1.39555">
        <ele>127</ele>
        <time>2024-04-04T16:56:56Z</time>
      </trkpt>
      <trkpt lat="43.66267" lon="1.39552">
        <ele>127</ele>
        <time>2024-04-04T16:56:57Z</time>
      </trkpt>
      <trkpt lat="43.66268" lon="1.39549">
        <ele>127</ele>
        <time>2024-04-04T16:56:58Z</time>
      </trkpt>
      <trkpt lat="43.66269" lon="1.39545">
        <ele>127</ele>
        <time>2024-04-04T16:56:59Z</time>
      </trkpt>
      <trkpt lat="43.66271" lon="1.39542">
        <ele>127</ele>
        <time>2024-04-04T16:57:00Z</time>
      </trkpt>
      <trkpt lat="43.66272" lon="1.39539">
        <ele>127</ele>
        <time>2024-04-04T16:57:01Z</time>
      </trkpt>
      <trkpt lat="43.66273" lon="1.39535">
        <ele>127</ele>
        <time>2024-04-04T16:57:02Z</time>
      </trkpt>
      <trkpt lat="43.66275" lon="1.39532">
        <ele>127</ele>
        <time>2024-04-04T16:57:03Z</time>
      </trkpt>
      <trkpt lat="43.66276" lon="1.39529">
        <ele>127</ele>
        <time>2024-04-04T16:57:04Z</time>
      </trkpt>
      <trkpt lat="43.66277" lon="1.39527">
        <ele>127</ele>
        <time>2024-04-04T16:57:05Z</time>
      </trkpt>
      <trkpt lat="43.66279" lon="1.39526">
        <ele>127</ele>
        <time>2024-04-04T16:57:06Z</time>
      </trkpt>
      <trkpt lat="43.66281" lon="1.39524">
        <ele>127</ele>
        <time>2024-04-04T16:57:07Z</time>
      </trkpt>
      <trkpt lat="43.66282" lon="1.39522">
        <ele>127</ele>
        <time>2024-04-04T16:57:08Z</time>
      </trkpt>
      <trkpt lat="43.66284" lon="1.3952">
        <ele>127</ele>
        <time>2024-04-04T16:57:09Z</time>
      </trkpt>
      <trkpt lat="43.66285" lon="1.39518">
        <ele>127</ele>
        <time>2024-04-04T16:57:10Z</time>
      </trkpt>
      <trkpt lat="43.66286" lon="1.39514">
        <ele>127</ele>
        <time>2024-04-04T16:57:11Z</time>
      </trkpt>
      <trkpt lat="43.66287" lon="1.39511">
        <ele>127</ele>
        <time>2024-04-04T16:57:12Z</time>
      </trkpt>
      <trkpt lat="43.66287" lon="1.39508">
        <ele>127</ele>
        <time>2024-04-04T16:57:13Z</time>
      </trkpt>
      <trkpt lat="43.66288" lon="1.39505">
        <ele>127</ele>
        <time>2024-04-04T16:57:14Z</time>
      </trkpt>
      <trkpt lat="43.66289" lon="1.39502">
        <ele>127</ele>
        <time>2024-04-04T16:57:15Z</time>
      </trkpt>
      <trkpt lat="43.6629" lon="1.39499">
        <ele>127</ele>
        <time>2024-04-04T16:57:16Z</time>
      </trkpt>
      <trkpt lat="43.66291" lon="1.39496">
        <ele>127</ele>
        <time>2024-04-04T16:57:17Z</time>
      </trkpt>
      <trkpt lat="43.66292" lon="1.39494">
        <ele>127</ele>
        <time>2024-04-04T16:57:18Z</time>
      </trkpt>
      <trkpt lat="43.66293" lon="1.39492">
        <ele>127</ele>
        <time>2024-04-04T16:57:19Z</time>
      </trkpt>
      <trkpt lat="43.66293" lon="1.39489">
        <ele>127</ele>
        <time>2024-04-04T16:57:20Z</time>
      </trkpt>
      <trkpt lat="43.66294" lon="1.39487">
        <ele>127</ele>
        <time>2024-04-04T16:57:21Z</time>
      </trkpt>
      <trkpt lat="43.66295" lon="1.39484">
        <ele>127</ele>
        <time>2024-04-04T16:57:22Z</time>
      </trkpt>
      <trkpt lat="43.66296" lon="1.39482">
        <ele>127</ele>
        <time>2024-04-04T16:57:23Z</time>
      </trkpt>
      <trkpt lat="43.66296" lon="1.39482">
        <ele>127</ele>
        <time>2024-04-04T16:57:24Z</time>
      </trkpt>
      <trkpt lat="43.66296" lon="1.39482">
        <ele>127</ele>
        <time>2024-04-04T16:57:25Z</time>
      </trkpt>
      <trkpt lat="43.66304" lon="1.39478">
        <ele>128</ele>
        <time>2024-04-04T16:58:28Z</time>
      </trkpt>
      <trkpt lat="43.66305" lon="1.39475">
        <ele>128</ele>
        <time>2024-04-04T16:58:29Z</time>
      </trkpt>
      <trkpt lat="43.66305" lon="1.39472">
        <ele>128</ele>
        <time>2024-04-04T16:58:30Z</time>
      </trkpt>
      <trkpt lat="43.66305" lon="1.39469">
        <ele>127</ele>
        <time>2024-04-04T16:58:31Z</time>
      </trkpt>
      <trkpt lat="43.66305" lon="1.39466">
        <ele>127</ele>
        <time>2024-04-04T16:58:32Z</time>
      </trkpt>
      <trkpt lat="43.66305" lon="1.39466">
        <ele>127</ele>
        <time>2024-04-04T16:58:33Z</time>
      </trkpt>
      <trkpt lat="43.66305" lon="1.39461">
        <ele>127</ele>
        <time>2024-04-04T16:58:34Z</time>
      </trkpt>
      <trkpt lat="43.66306" lon="1.39458">
        <ele>127</ele>
        <time>2024-04-04T16:58:35Z</time>
      </trkpt>
      <trkpt lat="43.66307" lon="1.39454">
        <ele>127</ele>
        <time>2024-04-04T16:58:36Z</time>
      </trkpt>
      <trkpt lat="43.66308" lon="1.39451">
        <ele>127</ele>
        <time>2024-04-04T16:58:37Z</time>
      </trkpt>
      <trkpt lat="43.66309" lon="1.39449">
        <ele>127</ele>
        <time>2024-04-04T16:58:38Z</time>
      </trkpt>
      <trkpt lat="43.66309" lon="1.39446">
        <ele>127</ele>
        <time>2024-04-04T16:58:39Z</time>
      </trkpt>
      <trkpt lat="43.6631" lon="1.39443">
        <ele>128</ele>
        <time>2024-04-04T16:58:40Z</time>
      </trkpt>
      <trkpt lat="43.66311" lon="1.3944">
        <ele>128</ele>
        <time>2024-04-04T16:58:41Z</time>
      </trkpt>
      <trkpt lat="43.66311" lon="1.39438">
        <ele>128</ele>
        <time>2024-04-04T16:58:42Z</time>
      </trkpt>
      <trkpt lat="43.66312" lon="1.39434">
        <ele>128</ele>
        <time>2024-04-04T16:58:43Z</time>
      </trkpt>
      <trkpt lat="43.66313" lon="1.39431">
        <ele>128</ele>
        <time>2024-04-04T16:58:44Z</time>
      </trkpt>
      <trkpt lat="43.66314" lon="1.39427">
        <ele>128</ele>
        <time>2024-04-04T16:58:45Z</time>
      </trkpt>
      <trkpt lat="43.66314" lon="1.39424">
        <ele>128</ele>
        <time>2024-04-04T16:58:46Z</time>
      </trkpt>
      <trkpt lat="43.66315" lon="1.39421">
        <ele>128</ele>
        <time>2024-04-04T16:58:47Z</time>
      </trkpt>
      <trkpt lat="43.66315" lon="1.39418">
        <ele>128</ele>
        <time>2024-04-04T16:58:48Z</time>
      </trkpt>
      <trkpt lat="43.66316" lon="1.39415">
        <ele>128</ele>
        <time>2024-04-04T16:58:49Z</time>
      </trkpt>
      <trkpt lat="43.66316" lon="1.39412">
        <ele>128</ele>
        <time>2024-04-04T16:58:50Z</time>
      </trkpt>
      <trkpt lat="43.66316" lon="1.39409">
        <ele>128</ele>
        <time>2024-04-04T16:58:51Z</time>
      </trkpt>
      <trkpt lat="43.66317" lon="1.39406">
        <ele>128</ele>
        <time>2024-04-04T16:58:52Z</time>
      </trkpt>
      <trkpt lat="43.66317" lon="1.39402">
        <ele>128</ele>
        <time>2024-04-04T16:58:53Z</time>
      </trkpt>
      <trkpt lat="43.66316" lon="1.394">
        <ele>128</ele>
        <time>2024-04-04T16:58:54Z</time>
      </trkpt>
      <trkpt lat="43.66317" lon="1.39397">
        <ele>128</ele>
        <time>2024-04-04T16:58:55Z</time>
      </trkpt>
      <trkpt lat="43.66317" lon="1.39394">
        <ele>128</ele>
        <time>2024-04-04T16:58:56Z</time>
      </trkpt>
      <trkpt lat="43.66317" lon="1.39391">
        <ele>128</ele>
        <time>2024-04-04T16:58:57Z</time>
      </trkpt>
      <trkpt lat="43.66317" lon="1.39387">
        <ele>128</ele>
        <time>2024-04-04T16:58:58Z</time>
      </trkpt>
      <trkpt lat="43.66316" lon="1.39383">
        <ele>128</ele>
        <time>2024-04-04T16:58:59Z</time>
      </trkpt>
      <trkpt lat="43.66316" lon="1.3938">
        <ele>128</ele>
        <time>2024-04-04T16:59:00Z</time>
      </trkpt>
      <trkpt lat="43.66315" lon="1.39377">
        <ele>128</ele>
        <time>2024-04-04T16:59:01Z</time>
      </trkpt>
      <trkpt lat="43.66316" lon="1.39374">
        <ele>128</ele>
        <time>2024-04-04T16:59:02Z</time>
      </trkpt>
      <trkpt lat="43.66319" lon="1.39373">
        <ele>128</ele>
        <time>2024-04-04T16:59:03Z</time>
      </trkpt>
      <trkpt lat="43.66321" lon="1.39372">
        <ele>128</ele>
        <time>2024-04-04T16:59:04Z</time>
      </trkpt>
      <trkpt lat="43.66324" lon="1.39371">
        <ele>128</ele>
        <time>2024-04-04T16:59:05Z</time>
      </trkpt>
      <trkpt lat="43.66326" lon="1.3937">
        <ele>128</ele>
        <time>2024-04-04T16:59:06Z</time>
      </trkpt>
      <trkpt lat="43.66328" lon="1.3937">
        <ele>128</ele>
        <time>2024-04-04T16:59:07Z</time>
      </trkpt>
      <trkpt lat="43.66331" lon="1.39369">
        <ele>128</ele>
        <time>2024-04-04T16:59:08Z</time>
      </trkpt>
      <trkpt lat="43.66333" lon="1.39368">
        <ele>129</ele>
        <time>2024-04-04T16:59:09Z</time>
      </trkpt>
      <trkpt lat="43.66336" lon="1.39367">
        <ele>129</ele>
        <time>2024-04-04T16:59:10Z</time>
      </trkpt>
      <trkpt lat="43.66338" lon="1.39367">
        <ele>129</ele>
        <time>2024-04-04T16:59:11Z</time>
      </trkpt>
      <trkpt lat="43.66341" lon="1.39366">
        <ele>129</ele>
        <time>2024-04-04T16:59:12Z</time>
      </trkpt>
      <trkpt lat="43.66343" lon="1.39364">
        <ele>129</ele>
        <time>2024-04-04T16:59:13Z</time>
      </trkpt>
      <trkpt lat="43.66345" lon="1.39362">
        <ele>129</ele>
        <time>2024-04-04T16:59:14Z</time>
      </trkpt>
      <trkpt lat="43.66346" lon="1.39361">
        <ele>129</ele>
        <time>2024-04-04T16:59:15Z</time>
      </trkpt>
      <trkpt lat="43.66348" lon="1.39358">
        <ele>129</ele>
        <time>2024-04-04T16:59:16Z</time>
      </trkpt>
      <trkpt lat="43.6635" lon="1.39356">
        <ele>129</ele>
        <time>2024-04-04T16:59:17Z</time>
      </trkpt>
      <trkpt lat="43.66351" lon="1.39353">
        <ele>129</ele>
        <time>2024-04-04T16:59:18Z</time>
      </trkpt>
      <trkpt lat="43.66353" lon="1.39351">
        <ele>129</ele>
        <time>2024-04-04T16:59:19Z</time>
      </trkpt>
      <trkpt lat="43.66355" lon="1.39348">
        <ele>129</ele>
        <time>2024-04-04T16:59:20Z</time>
      </trkpt>
      <trkpt lat="43.66357" lon="1.39346">
        <ele>128</ele>
        <time>2024-04-04T16:59:21Z</time>
      </trkpt>
      <trkpt lat="43.66359" lon="1.39345">
        <ele>128</ele>
        <time>2024-04-04T16:59:22Z</time>
      </trkpt>
      <trkpt lat="43.66361" lon="1.39344">
        <ele>128</ele>
        <time>2024-04-04T16:59:23Z</time>
      </trkpt>
      <trkpt lat="43.66363" lon="1.39342">
        <ele>128</ele>
        <time>2024-04-04T16:59:24Z</time>
      </trkpt>
      <trkpt lat="43.66365" lon="1.39341">
        <ele>128</ele>
        <time>2024-04-04T16:59:25Z</time>
      </trkpt>
      <trkpt lat="43.66367" lon="1.3934">
        <ele>128</ele>
        <time>2024-04-04T16:59:26Z</time>
      </trkpt>
      <trkpt lat="43.6637" lon="1.39339">
        <ele>128</ele>
        <time>2024-04-04T16:59:27Z</time>
      </trkpt>
      <trkpt lat="43.66373" lon="1.39339">
        <ele>128</ele>
        <time>2024-04-04T16:59:28Z</time>
      </trkpt>
      <trkpt lat="43.66376" lon="1.39339">
        <ele>128</ele>
        <time>2024-04-04T16:59:29Z</time>
      </trkpt>
      <trkpt lat="43.66379" lon="1.39338">
        <ele>128</ele>
        <time>2024-04-04T16:59:30Z</time>
      </trkpt>
      <trkpt lat="43.66381" lon="1.39338">
        <ele>128</ele>
        <time>2024-04-04T16:59:31Z</time>
      </trkpt>
      <trkpt lat="43.66384" lon="1.39339">
        <ele>129</ele>
        <time>2024-04-04T16:59:32Z</time>
      </trkpt>
      <trkpt lat="43.66386" lon="1.39339">
        <ele>129</ele>
        <time>2024-04-04T16:59:33Z</time>
      </trkpt>
      <trkpt lat="43.66389" lon="1.39339">
        <ele>128</ele>
        <time>2024-04-04T16:59:34Z</time>
      </trkpt>
      <trkpt lat="43.66391" lon="1.39339">
        <ele>128</ele>
        <time>2024-04-04T16:59:35Z</time>
      </trkpt>
      <trkpt lat="43.66394" lon="1.3934">
        <ele>128</ele>
        <time>2024-04-04T16:59:36Z</time>
      </trkpt>
      <trkpt lat="43.66396" lon="1.3934">
        <ele>129</ele>
        <time>2024-04-04T16:59:37Z</time>
      </trkpt>
      <trkpt lat="43.66398" lon="1.3934">
        <ele>129</ele>
        <time>2024-04-04T16:59:38Z</time>
      </trkpt>
      <trkpt lat="43.66401" lon="1.3934">
        <ele>129</ele>
        <time>2024-04-04T16:59:39Z</time>
      </trkpt>
      <trkpt lat="43.66403" lon="1.39338">
        <ele>129</ele>
        <time>2024-04-04T16:59:40Z</time>
      </trkpt>
      <trkpt lat="43.66404" lon="1.39337">
        <ele>129</ele>
        <time>2024-04-04T16:59:41Z</time>
      </trkpt>
      <trkpt lat="43.66405" lon="1.39334">
        <ele>129</ele>
        <time>2024-04-04T16:59:42Z</time>
      </trkpt>
      <trkpt lat="43.66405" lon="1.39334">
        <ele>129</ele>
        <time>2024-04-04T16:59:43Z</time>
      </trkpt>
      <trkpt lat="43.66407" lon="1.3933">
        <ele>129</ele>
        <time>2024-04-04T16:59:44Z</time>
      </trkpt>
      <trkpt lat="43.66408" lon="1.39327">
        <ele>129</ele>
        <time>2024-04-04T16:59:45Z</time>
      </trkpt>
      <trkpt lat="43.66408" lon="1.39324">
        <ele>129</ele>
        <time>2024-04-04T16:59:46Z</time>
      </trkpt>
      <trkpt lat="43.66408" lon="1.39322">
        <ele>129</ele>
        <time>2024-04-04T16:59:47Z</time>
      </trkpt>
      <trkpt lat="43.66407" lon="1.39319">
        <ele>128</ele>
        <time>2024-04-04T16:59:48Z</time>
      </trkpt>
      <trkpt lat="43.66406" lon="1.39318">
        <ele>128</ele>
        <time>2024-04-04T16:59:49Z</time>
      </trkpt>
      <trkpt lat="43.66404" lon="1.39316">
        <ele>128</ele>
        <time>2024-04-04T16:59:50Z</time>
      </trkpt>
      <trkpt lat="43.66402" lon="1.39315">
        <ele>128</ele>
        <time>2024-04-04T16:59:51Z</time>
      </trkpt>
      <trkpt lat="43.664" lon="1.39313">
        <ele>128</ele>
        <time>2024-04-04T16:59:52Z</time>
      </trkpt>
      <trkpt lat="43.66398" lon="1.39311">
        <ele>128</ele>
        <time>2024-04-04T16:59:53Z</time>
      </trkpt>
      <trkpt lat="43.66396" lon="1.3931">
        <ele>127</ele>
        <time>2024-04-04T16:59:54Z</time>
      </trkpt>
      <trkpt lat="43.66394" lon="1.39308">
        <ele>127</ele>
        <time>2024-04-04T16:59:55Z</time>
      </trkpt>
      <trkpt lat="43.66393" lon="1.39307">
        <ele>127</ele>
        <time>2024-04-04T16:59:56Z</time>
      </trkpt>
      <trkpt lat="43.66391" lon="1.39305">
        <ele>127</ele>
        <time>2024-04-04T16:59:57Z</time>
      </trkpt>
      <trkpt lat="43.66389" lon="1.39303">
        <ele>127</ele>
        <time>2024-04-04T16:59:58Z</time>
      </trkpt>
      <trkpt lat="43.66387" lon="1.39301">
        <ele>127</ele>
        <time>2024-04-04T16:59:59Z</time>
      </trkpt>
      <trkpt lat="43.66385" lon="1.393">
        <ele>127</ele>
        <time>2024-04-04T17:00:00Z</time>
      </trkpt>
      <trkpt lat="43.66383" lon="1.39298">
        <ele>127</ele>
        <time>2024-04-04T17:00:01Z</time>
      </trkpt>
      <trkpt lat="43.6638" lon="1.39297">
        <ele>127</ele>
        <time>2024-04-04T17:00:02Z</time>
      </trkpt>
      <trkpt lat="43.66378" lon="1.39295">
        <ele>127</ele>
        <time>2024-04-04T17:00:03Z</time>
      </trkpt>
      <trkpt lat="43.66376" lon="1.39293">
        <ele>127</ele>
        <time>2024-04-04T17:00:04Z</time>
      </trkpt>
      <trkpt lat="43.66374" lon="1.39291">
        <ele>127</ele>
        <time>2024-04-04T17:00:05Z</time>
      </trkpt>
      <trkpt lat="43.66372" lon="1.3929">
        <ele>127</ele>
        <time>2024-04-04T17:00:06Z</time>
      </trkpt>
      <trkpt lat="43.6637" lon="1.39288">
        <ele>127</ele>
        <time>2024-04-04T17:00:07Z</time>
      </trkpt>
      <trkpt lat="43.66367" lon="1.39286">
        <ele>127</ele>
        <time>2024-04-04T17:00:08Z</time>
      </trkpt>
      <trkpt lat="43.66365" lon="1.39285">
        <ele>127</ele>
        <time>2024-04-04T17:00:09Z</time>
      </trkpt>
      <trkpt lat="43.66362" lon="1.39284">
        <ele>127</ele>
        <time>2024-04-04T17:00:10Z</time>
      </trkpt>
      <trkpt lat="43.6636" lon="1.39283">
        <ele>127</ele>
        <time>2024-04-04T17:00:11Z</time>
      </trkpt>
      <trkpt lat="43.66358" lon="1.39283">
        <ele>127</ele>
        <time>2024-04-04T17:00:12Z</time>
      </trkpt>
      <trkpt lat="43.66356" lon="1.39283">
        <ele>127</ele>
        <time>2024-04-04T17:00:13Z</time>
      </trkpt>
      <trkpt lat="43.66354" lon="1.39284">
        <ele>127</ele>
        <time>2024-04-04T17:00:14Z</time>
      </trkpt>
      <trkpt lat="43.66352" lon="1.39285">
        <ele>127</ele>
        <time>2024-04-04T17:00:15Z</time>
      </trkpt>
      <trkpt lat="43.6635" lon="1.39286">
        <ele>127</ele>
        <time>2024-04-04T17:00:16Z</time>
      </trkpt>
      <trkpt lat="43.66348" lon="1.39287">
        <ele>128</ele>
        <time>2024-04-04T17:00:17Z</time>
      </trkpt>
      <trkpt lat="43.66346" lon="1.39288">
        <ele>128</ele>
        <time>2024-04-04T17:00:18Z</time>
      </trkpt>
      <trkpt lat="43.66344" lon="1.39289">
        <ele>128</ele>
        <time>2024-04-04T17:00:19Z</time>
      </trkpt>
      <trkpt lat="43.66342" lon="1.3929">
        <ele>128</ele>
        <time>2024-04-04T17:00:20Z</time>
      </trkpt>
      <trkpt lat="43.66339" lon="1.39291">
        <ele>128</ele>
        <time>2024-04-04T17:00:21Z</time>
      </trkpt>
      <trkpt lat="43.66337" lon="1.39292">
        <ele>128</ele>
        <time>2024-04-04T17:00:22Z</time>
      </trkpt>
      <trkpt lat="43.66335" lon="1.39294">
        <ele>128</ele>
        <time>2024-04-04T17:00:23Z</time>
      </trkpt>
      <trkpt lat="43.66333" lon="1.39295">
        <ele>128</ele>
        <time>2024-04-04T17:00:24Z</time>
      </trkpt>
      <trkpt lat="43.6633" lon="1.39296">
        <ele>128</ele>
        <time>2024-04-04T17:00:25Z</time>
      </trkpt>
      <trkpt lat="43.66328" lon="1.39296">
        <ele>128</ele>
        <time>2024-04-04T17:00:26Z</time>
      </trkpt>
      <trkpt lat="43.66325" lon="1.39295">
        <ele>128</ele>
        <time>2024-04-04T17:00:27Z</time>
      </trkpt>
      <trkpt lat="43.66323" lon="1.39294">
        <ele>128</ele>
        <time>2024-04-04T17:00:28Z</time>
      </trkpt>
      <trkpt lat="43.66321" lon="1.39292">
        <ele>128</ele>
        <time>2024-04-04T17:00:29Z</time>
      </trkpt>
      <trkpt lat="43.66317" lon="1.3929">
        <ele>128</ele>
        <time>2024-04-04T17:00:30Z</time>
      </trkpt>
      <trkpt lat="43.66315" lon="1.39289">
        <ele>128</ele>
        <time>2024-04-04T17:00:31Z</time>
      </trkpt>
      <trkpt lat="43.66312" lon="1.39288">
        <ele>128</ele>
        <time>2024-04-04T17:00:32Z</time>
      </trkpt>
      <trkpt lat="43.6631" lon="1.39287">
        <ele>128</ele>
        <time>2024-04-04T17:00:33Z</time>
      </trkpt>
      <trkpt lat="43.66307" lon="1.39285">
        <ele>129</ele>
        <time>2024-04-04T17:00:34Z</time>
      </trkpt>
      <trkpt lat="43.66305" lon="1.39283">
        <ele>129</ele>
        <time>2024-04-04T17:00:35Z</time>
      </trkpt>
      <trkpt lat="43.66304" lon="1.39281">
        <ele>129</ele>
        <time>2024-04-04T17:00:36Z</time>
      </trkpt>
      <trkpt lat="43.66302" lon="1.39279">
        <ele>129</ele>
        <time>2024-04-04T17:00:37Z</time>
      </trkpt>
      <trkpt lat="43.663" lon="1.39276">
        <ele>129</ele>
        <time>2024-04-04T17:00:38Z</time>
      </trkpt>
      <trkpt lat="43.66298" lon="1.39274">
        <ele>129</ele>
        <time>2024-04-04T17:00:39Z</time>
      </trkpt>
      <trkpt lat="43.66296" lon="1.39272">
        <ele>129</ele>
        <time>2024-04-04T17:00:40Z</time>
      </trkpt>
      <trkpt lat="43.66295" lon="1.3927">
        <ele>129</ele>
        <time>2024-04-04T17:00:41Z</time>
      </trkpt>
      <trkpt lat="43.66295" lon="1.39268">
        <ele>129</ele>
        <time>2024-04-04T17:00:42Z</time>
      </trkpt>
      <trkpt lat="43.66295" lon="1.39268">
        <ele>129</ele>
        <time>2024-04-04T17:00:43Z</time>
      </trkpt>
      <trkpt lat="43.66293" lon="1.39263">
        <ele>129</ele>
        <time>2024-04-04T17:00:44Z</time>
      </trkpt>
      <trkpt lat="43.66293" lon="1.39263">
        <ele>129</ele>
        <time>2024-04-04T17:00:45Z</time>
      </trkpt>
      <trkpt lat="43.6629" lon="1.39256">
        <ele>129</ele>
        <time>2024-04-04T17:00:46Z</time>
      </trkpt>
      <trkpt lat="43.6629" lon="1.39254">
        <ele>129</ele>
        <time>2024-04-04T17:00:47Z</time>
      </trkpt>
      <trkpt lat="43.66288" lon="1.39251">
        <ele>129</ele>
        <time>2024-04-04T17:00:48Z</time>
      </trkpt>
      <trkpt lat="43.66287" lon="1.39247">
        <ele>129</ele>
        <time>2024-04-04T17:00:49Z</time>
      </trkpt>
      <trkpt lat="43.66286" lon="1.39244">
        <ele>129</ele>
        <time>2024-04-04T17:00:50Z</time>
      </trkpt>
      <trkpt lat="43.66285" lon="1.3924">
        <ele>129</ele>
        <time>2024-04-04T17:00:51Z</time>
      </trkpt>
      <trkpt lat="43.66285" lon="1.39237">
        <ele>129</ele>
        <time>2024-04-04T17:00:52Z</time>
      </trkpt>
      <trkpt lat="43.66284" lon="1.39234">
        <ele>129</ele>
        <time>2024-04-04T17:00:53Z</time>
      </trkpt>
      <trkpt lat="43.66283" lon="1.39231">
        <ele>128</ele>
        <time>2024-04-04T17:00:54Z</time>
      </trkpt>
      <trkpt lat="43.66282" lon="1.39227">
        <ele>128</ele>
        <time>2024-04-04T17:00:55Z</time>
      </trkpt>
      <trkpt lat="43.6628" lon="1.39224">
        <ele>128</ele>
        <time>2024-04-04T17:00:56Z</time>
      </trkpt>
      <trkpt lat="43.6628" lon="1.39221">
        <ele>127</ele>
        <time>2024-04-04T17:00:57Z</time>
      </trkpt>
      <trkpt lat="43.66279" lon="1.39217">
        <ele>127</ele>
        <time>2024-04-04T17:00:58Z</time>
      </trkpt>
      <trkpt lat="43.66278" lon="1.39213">
        <ele>127</ele>
        <time>2024-04-04T17:00:59Z</time>
      </trkpt>
      <trkpt lat="43.66277" lon="1.3921">
        <ele>127</ele>
        <time>2024-04-04T17:01:00Z</time>
      </trkpt>
      <trkpt lat="43.66277" lon="1.39207">
        <ele>128</ele>
        <time>2024-04-04T17:01:01Z</time>
      </trkpt>
      <trkpt lat="43.66277" lon="1.39203">
        <ele>128</ele>
        <time>2024-04-04T17:01:02Z</time>
      </trkpt>
      <trkpt lat="43.66276" lon="1.392">
        <ele>128</ele>
        <time>2024-04-04T17:01:03Z</time>
      </trkpt>
      <trkpt lat="43.66275" lon="1.39196">
        <ele>128</ele>
        <time>2024-04-04T17:01:04Z</time>
      </trkpt>
      <trkpt lat="43.66274" lon="1.39193">
        <ele>128</ele>
        <time>2024-04-04T17:01:05Z</time>
      </trkpt>
      <trkpt lat="43.66274" lon="1.3919">
        <ele>128</ele>
        <time>2024-04-04T17:01:06Z</time>
      </trkpt>
      <trkpt lat="43.66273" lon="1.39186">
        <ele>128</ele>
        <time>2024-04-04T17:01:07Z</time>
      </trkpt>
      <trkpt lat="43.66272" lon="1.39183">
        <ele>127</ele>
        <time>2024-04-04T17:01:08Z</time>
      </trkpt>
      <trkpt lat="43.6627" lon="1.3918">
        <ele>127</ele>
        <time>2024-04-04T17:01:09Z</time>
      </trkpt>
      <trkpt lat="43.66268" lon="1.39177">
        <ele>127</ele>
        <time>2024-04-04T17:01:10Z</time>
      </trkpt>
      <trkpt lat="43.66267" lon="1.39175">
        <ele>127</ele>
        <time>2024-04-04T17:01:11Z</time>
      </trkpt>
      <trkpt lat="43.66265" lon="1.39172">
        <ele>127</ele>
        <time>2024-04-04T17:01:12Z</time>
      </trkpt>
      <trkpt lat="43.66263" lon="1.3917">
        <ele>127</ele>
        <time>2024-04-04T17:01:13Z</time>
      </trkpt>
      <trkpt lat="43.66262" lon="1.39169">
        <ele>127</ele>
        <time>2024-04-04T17:01:14Z</time>
      </trkpt>
      <trkpt lat="43.6626" lon="1.39167">
        <ele>128</ele>
        <time>2024-04-04T17:01:15Z</time>
      </trkpt>
      <trkpt lat="43.66258" lon="1.39166">
        <ele>128</ele>
        <time>2024-04-04T17:01:16Z</time>
      </trkpt>
      <trkpt lat="43.66257" lon="1.39164">
        <ele>128</ele>
        <time>2024-04-04T17:01:17Z</time>
      </trkpt>
      <trkpt lat="43.66255" lon="1.39163">
        <ele>128</ele>
        <time>2024-04-04T17:01:18Z</time>
      </trkpt>
      <trkpt lat="43.66253" lon="1.39161">
        <ele>128</ele>
        <time>2024-04-04T17:01:19Z</time>
      </trkpt>
      <trkpt lat="43.66253" lon="1.39161">
        <ele>128</ele>
        <time>2024-04-04T17:01:20Z</time>
      </trkpt>
      <trkpt lat="43.66251" lon="1.39156">
        <ele>128</ele>
        <time>2024-04-04T17:01:21Z</time>
      </trkpt>
      <trkpt lat="43.66251" lon="1.39154">
        <ele>128</ele>
        <time>2024-04-04T17:01:22Z</time>
      </trkpt>
      <trkpt lat="43.6625" lon="1.39151">
        <ele>128</ele>
        <time>2024-04-04T17:01:23Z</time>
      </trkpt>
      <trkpt lat="43.6625" lon="1.39148">
        <ele>128</ele>
        <time>2024-04-04T17:01:24Z</time>
      </trkpt>
      <trkpt lat="43.6625" lon="1.39145">
        <ele>128</ele>
        <time>2024-04-04T17:01:25Z</time>
      </trkpt>
      <trkpt lat="43.6625" lon="1.39141">
        <ele>128</ele>
        <time>2024-04-04T17:01:26Z</time>
      </trkpt>
      <trkpt lat="43.66251" lon="1.39138">
        <ele>128</ele>
        <time>2024-04-04T17:01:27Z</time>
      </trkpt>
      <trkpt lat="43.66251" lon="1.39135">
        <ele>128</ele>
        <time>2024-04-04T17:01:28Z</time>
      </trkpt>
      <trkpt lat="43.66251" lon="1.39131">
        <ele>128</ele>
        <time>2024-04-04T17:01:29Z</time>
      </trkpt>
      <trkpt lat="43.66251" lon="1.39127">
        <ele>128</ele>
        <time>2024-04-04T17:01:30Z</time>
      </trkpt>
      <trkpt lat="43.66251" lon="1.39123">
        <ele>128</ele>
        <time>2024-04-04T17:01:31Z</time>
      </trkpt>
      <trkpt lat="43.66251" lon="1.39119">
        <ele>128</ele>
        <time>2024-04-04T17:01:32Z</time>
      </trkpt>
      <trkpt lat="43.66253" lon="1.39115">
        <ele>128</ele>
        <time>2024-04-04T17:01:33Z</time>
      </trkpt>
      <trkpt lat="43.66254" lon="1.39111">
        <ele>127</ele>
        <time>2024-04-04T17:01:34Z</time>
      </trkpt>
      <trkpt lat="43.66256" lon="1.39108">
        <ele>127</ele>
        <time>2024-04-04T17:01:35Z</time>
      </trkpt>
      <trkpt lat="43.66258" lon="1.39105">
        <ele>127</ele>
        <time>2024-04-04T17:01:36Z</time>
      </trkpt>
      <trkpt lat="43.66259" lon="1.39102">
        <ele>127</ele>
        <time>2024-04-04T17:01:37Z</time>
      </trkpt>
      <trkpt lat="43.66261" lon="1.39099">
        <ele>127</ele>
        <time>2024-04-04T17:01:38Z</time>
      </trkpt>
      <trkpt lat="43.66262" lon="1.39095">
        <ele>127</ele>
        <time>2024-04-04T17:01:39Z</time>
      </trkpt>
      <trkpt lat="43.66262" lon="1.39092">
        <ele>127</ele>
        <time>2024-04-04T17:01:40Z</time>
      </trkpt>
      <trkpt lat="43.66264" lon="1.39088">
        <ele>127</ele>
        <time>2024-04-04T17:01:41Z</time>
      </trkpt>
      <trkpt lat="43.66265" lon="1.39085">
        <ele>127</ele>
        <time>2024-04-04T17:01:42Z</time>
      </trkpt>
      <trkpt lat="43.66266" lon="1.39082">
        <ele>127</ele>
        <time>2024-04-04T17:01:43Z</time>
      </trkpt>
      <trkpt lat="43.66267" lon="1.39079">
        <ele>127</ele>
        <time>2024-04-04T17:01:44Z</time>
      </trkpt>
      <trkpt lat="43.66268" lon="1.39076">
        <ele>127</ele>
        <time>2024-04-04T17:01:45Z</time>
      </trkpt>
      <trkpt lat="43.66269" lon="1.39073">
        <ele>127</ele>
        <time>2024-04-04T17:01:46Z</time>
      </trkpt>
      <trkpt lat="43.66269" lon="1.3907">
        <ele>127</ele>
        <time>2024-04-04T17:01:47Z</time>
      </trkpt>
      <trkpt lat="43.66268" lon="1.39067">
        <ele>127</ele>
        <time>2024-04-04T17:01:48Z</time>
      </trkpt>
      <trkpt lat="43.66268" lon="1.39063">
        <ele>127</ele>
        <time>2024-04-04T17:01:49Z</time>
      </trkpt>
      <trkpt lat="43.66267" lon="1.39059">
        <ele>127</ele>
        <time>2024-04-04T17:01:50Z</time>
      </trkpt>
      <trkpt lat="43.66267" lon="1.39055">
        <ele>127</ele>
        <time>2024-04-04T17:01:51Z</time>
      </trkpt>
      <trkpt lat="43.66267" lon="1.39052">
        <ele>126</ele>
        <time>2024-04-04T17:01:52Z</time>
      </trkpt>
      <trkpt lat="43.66268" lon="1.39049">
        <ele>126</ele>
        <time>2024-04-04T17:01:53Z</time>
      </trkpt>
      <trkpt lat="43.66269" lon="1.39045">
        <ele>126</ele>
        <time>2024-04-04T17:01:54Z</time>
      </trkpt>
      <trkpt lat="43.6627" lon="1.39042">
        <ele>126</ele>
        <time>2024-04-04T17:01:55Z</time>
      </trkpt>
      <trkpt lat="43.66271" lon="1.3904">
        <ele>126</ele>
        <time>2024-04-04T17:01:56Z</time>
      </trkpt>
      <trkpt lat="43.66272" lon="1.39037">
        <ele>126</ele>
        <time>2024-04-04T17:01:57Z</time>
      </trkpt>
      <trkpt lat="43.66272" lon="1.39037">
        <ele>126</ele>
        <time>2024-04-04T17:01:58Z</time>
      </trkpt>
      <trkpt lat="43.66274" lon="1.39032">
        <ele>126</ele>
        <time>2024-04-04T17:01:59Z</time>
      </trkpt>
      <trkpt lat="43.66276" lon="1.39027">
        <ele>126</ele>
        <time>2024-04-04T17:02:00Z</time>
      </trkpt>
      <trkpt lat="43.66278" lon="1.39023">
        <ele>126</ele>
        <time>2024-04-04T17:02:01Z</time>
      </trkpt>
      <trkpt lat="43.6628" lon="1.3902">
        <ele>126</ele>
        <time>2024-04-04T17:02:02Z</time>
      </trkpt>
      <trkpt lat="43.66282" lon="1.39017">
        <ele>126</ele>
        <time>2024-04-04T17:02:03Z</time>
      </trkpt>
      <trkpt lat="43.66283" lon="1.39014">
        <ele>126</ele>
        <time>2024-04-04T17:02:04Z</time>
      </trkpt>
      <trkpt lat="43.66285" lon="1.39011">
        <ele>126</ele>
        <time>2024-04-04T17:02:05Z</time>
      </trkpt>
      <trkpt lat="43.66286" lon="1.39008">
        <ele>126</ele>
        <time>2024-04-04T17:02:06Z</time>
      </trkpt>
      <trkpt lat="43.66288" lon="1.39005">
        <ele>126</ele>
        <time>2024-04-04T17:02:07Z</time>
      </trkpt>
      <trkpt lat="43.66289" lon="1.39002">
        <ele>126</ele>
        <time>2024-04-04T17:02:08Z</time>
      </trkpt>
      <trkpt lat="43.6629" lon="1.38999">
        <ele>126</ele>
        <time>2024-04-04T17:02:09Z</time>
      </trkpt>
      <trkpt lat="43.66291" lon="1.38995">
        <ele>126</ele>
        <time>2024-04-04T17:02:10Z</time>
      </trkpt>
      <trkpt lat="43.66292" lon="1.38992">
        <ele>126</ele>
        <time>2024-04-04T17:02:11Z</time>
      </trkpt>
      <trkpt lat="43.66294" lon="1.38989">
        <ele>126</ele>
        <time>2024-04-04T17:02:12Z</time>
      </trkpt>
      <trkpt lat="43.66295" lon="1.38986">
        <ele>127</ele>
        <time>2024-04-04T17:02:13Z</time>
      </trkpt>
      <trkpt lat="43.66297" lon="1.38983">
        <ele>127</ele>
        <time>2024-04-04T17:02:14Z</time>
      </trkpt>
      <trkpt lat="43.66299" lon="1.3898">
        <ele>127</ele>
        <time>2024-04-04T17:02:15Z</time>
      </trkpt>
      <trkpt lat="43.663" lon="1.38977">
        <ele>127</ele>
        <time>2024-04-04T17:02:16Z</time>
      </trkpt>
      <trkpt lat="43.66302" lon="1.38974">
        <ele>127</ele>
        <time>2024-04-04T17:02:17Z</time>
      </trkpt>
      <trkpt lat="43.66303" lon="1.38971">
        <ele>127</ele>
        <time>2024-04-04T17:02:18Z</time>
      </trkpt>
      <trkpt lat="43.66305" lon="1.38969">
        <ele>127</ele>
        <time>2024-04-04T17:02:19Z</time>
      </trkpt>
      <trkpt lat="43.66307" lon="1.38966">
        <ele>127</ele>
        <time>2024-04-04T17:02:20Z</time>
      </trkpt>
      <trkpt lat="43.66309" lon="1.38964">
        <ele>126</ele>
        <time>2024-04-04T17:02:21Z</time>
      </trkpt>
      <trkpt lat="43.6631" lon="1.38961">
        <ele>126</ele>
        <time>2024-04-04T17:02:22Z</time>
      </trkpt>
      <trkpt lat="43.66311" lon="1.38959">
        <ele>126</ele>
        <time>2024-04-04T17:02:23Z</time>
      </trkpt>
      <trkpt lat="43.66313" lon="1.38958">
        <ele>126</ele>
        <time>2024-04-04T17:02:24Z</time>
      </trkpt>
      <trkpt lat="43.66313" lon="1.38958">
        <ele>126</ele>
        <time>2024-04-04T17:02:25Z</time>
      </trkpt>
      <trkpt lat="43.66316" lon="1.38956">
        <ele>126</ele>
        <time>2024-04-04T17:02:26Z</time>
      </trkpt>
      <trkpt lat="43.66318" lon="1.38955">
        <ele>126</ele>
        <time>2024-04-04T17:02:27Z</time>
      </trkpt>
      <trkpt lat="43.6632" lon="1.38954">
        <ele>126</ele>
        <time>2024-04-04T17:02:28Z</time>
      </trkpt>
      <trkpt lat="43.66322" lon="1.38952">
        <ele>126</ele>
        <time>2024-04-04T17:02:29Z</time>
      </trkpt>
      <trkpt lat="43.66324" lon="1.3895">
        <ele>126</ele>
        <time>2024-04-04T17:02:30Z</time>
      </trkpt>
      <trkpt lat="43.66325" lon="1.38947">
        <ele>126</ele>
        <time>2024-04-04T17:02:31Z</time>
      </trkpt>
      <trkpt lat="43.66327" lon="1.38944">
        <ele>126</ele>
        <time>2024-04-04T17:02:32Z</time>
      </trkpt>
      <trkpt lat="43.66329" lon="1.38941">
        <ele>126</ele>
        <time>2024-04-04T17:02:33Z</time>
      </trkpt>
      <trkpt lat="43.6633" lon="1.38938">
        <ele>127</ele>
        <time>2024-04-04T17:02:34Z</time>
      </trkpt>
      <trkpt lat="43.66332" lon="1.38936">
        <ele>127</ele>
        <time>2024-04-04T17:02:35Z</time>
      </trkpt>
      <trkpt lat="43.66334" lon="1.38933">
        <ele>127</ele>
        <time>2024-04-04T17:02:36Z</time>
      </trkpt>
      <trkpt lat="43.66336" lon="1.38931">
        <ele>127</ele>
        <time>2024-04-04T17:02:37Z</time>
      </trkpt>
      <trkpt lat="43.66338" lon="1.38927">
        <ele>127</ele>
        <time>2024-04-04T17:02:38Z</time>
      </trkpt>
      <trkpt lat="43.6634" lon="1.38924">
        <ele>127</ele>
        <time>2024-04-04T17:02:39Z</time>
      </trkpt>
      <trkpt lat="43.66342" lon="1.38922">
        <ele>127</ele>
        <time>2024-04-04T17:02:40Z</time>
      </trkpt>
      <trkpt lat="43.66344" lon="1.38919">
        <ele>127</ele>
        <time>2024-04-04T17:02:41Z</time>
      </trkpt>
      <trkpt lat="43.66345" lon="1.38916">
        <ele>126</ele>
        <time>2024-04-04T17:02:42Z</time>
      </trkpt>
      <trkpt lat="43.66347" lon="1.38913">
        <ele>126</ele>
        <time>2024-04-04T17:02:43Z</time>
      </trkpt>
      <trkpt lat="43.66348" lon="1.3891">
        <ele>126</ele>
        <time>2024-04-04T17:02:44Z</time>
      </trkpt>
      <trkpt lat="43.66349" lon="1.38907">
        <ele>126</ele>
        <time>2024-04-04T17:02:45Z</time>
      </trkpt>
      <trkpt lat="43.66351" lon="1.38904">
        <ele>126</ele>
        <time>2024-04-04T17:02:46Z</time>
      </trkpt>
      <trkpt lat="43.66352" lon="1.38902">
        <ele>126</ele>
        <time>2024-04-04T17:02:47Z</time>
      </trkpt>
      <trkpt lat="43.66353" lon="1.38899">
        <ele>126</ele>
        <time>2024-04-04T17:02:48Z</time>
      </trkpt>
      <trkpt lat="43.66355" lon="1.38897">
        <ele>126</ele>
        <time>2024-04-04T17:02:49Z</time>
      </trkpt>
      <trkpt lat="43.66357" lon="1.38895">
        <ele>126</ele>
        <time>2024-04-04T17:02:50Z</time>
      </trkpt>
      <trkpt lat="43.66359" lon="1.38892">
        <ele>126</ele>
        <time>2024-04-04T17:02:51Z</time>
      </trkpt>
      <trkpt lat="43.66361" lon="1.38889">
        <ele>126</ele>
        <time>2024-04-04T17:02:52Z</time>
      </trkpt>
      <trkpt lat="43.66362" lon="1.38887">
        <ele>126</ele>
        <time>2024-04-04T17:02:53Z</time>
      </trkpt>
      <trkpt lat="43.66364" lon="1.38885">
        <ele>126</ele>
        <time>2024-04-04T17:02:54Z</time>
      </trkpt>
      <trkpt lat="43.66366" lon="1.38883">
        <ele>127</ele>
        <time>2024-04-04T17:02:55Z</time>
      </trkpt>
      <trkpt lat="43.66367" lon="1.3888">
        <ele>127</ele>
        <time>2024-04-04T17:02:56Z</time>
      </trkpt>
      <trkpt lat="43.66369" lon="1.38878">
        <ele>127</ele>
        <time>2024-04-04T17:02:57Z</time>
      </trkpt>
      <trkpt lat="43.66371" lon="1.38875">
        <ele>126</ele>
        <time>2024-04-04T17:02:58Z</time>
      </trkpt>
      <trkpt lat="43.66373" lon="1.38872">
        <ele>126</ele>
        <time>2024-04-04T17:02:59Z</time>
      </trkpt>
      <trkpt lat="43.66375" lon="1.3887">
        <ele>126</ele>
        <time>2024-04-04T17:03:00Z</time>
      </trkpt>
      <trkpt lat="43.66378" lon="1.38868">
        <ele>126</ele>
        <time>2024-04-04T17:03:01Z</time>
      </trkpt>
      <trkpt lat="43.66378" lon="1.38868">
        <ele>126</ele>
        <time>2024-04-04T17:03:02Z</time>
      </trkpt>
      <trkpt lat="43.66382" lon="1.38864">
        <ele>126</ele>
        <time>2024-04-04T17:03:03Z</time>
      </trkpt>
      <trkpt lat="43.66383" lon="1.38861">
        <ele>126</ele>
        <time>2024-04-04T17:03:04Z</time>
      </trkpt>
      <trkpt lat="43.66385" lon="1.38859">
        <ele>126</ele>
        <time>2024-04-04T17:03:05Z</time>
      </trkpt>
      <trkpt lat="43.66386" lon="1.38857">
        <ele>126</ele>
        <time>2024-04-04T17:03:06Z</time>
      </trkpt>
      <trkpt lat="43.66388" lon="1.38855">
        <ele>125</ele>
        <time>2024-04-04T17:03:07Z</time>
      </trkpt>
      <trkpt lat="43.6639" lon="1.38853">
        <ele>125</ele>
        <time>2024-04-04T17:03:08Z</time>
      </trkpt>
      <trkpt lat="43.66393" lon="1.38851">
        <ele>126</ele>
        <time>2024-04-04T17:03:09Z</time>
      </trkpt>
      <trkpt lat="43.66395" lon="1.3885">
        <ele>126</ele>
        <time>2024-04-04T17:03:10Z</time>
      </trkpt>
      <trkpt lat="43.66397" lon="1.38849">
        <ele>126</ele>
        <time>2024-04-04T17:03:11Z</time>
      </trkpt>
      <trkpt lat="43.66399" lon="1.38847">
        <ele>126</ele>
        <time>2024-04-04T17:03:12Z</time>
      </trkpt>
      <trkpt lat="43.66401" lon="1.38845">
        <ele>126</ele>
        <time>2024-04-04T17:03:13Z</time>
      </trkpt>
      <trkpt lat="43.66403" lon="1.38843">
        <ele>126</ele>
        <time>2024-04-04T17:03:14Z</time>
      </trkpt>
      <trkpt lat="43.66406" lon="1.38841">
        <ele>126</ele>
        <time>2024-04-04T17:03:15Z</time>
      </trkpt>
      <trkpt lat="43.66408" lon="1.3884">
        <ele>127</ele>
        <time>2024-04-04T17:03:16Z</time>
      </trkpt>
      <trkpt lat="43.66411" lon="1.38838">
        <ele>127</ele>
        <time>2024-04-04T17:03:17Z</time>
      </trkpt>
      <trkpt lat="43.66413" lon="1.38836">
        <ele>127</ele>
        <time>2024-04-04T17:03:18Z</time>
      </trkpt>
      <trkpt lat="43.66415" lon="1.38835">
        <ele>127</ele>
        <time>2024-04-04T17:03:19Z</time>
      </trkpt>
      <trkpt lat="43.66417" lon="1.38832">
        <ele>126</ele>
        <time>2024-04-04T17:03:20Z</time>
      </trkpt>
      <trkpt lat="43.66419" lon="1.38831">
        <ele>127</ele>
        <time>2024-04-04T17:03:21Z</time>
      </trkpt>
      <trkpt lat="43.66421" lon="1.38828">
        <ele>127</ele>
        <time>2024-04-04T17:03:22Z</time>
      </trkpt>
      <trkpt lat="43.66423" lon="1.38826">
        <ele>127</ele>
        <time>2024-04-04T17:03:23Z</time>
      </trkpt>
      <trkpt lat="43.66425" lon="1.38823">
        <ele>127</ele>
        <time>2024-04-04T17:03:24Z</time>
      </trkpt>
      <trkpt lat="43.66428" lon="1.38821">
        <ele>127</ele>
        <time>2024-04-04T17:03:25Z</time>
      </trkpt>
      <trkpt lat="43.6643" lon="1.38819">
        <ele>127</ele>
        <time>2024-04-04T17:03:26Z</time>
      </trkpt>
      <trkpt lat="43.66433" lon="1.38818">
        <ele>127</ele>
        <time>2024-04-04T17:03:27Z</time>
      </trkpt>
      <trkpt lat="43.66435" lon="1.38817">
        <ele>127</ele>
        <time>2024-04-04T17:03:28Z</time>
      </trkpt>
      <trkpt lat="43.66436" lon="1.38815">
        <ele>127</ele>
        <time>2024-04-04T17:03:29Z</time>
      </trkpt>
      <trkpt lat="43.66438" lon="1.38813">
        <ele>127</ele>
        <time>2024-04-04T17:03:30Z</time>
      </trkpt>
      <trkpt lat="43.6644" lon="1.38812">
        <ele>127</ele>
        <time>2024-04-04T17:03:31Z</time>
      </trkpt>
      <trkpt lat="43.66443" lon="1.3881">
        <ele>127</ele>
        <time>2024-04-04T17:03:32Z</time>
      </trkpt>
      <trkpt lat="43.66444" lon="1.38809">
        <ele>126</ele>
        <time>2024-04-04T17:03:33Z</time>
      </trkpt>
      <trkpt lat="43.66446" lon="1.38808">
        <ele>126</ele>
        <time>2024-04-04T17:03:34Z</time>
      </trkpt>
      <trkpt lat="43.66448" lon="1.38806">
        <ele>126</ele>
        <time>2024-04-04T17:03:35Z</time>
      </trkpt>
      <trkpt lat="43.66451" lon="1.38805">
        <ele>127</ele>
        <time>2024-04-04T17:03:36Z</time>
      </trkpt>
      <trkpt lat="43.66453" lon="1.38803">
        <ele>127</ele>
        <time>2024-04-04T17:03:37Z</time>
      </trkpt>
      <trkpt lat="43.66456" lon="1.38802">
        <ele>127</ele>
        <time>2024-04-04T17:03:38Z</time>
      </trkpt>
      <trkpt lat="43.66458" lon="1.388">
        <ele>127</ele>
        <time>2024-04-04T17:03:39Z</time>
      </trkpt>
      <trkpt lat="43.6646" lon="1.38798">
        <ele>127</ele>
        <time>2024-04-04T17:03:40Z</time>
      </trkpt>
      <trkpt lat="43.66462" lon="1.38796">
        <ele>127</ele>
        <time>2024-04-04T17:03:41Z</time>
      </trkpt>
      <trkpt lat="43.66464" lon="1.38794">
        <ele>127</ele>
        <time>2024-04-04T17:03:42Z</time>
      </trkpt>
      <trkpt lat="43.66466" lon="1.38791">
        <ele>127</ele>
        <time>2024-04-04T17:03:43Z</time>
      </trkpt>
      <trkpt lat="43.66468" lon="1.38789">
        <ele>127</ele>
        <time>2024-04-04T17:03:44Z</time>
      </trkpt>
      <trkpt lat="43.6647" lon="1.38786">
        <ele>127</ele>
        <time>2024-04-04T17:03:45Z</time>
      </trkpt>
      <trkpt lat="43.66473" lon="1.38785">
        <ele>127</ele>
        <time>2024-04-04T17:03:46Z</time>
      </trkpt>
      <trkpt lat="43.66475" lon="1.38782">
        <ele>127</ele>
        <time>2024-04-04T17:03:47Z</time>
      </trkpt>
      <trkpt lat="43.66477" lon="1.38781">
        <ele>126</ele>
        <time>2024-04-04T17:03:48Z</time>
      </trkpt>
      <trkpt lat="43.66479" lon="1.38778">
        <ele>126</ele>
        <time>2024-04-04T17:03:49Z</time>
      </trkpt>
      <trkpt lat="43.66482" lon="1.38776">
        <ele>126</ele>
        <time>2024-04-04T17:03:50Z</time>
      </trkpt>
      <trkpt lat="43.66482" lon="1.38776">
        <ele>127</ele>
        <time>2024-04-04T17:03:51Z</time>
      </trkpt>
      <trkpt lat="43.66487" lon="1.38773">
        <ele>127</ele>
        <time>2024-04-04T17:03:52Z</time>
      </trkpt>
      <trkpt lat="43.6649" lon="1.38771">
        <ele>127</ele>
        <time>2024-04-04T17:03:53Z</time>
      </trkpt>
      <trkpt lat="43.66492" lon="1.38768">
        <ele>127</ele>
        <time>2024-04-04T17:03:54Z</time>
      </trkpt>
      <trkpt lat="43.66494" lon="1.38766">
        <ele>126</ele>
        <time>2024-04-04T17:03:55Z</time>
      </trkpt>
      <trkpt lat="43.66497" lon="1.38763">
        <ele>126</ele>
        <time>2024-04-04T17:03:56Z</time>
      </trkpt>
      <trkpt lat="43.66499" lon="1.38761">
        <ele>126</ele>
        <time>2024-04-04T17:03:57Z</time>
      </trkpt>
      <trkpt lat="43.66501" lon="1.38758">
        <ele>126</ele>
        <time>2024-04-04T17:03:58Z</time>
      </trkpt>
      <trkpt lat="43.66502" lon="1.38756">
        <ele>126</ele>
        <time>2024-04-04T17:03:59Z</time>
      </trkpt>
      <trkpt lat="43.66504" lon="1.38754">
        <ele>126</ele>
        <time>2024-04-04T17:04:00Z</time>
      </trkpt>
      <trkpt lat="43.66506" lon="1.38752">
        <ele>126</ele>
        <time>2024-04-04T17:04:01Z</time>
      </trkpt>
      <trkpt lat="43.66508" lon="1.3875">
        <ele>126</ele>
        <time>2024-04-04T17:04:02Z</time>
      </trkpt>
      <trkpt lat="43.6651" lon="1.38748">
        <ele>126</ele>
        <time>2024-04-04T17:04:03Z</time>
      </trkpt>
      <trkpt lat="43.66512" lon="1.38746">
        <ele>126</ele>
        <time>2024-04-04T17:04:04Z</time>
      </trkpt>
      <trkpt lat="43.66514" lon="1.38744">
        <ele>126</ele>
        <time>2024-04-04T17:04:05Z</time>
      </trkpt>
      <trkpt lat="43.66516" lon="1.38743">
        <ele>126</ele>
        <time>2024-04-04T17:04:06Z</time>
      </trkpt>
      <trkpt lat="43.66518" lon="1.3874">
        <ele>126</ele>
        <time>2024-04-04T17:04:07Z</time>
      </trkpt>
      <trkpt lat="43.66521" lon="1.38738">
        <ele>127</ele>
        <time>2024-04-04T17:04:08Z</time>
      </trkpt>
      <trkpt lat="43.66523" lon="1.38736">
        <ele>127</ele>
        <time>2024-04-04T17:04:09Z</time>
      </trkpt>
      <trkpt lat="43.66525" lon="1.38734">
        <ele>127</ele>
        <time>2024-04-04T17:04:10Z</time>
      </trkpt>
      <trkpt lat="43.66527" lon="1.38732">
        <ele>127</ele>
        <time>2024-04-04T17:04:11Z</time>
      </trkpt>
      <trkpt lat="43.6653" lon="1.3873">
        <ele>127</ele>
        <time>2024-04-04T17:04:12Z</time>
      </trkpt>
      <trkpt lat="43.66532" lon="1.38728">
        <ele>127</ele>
        <time>2024-04-04T17:04:13Z</time>
      </trkpt>
      <trkpt lat="43.66534" lon="1.38725">
        <ele>127</ele>
        <time>2024-04-04T17:04:14Z</time>
      </trkpt>
      <trkpt lat="43.66536" lon="1.38723">
        <ele>127</ele>
        <time>2024-04-04T17:04:15Z</time>
      </trkpt>
      <trkpt lat="43.66538" lon="1.3872">
        <ele>127</ele>
        <time>2024-04-04T17:04:16Z</time>
      </trkpt>
      <trkpt lat="43.66539" lon="1.38718">
        <ele>127</ele>
        <time>2024-04-04T17:04:17Z</time>
      </trkpt>
      <trkpt lat="43.66542" lon="1.38717">
        <ele>127</ele>
        <time>2024-04-04T17:04:18Z</time>
      </trkpt>
      <trkpt lat="43.66544" lon="1.38716">
        <ele>127</ele>
        <time>2024-04-04T17:04:19Z</time>
      </trkpt>
      <trkpt lat="43.66547" lon="1.38716">
        <ele>127</ele>
        <time>2024-04-04T17:04:20Z</time>
      </trkpt>
      <trkpt lat="43.6655" lon="1.38718">
        <ele>127</ele>
        <time>2024-04-04T17:04:21Z</time>
      </trkpt>
      <trkpt lat="43.66553" lon="1.38719">
        <ele>127</ele>
        <time>2024-04-04T17:04:22Z</time>
      </trkpt>
      <trkpt lat="43.66556" lon="1.3872">
        <ele>127</ele>
        <time>2024-04-04T17:04:23Z</time>
      </trkpt>
      <trkpt lat="43.66559" lon="1.38721">
        <ele>126</ele>
        <time>2024-04-04T17:04:24Z</time>
      </trkpt>
      <trkpt lat="43.66562" lon="1.38722">
        <ele>126</ele>
        <time>2024-04-04T17:04:25Z</time>
      </trkpt>
      <trkpt lat="43.66565" lon="1.38724">
        <ele>126</ele>
        <time>2024-04-04T17:04:26Z</time>
      </trkpt>
      <trkpt lat="43.66567" lon="1.38726">
        <ele>126</ele>
        <time>2024-04-04T17:04:27Z</time>
      </trkpt>
      <trkpt lat="43.66569" lon="1.38729">
        <ele>126</ele>
        <time>2024-04-04T17:04:28Z</time>
      </trkpt>
      <trkpt lat="43.66569" lon="1.38729">
        <ele>126</ele>
        <time>2024-04-04T17:04:29Z</time>
      </trkpt>
      <trkpt lat="43.66573" lon="1.38735">
        <ele>126</ele>
        <time>2024-04-04T17:04:30Z</time>
      </trkpt>
      <trkpt lat="43.66576" lon="1.38738">
        <ele>126</ele>
        <time>2024-04-04T17:04:31Z</time>
      </trkpt>
      <trkpt lat="43.66578" lon="1.3874">
        <ele>126</ele>
        <time>2024-04-04T17:04:32Z</time>
      </trkpt>
      <trkpt lat="43.6658" lon="1.38743">
        <ele>126</ele>
        <time>2024-04-04T17:04:33Z</time>
      </trkpt>
      <trkpt lat="43.66582" lon="1.38746">
        <ele>126</ele>
        <time>2024-04-04T17:04:34Z</time>
      </trkpt>
      <trkpt lat="43.66584" lon="1.38749">
        <ele>126</ele>
        <time>2024-04-04T17:04:35Z</time>
      </trkpt>
      <trkpt lat="43.66586" lon="1.38752">
        <ele>126</ele>
        <time>2024-04-04T17:04:36Z</time>
      </trkpt>
      <trkpt lat="43.66588" lon="1.38755">
        <ele>126</ele>
        <time>2024-04-04T17:04:37Z</time>
      </trkpt>
      <trkpt lat="43.66589" lon="1.38758">
        <ele>126</ele>
        <time>2024-04-04T17:04:38Z</time>
      </trkpt>
      <trkpt lat="43.66591" lon="1.38761">
        <ele>126</ele>
        <time>2024-04-04T17:04:39Z</time>
      </trkpt>
      <trkpt lat="43.66593" lon="1.38765">
        <ele>126</ele>
        <time>2024-04-04T17:04:40Z</time>
      </trkpt>
      <trkpt lat="43.66594" lon="1.38768">
        <ele>126</ele>
        <time>2024-04-04T17:04:41Z</time>
      </trkpt>
      <trkpt lat="43.66596" lon="1.38772">
        <ele>126</ele>
        <time>2024-04-04T17:04:42Z</time>
      </trkpt>
      <trkpt lat="43.66597" lon="1.38775">
        <ele>126</ele>
        <time>2024-04-04T17:04:43Z</time>
      </trkpt>
      <trkpt lat="43.66599" lon="1.38779">
        <ele>126</ele>
        <time>2024-04-04T17:04:44Z</time>
      </trkpt>
      <trkpt lat="43.666" lon="1.38782">
        <ele>126</ele>
        <time>2024-04-04T17:04:45Z</time>
      </trkpt>
      <trkpt lat="43.66601" lon="1.38786">
        <ele>126</ele>
        <time>2024-04-04T17:04:46Z</time>
      </trkpt>
      <trkpt lat="43.66603" lon="1.38789">
        <ele>126</ele>
        <time>2024-04-04T17:04:47Z</time>
      </trkpt>
      <trkpt lat="43.66604" lon="1.38793">
        <ele>126</ele>
        <time>2024-04-04T17:04:48Z</time>
      </trkpt>
      <trkpt lat="43.66605" lon="1.38796">
        <ele>126</ele>
        <time>2024-04-04T17:04:49Z</time>
      </trkpt>
      <trkpt lat="43.66605" lon="1.388">
        <ele>126</ele>
        <time>2024-04-04T17:04:50Z</time>
      </trkpt>
      <trkpt lat="43.66606" lon="1.38803">
        <ele>126</ele>
        <time>2024-04-04T17:04:51Z</time>
      </trkpt>
      <trkpt lat="43.66607" lon="1.38806">
        <ele>126</ele>
        <time>2024-04-04T17:04:52Z</time>
      </trkpt>
      <trkpt lat="43.66607" lon="1.3881">
        <ele>126</ele>
        <time>2024-04-04T17:04:53Z</time>
      </trkpt>
      <trkpt lat="43.66608" lon="1.38813">
        <ele>126</ele>
        <time>2024-04-04T17:04:54Z</time>
      </trkpt>
      <trkpt lat="43.66609" lon="1.38816">
        <ele>126</ele>
        <time>2024-04-04T17:04:55Z</time>
      </trkpt>
      <trkpt lat="43.66609" lon="1.38819">
        <ele>126</ele>
        <time>2024-04-04T17:04:56Z</time>
      </trkpt>
      <trkpt lat="43.6661" lon="1.38823">
        <ele>126</ele>
        <time>2024-04-04T17:04:57Z</time>
      </trkpt>
      <trkpt lat="43.66611" lon="1.38826">
        <ele>127</ele>
        <time>2024-04-04T17:04:58Z</time>
      </trkpt>
      <trkpt lat="43.66612" lon="1.3883">
        <ele>127</ele>
        <time>2024-04-04T17:04:59Z</time>
      </trkpt>
      <trkpt lat="43.66613" lon="1.38833">
        <ele>127</ele>
        <time>2024-04-04T17:05:00Z</time>
      </trkpt>
      <trkpt lat="43.66613" lon="1.38837">
        <ele>127</ele>
        <time>2024-04-04T17:05:01Z</time>
      </trkpt>
      <trkpt lat="43.66614" lon="1.3884">
        <ele>127</ele>
        <time>2024-04-04T17:05:02Z</time>
      </trkpt>
      <trkpt lat="43.66614" lon="1.38844">
        <ele>127</ele>
        <time>2024-04-04T17:05:03Z</time>
      </trkpt>
      <trkpt lat="43.66614" lon="1.38847">
        <ele>127</ele>
        <time>2024-04-04T17:05:04Z</time>
      </trkpt>
      <trkpt lat="43.66614" lon="1.38851">
        <ele>128</ele>
        <time>2024-04-04T17:05:05Z</time>
      </trkpt>
      <trkpt lat="43.66615" lon="1.38854">
        <ele>128</ele>
        <time>2024-04-04T17:05:06Z</time>
      </trkpt>
      <trkpt lat="43.66614" lon="1.38858">
        <ele>127</ele>
        <time>2024-04-04T17:05:07Z</time>
      </trkpt>
      <trkpt lat="43.66615" lon="1.38862">
        <ele>127</ele>
        <time>2024-04-04T17:05:08Z</time>
      </trkpt>
      <trkpt lat="43.66614" lon="1.38866">
        <ele>127</ele>
        <time>2024-04-04T17:05:09Z</time>
      </trkpt>
      <trkpt lat="43.66614" lon="1.38869">
        <ele>127</ele>
        <time>2024-04-04T17:05:10Z</time>
      </trkpt>
      <trkpt lat="43.66614" lon="1.38873">
        <ele>127</ele>
        <time>2024-04-04T17:05:11Z</time>
      </trkpt>
      <trkpt lat="43.66614" lon="1.38876">
        <ele>127</ele>
        <time>2024-04-04T17:05:12Z</time>
      </trkpt>
      <trkpt lat="43.66613" lon="1.3888">
        <ele>127</ele>
        <time>2024-04-04T17:05:13Z</time>
      </trkpt>
      <trkpt lat="43.66613" lon="1.38883">
        <ele>127</ele>
        <time>2024-04-04T17:05:14Z</time>
      </trkpt>
      <trkpt lat="43.66613" lon="1.38887">
        <ele>127</ele>
        <time>2024-04-04T17:05:15Z</time>
      </trkpt>
      <trkpt lat="43.66613" lon="1.3889">
        <ele>127</ele>
        <time>2024-04-04T17:05:16Z</time>
      </trkpt>
      <trkpt lat="43.66612" lon="1.38894">
        <ele>127</ele>
        <time>2024-04-04T17:05:17Z</time>
      </trkpt>
      <trkpt lat="43.66612" lon="1.38897">
        <ele>127</ele>
        <time>2024-04-04T17:05:18Z</time>
      </trkpt>
      <trkpt lat="43.66612" lon="1.38901">
        <ele>127</ele>
        <time>2024-04-04T17:05:19Z</time>
      </trkpt>
      <trkpt lat="43.66611" lon="1.38904">
        <ele>127</ele>
        <time>2024-04-04T17:05:20Z</time>
      </trkpt>
      <trkpt lat="43.6661" lon="1.38907">
        <ele>127</ele>
        <time>2024-04-04T17:05:21Z</time>
      </trkpt>
      <trkpt lat="43.6661" lon="1.38911">
        <ele>127</ele>
        <time>2024-04-04T17:05:22Z</time>
      </trkpt>
      <trkpt lat="43.66609" lon="1.38914">
        <ele>127</ele>
        <time>2024-04-04T17:05:23Z</time>
      </trkpt>
      <trkpt lat="43.66609" lon="1.38918">
        <ele>127</ele>
        <time>2024-04-04T17:05:24Z</time>
      </trkpt>
      <trkpt lat="43.66608" lon="1.38921">
        <ele>127</ele>
        <time>2024-04-04T17:05:25Z</time>
      </trkpt>
      <trkpt lat="43.66608" lon="1.38925">
        <ele>127</ele>
        <time>2024-04-04T17:05:26Z</time>
      </trkpt>
      <trkpt lat="43.66608" lon="1.38928">
        <ele>127</ele>
        <time>2024-04-04T17:05:27Z</time>
      </trkpt>
      <trkpt lat="43.66608" lon="1.38931">
        <ele>127</ele>
        <time>2024-04-04T17:05:28Z</time>
      </trkpt>
      <trkpt lat="43.66608" lon="1.38935">
        <ele>127</ele>
        <time>2024-04-04T17:05:29Z</time>
      </trkpt>
      <trkpt lat="43.66609" lon="1.38938">
        <ele>127</ele>
        <time>2024-04-04T17:05:30Z</time>
      </trkpt>
      <trkpt lat="43.66609" lon="1.38941">
        <ele>127</ele>
        <time>2024-04-04T17:05:31Z</time>
      </trkpt>
      <trkpt lat="43.66608" lon="1.38944">
        <ele>127</ele>
        <time>2024-04-04T17:05:32Z</time>
      </trkpt>
      <trkpt lat="43.66608" lon="1.38948">
        <ele>127</ele>
        <time>2024-04-04T17:05:33Z</time>
      </trkpt>
      <trkpt lat="43.66607" lon="1.38951">
        <ele>127</ele>
        <time>2024-04-04T17:05:34Z</time>
      </trkpt>
      <trkpt lat="43.66607" lon="1.38954">
        <ele>127</ele>
        <time>2024-04-04T17:05:35Z</time>
      </trkpt>
      <trkpt lat="43.66606" lon="1.38958">
        <ele>127</ele>
        <time>2024-04-04T17:05:36Z</time>
      </trkpt>
      <trkpt lat="43.66606" lon="1.38961">
        <ele>127</ele>
        <time>2024-04-04T17:05:37Z</time>
      </trkpt>
      <trkpt lat="43.66606" lon="1.38964">
        <ele>127</ele>
        <time>2024-04-04T17:05:38Z</time>
      </trkpt>
      <trkpt lat="43.66606" lon="1.38967">
        <ele>127</ele>
        <time>2024-04-04T17:05:39Z</time>
      </trkpt>
      <trkpt lat="43.66606" lon="1.3897">
        <ele>127</ele>
        <time>2024-04-04T17:05:40Z</time>
      </trkpt>
      <trkpt lat="43.66606" lon="1.38973">
        <ele>127</ele>
        <time>2024-04-04T17:05:41Z</time>
      </trkpt>
      <trkpt lat="43.66606" lon="1.38976">
        <ele>127</ele>
        <time>2024-04-04T17:05:42Z</time>
      </trkpt>
      <trkpt lat="43.66606" lon="1.3898">
        <ele>127</ele>
        <time>2024-04-04T17:05:43Z</time>
      </trkpt>
      <trkpt lat="43.66606" lon="1.38984">
        <ele>127</ele>
        <time>2024-04-04T17:05:44Z</time>
      </trkpt>
      <trkpt lat="43.66606" lon="1.38988">
        <ele>127</ele>
        <time>2024-04-04T17:05:45Z</time>
      </trkpt>
      <trkpt lat="43.66605" lon="1.38992">
        <ele>127</ele>
        <time>2024-04-04T17:05:46Z</time>
      </trkpt>
      <trkpt lat="43.66604" lon="1.38996">
        <ele>127</ele>
        <time>2024-04-04T17:05:47Z</time>
      </trkpt>
      <trkpt lat="43.66604" lon="1.38996">
        <ele>127</ele>
        <time>2024-04-04T17:05:48Z</time>
      </trkpt>
      <trkpt lat="43.66602" lon="1.39003">
        <ele>127</ele>
        <time>2024-04-04T17:05:49Z</time>
      </trkpt>
      <trkpt lat="43.66602" lon="1.39006">
        <ele>127</ele>
        <time>2024-04-04T17:05:50Z</time>
      </trkpt>
      <trkpt lat="43.66602" lon="1.3901">
        <ele>127</ele>
        <time>2024-04-04T17:05:51Z</time>
      </trkpt>
      <trkpt lat="43.66601" lon="1.39013">
        <ele>127</ele>
        <time>2024-04-04T17:05:52Z</time>
      </trkpt>
      <trkpt lat="43.66601" lon="1.39017">
        <ele>127</ele>
        <time>2024-04-04T17:05:53Z</time>
      </trkpt>
      <trkpt lat="43.666" lon="1.3902">
        <ele>127</ele>
        <time>2024-04-04T17:05:54Z</time>
      </trkpt>
      <trkpt lat="43.666" lon="1.39024">
        <ele>127</ele>
        <time>2024-04-04T17:05:55Z</time>
      </trkpt>
      <trkpt lat="43.666" lon="1.39028">
        <ele>127</ele>
        <time>2024-04-04T17:05:56Z</time>
      </trkpt>
      <trkpt lat="43.66599" lon="1.39032">
        <ele>127</ele>
        <time>2024-04-04T17:05:57Z</time>
      </trkpt>
      <trkpt lat="43.66598" lon="1.39035">
        <ele>127</ele>
        <time>2024-04-04T17:05:58Z</time>
      </trkpt>
      <trkpt lat="43.66598" lon="1.39039">
        <ele>127</ele>
        <time>2024-04-04T17:05:59Z</time>
      </trkpt>
      <trkpt lat="43.66597" lon="1.39042">
        <ele>127</ele>
        <time>2024-04-04T17:06:00Z</time>
      </trkpt>
      <trkpt lat="43.66597" lon="1.39046">
        <ele>127</ele>
        <time>2024-04-04T17:06:01Z</time>
      </trkpt>
      <trkpt lat="43.66596" lon="1.3905">
        <ele>127</ele>
        <time>2024-04-04T17:06:02Z</time>
      </trkpt>
      <trkpt lat="43.66595" lon="1.39053">
        <ele>127</ele>
        <time>2024-04-04T17:06:03Z</time>
      </trkpt>
      <trkpt lat="43.66594" lon="1.39057">
        <ele>127</ele>
        <time>2024-04-04T17:06:04Z</time>
      </trkpt>
      <trkpt lat="43.66593" lon="1.3906">
        <ele>128</ele>
        <time>2024-04-04T17:06:05Z</time>
      </trkpt>
      <trkpt lat="43.66592" lon="1.39063">
        <ele>128</ele>
        <time>2024-04-04T17:06:06Z</time>
      </trkpt>
      <trkpt lat="43.66591" lon="1.39066">
        <ele>128</ele>
        <time>2024-04-04T17:06:07Z</time>
      </trkpt>
      <trkpt lat="43.66589" lon="1.39069">
        <ele>128</ele>
        <time>2024-04-04T17:06:08Z</time>
      </trkpt>
      <trkpt lat="43.66588" lon="1.39072">
        <ele>128</ele>
        <time>2024-04-04T17:06:09Z</time>
      </trkpt>
      <trkpt lat="43.66588" lon="1.39075">
        <ele>128</ele>
        <time>2024-04-04T17:06:10Z</time>
      </trkpt>
      <trkpt lat="43.66587" lon="1.39078">
        <ele>128</ele>
        <time>2024-04-04T17:06:11Z</time>
      </trkpt>
      <trkpt lat="43.66586" lon="1.39081">
        <ele>128</ele>
        <time>2024-04-04T17:06:12Z</time>
      </trkpt>
      <trkpt lat="43.66585" lon="1.39085">
        <ele>128</ele>
        <time>2024-04-04T17:06:13Z</time>
      </trkpt>
      <trkpt lat="43.66585" lon="1.39088">
        <ele>128</ele>
        <time>2024-04-04T17:06:14Z</time>
      </trkpt>
      <trkpt lat="43.66585" lon="1.39092">
        <ele>128</ele>
        <time>2024-04-04T17:06:15Z</time>
      </trkpt>
      <trkpt lat="43.66584" lon="1.39095">
        <ele>128</ele>
        <time>2024-04-04T17:06:16Z</time>
      </trkpt>
      <trkpt lat="43.66583" lon="1.39099">
        <ele>128</ele>
        <time>2024-04-04T17:06:17Z</time>
      </trkpt>
      <trkpt lat="43.66583" lon="1.39102">
        <ele>128</ele>
        <time>2024-04-04T17:06:18Z</time>
      </trkpt>
      <trkpt lat="43.66582" lon="1.39105">
        <ele>128</ele>
        <time>2024-04-04T17:06:19Z</time>
      </trkpt>
      <trkpt lat="43.66582" lon="1.39107">
        <ele>128</ele>
        <time>2024-04-04T17:06:20Z</time>
      </trkpt>
      <trkpt lat="43.66581" lon="1.3911">
        <ele>128</ele>
        <time>2024-04-04T17:06:21Z</time>
      </trkpt>
      <trkpt lat="43.66581" lon="1.39113">
        <ele>128</ele>
        <time>2024-04-04T17:06:22Z</time>
      </trkpt>
      <trkpt lat="43.6658" lon="1.39116">
        <ele>128</ele>
        <time>2024-04-04T17:06:23Z</time>
      </trkpt>
      <trkpt lat="43.6658" lon="1.3912">
        <ele>128</ele>
        <time>2024-04-04T17:06:24Z</time>
      </trkpt>
      <trkpt lat="43.66579" lon="1.39123">
        <ele>128</ele>
        <time>2024-04-04T17:06:25Z</time>
      </trkpt>
      <trkpt lat="43.66579" lon="1.39126">
        <ele>128</ele>
        <time>2024-04-04T17:06:26Z</time>
      </trkpt>
      <trkpt lat="43.66578" lon="1.3913">
        <ele>128</ele>
        <time>2024-04-04T17:06:27Z</time>
      </trkpt>
      <trkpt lat="43.66578" lon="1.39133">
        <ele>128</ele>
        <time>2024-04-04T17:06:28Z</time>
      </trkpt>
      <trkpt lat="43.66577" lon="1.39136">
        <ele>128</ele>
        <time>2024-04-04T17:06:29Z</time>
      </trkpt>
      <trkpt lat="43.66577" lon="1.3914">
        <ele>127</ele>
        <time>2024-04-04T17:06:30Z</time>
      </trkpt>
      <trkpt lat="43.66577" lon="1.39143">
        <ele>128</ele>
        <time>2024-04-04T17:06:31Z</time>
      </trkpt>
      <trkpt lat="43.66576" lon="1.39147">
        <ele>128</ele>
        <time>2024-04-04T17:06:32Z</time>
      </trkpt>
      <trkpt lat="43.66576" lon="1.3915">
        <ele>128</ele>
        <time>2024-04-04T17:06:33Z</time>
      </trkpt>
      <trkpt lat="43.66575" lon="1.39153">
        <ele>128</ele>
        <time>2024-04-04T17:06:34Z</time>
      </trkpt>
      <trkpt lat="43.66575" lon="1.39156">
        <ele>128</ele>
        <time>2024-04-04T17:06:35Z</time>
      </trkpt>
      <trkpt lat="43.66574" lon="1.3916">
        <ele>128</ele>
        <time>2024-04-04T17:06:36Z</time>
      </trkpt>
      <trkpt lat="43.66574" lon="1.39164">
        <ele>128</ele>
        <time>2024-04-04T17:06:37Z</time>
      </trkpt>
      <trkpt lat="43.66573" lon="1.39167">
        <ele>128</ele>
        <time>2024-04-04T17:06:38Z</time>
      </trkpt>
      <trkpt lat="43.66573" lon="1.3917">
        <ele>128</ele>
        <time>2024-04-04T17:06:39Z</time>
      </trkpt>
      <trkpt lat="43.66572" lon="1.39174">
        <ele>128</ele>
        <time>2024-04-04T17:06:40Z</time>
      </trkpt>
      <trkpt lat="43.66572" lon="1.39177">
        <ele>128</ele>
        <time>2024-04-04T17:06:41Z</time>
      </trkpt>
      <trkpt lat="43.66571" lon="1.3918">
        <ele>128</ele>
        <time>2024-04-04T17:06:42Z</time>
      </trkpt>
      <trkpt lat="43.66571" lon="1.39183">
        <ele>129</ele>
        <time>2024-04-04T17:06:43Z</time>
      </trkpt>
      <trkpt lat="43.6657" lon="1.39186">
        <ele>129</ele>
        <time>2024-04-04T17:06:44Z</time>
      </trkpt>
      <trkpt lat="43.6657" lon="1.3919">
        <ele>129</ele>
        <time>2024-04-04T17:06:45Z</time>
      </trkpt>
      <trkpt lat="43.6657" lon="1.39193">
        <ele>129</ele>
        <time>2024-04-04T17:06:46Z</time>
      </trkpt>
      <trkpt lat="43.6657" lon="1.39197">
        <ele>129</ele>
        <time>2024-04-04T17:06:47Z</time>
      </trkpt>
      <trkpt lat="43.6657" lon="1.392">
        <ele>128</ele>
        <time>2024-04-04T17:06:48Z</time>
      </trkpt>
      <trkpt lat="43.66569" lon="1.39203">
        <ele>128</ele>
        <time>2024-04-04T17:06:49Z</time>
      </trkpt>
      <trkpt lat="43.66568" lon="1.39206">
        <ele>128</ele>
        <time>2024-04-04T17:06:50Z</time>
      </trkpt>
      <trkpt lat="43.66567" lon="1.39207">
        <ele>128</ele>
        <time>2024-04-04T17:06:51Z</time>
      </trkpt>
      <trkpt lat="43.66567" lon="1.39207">
        <ele>128</ele>
        <time>2024-04-04T17:06:52Z</time>
      </trkpt>
      <trkpt lat="43.66586" lon="1.39064">
        <ele>125</ele>
        <time>2024-04-04T17:15:44Z</time>
      </trkpt>
      <trkpt lat="43.66587" lon="1.39061">
        <ele>125</ele>
        <time>2024-04-04T17:15:45Z</time>
      </trkpt>
      <trkpt lat="43.66589" lon="1.39056">
        <ele>125</ele>
        <time>2024-04-04T17:15:46Z</time>
      </trkpt>
      <trkpt lat="43.6659" lon="1.39051">
        <ele>125</ele>
        <time>2024-04-04T17:15:47Z</time>
      </trkpt>
      <trkpt lat="43.6659" lon="1.39051">
        <ele>125</ele>
        <time>2024-04-04T17:15:48Z</time>
      </trkpt>
      <trkpt lat="43.66592" lon="1.39041">
        <ele>125</ele>
        <time>2024-04-04T17:15:49Z</time>
      </trkpt>
      <trkpt lat="43.66594" lon="1.39036">
        <ele>125</ele>
        <time>2024-04-04T17:15:50Z</time>
      </trkpt>
      <trkpt lat="43.66594" lon="1.39036">
        <ele>125</ele>
        <time>2024-04-04T17:15:51Z</time>
      </trkpt>
      <trkpt lat="43.66595" lon="1.3903">
        <ele>125</ele>
        <time>2024-04-04T17:15:52Z</time>
      </trkpt>
      <trkpt lat="43.66597" lon="1.39025">
        <ele>125</ele>
        <time>2024-04-04T17:15:53Z</time>
      </trkpt>
      <trkpt lat="43.66598" lon="1.3902">
        <ele>125</ele>
        <time>2024-04-04T17:15:54Z</time>
      </trkpt>
      <trkpt lat="43.66599" lon="1.39014">
        <ele>125</ele>
        <time>2024-04-04T17:15:55Z</time>
      </trkpt>
      <trkpt lat="43.66599" lon="1.39009">
        <ele>125</ele>
        <time>2024-04-04T17:15:56Z</time>
      </trkpt>
      <trkpt lat="43.666" lon="1.39004">
        <ele>125</ele>
        <time>2024-04-04T17:15:57Z</time>
      </trkpt>
      <trkpt lat="43.66601" lon="1.38999">
        <ele>125</ele>
        <time>2024-04-04T17:15:58Z</time>
      </trkpt>
      <trkpt lat="43.66601" lon="1.38992">
        <ele>125</ele>
        <time>2024-04-04T17:15:59Z</time>
      </trkpt>
      <trkpt lat="43.66602" lon="1.38985">
        <ele>125</ele>
        <time>2024-04-04T17:16:00Z</time>
      </trkpt>
      <trkpt lat="43.66602" lon="1.38977">
        <ele>125</ele>
        <time>2024-04-04T17:16:01Z</time>
      </trkpt>
      <trkpt lat="43.66601" lon="1.38969">
        <ele>125</ele>
        <time>2024-04-04T17:16:02Z</time>
      </trkpt>
      <trkpt lat="43.66601" lon="1.38966">
        <ele>125</ele>
        <time>2024-04-04T17:16:03Z</time>
      </trkpt>
      <trkpt lat="43.666" lon="1.3896">
        <ele>125</ele>
        <time>2024-04-04T17:16:04Z</time>
      </trkpt>
      <trkpt lat="43.666" lon="1.38954">
        <ele>125</ele>
        <time>2024-04-04T17:16:05Z</time>
      </trkpt>
      <trkpt lat="43.66601" lon="1.38949">
        <ele>125</ele>
        <time>2024-04-04T17:16:06Z</time>
      </trkpt>
      <trkpt lat="43.66601" lon="1.38949">
        <ele>125</ele>
        <time>2024-04-04T17:16:07Z</time>
      </trkpt>
      <trkpt lat="43.66601" lon="1.38945">
        <ele>125</ele>
        <time>2024-04-04T17:16:08Z</time>
      </trkpt>
      <trkpt lat="43.66601" lon="1.38942">
        <ele>125</ele>
        <time>2024-04-04T17:16:09Z</time>
      </trkpt>
      <trkpt lat="43.66602" lon="1.38939">
        <ele>125</ele>
        <time>2024-04-04T17:16:10Z</time>
      </trkpt>
      <trkpt lat="43.66602" lon="1.38935">
        <ele>125</ele>
        <time>2024-04-04T17:16:11Z</time>
      </trkpt>
      <trkpt lat="43.66603" lon="1.38931">
        <ele>125</ele>
        <time>2024-04-04T17:16:12Z</time>
      </trkpt>
      <trkpt lat="43.66603" lon="1.38928">
        <ele>125</ele>
        <time>2024-04-04T17:16:13Z</time>
      </trkpt>
      <trkpt lat="43.66604" lon="1.38924">
        <ele>125</ele>
        <time>2024-04-04T17:16:14Z</time>
      </trkpt>
      <trkpt lat="43.66604" lon="1.3892">
        <ele>125</ele>
        <time>2024-04-04T17:16:15Z</time>
      </trkpt>
      <trkpt lat="43.66605" lon="1.38915">
        <ele>125</ele>
        <time>2024-04-04T17:16:16Z</time>
      </trkpt>
      <trkpt lat="43.66607" lon="1.38911">
        <ele>125</ele>
        <time>2024-04-04T17:16:17Z</time>
      </trkpt>
      <trkpt lat="43.66608" lon="1.38906">
        <ele>125</ele>
        <time>2024-04-04T17:16:18Z</time>
      </trkpt>
      <trkpt lat="43.66608" lon="1.389">
        <ele>125</ele>
        <time>2024-04-04T17:16:19Z</time>
      </trkpt>
      <trkpt lat="43.66609" lon="1.38894">
        <ele>125</ele>
        <time>2024-04-04T17:16:20Z</time>
      </trkpt>
      <trkpt lat="43.6661" lon="1.38888">
        <ele>125</ele>
        <time>2024-04-04T17:16:21Z</time>
      </trkpt>
      <trkpt lat="43.6661" lon="1.38883">
        <ele>125</ele>
        <time>2024-04-04T17:16:22Z</time>
      </trkpt>
      <trkpt lat="43.6661" lon="1.38878">
        <ele>125</ele>
        <time>2024-04-04T17:16:23Z</time>
      </trkpt>
      <trkpt lat="43.6661" lon="1.38873">
        <ele>125</ele>
        <time>2024-04-04T17:16:24Z</time>
      </trkpt>
      <trkpt lat="43.66611" lon="1.38858">
        <ele>125</ele>
        <time>2024-04-04T17:16:25Z</time>
      </trkpt>
      <trkpt lat="43.66611" lon="1.38858">
        <ele>125</ele>
        <time>2024-04-04T17:16:26Z</time>
      </trkpt>
      <trkpt lat="43.6661" lon="1.38855">
        <ele>125</ele>
        <time>2024-04-04T17:16:27Z</time>
      </trkpt>
      <trkpt lat="43.6661" lon="1.38852">
        <ele>125</ele>
        <time>2024-04-04T17:16:28Z</time>
      </trkpt>
      <trkpt lat="43.66609" lon="1.38848">
        <ele>125</ele>
        <time>2024-04-04T17:16:29Z</time>
      </trkpt>
      <trkpt lat="43.66608" lon="1.38839">
        <ele>125</ele>
        <time>2024-04-04T17:16:30Z</time>
      </trkpt>
      <trkpt lat="43.66608" lon="1.38836">
        <ele>125</ele>
        <time>2024-04-04T17:16:31Z</time>
      </trkpt>
      <trkpt lat="43.66608" lon="1.38833">
        <ele>125</ele>
        <time>2024-04-04T17:16:32Z</time>
      </trkpt>
      <trkpt lat="43.66608" lon="1.3883">
        <ele>125</ele>
        <time>2024-04-04T17:16:33Z</time>
      </trkpt>
      <trkpt lat="43.66608" lon="1.38827">
        <ele>125</ele>
        <time>2024-04-04T17:16:34Z</time>
      </trkpt>
      <trkpt lat="43.66608" lon="1.38824">
        <ele>125</ele>
        <time>2024-04-04T17:16:35Z</time>
      </trkpt>
      <trkpt lat="43.66608" lon="1.38824">
        <ele>125</ele>
        <time>2024-04-04T17:16:36Z</time>
      </trkpt>
      <trkpt lat="43.66608" lon="1.38824">
        <ele>125</ele>
        <time>2024-04-04T17:16:37Z</time>
      </trkpt>
      <trkpt lat="43.66608" lon="1.38824">
        <ele>125</ele>
        <time>2024-04-04T17:16:38Z</time>
      </trkpt>
      <trkpt lat="43.66608" lon="1.38824">
        <ele>125</ele>
        <time>2024-04-04T17:16:39Z</time>
      </trkpt>
      <trkpt lat="43.66608" lon="1.38824">
        <ele>125</ele>
        <time>2024-04-04T17:16:40Z</time>
      </trkpt>
      <trkpt lat="43.66609" lon="1.38822">
        <ele>125</ele>
        <time>2024-04-04T17:16:41Z</time>
      </trkpt>
      <trkpt lat="43.66609" lon="1.38822">
        <ele>125</ele>
        <time>2024-04-04T17:16:42Z</time>
      </trkpt>
      <trkpt lat="43.66609" lon="1.38822">
        <ele>125</ele>
        <time>2024-04-04T17:16:43Z</time>
      </trkpt>
      <trkpt lat="43.66609" lon="1.38822">
        <ele>125</ele>
        <time>2024-04-04T17:16:44Z</time>
      </trkpt>
      <trkpt lat="43.66609" lon="1.38822">
        <ele>125</ele>
        <time>2024-04-04T17:16:45Z</time>
      </trkpt>
      <trkpt lat="43.66609" lon="1.38822">
        <ele>125</ele>
        <time>2024-04-04T17:16:46Z</time>
      </trkpt>
      <trkpt lat="43.66609" lon="1.38822">
        <ele>125</ele>
        <time>2024-04-04T17:16:47Z</time>
      </trkpt>
      <trkpt lat="43.66609" lon="1.38822">
        <ele>125</ele>
        <time>2024-04-04T17:16:48Z</time>
      </trkpt>
      <trkpt lat="43.66609" lon="1.38822">
        <ele>125</ele>
        <time>2024-04-04T17:16:49Z</time>
      </trkpt>
      <trkpt lat="43.66609" lon="1.38822">
        <ele>125</ele>
        <time>2024-04-04T17:16:50Z</time>
      </trkpt>
      <trkpt lat="43.66609" lon="1.38822">
        <ele>125</ele>
        <time>2024-04-04T17:16:51Z</time>
      </trkpt>
      <trkpt lat="43.66609" lon="1.38822">
        <ele>125</ele>
        <time>2024-04-04T17:16:52Z</time>
      </trkpt>
      <trkpt lat="43.66609" lon="1.38822">
        <ele>125</ele>
        <time>2024-04-04T17:16:53Z</time>
      </trkpt>
      <trkpt lat="43.66609" lon="1.38822">
        <ele>125</ele>
        <time>2024-04-04T17:16:54Z</time>
      </trkpt>
      <trkpt lat="43.66609" lon="1.38822">
        <ele>125</ele>
        <time>2024-04-04T17:16:55Z</time>
      </trkpt>
      <trkpt lat="43.66609" lon="1.38822">
        <ele>125</ele>
        <time>2024-04-04T17:16:56Z</time>
      </trkpt>
      <trkpt lat="43.66611" lon="1.38824">
        <ele>125</ele>
        <time>2024-04-04T17:16:57Z</time>
      </trkpt>
      <trkpt lat="43.66611" lon="1.38824">
        <ele>125</ele>
        <time>2024-04-04T17:16:58Z</time>
      </trkpt>
      <trkpt lat="43.66611" lon="1.38824">
        <ele>125</ele>
        <time>2024-04-04T17:16:59Z</time>
      </trkpt>
      <trkpt lat="43.66611" lon="1.38824">
        <ele>125</ele>
        <time>2024-04-04T17:17:00Z</time>
      </trkpt>
      <trkpt lat="43.66611" lon="1.38824">
        <ele>125</ele>
        <time>2024-04-04T17:17:01Z</time>
      </trkpt>
      <trkpt lat="43.66611" lon="1.38824">
        <ele>125</ele>
        <time>2024-04-04T17:17:02Z</time>
      </trkpt>
      <trkpt lat="43.66611" lon="1.38824">
        <ele>125</ele>
        <time>2024-04-04T17:17:03Z</time>
      </trkpt>
      <trkpt lat="43.66611" lon="1.38824">
        <ele>125</ele>
        <time>2024-04-04T17:17:04Z</time>
      </trkpt>
      <trkpt lat="43.66611" lon="1.38824">
        <ele>125</ele>
        <time>2024-04-04T17:17:05Z</time>
      </trkpt>
      <trkpt lat="43.66611" lon="1.38824">
        <ele>125</ele>
        <time>2024-04-04T17:17:06Z</time>
      </trkpt>
      <trkpt lat="43.66609" lon="1.38824">
        <ele>125</ele>
        <time>2024-04-04T17:17:07Z</time>
      </trkpt>
      <trkpt lat="43.66609" lon="1.38824">
        <ele>125</ele>
        <time>2024-04-04T17:17:08Z</time>
      </trkpt>
      <trkpt lat="43.66609" lon="1.38824">
        <ele>125</ele>
        <time>2024-04-04T17:17:09Z</time>
      </trkpt>
      <trkpt lat="43.66609" lon="1.38824">
        <ele>125</ele>
        <time>2024-04-04T17:17:10Z</time>
      </trkpt>
      <trkpt lat="43.66609" lon="1.38824">
        <ele>125</ele>
        <time>2024-04-04T17:17:11Z</time>
      </trkpt>
      <trkpt lat="43.66609" lon="1.38824">
        <ele>125</ele>
        <time>2024-04-04T17:17:12Z</time>
      </trkpt>
      <trkpt lat="43.66609" lon="1.38824">
        <ele>125</ele>
        <time>2024-04-04T17:17:13Z</time>
      </trkpt>
      <trkpt lat="43.66609" lon="1.38825">
        <ele>125</ele>
        <time>2024-04-04T17:17:14Z</time>
      </trkpt>
      <trkpt lat="43.66609" lon="1.38825">
        <ele>125</ele>
        <time>2024-04-04T17:17:15Z</time>
      </trkpt>
      <trkpt lat="43.66609" lon="1.38825">
        <ele>125</ele>
        <time>2024-04-04T17:17:16Z</time>
      </trkpt>
      <trkpt lat="43.66609" lon="1.38825">
        <ele>125</ele>
        <time>2024-04-04T17:17:17Z</time>
      </trkpt>
      <trkpt lat="43.66609" lon="1.38825">
        <ele>125</ele>
        <time>2024-04-04T17:17:18Z</time>
      </trkpt>
      <trkpt lat="43.66609" lon="1.38825">
        <ele>125</ele>
        <time>2024-04-04T17:17:19Z</time>
      </trkpt>
      <trkpt lat="43.66609" lon="1.38826">
        <ele>125</ele>
        <time>2024-04-04T17:17:20Z</time>
      </trkpt>
      <trkpt lat="43.66609" lon="1.38826">
        <ele>125</ele>
        <time>2024-04-04T17:17:21Z</time>
      </trkpt>
      <trkpt lat="43.66609" lon="1.38826">
        <ele>125</ele>
        <time>2024-04-04T17:17:22Z</time>
      </trkpt>
      <trkpt lat="43.6661" lon="1.38826">
        <ele>125</ele>
        <time>2024-04-04T17:17:23Z</time>
      </trkpt>
      <trkpt lat="43.6661" lon="1.38826">
        <ele>125</ele>
        <time>2024-04-04T17:17:24Z</time>
      </trkpt>
      <trkpt lat="43.6661" lon="1.38826">
        <ele>125</ele>
        <time>2024-04-04T17:17:25Z</time>
      </trkpt>
      <trkpt lat="43.6661" lon="1.38827">
        <ele>125</ele>
        <time>2024-04-04T17:17:26Z</time>
      </trkpt>
      <trkpt lat="43.6661" lon="1.38827">
        <ele>125</ele>
        <time>2024-04-04T17:17:27Z</time>
      </trkpt>
      <trkpt lat="43.6661" lon="1.38827">
        <ele>125</ele>
        <time>2024-04-04T17:17:28Z</time>
      </trkpt>
      <trkpt lat="43.6661" lon="1.38827">
        <ele>125</ele>
        <time>2024-04-04T17:17:29Z</time>
      </trkpt>
      <trkpt lat="43.6661" lon="1.38827">
        <ele>125</ele>
        <time>2024-04-04T17:17:30Z</time>
      </trkpt>
      <trkpt lat="43.6661" lon="1.38827">
        <ele>125</ele>
        <time>2024-04-04T17:17:31Z</time>
      </trkpt>
      <trkpt lat="43.6661" lon="1.38828">
        <ele>125</ele>
        <time>2024-04-04T17:17:32Z</time>
      </trkpt>
      <trkpt lat="43.6661" lon="1.38828">
        <ele>125</ele>
        <time>2024-04-04T17:17:33Z</time>
      </trkpt>
      <trkpt lat="43.6661" lon="1.38828">
        <ele>125</ele>
        <time>2024-04-04T17:17:34Z</time>
      </trkpt>
      <trkpt lat="43.6661" lon="1.38828">
        <ele>125</ele>
        <time>2024-04-04T17:17:35Z</time>
      </trkpt>
      <trkpt lat="43.6661" lon="1.38828">
        <ele>125</ele>
        <time>2024-04-04T17:17:36Z</time>
      </trkpt>
      <trkpt lat="43.6661" lon="1.38828">
        <ele>125</ele>
        <time>2024-04-04T17:17:37Z</time>
      </trkpt>
      <trkpt lat="43.6661" lon="1.38829">
        <ele>125</ele>
        <time>2024-04-04T17:17:38Z</time>
      </trkpt>
      <trkpt lat="43.66611" lon="1.38838">
        <ele>125</ele>
        <time>2024-04-04T17:17:39Z</time>
      </trkpt>
      <trkpt lat="43.66611" lon="1.38845">
        <ele>125</ele>
        <time>2024-04-04T17:17:40Z</time>
      </trkpt>
      <trkpt lat="43.66611" lon="1.38851">
        <ele>125</ele>
        <time>2024-04-04T17:17:41Z</time>
      </trkpt>
      <trkpt lat="43.66611" lon="1.38851">
        <ele>125</ele>
        <time>2024-04-04T17:17:42Z</time>
      </trkpt>
      <trkpt lat="43.6661" lon="1.38865">
        <ele>125</ele>
        <time>2024-04-04T17:17:43Z</time>
      </trkpt>
      <trkpt lat="43.66609" lon="1.38871">
        <ele>125</ele>
        <time>2024-04-04T17:17:44Z</time>
      </trkpt>
      <trkpt lat="43.66609" lon="1.38877">
        <ele>125</ele>
        <time>2024-04-04T17:17:45Z</time>
      </trkpt>
      <trkpt lat="43.66609" lon="1.38877">
        <ele>126</ele>
        <time>2024-04-04T17:17:46Z</time>
      </trkpt>
      <trkpt lat="43.66608" lon="1.38889">
        <ele>126</ele>
        <time>2024-04-04T17:17:47Z</time>
      </trkpt>
      <trkpt lat="43.66608" lon="1.38889">
        <ele>125</ele>
        <time>2024-04-04T17:17:48Z</time>
      </trkpt>
      <trkpt lat="43.66607" lon="1.38902">
        <ele>125</ele>
        <time>2024-04-04T17:17:49Z</time>
      </trkpt>
      <trkpt lat="43.66607" lon="1.38902">
        <ele>125</ele>
        <time>2024-04-04T17:17:50Z</time>
      </trkpt>
      <trkpt lat="43.66607" lon="1.38908">
        <ele>126</ele>
        <time>2024-04-04T17:17:51Z</time>
      </trkpt>
      <trkpt lat="43.66608" lon="1.38914">
        <ele>126</ele>
        <time>2024-04-04T17:17:52Z</time>
      </trkpt>
      <trkpt lat="43.66608" lon="1.3892">
        <ele>125</ele>
        <time>2024-04-04T17:17:53Z</time>
      </trkpt>
      <trkpt lat="43.66608" lon="1.38925">
        <ele>125</ele>
        <time>2024-04-04T17:17:54Z</time>
      </trkpt>
      <trkpt lat="43.66608" lon="1.38931">
        <ele>125</ele>
        <time>2024-04-04T17:17:55Z</time>
      </trkpt>
      <trkpt lat="43.66607" lon="1.38936">
        <ele>125</ele>
        <time>2024-04-04T17:17:56Z</time>
      </trkpt>
      <trkpt lat="43.66607" lon="1.38939">
        <ele>125</ele>
        <time>2024-04-04T17:17:57Z</time>
      </trkpt>
      <trkpt lat="43.66607" lon="1.38941">
        <ele>125</ele>
        <time>2024-04-04T17:17:58Z</time>
      </trkpt>
      <trkpt lat="43.66607" lon="1.38944">
        <ele>125</ele>
        <time>2024-04-04T17:17:59Z</time>
      </trkpt>
      <trkpt lat="43.66606" lon="1.38955">
        <ele>125</ele>
        <time>2024-04-04T17:18:00Z</time>
      </trkpt>
      <trkpt lat="43.66606" lon="1.38958">
        <ele>126</ele>
        <time>2024-04-04T17:18:01Z</time>
      </trkpt>
      <trkpt lat="43.66605" lon="1.38961">
        <ele>126</ele>
        <time>2024-04-04T17:18:02Z</time>
      </trkpt>
      <trkpt lat="43.66604" lon="1.38976">
        <ele>125</ele>
        <time>2024-04-04T17:18:03Z</time>
      </trkpt>
      <trkpt lat="43.66604" lon="1.38982">
        <ele>125</ele>
        <time>2024-04-04T17:18:04Z</time>
      </trkpt>
      <trkpt lat="43.66603" lon="1.38989">
        <ele>125</ele>
        <time>2024-04-04T17:18:05Z</time>
      </trkpt>
      <trkpt lat="43.66602" lon="1.38996">
        <ele>125</ele>
        <time>2024-04-04T17:18:06Z</time>
      </trkpt>
      <trkpt lat="43.666" lon="1.39011">
        <ele>125</ele>
        <time>2024-04-04T17:18:07Z</time>
      </trkpt>
      <trkpt lat="43.66599" lon="1.39014">
        <ele>125</ele>
        <time>2024-04-04T17:18:08Z</time>
      </trkpt>
      <trkpt lat="43.66598" lon="1.39019">
        <ele>125</ele>
        <time>2024-04-04T17:18:09Z</time>
      </trkpt>
      <trkpt lat="43.66598" lon="1.39019">
        <ele>125</ele>
        <time>2024-04-04T17:18:10Z</time>
      </trkpt>
      <trkpt lat="43.66596" lon="1.3903">
        <ele>125</ele>
        <time>2024-04-04T17:18:11Z</time>
      </trkpt>
      <trkpt lat="43.66596" lon="1.3903">
        <ele>125</ele>
        <time>2024-04-04T17:18:12Z</time>
      </trkpt>
      <trkpt lat="43.66595" lon="1.39036">
        <ele>125</ele>
        <time>2024-04-04T17:18:13Z</time>
      </trkpt>
      <trkpt lat="43.66594" lon="1.39042">
        <ele>125</ele>
        <time>2024-04-04T17:18:14Z</time>
      </trkpt>
      <trkpt lat="43.66593" lon="1.39048">
        <ele>125</ele>
        <time>2024-04-04T17:18:15Z</time>
      </trkpt>
      <trkpt lat="43.66592" lon="1.39054">
        <ele>125</ele>
        <time>2024-04-04T17:18:16Z</time>
      </trkpt>
      <trkpt lat="43.66591" lon="1.3906">
        <ele>125</ele>
        <time>2024-04-04T17:18:17Z</time>
      </trkpt>
      <trkpt lat="43.6659" lon="1.39066">
        <ele>125</ele>
        <time>2024-04-04T17:18:18Z</time>
      </trkpt>
      <trkpt lat="43.66588" lon="1.39071">
        <ele>125</ele>
        <time>2024-04-04T17:18:19Z</time>
      </trkpt>
      <trkpt lat="43.66587" lon="1.39077">
        <ele>125</ele>
        <time>2024-04-04T17:18:20Z</time>
      </trkpt>
      <trkpt lat="43.66586" lon="1.39083">
        <ele>126</ele>
        <time>2024-04-04T17:18:21Z</time>
      </trkpt>
      <trkpt lat="43.66585" lon="1.39089">
        <ele>126</ele>
        <time>2024-04-04T17:18:22Z</time>
      </trkpt>
      <trkpt lat="43.66584" lon="1.39095">
        <ele>126</ele>
        <time>2024-04-04T17:18:23Z</time>
      </trkpt>
      <trkpt lat="43.66583" lon="1.39101">
        <ele>126</ele>
        <time>2024-04-04T17:18:24Z</time>
      </trkpt>
      <trkpt lat="43.66582" lon="1.39106">
        <ele>125</ele>
        <time>2024-04-04T17:18:25Z</time>
      </trkpt>
      <trkpt lat="43.66581" lon="1.39112">
        <ele>126</ele>
        <time>2024-04-04T17:18:26Z</time>
      </trkpt>
      <trkpt lat="43.6658" lon="1.39118">
        <ele>126</ele>
        <time>2024-04-04T17:18:27Z</time>
      </trkpt>
      <trkpt lat="43.66579" lon="1.39123">
        <ele>125</ele>
        <time>2024-04-04T17:18:28Z</time>
      </trkpt>
      <trkpt lat="43.66578" lon="1.3913">
        <ele>125</ele>
        <time>2024-04-04T17:18:29Z</time>
      </trkpt>
      <trkpt lat="43.66577" lon="1.39137">
        <ele>125</ele>
        <time>2024-04-04T17:18:30Z</time>
      </trkpt>
      <trkpt lat="43.66576" lon="1.39144">
        <ele>125</ele>
        <time>2024-04-04T17:18:31Z</time>
      </trkpt>
      <trkpt lat="43.66575" lon="1.39146">
        <ele>125</ele>
        <time>2024-04-04T17:18:32Z</time>
      </trkpt>
      <trkpt lat="43.66575" lon="1.39149">
        <ele>126</ele>
        <time>2024-04-04T17:18:33Z</time>
      </trkpt>
      <trkpt lat="43.66574" lon="1.39152">
        <ele>126</ele>
        <time>2024-04-04T17:18:34Z</time>
      </trkpt>
      <trkpt lat="43.66574" lon="1.39155">
        <ele>126</ele>
        <time>2024-04-04T17:18:35Z</time>
      </trkpt>
      <trkpt lat="43.66571" lon="1.3917">
        <ele>126</ele>
        <time>2024-04-04T17:18:36Z</time>
      </trkpt>
      <trkpt lat="43.66571" lon="1.39175">
        <ele>126</ele>
        <time>2024-04-04T17:18:37Z</time>
      </trkpt>
      <trkpt lat="43.6657" lon="1.39181">
        <ele>125</ele>
        <time>2024-04-04T17:18:38Z</time>
      </trkpt>
      <trkpt lat="43.6657" lon="1.39186">
        <ele>125</ele>
        <time>2024-04-04T17:18:39Z</time>
      </trkpt>
      <trkpt lat="43.6657" lon="1.3919">
        <ele>125</ele>
        <time>2024-04-04T17:18:40Z</time>
      </trkpt>
      <trkpt lat="43.66569" lon="1.39195">
        <ele>125</ele>
        <time>2024-04-04T17:18:41Z</time>
      </trkpt>
      <trkpt lat="43.66569" lon="1.39198">
        <ele>125</ele>
        <time>2024-04-04T17:18:42Z</time>
      </trkpt>
      <trkpt lat="43.66569" lon="1.392">
        <ele>125</ele>
        <time>2024-04-04T17:18:43Z</time>
      </trkpt>
      <trkpt lat="43.66569" lon="1.39202">
        <ele>125</ele>
        <time>2024-04-04T17:18:44Z</time>
      </trkpt>
      <trkpt lat="43.66569" lon="1.39205">
        <ele>125</ele>
        <time>2024-04-04T17:18:45Z</time>
      </trkpt>
      <trkpt lat="43.66569" lon="1.39207">
        <ele>125</ele>
        <time>2024-04-04T17:18:46Z</time>
      </trkpt>
      <trkpt lat="43.66569" lon="1.39207">
        <ele>125</ele>
        <time>2024-04-04T17:18:47Z</time>
      </trkpt>
      <trkpt lat="43.66568" lon="1.39209">
        <ele>125</ele>
        <time>2024-04-04T17:18:48Z</time>
      </trkpt>
      <trkpt lat="43.66568" lon="1.39209">
        <ele>125</ele>
        <time>2024-04-04T17:18:49Z</time>
      </trkpt>
      <trkpt lat="43.66566" lon="1.39206">
        <ele>125</ele>
        <time>2024-04-04T17:18:50Z</time>
      </trkpt>
      <trkpt lat="43.66566" lon="1.39206">
        <ele>125</ele>
        <time>2024-04-04T17:18:51Z</time>
      </trkpt>
      <trkpt lat="43.66566" lon="1.39206">
        <ele>125</ele>
        <time>2024-04-04T17:18:52Z</time>
      </trkpt>
      <trkpt lat="43.66568" lon="1.39203">
        <ele>125</ele>
        <time>2024-04-04T17:18:53Z</time>
      </trkpt>
      <trkpt lat="43.66568" lon="1.39203">
        <ele>125</ele>
        <time>2024-04-04T17:18:54Z</time>
      </trkpt>
      <trkpt lat="43.66568" lon="1.39203">
        <ele>125</ele>
        <time>2024-04-04T17:18:55Z</time>
      </trkpt>
      <trkpt lat="43.66569" lon="1.392">
        <ele>125</ele>
        <time>2024-04-04T17:18:56Z</time>
      </trkpt>
      <trkpt lat="43.66569" lon="1.392">
        <ele>125</ele>
        <time>2024-04-04T17:18:57Z</time>
      </trkpt>
      <trkpt lat="43.66569" lon="1.392">
        <ele>125</ele>
        <time>2024-04-04T17:18:58Z</time>
      </trkpt>
      <trkpt lat="43.66569" lon="1.392">
        <ele>125</ele>
        <time>2024-04-04T17:18:59Z</time>
      </trkpt>
      <trkpt lat="43.66569" lon="1.392">
        <ele>125</ele>
        <time>2024-04-04T17:19:00Z</time>
      </trkpt>
      <trkpt lat="43.66569" lon="1.392">
        <ele>125</ele>
        <time>2024-04-04T17:19:01Z</time>
      </trkpt>
      <trkpt lat="43.66569" lon="1.392">
        <ele>126</ele>
        <time>2024-04-04T17:19:02Z</time>
      </trkpt>
      <trkpt lat="43.66569" lon="1.392">
        <ele>126</ele>
        <time>2024-04-04T17:19:03Z</time>
      </trkpt>
      <trkpt lat="43.66569" lon="1.392">
        <ele>126</ele>
        <time>2024-04-04T17:19:04Z</time>
      </trkpt>
      <trkpt lat="43.66569" lon="1.392">
        <ele>125</ele>
        <time>2024-04-04T17:19:05Z</time>
      </trkpt>
      <trkpt lat="43.66569" lon="1.392">
        <ele>125</ele>
        <time>2024-04-04T17:19:06Z</time>
      </trkpt>
      <trkpt lat="43.66569" lon="1.392">
        <ele>125</ele>
        <time>2024-04-04T17:19:07Z</time>
      </trkpt>
      <trkpt lat="43.66569" lon="1.392">
        <ele>125</ele>
        <time>2024-04-04T17:19:08Z</time>
      </trkpt>
      <trkpt lat="43.66569" lon="1.392">
        <ele>125</ele>
        <time>2024-04-04T17:19:09Z</time>
      </trkpt>
      <trkpt lat="43.66569" lon="1.392">
        <ele>125</ele>
        <time>2024-04-04T17:19:10Z</time>
      </trkpt>
      <trkpt lat="43.66569" lon="1.392">
        <ele>125</ele>
        <time>2024-04-04T17:19:11Z</time>
      </trkpt>
      <trkpt lat="43.66568" lon="1.39198">
        <ele>125</ele>
        <time>2024-04-04T17:19:12Z</time>
      </trkpt>
      <trkpt lat="43.66568" lon="1.39198">
        <ele>125</ele>
        <time>2024-04-04T17:19:13Z</time>
      </trkpt>
      <trkpt lat="43.66568" lon="1.39198">
        <ele>125</ele>
        <time>2024-04-04T17:19:14Z</time>
      </trkpt>
      <trkpt lat="43.66568" lon="1.39198">
        <ele>125</ele>
        <time>2024-04-04T17:19:15Z</time>
      </trkpt>
      <trkpt lat="43.66568" lon="1.39198">
        <ele>125</ele>
        <time>2024-04-04T17:19:16Z</time>
      </trkpt>
      <trkpt lat="43.66568" lon="1.39198">
        <ele>125</ele>
        <time>2024-04-04T17:19:17Z</time>
      </trkpt>
      <trkpt lat="43.66568" lon="1.39198">
        <ele>125</ele>
        <time>2024-04-04T17:19:18Z</time>
      </trkpt>
      <trkpt lat="43.66568" lon="1.39198">
        <ele>125</ele>
        <time>2024-04-04T17:19:19Z</time>
      </trkpt>
      <trkpt lat="43.66568" lon="1.39198">
        <ele>125</ele>
        <time>2024-04-04T17:19:20Z</time>
      </trkpt>
      <trkpt lat="43.66568" lon="1.39198">
        <ele>125</ele>
        <time>2024-04-04T17:19:21Z</time>
      </trkpt>
      <trkpt lat="43.66568" lon="1.39198">
        <ele>125</ele>
        <time>2024-04-04T17:19:22Z</time>
      </trkpt>
      <trkpt lat="43.66568" lon="1.39198">
        <ele>125</ele>
        <time>2024-04-04T17:19:23Z</time>
      </trkpt>
      <trkpt lat="43.66568" lon="1.39198">
        <ele>125</ele>
        <time>2024-04-04T17:19:24Z</time>
      </trkpt>
      <trkpt lat="43.66568" lon="1.39198">
        <ele>125</ele>
        <time>2024-04-04T17:19:25Z</time>
      </trkpt>
      <trkpt lat="43.66568" lon="1.39198">
        <ele>125</ele>
        <time>2024-04-04T17:19:26Z</time>
      </trkpt>
      <trkpt lat="43.66568" lon="1.39198">
        <ele>125</ele>
        <time>2024-04-04T17:19:27Z</time>
      </trkpt>
      <trkpt lat="43.66568" lon="1.39198">
        <ele>125</ele>
        <time>2024-04-04T17:19:28Z</time>
      </trkpt>
      <trkpt lat="43.66568" lon="1.39198">
        <ele>125</ele>
        <time>2024-04-04T17:19:29Z</time>
      </trkpt>
      <trkpt lat="43.66568" lon="1.39198">
        <ele>125</ele>
        <time>2024-04-04T17:19:30Z</time>
      </trkpt>
      <trkpt lat="43.66568" lon="1.39198">
        <ele>125</ele>
        <time>2024-04-04T17:19:31Z</time>
      </trkpt>
      <trkpt lat="43.66568" lon="1.39198">
        <ele>125</ele>
        <time>2024-04-04T17:19:32Z</time>
      </trkpt>
      <trkpt lat="43.66567" lon="1.39196">
        <ele>125</ele>
        <time>2024-04-04T17:19:33Z</time>
      </trkpt>
      <trkpt lat="43.66567" lon="1.39196">
        <ele>125</ele>
        <time>2024-04-04T17:19:34Z</time>
      </trkpt>
      <trkpt lat="43.66567" lon="1.39196">
        <ele>125</ele>
        <time>2024-04-04T17:19:35Z</time>
      </trkpt>
      <trkpt lat="43.66567" lon="1.39196">
        <ele>125</ele>
        <time>2024-04-04T17:19:36Z</time>
      </trkpt>
      <trkpt lat="43.66567" lon="1.39196">
        <ele>125</ele>
        <time>2024-04-04T17:19:37Z</time>
      </trkpt>
      <trkpt lat="43.66567" lon="1.39196">
        <ele>125</ele>
        <time>2024-04-04T17:19:38Z</time>
      </trkpt>
      <trkpt lat="43.66566" lon="1.39193">
        <ele>125</ele>
        <time>2024-04-04T17:19:39Z</time>
      </trkpt>
      <trkpt lat="43.66566" lon="1.39193">
        <ele>125</ele>
        <time>2024-04-04T17:19:40Z</time>
      </trkpt>
      <trkpt lat="43.66566" lon="1.39193">
        <ele>125</ele>
        <time>2024-04-04T17:19:41Z</time>
      </trkpt>
      <trkpt lat="43.66566" lon="1.39193">
        <ele>125</ele>
        <time>2024-04-04T17:19:42Z</time>
      </trkpt>
      <trkpt lat="43.66566" lon="1.39193">
        <ele>125</ele>
        <time>2024-04-04T17:19:43Z</time>
      </trkpt>
      <trkpt lat="43.66566" lon="1.39193">
        <ele>125</ele>
        <time>2024-04-04T17:19:44Z</time>
      </trkpt>
      <trkpt lat="43.66566" lon="1.39193">
        <ele>125</ele>
        <time>2024-04-04T17:19:45Z</time>
      </trkpt>
      <trkpt lat="43.66566" lon="1.39193">
        <ele>125</ele>
        <time>2024-04-04T17:19:46Z</time>
      </trkpt>
      <trkpt lat="43.66566" lon="1.39193">
        <ele>125</ele>
        <time>2024-04-04T17:19:47Z</time>
      </trkpt>
      <trkpt lat="43.66566" lon="1.39193">
        <ele>125</ele>
        <time>2024-04-04T17:19:48Z</time>
      </trkpt>
      <trkpt lat="43.66566" lon="1.39193">
        <ele>125</ele>
        <time>2024-04-04T17:19:49Z</time>
      </trkpt>
      <trkpt lat="43.66566" lon="1.39193">
        <ele>125</ele>
        <time>2024-04-04T17:19:50Z</time>
      </trkpt>
      <trkpt lat="43.66566" lon="1.39193">
        <ele>125</ele>
        <time>2024-04-04T17:19:51Z</time>
      </trkpt>
      <trkpt lat="43.66566" lon="1.39193">
        <ele>125</ele>
        <time>2024-04-04T17:19:52Z</time>
      </trkpt>
      <trkpt lat="43.66566" lon="1.39193">
        <ele>125</ele>
        <time>2024-04-04T17:19:53Z</time>
      </trkpt>
      <trkpt lat="43.66564" lon="1.39191">
        <ele>125</ele>
        <time>2024-04-04T17:19:54Z</time>
      </trkpt>
      <trkpt lat="43.66564" lon="1.39191">
        <ele>125</ele>
        <time>2024-04-04T17:19:55Z</time>
      </trkpt>
      <trkpt lat="43.66564" lon="1.39191">
        <ele>125</ele>
        <time>2024-04-04T17:19:56Z</time>
      </trkpt>
      <trkpt lat="43.66564" lon="1.39191">
        <ele>125</ele>
        <time>2024-04-04T17:19:57Z</time>
      </trkpt>
      <trkpt lat="43.66564" lon="1.39191">
        <ele>125</ele>
        <time>2024-04-04T17:19:58Z</time>
      </trkpt>
      <trkpt lat="43.66564" lon="1.39191">
        <ele>125</ele>
        <time>2024-04-04T17:19:59Z</time>
      </trkpt>
      <trkpt lat="43.66564" lon="1.39191">
        <ele>125</ele>
        <time>2024-04-04T17:20:00Z</time>
      </trkpt>
      <trkpt lat="43.66564" lon="1.39191">
        <ele>125</ele>
        <time>2024-04-04T17:20:01Z</time>
      </trkpt>
      <trkpt lat="43.66564" lon="1.39191">
        <ele>125</ele>
        <time>2024-04-04T17:20:02Z</time>
      </trkpt>
      <trkpt lat="43.66564" lon="1.39191">
        <ele>125</ele>
        <time>2024-04-04T17:20:03Z</time>
      </trkpt>
      <trkpt lat="43.66564" lon="1.39191">
        <ele>125</ele>
        <time>2024-04-04T17:20:04Z</time>
      </trkpt>
      <trkpt lat="43.66564" lon="1.39191">
        <ele>125</ele>
        <time>2024-04-04T17:20:05Z</time>
      </trkpt>
      <trkpt lat="43.66564" lon="1.39191">
        <ele>125</ele>
        <time>2024-04-04T17:20:06Z</time>
      </trkpt>
      <trkpt lat="43.66564" lon="1.39191">
        <ele>125</ele>
        <time>2024-04-04T17:20:07Z</time>
      </trkpt>
      <trkpt lat="43.66564" lon="1.39191">
        <ele>125</ele>
        <time>2024-04-04T17:20:08Z</time>
      </trkpt>
      <trkpt lat="43.66564" lon="1.39191">
        <ele>125</ele>
        <time>2024-04-04T17:20:09Z</time>
      </trkpt>
      <trkpt lat="43.66564" lon="1.39191">
        <ele>125</ele>
        <time>2024-04-04T17:20:10Z</time>
      </trkpt>
      <trkpt lat="43.66564" lon="1.39191">
        <ele>125</ele>
        <time>2024-04-04T17:20:11Z</time>
      </trkpt>
      <trkpt lat="43.66564" lon="1.39188">
        <ele>125</ele>
        <time>2024-04-04T17:20:12Z</time>
      </trkpt>
      <trkpt lat="43.66564" lon="1.39188">
        <ele>125</ele>
        <time>2024-04-04T17:20:13Z</time>
      </trkpt>
      <trkpt lat="43.66564" lon="1.39188">
        <ele>125</ele>
        <time>2024-04-04T17:20:14Z</time>
      </trkpt>
      <trkpt lat="43.66565" lon="1.39184">
        <ele>125</ele>
        <time>2024-04-04T17:20:15Z</time>
      </trkpt>
      <trkpt lat="43.66566" lon="1.3918">
        <ele>125</ele>
        <time>2024-04-04T17:20:16Z</time>
      </trkpt>
      <trkpt lat="43.66566" lon="1.3918">
        <ele>125</ele>
        <time>2024-04-04T17:20:17Z</time>
      </trkpt>
      <trkpt lat="43.66569" lon="1.39171">
        <ele>125</ele>
        <time>2024-04-04T17:20:18Z</time>
      </trkpt>
      <trkpt lat="43.66569" lon="1.39171">
        <ele>125</ele>
        <time>2024-04-04T17:20:19Z</time>
      </trkpt>
      <trkpt lat="43.66571" lon="1.3916">
        <ele>125</ele>
        <time>2024-04-04T17:20:20Z</time>
      </trkpt>
      <trkpt lat="43.66571" lon="1.39153">
        <ele>125</ele>
        <time>2024-04-04T17:20:21Z</time>
      </trkpt>
      <trkpt lat="43.66571" lon="1.39153">
        <ele>125</ele>
        <time>2024-04-04T17:20:22Z</time>
      </trkpt>
      <trkpt lat="43.66572" lon="1.39139">
        <ele>125</ele>
        <time>2024-04-04T17:20:23Z</time>
      </trkpt>
      <trkpt lat="43.66572" lon="1.3913">
        <ele>125</ele>
        <time>2024-04-04T17:20:24Z</time>
      </trkpt>
      <trkpt lat="43.66572" lon="1.3913">
        <ele>125</ele>
        <time>2024-04-04T17:20:25Z</time>
      </trkpt>
      <trkpt lat="43.66574" lon="1.39111">
        <ele>125</ele>
        <time>2024-04-04T17:20:26Z</time>
      </trkpt>
      <trkpt lat="43.66574" lon="1.39108">
        <ele>125</ele>
        <time>2024-04-04T17:20:27Z</time>
      </trkpt>
      <trkpt lat="43.66575" lon="1.39096">
        <ele>125</ele>
        <time>2024-04-04T17:20:28Z</time>
      </trkpt>
      <trkpt lat="43.66575" lon="1.39093">
        <ele>125</ele>
        <time>2024-04-04T17:20:29Z</time>
      </trkpt>
      <trkpt lat="43.66577" lon="1.39083">
        <ele>125</ele>
        <time>2024-04-04T17:20:30Z</time>
      </trkpt>
      <trkpt lat="43.66578" lon="1.3908">
        <ele>125</ele>
        <time>2024-04-04T17:20:31Z</time>
      </trkpt>
      <trkpt lat="43.66579" lon="1.39074">
        <ele>125</ele>
        <time>2024-04-04T17:20:32Z</time>
      </trkpt>
      <trkpt lat="43.66579" lon="1.39074">
        <ele>125</ele>
        <time>2024-04-04T17:20:33Z</time>
      </trkpt>
      <trkpt lat="43.66583" lon="1.39062">
        <ele>125</ele>
        <time>2024-04-04T17:20:34Z</time>
      </trkpt>
      <trkpt lat="43.66583" lon="1.39062">
        <ele>125</ele>
        <time>2024-04-04T17:20:35Z</time>
      </trkpt>
      <trkpt lat="43.66589" lon="1.39047">
        <ele>125</ele>
        <time>2024-04-04T17:20:36Z</time>
      </trkpt>
      <trkpt lat="43.6659" lon="1.39044">
        <ele>125</ele>
        <time>2024-04-04T17:20:37Z</time>
      </trkpt>
      <trkpt lat="43.6659" lon="1.39044">
        <ele>125</ele>
        <time>2024-04-04T17:20:38Z</time>
      </trkpt>
      <trkpt lat="43.6659" lon="1.39041">
        <ele>125</ele>
        <time>2024-04-04T17:20:39Z</time>
      </trkpt>
      <trkpt lat="43.66591" lon="1.39038">
        <ele>125</ele>
        <time>2024-04-04T17:20:40Z</time>
      </trkpt>
      <trkpt lat="43.66592" lon="1.39035">
        <ele>125</ele>
        <time>2024-04-04T17:20:41Z</time>
      </trkpt>
      <trkpt lat="43.66596" lon="1.39021">
        <ele>125</ele>
        <time>2024-04-04T17:20:42Z</time>
      </trkpt>
      <trkpt lat="43.66597" lon="1.39016">
        <ele>125</ele>
        <time>2024-04-04T17:20:43Z</time>
      </trkpt>
      <trkpt lat="43.66598" lon="1.3901">
        <ele>125</ele>
        <time>2024-04-04T17:20:44Z</time>
      </trkpt>
      <trkpt lat="43.66599" lon="1.39005">
        <ele>125</ele>
        <time>2024-04-04T17:20:45Z</time>
      </trkpt>
      <trkpt lat="43.666" lon="1.39">
        <ele>125</ele>
        <time>2024-04-04T17:20:46Z</time>
      </trkpt>
      <trkpt lat="43.666" lon="1.38995">
        <ele>125</ele>
        <time>2024-04-04T17:20:47Z</time>
      </trkpt>
      <trkpt lat="43.666" lon="1.3899">
        <ele>125</ele>
        <time>2024-04-04T17:20:48Z</time>
      </trkpt>
      <trkpt lat="43.66601" lon="1.38984">
        <ele>125</ele>
        <time>2024-04-04T17:20:49Z</time>
      </trkpt>
      <trkpt lat="43.66601" lon="1.38969">
        <ele>125</ele>
        <time>2024-04-04T17:20:50Z</time>
      </trkpt>
      <trkpt lat="43.66601" lon="1.38963">
        <ele>125</ele>
        <time>2024-04-04T17:20:51Z</time>
      </trkpt>
      <trkpt lat="43.66601" lon="1.38963">
        <ele>125</ele>
        <time>2024-04-04T17:20:52Z</time>
      </trkpt>
      <trkpt lat="43.66601" lon="1.38951">
        <ele>125</ele>
        <time>2024-04-04T17:20:53Z</time>
      </trkpt>
      <trkpt lat="43.66602" lon="1.38945">
        <ele>125</ele>
        <time>2024-04-04T17:20:54Z</time>
      </trkpt>
      <trkpt lat="43.66602" lon="1.38945">
        <ele>125</ele>
        <time>2024-04-04T17:20:55Z</time>
      </trkpt>
      <trkpt lat="43.66602" lon="1.38936">
        <ele>125</ele>
        <time>2024-04-04T17:20:56Z</time>
      </trkpt>
      <trkpt lat="43.66602" lon="1.38927">
        <ele>125</ele>
        <time>2024-04-04T17:20:57Z</time>
      </trkpt>
      <trkpt lat="43.66602" lon="1.38918">
        <ele>125</ele>
        <time>2024-04-04T17:20:58Z</time>
      </trkpt>
      <trkpt lat="43.66602" lon="1.3891">
        <ele>125</ele>
        <time>2024-04-04T17:20:59Z</time>
      </trkpt>
      <trkpt lat="43.66602" lon="1.3891">
        <ele>125</ele>
        <time>2024-04-04T17:21:00Z</time>
      </trkpt>
      <trkpt lat="43.66603" lon="1.38904">
        <ele>125</ele>
        <time>2024-04-04T17:21:01Z</time>
      </trkpt>
      <trkpt lat="43.66603" lon="1.38898">
        <ele>125</ele>
        <time>2024-04-04T17:21:02Z</time>
      </trkpt>
      <trkpt lat="43.66604" lon="1.38883">
        <ele>125</ele>
        <time>2024-04-04T17:21:03Z</time>
      </trkpt>
      <trkpt lat="43.66604" lon="1.38883">
        <ele>125</ele>
        <time>2024-04-04T17:21:04Z</time>
      </trkpt>
      <trkpt lat="43.66605" lon="1.38875">
        <ele>125</ele>
        <time>2024-04-04T17:21:05Z</time>
      </trkpt>
      <trkpt lat="43.66605" lon="1.38867">
        <ele>125</ele>
        <time>2024-04-04T17:21:06Z</time>
      </trkpt>
      <trkpt lat="43.66605" lon="1.38859">
        <ele>125</ele>
        <time>2024-04-04T17:21:07Z</time>
      </trkpt>
      <trkpt lat="43.66606" lon="1.38853">
        <ele>125</ele>
        <time>2024-04-04T17:21:08Z</time>
      </trkpt>
      <trkpt lat="43.66606" lon="1.38853">
        <ele>125</ele>
        <time>2024-04-04T17:21:09Z</time>
      </trkpt>
      <trkpt lat="43.66606" lon="1.38848">
        <ele>125</ele>
        <time>2024-04-04T17:21:10Z</time>
      </trkpt>
      <trkpt lat="43.66606" lon="1.38843">
        <ele>125</ele>
        <time>2024-04-04T17:21:11Z</time>
      </trkpt>
      <trkpt lat="43.66606" lon="1.38838">
        <ele>125</ele>
        <time>2024-04-04T17:21:12Z</time>
      </trkpt>
      <trkpt lat="43.66605" lon="1.38835">
        <ele>125</ele>
        <time>2024-04-04T17:21:13Z</time>
      </trkpt>
      <trkpt lat="43.66605" lon="1.38831">
        <ele>125</ele>
        <time>2024-04-04T17:21:14Z</time>
      </trkpt>
      <trkpt lat="43.66604" lon="1.38827">
        <ele>125</ele>
        <time>2024-04-04T17:21:15Z</time>
      </trkpt>
      <trkpt lat="43.66604" lon="1.38823">
        <ele>125</ele>
        <time>2024-04-04T17:21:16Z</time>
      </trkpt>
      <trkpt lat="43.66604" lon="1.3882">
        <ele>125</ele>
        <time>2024-04-04T17:21:17Z</time>
      </trkpt>
      <trkpt lat="43.66605" lon="1.38817">
        <ele>125</ele>
        <time>2024-04-04T17:21:18Z</time>
      </trkpt>
      <trkpt lat="43.66605" lon="1.38814">
        <ele>125</ele>
        <time>2024-04-04T17:21:19Z</time>
      </trkpt>
      <trkpt lat="43.66606" lon="1.38811">
        <ele>125</ele>
        <time>2024-04-04T17:21:20Z</time>
      </trkpt>
      <trkpt lat="43.66606" lon="1.38805">
        <ele>125</ele>
        <time>2024-04-04T17:21:21Z</time>
      </trkpt>
      <trkpt lat="43.66606" lon="1.38805">
        <ele>125</ele>
        <time>2024-04-04T17:21:22Z</time>
      </trkpt>
      <trkpt lat="43.66606" lon="1.38802">
        <ele>125</ele>
        <time>2024-04-04T17:21:23Z</time>
      </trkpt>
      <trkpt lat="43.66606" lon="1.38802">
        <ele>125</ele>
        <time>2024-04-04T17:21:24Z</time>
      </trkpt>
      <trkpt lat="43.66605" lon="1.388">
        <ele>125</ele>
        <time>2024-04-04T17:21:25Z</time>
      </trkpt>
      <trkpt lat="43.66605" lon="1.388">
        <ele>125</ele>
        <time>2024-04-04T17:21:26Z</time>
      </trkpt>
      <trkpt lat="43.66605" lon="1.388">
        <ele>124</ele>
        <time>2024-04-04T17:21:27Z</time>
      </trkpt>
      <trkpt lat="43.66605" lon="1.38804">
        <ele>124</ele>
        <time>2024-04-04T17:21:28Z</time>
      </trkpt>
      <trkpt lat="43.66605" lon="1.38804">
        <ele>124</ele>
        <time>2024-04-04T17:21:29Z</time>
      </trkpt>
      <trkpt lat="43.66605" lon="1.38804">
        <ele>124</ele>
        <time>2024-04-04T17:21:30Z</time>
      </trkpt>
      <trkpt lat="43.66606" lon="1.38807">
        <ele>124</ele>
        <time>2024-04-04T17:21:31Z</time>
      </trkpt>
      <trkpt lat="43.66607" lon="1.38809">
        <ele>124</ele>
        <time>2024-04-04T17:21:32Z</time>
      </trkpt>
      <trkpt lat="43.66607" lon="1.38809">
        <ele>124</ele>
        <time>2024-04-04T17:21:33Z</time>
      </trkpt>
      <trkpt lat="43.66607" lon="1.38809">
        <ele>124</ele>
        <time>2024-04-04T17:21:34Z</time>
      </trkpt>
      <trkpt lat="43.66607" lon="1.38812">
        <ele>124</ele>
        <time>2024-04-04T17:21:35Z</time>
      </trkpt>
      <trkpt lat="43.66607" lon="1.38812">
        <ele>124</ele>
        <time>2024-04-04T17:21:36Z</time>
      </trkpt>
      <trkpt lat="43.66607" lon="1.38812">
        <ele>124</ele>
        <time>2024-04-04T17:21:37Z</time>
      </trkpt>
      <trkpt lat="43.66607" lon="1.38815">
        <ele>124</ele>
        <time>2024-04-04T17:21:38Z</time>
      </trkpt>
      <trkpt lat="43.66607" lon="1.38815">
        <ele>124</ele>
        <time>2024-04-04T17:21:39Z</time>
      </trkpt>
      <trkpt lat="43.66607" lon="1.38817">
        <ele>124</ele>
        <time>2024-04-04T17:21:40Z</time>
      </trkpt>
      <trkpt lat="43.66607" lon="1.38817">
        <ele>124</ele>
        <time>2024-04-04T17:21:41Z</time>
      </trkpt>
      <trkpt lat="43.66607" lon="1.38817">
        <ele>124</ele>
        <time>2024-04-04T17:21:42Z</time>
      </trkpt>
      <trkpt lat="43.66607" lon="1.38817">
        <ele>124</ele>
        <time>2024-04-04T17:21:43Z</time>
      </trkpt>
      <trkpt lat="43.66607" lon="1.38817">
        <ele>124</ele>
        <time>2024-04-04T17:21:44Z</time>
      </trkpt>
      <trkpt lat="43.66607" lon="1.38817">
        <ele>124</ele>
        <time>2024-04-04T17:21:45Z</time>
      </trkpt>
      <trkpt lat="43.66607" lon="1.38817">
        <ele>124</ele>
        <time>2024-04-04T17:21:46Z</time>
      </trkpt>
      <trkpt lat="43.66607" lon="1.38817">
        <ele>124</ele>
        <time>2024-04-04T17:21:47Z</time>
      </trkpt>
      <trkpt lat="43.66607" lon="1.38817">
        <ele>124</ele>
        <time>2024-04-04T17:21:48Z</time>
      </trkpt>
      <trkpt lat="43.66607" lon="1.38817">
        <ele>124</ele>
        <time>2024-04-04T17:21:49Z</time>
      </trkpt>
      <trkpt lat="43.66607" lon="1.38817">
        <ele>124</ele>
        <time>2024-04-04T17:21:50Z</time>
      </trkpt>
      <trkpt lat="43.66607" lon="1.38817">
        <ele>124</ele>
        <time>2024-04-04T17:21:51Z</time>
      </trkpt>
      <trkpt lat="43.66607" lon="1.38817">
        <ele>124</ele>
        <time>2024-04-04T17:21:52Z</time>
      </trkpt>
      <trkpt lat="43.66607" lon="1.38817">
        <ele>124</ele>
        <time>2024-04-04T17:21:53Z</time>
      </trkpt>
      <trkpt lat="43.66607" lon="1.38817">
        <ele>124</ele>
        <time>2024-04-04T17:21:54Z</time>
      </trkpt>
      <trkpt lat="43.66607" lon="1.38817">
        <ele>124</ele>
        <time>2024-04-04T17:21:55Z</time>
      </trkpt>
      <trkpt lat="43.66607" lon="1.38817">
        <ele>124</ele>
        <time>2024-04-04T17:21:56Z</time>
      </trkpt>
      <trkpt lat="43.66607" lon="1.38817">
        <ele>124</ele>
        <time>2024-04-04T17:21:57Z</time>
      </trkpt>
      <trkpt lat="43.66607" lon="1.38817">
        <ele>124</ele>
        <time>2024-04-04T17:21:58Z</time>
      </trkpt>
      <trkpt lat="43.66607" lon="1.38817">
        <ele>124</ele>
        <time>2024-04-04T17:21:59Z</time>
      </trkpt>
      <trkpt lat="43.66607" lon="1.38817">
        <ele>124</ele>
        <time>2024-04-04T17:22:00Z</time>
      </trkpt>
      <trkpt lat="43.66607" lon="1.38817">
        <ele>124</ele>
        <time>2024-04-04T17:22:01Z</time>
      </trkpt>
      <trkpt lat="43.66609" lon="1.38819">
        <ele>124</ele>
        <time>2024-04-04T17:22:02Z</time>
      </trkpt>
      <trkpt lat="43.66609" lon="1.38819">
        <ele>124</ele>
        <time>2024-04-04T17:22:03Z</time>
      </trkpt>
      <trkpt lat="43.66609" lon="1.38819">
        <ele>125</ele>
        <time>2024-04-04T17:22:04Z</time>
      </trkpt>
      <trkpt lat="43.66609" lon="1.38819">
        <ele>125</ele>
        <time>2024-04-04T17:22:05Z</time>
      </trkpt>
      <trkpt lat="43.66609" lon="1.38819">
        <ele>125</ele>
        <time>2024-04-04T17:22:06Z</time>
      </trkpt>
      <trkpt lat="43.66609" lon="1.38819">
        <ele>125</ele>
        <time>2024-04-04T17:22:07Z</time>
      </trkpt>
      <trkpt lat="43.66609" lon="1.38819">
        <ele>125</ele>
        <time>2024-04-04T17:22:08Z</time>
      </trkpt>
      <trkpt lat="43.66609" lon="1.38819">
        <ele>125</ele>
        <time>2024-04-04T17:22:09Z</time>
      </trkpt>
      <trkpt lat="43.66609" lon="1.38819">
        <ele>125</ele>
        <time>2024-04-04T17:22:10Z</time>
      </trkpt>
      <trkpt lat="43.66609" lon="1.38819">
        <ele>125</ele>
        <time>2024-04-04T17:22:11Z</time>
      </trkpt>
      <trkpt lat="43.66609" lon="1.38819">
        <ele>125</ele>
        <time>2024-04-04T17:22:12Z</time>
      </trkpt>
      <trkpt lat="43.66609" lon="1.38819">
        <ele>125</ele>
        <time>2024-04-04T17:22:13Z</time>
      </trkpt>
      <trkpt lat="43.66609" lon="1.38819">
        <ele>125</ele>
        <time>2024-04-04T17:22:14Z</time>
      </trkpt>
      <trkpt lat="43.66607" lon="1.38817">
        <ele>125</ele>
        <time>2024-04-04T17:22:15Z</time>
      </trkpt>
      <trkpt lat="43.66607" lon="1.38817">
        <ele>125</ele>
        <time>2024-04-04T17:22:16Z</time>
      </trkpt>
      <trkpt lat="43.66607" lon="1.38817">
        <ele>125</ele>
        <time>2024-04-04T17:22:17Z</time>
      </trkpt>
      <trkpt lat="43.66607" lon="1.38817">
        <ele>125</ele>
        <time>2024-04-04T17:22:18Z</time>
      </trkpt>
      <trkpt lat="43.66607" lon="1.38817">
        <ele>125</ele>
        <time>2024-04-04T17:22:19Z</time>
      </trkpt>
      <trkpt lat="43.66607" lon="1.38817">
        <ele>125</ele>
        <time>2024-04-04T17:22:20Z</time>
      </trkpt>
      <trkpt lat="43.66607" lon="1.38817">
        <ele>125</ele>
        <time>2024-04-04T17:22:21Z</time>
      </trkpt>
      <trkpt lat="43.66607" lon="1.38817">
        <ele>125</ele>
        <time>2024-04-04T17:22:22Z</time>
      </trkpt>
      <trkpt lat="43.66607" lon="1.38817">
        <ele>125</ele>
        <time>2024-04-04T17:22:23Z</time>
      </trkpt>
      <trkpt lat="43.66607" lon="1.38817">
        <ele>125</ele>
        <time>2024-04-04T17:22:24Z</time>
      </trkpt>
      <trkpt lat="43.66607" lon="1.38817">
        <ele>125</ele>
        <time>2024-04-04T17:22:25Z</time>
      </trkpt>
      <trkpt lat="43.66607" lon="1.38817">
        <ele>125</ele>
        <time>2024-04-04T17:22:26Z</time>
      </trkpt>
      <trkpt lat="43.66607" lon="1.38817">
        <ele>125</ele>
        <time>2024-04-04T17:22:27Z</time>
      </trkpt>
      <trkpt lat="43.66607" lon="1.38817">
        <ele>125</ele>
        <time>2024-04-04T17:22:28Z</time>
      </trkpt>
      <trkpt lat="43.66607" lon="1.38817">
        <ele>125</ele>
        <time>2024-04-04T17:22:29Z</time>
      </trkpt>
      <trkpt lat="43.66607" lon="1.38817">
        <ele>125</ele>
        <time>2024-04-04T17:22:30Z</time>
      </trkpt>
      <trkpt lat="43.66607" lon="1.38817">
        <ele>125</ele>
        <time>2024-04-04T17:22:31Z</time>
      </trkpt>
      <trkpt lat="43.66608" lon="1.3882">
        <ele>125</ele>
        <time>2024-04-04T17:22:32Z</time>
      </trkpt>
      <trkpt lat="43.66608" lon="1.3882">
        <ele>125</ele>
        <time>2024-04-04T17:22:33Z</time>
      </trkpt>
      <trkpt lat="43.66608" lon="1.3882">
        <ele>125</ele>
        <time>2024-04-04T17:22:34Z</time>
      </trkpt>
      <trkpt lat="43.66608" lon="1.3882">
        <ele>125</ele>
        <time>2024-04-04T17:22:35Z</time>
      </trkpt>
      <trkpt lat="43.66608" lon="1.3882">
        <ele>125</ele>
        <time>2024-04-04T17:22:36Z</time>
      </trkpt>
      <trkpt lat="43.66609" lon="1.38822">
        <ele>125</ele>
        <time>2024-04-04T17:22:37Z</time>
      </trkpt>
      <trkpt lat="43.66609" lon="1.38822">
        <ele>125</ele>
        <time>2024-04-04T17:22:38Z</time>
      </trkpt>
      <trkpt lat="43.66609" lon="1.38822">
        <ele>125</ele>
        <time>2024-04-04T17:22:39Z</time>
      </trkpt>
      <trkpt lat="43.66609" lon="1.38822">
        <ele>125</ele>
        <time>2024-04-04T17:22:40Z</time>
      </trkpt>
      <trkpt lat="43.66609" lon="1.38822">
        <ele>125</ele>
        <time>2024-04-04T17:22:41Z</time>
      </trkpt>
      <trkpt lat="43.66609" lon="1.38822">
        <ele>125</ele>
        <time>2024-04-04T17:22:42Z</time>
      </trkpt>
      <trkpt lat="43.66609" lon="1.38822">
        <ele>125</ele>
        <time>2024-04-04T17:22:43Z</time>
      </trkpt>
      <trkpt lat="43.66609" lon="1.38822">
        <ele>125</ele>
        <time>2024-04-04T17:22:44Z</time>
      </trkpt>
      <trkpt lat="43.66609" lon="1.38822">
        <ele>125</ele>
        <time>2024-04-04T17:22:45Z</time>
      </trkpt>
      <trkpt lat="43.66609" lon="1.38822">
        <ele>125</ele>
        <time>2024-04-04T17:22:46Z</time>
      </trkpt>
      <trkpt lat="43.66609" lon="1.38822">
        <ele>124</ele>
        <time>2024-04-04T17:22:47Z</time>
      </trkpt>
      <trkpt lat="43.66609" lon="1.38822">
        <ele>124</ele>
        <time>2024-04-04T17:22:48Z</time>
      </trkpt>
      <trkpt lat="43.66609" lon="1.38822">
        <ele>124</ele>
        <time>2024-04-04T17:22:49Z</time>
      </trkpt>
      <trkpt lat="43.66609" lon="1.38822">
        <ele>124</ele>
        <time>2024-04-04T17:22:50Z</time>
      </trkpt>
      <trkpt lat="43.66609" lon="1.38822">
        <ele>124</ele>
        <time>2024-04-04T17:22:51Z</time>
      </trkpt>
      <trkpt lat="43.66609" lon="1.38822">
        <ele>124</ele>
        <time>2024-04-04T17:22:52Z</time>
      </trkpt>
      <trkpt lat="43.66609" lon="1.38822">
        <ele>124</ele>
        <time>2024-04-04T17:22:53Z</time>
      </trkpt>
      <trkpt lat="43.66609" lon="1.38822">
        <ele>124</ele>
        <time>2024-04-04T17:22:54Z</time>
      </trkpt>
      <trkpt lat="43.6661" lon="1.38827">
        <ele>124</ele>
        <time>2024-04-04T17:22:55Z</time>
      </trkpt>
      <trkpt lat="43.66611" lon="1.38832">
        <ele>125</ele>
        <time>2024-04-04T17:22:56Z</time>
      </trkpt>
      <trkpt lat="43.66612" lon="1.38839">
        <ele>125</ele>
        <time>2024-04-04T17:22:57Z</time>
      </trkpt>
      <trkpt lat="43.66612" lon="1.38839">
        <ele>124</ele>
        <time>2024-04-04T17:22:58Z</time>
      </trkpt>
      <trkpt lat="43.66613" lon="1.38854">
        <ele>125</ele>
        <time>2024-04-04T17:22:59Z</time>
      </trkpt>
      <trkpt lat="43.66613" lon="1.38861">
        <ele>125</ele>
        <time>2024-04-04T17:23:00Z</time>
      </trkpt>
      <trkpt lat="43.66613" lon="1.38868">
        <ele>125</ele>
        <time>2024-04-04T17:23:01Z</time>
      </trkpt>
      <trkpt lat="43.66613" lon="1.38875">
        <ele>125</ele>
        <time>2024-04-04T17:23:02Z</time>
      </trkpt>
      <trkpt lat="43.66613" lon="1.38882">
        <ele>125</ele>
        <time>2024-04-04T17:23:03Z</time>
      </trkpt>
      <trkpt lat="43.66612" lon="1.38889">
        <ele>125</ele>
        <time>2024-04-04T17:23:04Z</time>
      </trkpt>
      <trkpt lat="43.66611" lon="1.38895">
        <ele>125</ele>
        <time>2024-04-04T17:23:05Z</time>
      </trkpt>
      <trkpt lat="43.66611" lon="1.38895">
        <ele>125</ele>
        <time>2024-04-04T17:23:06Z</time>
      </trkpt>
      <trkpt lat="43.6661" lon="1.38908">
        <ele>125</ele>
        <time>2024-04-04T17:23:07Z</time>
      </trkpt>
      <trkpt lat="43.6661" lon="1.38908">
        <ele>125</ele>
        <time>2024-04-04T17:23:08Z</time>
      </trkpt>
      <trkpt lat="43.66609" lon="1.38914">
        <ele>125</ele>
        <time>2024-04-04T17:23:09Z</time>
      </trkpt>
      <trkpt lat="43.66609" lon="1.3892">
        <ele>125</ele>
        <time>2024-04-04T17:23:10Z</time>
      </trkpt>
      <trkpt lat="43.66609" lon="1.38928">
        <ele>125</ele>
        <time>2024-04-04T17:23:11Z</time>
      </trkpt>
      <trkpt lat="43.66609" lon="1.38936">
        <ele>125</ele>
        <time>2024-04-04T17:23:12Z</time>
      </trkpt>
      <trkpt lat="43.66609" lon="1.38944">
        <ele>125</ele>
        <time>2024-04-04T17:23:13Z</time>
      </trkpt>
      <trkpt lat="43.66609" lon="1.38951">
        <ele>125</ele>
        <time>2024-04-04T17:23:14Z</time>
      </trkpt>
      <trkpt lat="43.66609" lon="1.38951">
        <ele>125</ele>
        <time>2024-04-04T17:23:15Z</time>
      </trkpt>
      <trkpt lat="43.66608" lon="1.38969">
        <ele>125</ele>
        <time>2024-04-04T17:23:16Z</time>
      </trkpt>
      <trkpt lat="43.66608" lon="1.38972">
        <ele>125</ele>
        <time>2024-04-04T17:23:17Z</time>
      </trkpt>
      <trkpt lat="43.66608" lon="1.38978">
        <ele>125</ele>
        <time>2024-04-04T17:23:18Z</time>
      </trkpt>
      <trkpt lat="43.66608" lon="1.38978">
        <ele>125</ele>
        <time>2024-04-04T17:23:19Z</time>
      </trkpt>
      <trkpt lat="43.66607" lon="1.38992">
        <ele>125</ele>
        <time>2024-04-04T17:23:20Z</time>
      </trkpt>
      <trkpt lat="43.66607" lon="1.38992">
        <ele>125</ele>
        <time>2024-04-04T17:23:21Z</time>
      </trkpt>
      <trkpt lat="43.66605" lon="1.39005">
        <ele>125</ele>
        <time>2024-04-04T17:23:22Z</time>
      </trkpt>
      <trkpt lat="43.66605" lon="1.39005">
        <ele>125</ele>
        <time>2024-04-04T17:23:23Z</time>
      </trkpt>
      <trkpt lat="43.66603" lon="1.3902">
        <ele>125</ele>
        <time>2024-04-04T17:23:24Z</time>
      </trkpt>
      <trkpt lat="43.66602" lon="1.39024">
        <ele>125</ele>
        <time>2024-04-04T17:23:25Z</time>
      </trkpt>
      <trkpt lat="43.66602" lon="1.39024">
        <ele>125</ele>
        <time>2024-04-04T17:23:26Z</time>
      </trkpt>
      <trkpt lat="43.66601" lon="1.3903">
        <ele>125</ele>
        <time>2024-04-04T17:23:27Z</time>
      </trkpt>
      <trkpt lat="43.666" lon="1.39037">
        <ele>125</ele>
        <time>2024-04-04T17:23:28Z</time>
      </trkpt>
      <trkpt lat="43.66598" lon="1.39043">
        <ele>125</ele>
        <time>2024-04-04T17:23:29Z</time>
      </trkpt>
      <trkpt lat="43.66594" lon="1.39055">
        <ele>125</ele>
        <time>2024-04-04T17:23:30Z</time>
      </trkpt>
      <trkpt lat="43.66594" lon="1.39055">
        <ele>125</ele>
        <time>2024-04-04T17:23:31Z</time>
      </trkpt>
      <trkpt lat="43.66592" lon="1.3906">
        <ele>125</ele>
        <time>2024-04-04T17:23:32Z</time>
      </trkpt>
      <trkpt lat="43.6659" lon="1.39064">
        <ele>125</ele>
        <time>2024-04-04T17:23:33Z</time>
      </trkpt>
      <trkpt lat="43.66588" lon="1.39069">
        <ele>125</ele>
        <time>2024-04-04T17:23:34Z</time>
      </trkpt>
      <trkpt lat="43.66588" lon="1.39069">
        <ele>125</ele>
        <time>2024-04-04T17:23:35Z</time>
      </trkpt>
      <trkpt lat="43.66587" lon="1.3907">
        <ele>125</ele>
        <time>2024-04-04T17:23:36Z</time>
      </trkpt>
      <trkpt lat="43.66585" lon="1.39071">
        <ele>125</ele>
        <time>2024-04-04T17:23:37Z</time>
      </trkpt>
      <trkpt lat="43.66583" lon="1.39072">
        <ele>125</ele>
        <time>2024-04-04T17:23:38Z</time>
      </trkpt>
      <trkpt lat="43.66582" lon="1.39072">
        <ele>125</ele>
        <time>2024-04-04T17:23:39Z</time>
      </trkpt>
      <trkpt lat="43.66582" lon="1.39072">
        <ele>125</ele>
        <time>2024-04-04T17:23:40Z</time>
      </trkpt>
      <trkpt lat="43.66584" lon="1.39071">
        <ele>125</ele>
        <time>2024-04-04T17:23:41Z</time>
      </trkpt>
      <trkpt lat="43.66584" lon="1.39071">
        <ele>125</ele>
        <time>2024-04-04T17:23:42Z</time>
      </trkpt>
      <trkpt lat="43.66585" lon="1.39068">
        <ele>125</ele>
        <time>2024-04-04T17:23:43Z</time>
      </trkpt>
      <trkpt lat="43.66585" lon="1.39068">
        <ele>125</ele>
        <time>2024-04-04T17:23:44Z</time>
      </trkpt>
      <trkpt lat="43.66585" lon="1.39068">
        <ele>125</ele>
        <time>2024-04-04T17:23:45Z</time>
      </trkpt>
      <trkpt lat="43.66585" lon="1.39065">
        <ele>125</ele>
        <time>2024-04-04T17:23:46Z</time>
      </trkpt>
      <trkpt lat="43.66585" lon="1.39065">
        <ele>125</ele>
        <time>2024-04-04T17:23:47Z</time>
      </trkpt>
      <trkpt lat="43.66583" lon="1.39064">
        <ele>125</ele>
        <time>2024-04-04T17:23:48Z</time>
      </trkpt>
      <trkpt lat="43.66583" lon="1.39064">
        <ele>125</ele>
        <time>2024-04-04T17:23:49Z</time>
      </trkpt>
      <trkpt lat="43.66583" lon="1.39064">
        <ele>125</ele>
        <time>2024-04-04T17:23:50Z</time>
      </trkpt>
      <trkpt lat="43.66582" lon="1.39062">
        <ele>125</ele>
        <time>2024-04-04T17:23:51Z</time>
      </trkpt>
      <trkpt lat="43.66582" lon="1.39062">
        <ele>125</ele>
        <time>2024-04-04T17:23:52Z</time>
      </trkpt>
      <trkpt lat="43.66582" lon="1.39062">
        <ele>125</ele>
        <time>2024-04-04T17:23:53Z</time>
      </trkpt>
      <trkpt lat="43.66584" lon="1.39062">
        <ele>125</ele>
        <time>2024-04-04T17:23:54Z</time>
      </trkpt>
      <trkpt lat="43.66584" lon="1.39062">
        <ele>125</ele>
        <time>2024-04-04T17:23:55Z</time>
      </trkpt>
      <trkpt lat="43.66584" lon="1.39062">
        <ele>125</ele>
        <time>2024-04-04T17:23:56Z</time>
      </trkpt>
      <trkpt lat="43.66584" lon="1.39062">
        <ele>125</ele>
        <time>2024-04-04T17:23:57Z</time>
      </trkpt>
      <trkpt lat="43.66584" lon="1.39062">
        <ele>125</ele>
        <time>2024-04-04T17:23:58Z</time>
      </trkpt>
      <trkpt lat="43.66584" lon="1.39062">
        <ele>125</ele>
        <time>2024-04-04T17:23:59Z</time>
      </trkpt>
      <trkpt lat="43.66584" lon="1.39062">
        <ele>125</ele>
        <time>2024-04-04T17:24:00Z</time>
      </trkpt>
      <trkpt lat="43.66586" lon="1.39063">
        <ele>125</ele>
        <time>2024-04-04T17:24:01Z</time>
      </trkpt>
      <trkpt lat="43.66586" lon="1.39063">
        <ele>125</ele>
        <time>2024-04-04T17:24:02Z</time>
      </trkpt>
      <trkpt lat="43.66587" lon="1.39063">
        <ele>125</ele>
        <time>2024-04-04T17:24:03Z</time>
      </trkpt>
      <trkpt lat="43.66587" lon="1.39063">
        <ele>125</ele>
        <time>2024-04-04T17:24:04Z</time>
      </trkpt>
      <trkpt lat="43.66587" lon="1.39063">
        <ele>125</ele>
        <time>2024-04-04T17:24:05Z</time>
      </trkpt>
      <trkpt lat="43.66587" lon="1.39063">
        <ele>125</ele>
        <time>2024-04-04T17:24:06Z</time>
      </trkpt>
      <trkpt lat="43.6659" lon="1.39062">
        <ele>125</ele>
        <time>2024-04-04T17:24:07Z</time>
      </trkpt>
      <trkpt lat="43.6659" lon="1.39062">
        <ele>125</ele>
        <time>2024-04-04T17:24:08Z</time>
      </trkpt>
      <trkpt lat="43.6659" lon="1.39062">
        <ele>125</ele>
        <time>2024-04-04T17:24:09Z</time>
      </trkpt>
      <trkpt lat="43.6659" lon="1.39062">
        <ele>125</ele>
        <time>2024-04-04T17:24:10Z</time>
      </trkpt>
      <trkpt lat="43.6659" lon="1.39062">
        <ele>125</ele>
        <time>2024-04-04T17:24:11Z</time>
      </trkpt>
      <trkpt lat="43.6659" lon="1.39062">
        <ele>125</ele>
        <time>2024-04-04T17:24:12Z</time>
      </trkpt>
      <trkpt lat="43.6659" lon="1.39062">
        <ele>125</ele>
        <time>2024-04-04T17:24:13Z</time>
      </trkpt>
      <trkpt lat="43.6659" lon="1.39062">
        <ele>125</ele>
        <time>2024-04-04T17:24:14Z</time>
      </trkpt>
      <trkpt lat="43.6659" lon="1.39062">
        <ele>125</ele>
        <time>2024-04-04T17:24:15Z</time>
      </trkpt>
      <trkpt lat="43.6659" lon="1.39065">
        <ele>125</ele>
        <time>2024-04-04T17:24:16Z</time>
      </trkpt>
      <trkpt lat="43.6659" lon="1.39065">
        <ele>125</ele>
        <time>2024-04-04T17:24:17Z</time>
      </trkpt>
      <trkpt lat="43.6659" lon="1.39065">
        <ele>125</ele>
        <time>2024-04-04T17:24:18Z</time>
      </trkpt>
      <trkpt lat="43.6659" lon="1.39065">
        <ele>125</ele>
        <time>2024-04-04T17:24:19Z</time>
      </trkpt>
      <trkpt lat="43.66587" lon="1.39065">
        <ele>125</ele>
        <time>2024-04-04T17:24:20Z</time>
      </trkpt>
      <trkpt lat="43.66587" lon="1.39065">
        <ele>125</ele>
        <time>2024-04-04T17:24:21Z</time>
      </trkpt>
      <trkpt lat="43.66587" lon="1.39065">
        <ele>125</ele>
        <time>2024-04-04T17:24:22Z</time>
      </trkpt>
      <trkpt lat="43.66587" lon="1.39065">
        <ele>125</ele>
        <time>2024-04-04T17:24:23Z</time>
      </trkpt>
      <trkpt lat="43.66587" lon="1.39065">
        <ele>125</ele>
        <time>2024-04-04T17:24:24Z</time>
      </trkpt>
      <trkpt lat="43.66587" lon="1.39065">
        <ele>125</ele>
        <time>2024-04-04T17:24:25Z</time>
      </trkpt>
      <trkpt lat="43.66587" lon="1.39065">
        <ele>125</ele>
        <time>2024-04-04T17:24:26Z</time>
      </trkpt>
      <trkpt lat="43.66587" lon="1.39065">
        <ele>125</ele>
        <time>2024-04-04T17:24:27Z</time>
      </trkpt>
      <trkpt lat="43.66585" lon="1.39068">
        <ele>125</ele>
        <time>2024-04-04T17:24:28Z</time>
      </trkpt>
      <trkpt lat="43.66583" lon="1.39074">
        <ele>125</ele>
        <time>2024-04-04T17:24:29Z</time>
      </trkpt>
      <trkpt lat="43.66582" lon="1.3908">
        <ele>125</ele>
        <time>2024-04-04T17:24:30Z</time>
      </trkpt>
      <trkpt lat="43.66582" lon="1.39087">
        <ele>125</ele>
        <time>2024-04-04T17:24:31Z</time>
      </trkpt>
      <trkpt lat="43.66581" lon="1.39094">
        <ele>125</ele>
        <time>2024-04-04T17:24:32Z</time>
      </trkpt>
      <trkpt lat="43.6658" lon="1.39102">
        <ele>125</ele>
        <time>2024-04-04T17:24:33Z</time>
      </trkpt>
      <trkpt lat="43.6658" lon="1.39102">
        <ele>125</ele>
        <time>2024-04-04T17:24:34Z</time>
      </trkpt>
      <trkpt lat="43.66578" lon="1.39122">
        <ele>125</ele>
        <time>2024-04-04T17:24:35Z</time>
      </trkpt>
      <trkpt lat="43.66578" lon="1.39126">
        <ele>125</ele>
        <time>2024-04-04T17:24:36Z</time>
      </trkpt>
      <trkpt lat="43.66576" lon="1.39138">
        <ele>125</ele>
        <time>2024-04-04T17:24:37Z</time>
      </trkpt>
      <trkpt lat="43.66576" lon="1.39142">
        <ele>125</ele>
        <time>2024-04-04T17:24:38Z</time>
      </trkpt>
      <trkpt lat="43.66574" lon="1.39154">
        <ele>125</ele>
        <time>2024-04-04T17:24:39Z</time>
      </trkpt>
      <trkpt lat="43.66574" lon="1.39157">
        <ele>125</ele>
        <time>2024-04-04T17:24:40Z</time>
      </trkpt>
      <trkpt lat="43.66572" lon="1.39168">
        <ele>125</ele>
        <time>2024-04-04T17:24:41Z</time>
      </trkpt>
      <trkpt lat="43.66571" lon="1.39172">
        <ele>125</ele>
        <time>2024-04-04T17:24:42Z</time>
      </trkpt>
      <trkpt lat="43.6657" lon="1.39183">
        <ele>125</ele>
        <time>2024-04-04T17:24:43Z</time>
      </trkpt>
      <trkpt lat="43.66569" lon="1.39186">
        <ele>125</ele>
        <time>2024-04-04T17:24:44Z</time>
      </trkpt>
      <trkpt lat="43.66569" lon="1.39196">
        <ele>125</ele>
        <time>2024-04-04T17:24:45Z</time>
      </trkpt>
      <trkpt lat="43.66569" lon="1.39198">
        <ele>125</ele>
        <time>2024-04-04T17:24:46Z</time>
      </trkpt>
      <trkpt lat="43.66568" lon="1.39203">
        <ele>125</ele>
        <time>2024-04-04T17:24:47Z</time>
      </trkpt>
      <trkpt lat="43.66568" lon="1.39203">
        <ele>125</ele>
        <time>2024-04-04T17:24:48Z</time>
      </trkpt>
      <trkpt lat="43.66567" lon="1.39208">
        <ele>125</ele>
        <time>2024-04-04T17:24:49Z</time>
      </trkpt>
      <trkpt lat="43.66567" lon="1.39208">
        <ele>125</ele>
        <time>2024-04-04T17:24:50Z</time>
      </trkpt>
      <trkpt lat="43.66566" lon="1.39212">
        <ele>125</ele>
        <time>2024-04-04T17:24:51Z</time>
      </trkpt>
      <trkpt lat="43.66566" lon="1.39212">
        <ele>125</ele>
        <time>2024-04-04T17:24:52Z</time>
      </trkpt>
      <trkpt lat="43.66566" lon="1.39212">
        <ele>125</ele>
        <time>2024-04-04T17:24:53Z</time>
      </trkpt>
      <trkpt lat="43.66566" lon="1.39212">
        <ele>125</ele>
        <time>2024-04-04T17:24:54Z</time>
      </trkpt>
      <trkpt lat="43.66566" lon="1.39212">
        <ele>125</ele>
        <time>2024-04-04T17:24:55Z</time>
      </trkpt>
      <trkpt lat="43.66566" lon="1.39208">
        <ele>125</ele>
        <time>2024-04-04T17:24:56Z</time>
      </trkpt>
      <trkpt lat="43.66566" lon="1.39208">
        <ele>125</ele>
        <time>2024-04-04T17:24:57Z</time>
      </trkpt>
      <trkpt lat="43.66566" lon="1.39208">
        <ele>125</ele>
        <time>2024-04-04T17:24:58Z</time>
      </trkpt>
      <trkpt lat="43.66566" lon="1.39206">
        <ele>125</ele>
        <time>2024-04-04T17:24:59Z</time>
      </trkpt>
      <trkpt lat="43.66566" lon="1.39206">
        <ele>125</ele>
        <time>2024-04-04T17:25:00Z</time>
      </trkpt>
      <trkpt lat="43.66566" lon="1.39206">
        <ele>125</ele>
        <time>2024-04-04T17:25:01Z</time>
      </trkpt>
      <trkpt lat="43.66568" lon="1.39206">
        <ele>125</ele>
        <time>2024-04-04T17:25:02Z</time>
      </trkpt>
      <trkpt lat="43.66568" lon="1.39206">
        <ele>125</ele>
        <time>2024-04-04T17:25:03Z</time>
      </trkpt>
      <trkpt lat="43.66568" lon="1.39209">
        <ele>125</ele>
        <time>2024-04-04T17:25:04Z</time>
      </trkpt>
      <trkpt lat="43.66568" lon="1.39209">
        <ele>125</ele>
        <time>2024-04-04T17:25:05Z</time>
      </trkpt>
      <trkpt lat="43.66569" lon="1.39212">
        <ele>125</ele>
        <time>2024-04-04T17:25:06Z</time>
      </trkpt>
      <trkpt lat="43.66569" lon="1.39212">
        <ele>125</ele>
        <time>2024-04-04T17:25:07Z</time>
      </trkpt>
      <trkpt lat="43.66569" lon="1.39212">
        <ele>125</ele>
        <time>2024-04-04T17:25:08Z</time>
      </trkpt>
      <trkpt lat="43.66568" lon="1.39215">
        <ele>125</ele>
        <time>2024-04-04T17:25:09Z</time>
      </trkpt>
      <trkpt lat="43.66567" lon="1.39188">
        <ele>125</ele>
        <time>2024-04-04T17:32:55Z</time>
      </trkpt>
      <trkpt lat="43.66567" lon="1.39188">
        <ele>125</ele>
        <time>2024-04-04T17:32:56Z</time>
      </trkpt>
      <trkpt lat="43.66568" lon="1.39184">
        <ele>125</ele>
        <time>2024-04-04T17:32:57Z</time>
      </trkpt>
      <trkpt lat="43.66569" lon="1.39179">
        <ele>125</ele>
        <time>2024-04-04T17:32:58Z</time>
      </trkpt>
      <trkpt lat="43.66569" lon="1.39179">
        <ele>125</ele>
        <time>2024-04-04T17:32:59Z</time>
      </trkpt>
      <trkpt lat="43.6657" lon="1.39169">
        <ele>125</ele>
        <time>2024-04-04T17:33:00Z</time>
      </trkpt>
      <trkpt lat="43.66571" lon="1.39163">
        <ele>125</ele>
        <time>2024-04-04T17:33:01Z</time>
      </trkpt>
      <trkpt lat="43.66572" lon="1.39157">
        <ele>125</ele>
        <time>2024-04-04T17:33:02Z</time>
      </trkpt>
      <trkpt lat="43.66573" lon="1.3915">
        <ele>125</ele>
        <time>2024-04-04T17:33:03Z</time>
      </trkpt>
      <trkpt lat="43.66574" lon="1.39144">
        <ele>125</ele>
        <time>2024-04-04T17:33:04Z</time>
      </trkpt>
      <trkpt lat="43.66574" lon="1.39137">
        <ele>125</ele>
        <time>2024-04-04T17:33:05Z</time>
      </trkpt>
      <trkpt lat="43.66574" lon="1.39137">
        <ele>125</ele>
        <time>2024-04-04T17:33:06Z</time>
      </trkpt>
      <trkpt lat="43.66574" lon="1.39122">
        <ele>125</ele>
        <time>2024-04-04T17:33:07Z</time>
      </trkpt>
      <trkpt lat="43.66574" lon="1.39122">
        <ele>125</ele>
        <time>2024-04-04T17:33:08Z</time>
      </trkpt>
      <trkpt lat="43.66575" lon="1.39115">
        <ele>125</ele>
        <time>2024-04-04T17:33:09Z</time>
      </trkpt>
      <trkpt lat="43.66576" lon="1.39107">
        <ele>125</ele>
        <time>2024-04-04T17:33:10Z</time>
      </trkpt>
      <trkpt lat="43.66577" lon="1.39092">
        <ele>125</ele>
        <time>2024-04-04T17:33:11Z</time>
      </trkpt>
      <trkpt lat="43.66577" lon="1.39092">
        <ele>125</ele>
        <time>2024-04-04T17:33:12Z</time>
      </trkpt>
      <trkpt lat="43.6658" lon="1.39079">
        <ele>125</ele>
        <time>2024-04-04T17:33:13Z</time>
      </trkpt>
      <trkpt lat="43.6658" lon="1.39079">
        <ele>125</ele>
        <time>2024-04-04T17:33:14Z</time>
      </trkpt>
      <trkpt lat="43.66584" lon="1.39067">
        <ele>125</ele>
        <time>2024-04-04T17:33:15Z</time>
      </trkpt>
      <trkpt lat="43.66584" lon="1.39067">
        <ele>125</ele>
        <time>2024-04-04T17:33:16Z</time>
      </trkpt>
      <trkpt lat="43.66589" lon="1.39053">
        <ele>125</ele>
        <time>2024-04-04T17:33:17Z</time>
      </trkpt>
      <trkpt lat="43.6659" lon="1.3905">
        <ele>125</ele>
        <time>2024-04-04T17:33:18Z</time>
      </trkpt>
      <trkpt lat="43.66592" lon="1.39044">
        <ele>125</ele>
        <time>2024-04-04T17:33:19Z</time>
      </trkpt>
      <trkpt lat="43.66593" lon="1.39039">
        <ele>125</ele>
        <time>2024-04-04T17:33:20Z</time>
      </trkpt>
      <trkpt lat="43.66595" lon="1.39035">
        <ele>125</ele>
        <time>2024-04-04T17:33:21Z</time>
      </trkpt>
      <trkpt lat="43.66596" lon="1.3903">
        <ele>125</ele>
        <time>2024-04-04T17:33:22Z</time>
      </trkpt>
      <trkpt lat="43.66596" lon="1.3903">
        <ele>125</ele>
        <time>2024-04-04T17:33:23Z</time>
      </trkpt>
      <trkpt lat="43.66597" lon="1.39028">
        <ele>125</ele>
        <time>2024-04-04T17:33:24Z</time>
      </trkpt>
      <trkpt lat="43.66597" lon="1.39025">
        <ele>125</ele>
        <time>2024-04-04T17:33:25Z</time>
      </trkpt>
      <trkpt lat="43.66598" lon="1.39023">
        <ele>125</ele>
        <time>2024-04-04T17:33:26Z</time>
      </trkpt>
      <trkpt lat="43.66599" lon="1.3901">
        <ele>125</ele>
        <time>2024-04-04T17:33:27Z</time>
      </trkpt>
      <trkpt lat="43.666" lon="1.39005">
        <ele>125</ele>
        <time>2024-04-04T17:33:28Z</time>
      </trkpt>
      <trkpt lat="43.666" lon="1.39">
        <ele>125</ele>
        <time>2024-04-04T17:33:29Z</time>
      </trkpt>
      <trkpt lat="43.666" lon="1.38992">
        <ele>125</ele>
        <time>2024-04-04T17:33:30Z</time>
      </trkpt>
      <trkpt lat="43.66601" lon="1.38985">
        <ele>125</ele>
        <time>2024-04-04T17:33:31Z</time>
      </trkpt>
      <trkpt lat="43.66601" lon="1.38977">
        <ele>125</ele>
        <time>2024-04-04T17:33:32Z</time>
      </trkpt>
      <trkpt lat="43.66601" lon="1.38971">
        <ele>125</ele>
        <time>2024-04-04T17:33:33Z</time>
      </trkpt>
      <trkpt lat="43.66602" lon="1.38965">
        <ele>125</ele>
        <time>2024-04-04T17:33:34Z</time>
      </trkpt>
      <trkpt lat="43.66602" lon="1.38965">
        <ele>124</ele>
        <time>2024-04-04T17:33:35Z</time>
      </trkpt>
      <trkpt lat="43.66603" lon="1.38954">
        <ele>124</ele>
        <time>2024-04-04T17:33:36Z</time>
      </trkpt>
      <trkpt lat="43.66603" lon="1.38949">
        <ele>124</ele>
        <time>2024-04-04T17:33:37Z</time>
      </trkpt>
      <trkpt lat="43.66603" lon="1.38949">
        <ele>124</ele>
        <time>2024-04-04T17:33:38Z</time>
      </trkpt>
      <trkpt lat="43.66603" lon="1.38942">
        <ele>124</ele>
        <time>2024-04-04T17:33:39Z</time>
      </trkpt>
      <trkpt lat="43.66604" lon="1.38935">
        <ele>124</ele>
        <time>2024-04-04T17:33:40Z</time>
      </trkpt>
      <trkpt lat="43.66604" lon="1.38928">
        <ele>125</ele>
        <time>2024-04-04T17:33:41Z</time>
      </trkpt>
      <trkpt lat="43.66605" lon="1.38925">
        <ele>125</ele>
        <time>2024-04-04T17:33:42Z</time>
      </trkpt>
      <trkpt lat="43.66608" lon="1.38912">
        <ele>125</ele>
        <time>2024-04-04T17:33:43Z</time>
      </trkpt>
      <trkpt lat="43.66608" lon="1.38912">
        <ele>125</ele>
        <time>2024-04-04T17:33:44Z</time>
      </trkpt>
      <trkpt lat="43.6661" lon="1.38899">
        <ele>125</ele>
        <time>2024-04-04T17:33:45Z</time>
      </trkpt>
      <trkpt lat="43.6661" lon="1.38899">
        <ele>125</ele>
        <time>2024-04-04T17:33:46Z</time>
      </trkpt>
      <trkpt lat="43.6661" lon="1.38892">
        <ele>125</ele>
        <time>2024-04-04T17:33:47Z</time>
      </trkpt>
      <trkpt lat="43.66611" lon="1.38885">
        <ele>125</ele>
        <time>2024-04-04T17:33:48Z</time>
      </trkpt>
      <trkpt lat="43.66611" lon="1.38872">
        <ele>125</ele>
        <time>2024-04-04T17:33:49Z</time>
      </trkpt>
      <trkpt lat="43.66611" lon="1.38872">
        <ele>125</ele>
        <time>2024-04-04T17:33:50Z</time>
      </trkpt>
      <trkpt lat="43.66611" lon="1.38858">
        <ele>125</ele>
        <time>2024-04-04T17:33:51Z</time>
      </trkpt>
      <trkpt lat="43.66611" lon="1.38858">
        <ele>125</ele>
        <time>2024-04-04T17:33:52Z</time>
      </trkpt>
      <trkpt lat="43.6661" lon="1.38852">
        <ele>125</ele>
        <time>2024-04-04T17:33:53Z</time>
      </trkpt>
      <trkpt lat="43.66609" lon="1.38846">
        <ele>125</ele>
        <time>2024-04-04T17:33:54Z</time>
      </trkpt>
      <trkpt lat="43.66609" lon="1.3884">
        <ele>125</ele>
        <time>2024-04-04T17:33:55Z</time>
      </trkpt>
      <trkpt lat="43.66608" lon="1.38836">
        <ele>125</ele>
        <time>2024-04-04T17:33:56Z</time>
      </trkpt>
      <trkpt lat="43.66607" lon="1.38831">
        <ele>125</ele>
        <time>2024-04-04T17:33:57Z</time>
      </trkpt>
      <trkpt lat="43.66606" lon="1.38826">
        <ele>124</ele>
        <time>2024-04-04T17:33:58Z</time>
      </trkpt>
      <trkpt lat="43.66606" lon="1.38824">
        <ele>124</ele>
        <time>2024-04-04T17:33:59Z</time>
      </trkpt>
      <trkpt lat="43.66606" lon="1.38822">
        <ele>124</ele>
        <time>2024-04-04T17:34:00Z</time>
      </trkpt>
      <trkpt lat="43.66606" lon="1.3882">
        <ele>124</ele>
        <time>2024-04-04T17:34:01Z</time>
      </trkpt>
      <trkpt lat="43.66606" lon="1.38816">
        <ele>124</ele>
        <time>2024-04-04T17:34:02Z</time>
      </trkpt>
      <trkpt lat="43.66606" lon="1.38813">
        <ele>124</ele>
        <time>2024-04-04T17:34:03Z</time>
      </trkpt>
      <trkpt lat="43.66606" lon="1.38813">
        <ele>124</ele>
        <time>2024-04-04T17:34:04Z</time>
      </trkpt>
      <trkpt lat="43.66606" lon="1.38813">
        <ele>124</ele>
        <time>2024-04-04T17:34:05Z</time>
      </trkpt>
      <trkpt lat="43.66606" lon="1.38809">
        <ele>124</ele>
        <time>2024-04-04T17:34:06Z</time>
      </trkpt>
      <trkpt lat="43.66605" lon="1.38806">
        <ele>124</ele>
        <time>2024-04-04T17:34:07Z</time>
      </trkpt>
      <trkpt lat="43.66605" lon="1.38806">
        <ele>124</ele>
        <time>2024-04-04T17:34:08Z</time>
      </trkpt>
      <trkpt lat="43.66605" lon="1.38806">
        <ele>125</ele>
        <time>2024-04-04T17:34:09Z</time>
      </trkpt>
      <trkpt lat="43.66605" lon="1.38806">
        <ele>125</ele>
        <time>2024-04-04T17:34:10Z</time>
      </trkpt>
      <trkpt lat="43.66604" lon="1.38808">
        <ele>125</ele>
        <time>2024-04-04T17:34:11Z</time>
      </trkpt>
      <trkpt lat="43.66604" lon="1.38808">
        <ele>125</ele>
        <time>2024-04-04T17:34:12Z</time>
      </trkpt>
      <trkpt lat="43.66604" lon="1.38808">
        <ele>125</ele>
        <time>2024-04-04T17:34:13Z</time>
      </trkpt>
      <trkpt lat="43.66605" lon="1.38811">
        <ele>125</ele>
        <time>2024-04-04T17:34:14Z</time>
      </trkpt>
      <trkpt lat="43.66607" lon="1.3881">
        <ele>124</ele>
        <time>2024-04-04T17:34:15Z</time>
      </trkpt>
      <trkpt lat="43.66607" lon="1.3881">
        <ele>124</ele>
        <time>2024-04-04T17:34:16Z</time>
      </trkpt>
      <trkpt lat="43.66607" lon="1.3881">
        <ele>124</ele>
        <time>2024-04-04T17:34:17Z</time>
      </trkpt>
      <trkpt lat="43.66607" lon="1.3881">
        <ele>124</ele>
        <time>2024-04-04T17:34:18Z</time>
      </trkpt>
      <trkpt lat="43.66609" lon="1.38808">
        <ele>124</ele>
        <time>2024-04-04T17:34:19Z</time>
      </trkpt>
      <trkpt lat="43.66609" lon="1.38808">
        <ele>124</ele>
        <time>2024-04-04T17:34:20Z</time>
      </trkpt>
      <trkpt lat="43.6661" lon="1.38805">
        <ele>124</ele>
        <time>2024-04-04T17:34:21Z</time>
      </trkpt>
      <trkpt lat="43.6661" lon="1.38805">
        <ele>124</ele>
        <time>2024-04-04T17:34:22Z</time>
      </trkpt>
      <trkpt lat="43.6661" lon="1.38805">
        <ele>124</ele>
        <time>2024-04-04T17:34:23Z</time>
      </trkpt>
      <trkpt lat="43.66609" lon="1.38802">
        <ele>124</ele>
        <time>2024-04-04T17:34:24Z</time>
      </trkpt>
      <trkpt lat="43.66609" lon="1.38802">
        <ele>124</ele>
        <time>2024-04-04T17:34:25Z</time>
      </trkpt>
      <trkpt lat="43.66609" lon="1.38802">
        <ele>124</ele>
        <time>2024-04-04T17:34:26Z</time>
      </trkpt>
      <trkpt lat="43.66609" lon="1.38802">
        <ele>124</ele>
        <time>2024-04-04T17:34:27Z</time>
      </trkpt>
      <trkpt lat="43.66608" lon="1.38799">
        <ele>124</ele>
        <time>2024-04-04T17:34:28Z</time>
      </trkpt>
      <trkpt lat="43.66608" lon="1.38799">
        <ele>124</ele>
        <time>2024-04-04T17:34:29Z</time>
      </trkpt>
      <trkpt lat="43.66606" lon="1.38799">
        <ele>124</ele>
        <time>2024-04-04T17:34:30Z</time>
      </trkpt>
      <trkpt lat="43.66606" lon="1.38799">
        <ele>124</ele>
        <time>2024-04-04T17:34:31Z</time>
      </trkpt>
      <trkpt lat="43.66604" lon="1.388">
        <ele>124</ele>
        <time>2024-04-04T17:34:32Z</time>
      </trkpt>
      <trkpt lat="43.66604" lon="1.388">
        <ele>124</ele>
        <time>2024-04-04T17:34:33Z</time>
      </trkpt>
      <trkpt lat="43.66603" lon="1.38802">
        <ele>124</ele>
        <time>2024-04-04T17:34:34Z</time>
      </trkpt>
      <trkpt lat="43.66603" lon="1.38802">
        <ele>124</ele>
        <time>2024-04-04T17:34:35Z</time>
      </trkpt>
      <trkpt lat="43.66603" lon="1.38802">
        <ele>124</ele>
        <time>2024-04-04T17:34:36Z</time>
      </trkpt>
      <trkpt lat="43.66601" lon="1.38803">
        <ele>124</ele>
        <time>2024-04-04T17:34:37Z</time>
      </trkpt>
      <trkpt lat="43.66601" lon="1.38803">
        <ele>124</ele>
        <time>2024-04-04T17:34:38Z</time>
      </trkpt>
      <trkpt lat="43.66601" lon="1.38803">
        <ele>124</ele>
        <time>2024-04-04T17:34:39Z</time>
      </trkpt>
      <trkpt lat="43.66601" lon="1.38803">
        <ele>124</ele>
        <time>2024-04-04T17:34:40Z</time>
      </trkpt>
      <trkpt lat="43.66602" lon="1.38805">
        <ele>124</ele>
        <time>2024-04-04T17:34:41Z</time>
      </trkpt>
      <trkpt lat="43.66602" lon="1.38805">
        <ele>124</ele>
        <time>2024-04-04T17:34:42Z</time>
      </trkpt>
      <trkpt lat="43.66602" lon="1.38805">
        <ele>124</ele>
        <time>2024-04-04T17:34:43Z</time>
      </trkpt>
      <trkpt lat="43.66602" lon="1.38805">
        <ele>124</ele>
        <time>2024-04-04T17:34:44Z</time>
      </trkpt>
      <trkpt lat="43.66604" lon="1.38805">
        <ele>124</ele>
        <time>2024-04-04T17:34:45Z</time>
      </trkpt>
      <trkpt lat="43.66604" lon="1.38805">
        <ele>124</ele>
        <time>2024-04-04T17:34:46Z</time>
      </trkpt>
      <trkpt lat="43.66604" lon="1.38805">
        <ele>124</ele>
        <time>2024-04-04T17:34:47Z</time>
      </trkpt>
      <trkpt lat="43.66607" lon="1.38807">
        <ele>124</ele>
        <time>2024-04-04T17:34:48Z</time>
      </trkpt>
      <trkpt lat="43.66607" lon="1.38807">
        <ele>124</ele>
        <time>2024-04-04T17:34:49Z</time>
      </trkpt>
      <trkpt lat="43.66608" lon="1.38809">
        <ele>124</ele>
        <time>2024-04-04T17:34:50Z</time>
      </trkpt>
      <trkpt lat="43.66608" lon="1.38809">
        <ele>124</ele>
        <time>2024-04-04T17:34:51Z</time>
      </trkpt>
      <trkpt lat="43.66609" lon="1.38812">
        <ele>124</ele>
        <time>2024-04-04T17:34:52Z</time>
      </trkpt>
      <trkpt lat="43.66609" lon="1.38812">
        <ele>124</ele>
        <time>2024-04-04T17:34:53Z</time>
      </trkpt>
      <trkpt lat="43.6661" lon="1.38814">
        <ele>125</ele>
        <time>2024-04-04T17:34:54Z</time>
      </trkpt>
      <trkpt lat="43.6661" lon="1.38814">
        <ele>125</ele>
        <time>2024-04-04T17:34:55Z</time>
      </trkpt>
      <trkpt lat="43.6661" lon="1.38814">
        <ele>125</ele>
        <time>2024-04-04T17:34:56Z</time>
      </trkpt>
      <trkpt lat="43.66609" lon="1.38818">
        <ele>125</ele>
        <time>2024-04-04T17:34:57Z</time>
      </trkpt>
      <trkpt lat="43.66609" lon="1.38818">
        <ele>125</ele>
        <time>2024-04-04T17:34:58Z</time>
      </trkpt>
      <trkpt lat="43.66609" lon="1.38818">
        <ele>125</ele>
        <time>2024-04-04T17:34:59Z</time>
      </trkpt>
      <trkpt lat="43.66609" lon="1.38818">
        <ele>124</ele>
        <time>2024-04-04T17:35:00Z</time>
      </trkpt>
      <trkpt lat="43.66609" lon="1.38818">
        <ele>124</ele>
        <time>2024-04-04T17:35:01Z</time>
      </trkpt>
      <trkpt lat="43.66609" lon="1.3882">
        <ele>124</ele>
        <time>2024-04-04T17:35:02Z</time>
      </trkpt>
      <trkpt lat="43.66609" lon="1.3882">
        <ele>124</ele>
        <time>2024-04-04T17:35:03Z</time>
      </trkpt>
      <trkpt lat="43.66609" lon="1.3882">
        <ele>124</ele>
        <time>2024-04-04T17:35:04Z</time>
      </trkpt>
      <trkpt lat="43.66609" lon="1.3882">
        <ele>124</ele>
        <time>2024-04-04T17:35:05Z</time>
      </trkpt>
      <trkpt lat="43.66609" lon="1.3882">
        <ele>124</ele>
        <time>2024-04-04T17:35:06Z</time>
      </trkpt>
      <trkpt lat="43.66609" lon="1.3882">
        <ele>124</ele>
        <time>2024-04-04T17:35:07Z</time>
      </trkpt>
      <trkpt lat="43.66609" lon="1.3882">
        <ele>124</ele>
        <time>2024-04-04T17:35:08Z</time>
      </trkpt>
      <trkpt lat="43.66609" lon="1.3882">
        <ele>124</ele>
        <time>2024-04-04T17:35:09Z</time>
      </trkpt>
      <trkpt lat="43.66609" lon="1.3882">
        <ele>124</ele>
        <time>2024-04-04T17:35:10Z</time>
      </trkpt>
      <trkpt lat="43.66609" lon="1.3882">
        <ele>124</ele>
        <time>2024-04-04T17:35:11Z</time>
      </trkpt>
      <trkpt lat="43.66609" lon="1.3882">
        <ele>124</ele>
        <time>2024-04-04T17:35:12Z</time>
      </trkpt>
      <trkpt lat="43.66609" lon="1.3882">
        <ele>124</ele>
        <time>2024-04-04T17:35:13Z</time>
      </trkpt>
      <trkpt lat="43.66611" lon="1.38821">
        <ele>124</ele>
        <time>2024-04-04T17:35:14Z</time>
      </trkpt>
      <trkpt lat="43.66611" lon="1.38821">
        <ele>124</ele>
        <time>2024-04-04T17:35:15Z</time>
      </trkpt>
      <trkpt lat="43.66611" lon="1.38821">
        <ele>124</ele>
        <time>2024-04-04T17:35:16Z</time>
      </trkpt>
      <trkpt lat="43.66611" lon="1.38824">
        <ele>124</ele>
        <time>2024-04-04T17:35:17Z</time>
      </trkpt>
      <trkpt lat="43.66611" lon="1.38824">
        <ele>124</ele>
        <time>2024-04-04T17:35:18Z</time>
      </trkpt>
      <trkpt lat="43.66612" lon="1.38829">
        <ele>124</ele>
        <time>2024-04-04T17:35:19Z</time>
      </trkpt>
      <trkpt lat="43.66612" lon="1.38829">
        <ele>124</ele>
        <time>2024-04-04T17:35:20Z</time>
      </trkpt>
      <trkpt lat="43.66613" lon="1.38841">
        <ele>124</ele>
        <time>2024-04-04T17:35:21Z</time>
      </trkpt>
      <trkpt lat="43.66613" lon="1.38841">
        <ele>124</ele>
        <time>2024-04-04T17:35:22Z</time>
      </trkpt>
      <trkpt lat="43.66614" lon="1.38854">
        <ele>125</ele>
        <time>2024-04-04T17:35:23Z</time>
      </trkpt>
      <trkpt lat="43.66614" lon="1.38854">
        <ele>125</ele>
        <time>2024-04-04T17:35:24Z</time>
      </trkpt>
      <trkpt lat="43.66614" lon="1.38868">
        <ele>125</ele>
        <time>2024-04-04T17:35:25Z</time>
      </trkpt>
      <trkpt lat="43.66613" lon="1.38875">
        <ele>125</ele>
        <time>2024-04-04T17:35:26Z</time>
      </trkpt>
      <trkpt lat="43.66613" lon="1.38875">
        <ele>125</ele>
        <time>2024-04-04T17:35:27Z</time>
      </trkpt>
      <trkpt lat="43.66613" lon="1.38887">
        <ele>125</ele>
        <time>2024-04-04T17:35:28Z</time>
      </trkpt>
      <trkpt lat="43.66613" lon="1.38887">
        <ele>125</ele>
        <time>2024-04-04T17:35:29Z</time>
      </trkpt>
      <trkpt lat="43.66612" lon="1.38895">
        <ele>125</ele>
        <time>2024-04-04T17:35:30Z</time>
      </trkpt>
      <trkpt lat="43.66611" lon="1.38904">
        <ele>125</ele>
        <time>2024-04-04T17:35:31Z</time>
      </trkpt>
      <trkpt lat="43.6661" lon="1.38912">
        <ele>125</ele>
        <time>2024-04-04T17:35:32Z</time>
      </trkpt>
      <trkpt lat="43.6661" lon="1.38918">
        <ele>125</ele>
        <time>2024-04-04T17:35:33Z</time>
      </trkpt>
      <trkpt lat="43.6661" lon="1.38918">
        <ele>125</ele>
        <time>2024-04-04T17:35:34Z</time>
      </trkpt>
      <trkpt lat="43.6661" lon="1.38924">
        <ele>125</ele>
        <time>2024-04-04T17:35:35Z</time>
      </trkpt>
      <trkpt lat="43.6661" lon="1.3893">
        <ele>125</ele>
        <time>2024-04-04T17:35:36Z</time>
      </trkpt>
      <trkpt lat="43.66609" lon="1.38936">
        <ele>125</ele>
        <time>2024-04-04T17:35:37Z</time>
      </trkpt>
      <trkpt lat="43.66609" lon="1.38942">
        <ele>125</ele>
        <time>2024-04-04T17:35:38Z</time>
      </trkpt>
      <trkpt lat="43.66609" lon="1.38948">
        <ele>125</ele>
        <time>2024-04-04T17:35:39Z</time>
      </trkpt>
      <trkpt lat="43.66609" lon="1.38954">
        <ele>125</ele>
        <time>2024-04-04T17:35:40Z</time>
      </trkpt>
      <trkpt lat="43.66608" lon="1.3896">
        <ele>125</ele>
        <time>2024-04-04T17:35:41Z</time>
      </trkpt>
      <trkpt lat="43.66608" lon="1.38966">
        <ele>125</ele>
        <time>2024-04-04T17:35:42Z</time>
      </trkpt>
      <trkpt lat="43.66608" lon="1.38973">
        <ele>125</ele>
        <time>2024-04-04T17:35:43Z</time>
      </trkpt>
      <trkpt lat="43.66608" lon="1.3898">
        <ele>125</ele>
        <time>2024-04-04T17:35:44Z</time>
      </trkpt>
      <trkpt lat="43.66607" lon="1.38987">
        <ele>125</ele>
        <time>2024-04-04T17:35:45Z</time>
      </trkpt>
      <trkpt lat="43.66606" lon="1.38994">
        <ele>125</ele>
        <time>2024-04-04T17:35:46Z</time>
      </trkpt>
      <trkpt lat="43.66606" lon="1.38998">
        <ele>125</ele>
        <time>2024-04-04T17:35:47Z</time>
      </trkpt>
      <trkpt lat="43.66602" lon="1.39013">
        <ele>124</ele>
        <time>2024-04-04T17:35:48Z</time>
      </trkpt>
      <trkpt lat="43.66601" lon="1.39016">
        <ele>124</ele>
        <time>2024-04-04T17:35:49Z</time>
      </trkpt>
      <trkpt lat="43.666" lon="1.39023">
        <ele>124</ele>
        <time>2024-04-04T17:35:50Z</time>
      </trkpt>
      <trkpt lat="43.66599" lon="1.39029">
        <ele>124</ele>
        <time>2024-04-04T17:35:51Z</time>
      </trkpt>
      <trkpt lat="43.66597" lon="1.39035">
        <ele>124</ele>
        <time>2024-04-04T17:35:52Z</time>
      </trkpt>
      <trkpt lat="43.66595" lon="1.3904">
        <ele>125</ele>
        <time>2024-04-04T17:35:53Z</time>
      </trkpt>
      <trkpt lat="43.66594" lon="1.39045">
        <ele>125</ele>
        <time>2024-04-04T17:35:54Z</time>
      </trkpt>
      <trkpt lat="43.66594" lon="1.39045">
        <ele>125</ele>
        <time>2024-04-04T17:35:55Z</time>
      </trkpt>
      <trkpt lat="43.66594" lon="1.39048">
        <ele>125</ele>
        <time>2024-04-04T17:35:56Z</time>
      </trkpt>
      <trkpt lat="43.66593" lon="1.3905">
        <ele>125</ele>
        <time>2024-04-04T17:35:57Z</time>
      </trkpt>
      <trkpt lat="43.66593" lon="1.39053">
        <ele>125</ele>
        <time>2024-04-04T17:35:58Z</time>
      </trkpt>
      <trkpt lat="43.66591" lon="1.39063">
        <ele>125</ele>
        <time>2024-04-04T17:35:59Z</time>
      </trkpt>
      <trkpt lat="43.6659" lon="1.39066">
        <ele>125</ele>
        <time>2024-04-04T17:36:00Z</time>
      </trkpt>
      <trkpt lat="43.66589" lon="1.39068">
        <ele>125</ele>
        <time>2024-04-04T17:36:01Z</time>
      </trkpt>
      <trkpt lat="43.66588" lon="1.39068">
        <ele>125</ele>
        <time>2024-04-04T17:36:02Z</time>
      </trkpt>
      <trkpt lat="43.66586" lon="1.39068">
        <ele>125</ele>
        <time>2024-04-04T17:36:03Z</time>
      </trkpt>
      <trkpt lat="43.66585" lon="1.39067">
        <ele>125</ele>
        <time>2024-04-04T17:36:04Z</time>
      </trkpt>
      <trkpt lat="43.66583" lon="1.39067">
        <ele>125</ele>
        <time>2024-04-04T17:36:05Z</time>
      </trkpt>
      <trkpt lat="43.66581" lon="1.39067">
        <ele>125</ele>
        <time>2024-04-04T17:36:06Z</time>
      </trkpt>
      <trkpt lat="43.66579" lon="1.39064">
        <ele>125</ele>
        <time>2024-04-04T17:36:07Z</time>
      </trkpt>
      <trkpt lat="43.66579" lon="1.39064">
        <ele>125</ele>
        <time>2024-04-04T17:36:08Z</time>
      </trkpt>
      <trkpt lat="43.66579" lon="1.39059">
        <ele>125</ele>
        <time>2024-04-04T17:36:09Z</time>
      </trkpt>
      <trkpt lat="43.66579" lon="1.39059">
        <ele>125</ele>
        <time>2024-04-04T17:36:10Z</time>
      </trkpt>
      <trkpt lat="43.6658" lon="1.39056">
        <ele>125</ele>
        <time>2024-04-04T17:36:11Z</time>
      </trkpt>
      <trkpt lat="43.6658" lon="1.39056">
        <ele>125</ele>
        <time>2024-04-04T17:36:12Z</time>
      </trkpt>
      <trkpt lat="43.66581" lon="1.39053">
        <ele>125</ele>
        <time>2024-04-04T17:36:13Z</time>
      </trkpt>
      <trkpt lat="43.66581" lon="1.39053">
        <ele>125</ele>
        <time>2024-04-04T17:36:14Z</time>
      </trkpt>
      <trkpt lat="43.66582" lon="1.3905">
        <ele>125</ele>
        <time>2024-04-04T17:36:15Z</time>
      </trkpt>
      <trkpt lat="43.66582" lon="1.3905">
        <ele>125</ele>
        <time>2024-04-04T17:36:16Z</time>
      </trkpt>
      <trkpt lat="43.66582" lon="1.3905">
        <ele>125</ele>
        <time>2024-04-04T17:36:17Z</time>
      </trkpt>
      <trkpt lat="43.66583" lon="1.39047">
        <ele>125</ele>
        <time>2024-04-04T17:36:18Z</time>
      </trkpt>
      <trkpt lat="43.66583" lon="1.39047">
        <ele>125</ele>
        <time>2024-04-04T17:36:19Z</time>
      </trkpt>
      <trkpt lat="43.66583" lon="1.39047">
        <ele>125</ele>
        <time>2024-04-04T17:36:20Z</time>
      </trkpt>
      <trkpt lat="43.66583" lon="1.39045">
        <ele>125</ele>
        <time>2024-04-04T17:36:21Z</time>
      </trkpt>
      <trkpt lat="43.66583" lon="1.39045">
        <ele>125</ele>
        <time>2024-04-04T17:36:22Z</time>
      </trkpt>
      <trkpt lat="43.66583" lon="1.39045">
        <ele>125</ele>
        <time>2024-04-04T17:36:23Z</time>
      </trkpt>
      <trkpt lat="43.66583" lon="1.39045">
        <ele>125</ele>
        <time>2024-04-04T17:36:24Z</time>
      </trkpt>
      <trkpt lat="43.66582" lon="1.39047">
        <ele>125</ele>
        <time>2024-04-04T17:36:25Z</time>
      </trkpt>
      <trkpt lat="43.66582" lon="1.39047">
        <ele>125</ele>
        <time>2024-04-04T17:36:26Z</time>
      </trkpt>
      <trkpt lat="43.66582" lon="1.3905">
        <ele>125</ele>
        <time>2024-04-04T17:36:27Z</time>
      </trkpt>
      <trkpt lat="43.66582" lon="1.3905">
        <ele>125</ele>
        <time>2024-04-04T17:36:28Z</time>
      </trkpt>
      <trkpt lat="43.66583" lon="1.39053">
        <ele>125</ele>
        <time>2024-04-04T17:36:29Z</time>
      </trkpt>
      <trkpt lat="43.66583" lon="1.39053">
        <ele>125</ele>
        <time>2024-04-04T17:36:30Z</time>
      </trkpt>
      <trkpt lat="43.66583" lon="1.39053">
        <ele>125</ele>
        <time>2024-04-04T17:36:31Z</time>
      </trkpt>
      <trkpt lat="43.66584" lon="1.39056">
        <ele>125</ele>
        <time>2024-04-04T17:36:32Z</time>
      </trkpt>
      <trkpt lat="43.66584" lon="1.39056">
        <ele>125</ele>
        <time>2024-04-04T17:36:33Z</time>
      </trkpt>
      <trkpt lat="43.66584" lon="1.39056">
        <ele>125</ele>
        <time>2024-04-04T17:36:34Z</time>
      </trkpt>
      <trkpt lat="43.66584" lon="1.39056">
        <ele>125</ele>
        <time>2024-04-04T17:36:35Z</time>
      </trkpt>
      <trkpt lat="43.66586" lon="1.39058">
        <ele>125</ele>
        <time>2024-04-04T17:36:36Z</time>
      </trkpt>
      <trkpt lat="43.66586" lon="1.39058">
        <ele>125</ele>
        <time>2024-04-04T17:36:37Z</time>
      </trkpt>
      <trkpt lat="43.66587" lon="1.39061">
        <ele>125</ele>
        <time>2024-04-04T17:36:38Z</time>
      </trkpt>
      <trkpt lat="43.66587" lon="1.39061">
        <ele>125</ele>
        <time>2024-04-04T17:36:39Z</time>
      </trkpt>
      <trkpt lat="43.66587" lon="1.39061">
        <ele>125</ele>
        <time>2024-04-04T17:36:40Z</time>
      </trkpt>
      <trkpt lat="43.66587" lon="1.39061">
        <ele>125</ele>
        <time>2024-04-04T17:36:41Z</time>
      </trkpt>
      <trkpt lat="43.66587" lon="1.39061">
        <ele>125</ele>
        <time>2024-04-04T17:36:42Z</time>
      </trkpt>
      <trkpt lat="43.66589" lon="1.39062">
        <ele>125</ele>
        <time>2024-04-04T17:36:43Z</time>
      </trkpt>
      <trkpt lat="43.66589" lon="1.39062">
        <ele>125</ele>
        <time>2024-04-04T17:36:44Z</time>
      </trkpt>
      <trkpt lat="43.66589" lon="1.39062">
        <ele>125</ele>
        <time>2024-04-04T17:36:45Z</time>
      </trkpt>
      <trkpt lat="43.66589" lon="1.39062">
        <ele>125</ele>
        <time>2024-04-04T17:36:46Z</time>
      </trkpt>
      <trkpt lat="43.66589" lon="1.39062">
        <ele>125</ele>
        <time>2024-04-04T17:36:47Z</time>
      </trkpt>
      <trkpt lat="43.66589" lon="1.39062">
        <ele>125</ele>
        <time>2024-04-04T17:36:48Z</time>
      </trkpt>
      <trkpt lat="43.6659" lon="1.39065">
        <ele>125</ele>
        <time>2024-04-04T17:36:49Z</time>
      </trkpt>
      <trkpt lat="43.6659" lon="1.39065">
        <ele>125</ele>
        <time>2024-04-04T17:36:50Z</time>
      </trkpt>
      <trkpt lat="43.66587" lon="1.39074">
        <ele>125</ele>
        <time>2024-04-04T17:36:51Z</time>
      </trkpt>
      <trkpt lat="43.66586" lon="1.39077">
        <ele>125</ele>
        <time>2024-04-04T17:36:52Z</time>
      </trkpt>
      <trkpt lat="43.66585" lon="1.39083">
        <ele>125</ele>
        <time>2024-04-04T17:36:53Z</time>
      </trkpt>
      <trkpt lat="43.66583" lon="1.3909">
        <ele>125</ele>
        <time>2024-04-04T17:36:54Z</time>
      </trkpt>
      <trkpt lat="43.66583" lon="1.39098">
        <ele>125</ele>
        <time>2024-04-04T17:36:55Z</time>
      </trkpt>
      <trkpt lat="43.66583" lon="1.39098">
        <ele>125</ele>
        <time>2024-04-04T17:36:56Z</time>
      </trkpt>
      <trkpt lat="43.66582" lon="1.39105">
        <ele>125</ele>
        <time>2024-04-04T17:36:57Z</time>
      </trkpt>
      <trkpt lat="43.66581" lon="1.39112">
        <ele>125</ele>
        <time>2024-04-04T17:36:58Z</time>
      </trkpt>
      <trkpt lat="43.66578" lon="1.3913">
        <ele>125</ele>
        <time>2024-04-04T17:36:59Z</time>
      </trkpt>
      <trkpt lat="43.66578" lon="1.39134">
        <ele>125</ele>
        <time>2024-04-04T17:37:00Z</time>
      </trkpt>
      <trkpt lat="43.66577" lon="1.39146">
        <ele>125</ele>
        <time>2024-04-04T17:37:01Z</time>
      </trkpt>
      <trkpt lat="43.66576" lon="1.39149">
        <ele>125</ele>
        <time>2024-04-04T17:37:02Z</time>
      </trkpt>
      <trkpt lat="43.66575" lon="1.3916">
        <ele>125</ele>
        <time>2024-04-04T17:37:03Z</time>
      </trkpt>
      <trkpt lat="43.66574" lon="1.39164">
        <ele>125</ele>
        <time>2024-04-04T17:37:04Z</time>
      </trkpt>
      <trkpt lat="43.66572" lon="1.39174">
        <ele>125</ele>
        <time>2024-04-04T17:37:05Z</time>
      </trkpt>
      <trkpt lat="43.66572" lon="1.39178">
        <ele>125</ele>
        <time>2024-04-04T17:37:06Z</time>
      </trkpt>
      <trkpt lat="43.66571" lon="1.39187">
        <ele>125</ele>
        <time>2024-04-04T17:37:07Z</time>
      </trkpt>
      <trkpt lat="43.66571" lon="1.3919">
        <ele>125</ele>
        <time>2024-04-04T17:37:08Z</time>
      </trkpt>
      <trkpt lat="43.66571" lon="1.39194">
        <ele>125</ele>
        <time>2024-04-04T17:37:09Z</time>
      </trkpt>
      <trkpt lat="43.66571" lon="1.39194">
        <ele>125</ele>
        <time>2024-04-04T17:37:10Z</time>
      </trkpt>
      <trkpt lat="43.6657" lon="1.39199">
        <ele>125</ele>
        <time>2024-04-04T17:37:11Z</time>
      </trkpt>
      <trkpt lat="43.6657" lon="1.39199">
        <ele>125</ele>
        <time>2024-04-04T17:37:12Z</time>
      </trkpt>
      <trkpt lat="43.66571" lon="1.39202">
        <ele>125</ele>
        <time>2024-04-04T17:37:13Z</time>
      </trkpt>
      <trkpt lat="43.66571" lon="1.39202">
        <ele>125</ele>
        <time>2024-04-04T17:37:14Z</time>
      </trkpt>
      <trkpt lat="43.66572" lon="1.39205">
        <ele>125</ele>
        <time>2024-04-04T17:37:15Z</time>
      </trkpt>
      <trkpt lat="43.66572" lon="1.39205">
        <ele>125</ele>
        <time>2024-04-04T17:37:16Z</time>
      </trkpt>
      <trkpt lat="43.66571" lon="1.39207">
        <ele>125</ele>
        <time>2024-04-04T17:37:17Z</time>
      </trkpt>
      <trkpt lat="43.66571" lon="1.39207">
        <ele>125</ele>
        <time>2024-04-04T17:37:18Z</time>
      </trkpt>
      <trkpt lat="43.66571" lon="1.39207">
        <ele>125</ele>
        <time>2024-04-04T17:37:19Z</time>
      </trkpt>
      <trkpt lat="43.66569" lon="1.3921">
        <ele>125</ele>
        <time>2024-04-04T17:37:20Z</time>
      </trkpt>
      <trkpt lat="43.66569" lon="1.3921">
        <ele>125</ele>
        <time>2024-04-04T17:37:21Z</time>
      </trkpt>
      <trkpt lat="43.66567" lon="1.3921">
        <ele>125</ele>
        <time>2024-04-04T17:37:22Z</time>
      </trkpt>
      <trkpt lat="43.66567" lon="1.3921">
        <ele>125</ele>
        <time>2024-04-04T17:37:23Z</time>
      </trkpt>
      <trkpt lat="43.66564" lon="1.3921">
        <ele>125</ele>
        <time>2024-04-04T17:37:24Z</time>
      </trkpt>
      <trkpt lat="43.66564" lon="1.3921">
        <ele>125</ele>
        <time>2024-04-04T17:37:25Z</time>
      </trkpt>
      <trkpt lat="43.66562" lon="1.39208">
        <ele>124</ele>
        <time>2024-04-04T17:37:26Z</time>
      </trkpt>
      <trkpt lat="43.66562" lon="1.39208">
        <ele>124</ele>
        <time>2024-04-04T17:37:27Z</time>
      </trkpt>
      <trkpt lat="43.66562" lon="1.39208">
        <ele>124</ele>
        <time>2024-04-04T17:37:28Z</time>
      </trkpt>
      <trkpt lat="43.6656" lon="1.39207">
        <ele>124</ele>
        <time>2024-04-04T17:37:29Z</time>
      </trkpt>
      <trkpt lat="43.6656" lon="1.39207">
        <ele>124</ele>
        <time>2024-04-04T17:37:30Z</time>
      </trkpt>
      <trkpt lat="43.66558" lon="1.39205">
        <ele>124</ele>
        <time>2024-04-04T17:37:31Z</time>
      </trkpt>
      <trkpt lat="43.66558" lon="1.39205">
        <ele>124</ele>
        <time>2024-04-04T17:37:32Z</time>
      </trkpt>
      <trkpt lat="43.66557" lon="1.39203">
        <ele>124</ele>
        <time>2024-04-04T17:37:33Z</time>
      </trkpt>
      <trkpt lat="43.66557" lon="1.39203">
        <ele>124</ele>
        <time>2024-04-04T17:37:34Z</time>
      </trkpt>
      <trkpt lat="43.66557" lon="1.39203">
        <ele>124</ele>
        <time>2024-04-04T17:37:35Z</time>
      </trkpt>
      <trkpt lat="43.66557" lon="1.39203">
        <ele>124</ele>
        <time>2024-04-04T17:37:36Z</time>
      </trkpt>
      <trkpt lat="43.66557" lon="1.39203">
        <ele>124</ele>
        <time>2024-04-04T17:37:37Z</time>
      </trkpt>
      <trkpt lat="43.66557" lon="1.39203">
        <ele>124</ele>
        <time>2024-04-04T17:37:38Z</time>
      </trkpt>
      <trkpt lat="43.66558" lon="1.39206">
        <ele>124</ele>
        <time>2024-04-04T17:37:39Z</time>
      </trkpt>
      <trkpt lat="43.66558" lon="1.39208">
        <ele>124</ele>
        <time>2024-04-04T17:37:40Z</time>
      </trkpt>
      <trkpt lat="43.66558" lon="1.39208">
        <ele>124</ele>
        <time>2024-04-04T17:37:41Z</time>
      </trkpt>
      <trkpt lat="43.66558" lon="1.39208">
        <ele>124</ele>
        <time>2024-04-04T17:37:42Z</time>
      </trkpt>
      <trkpt lat="43.6656" lon="1.39211">
        <ele>124</ele>
        <time>2024-04-04T17:37:43Z</time>
      </trkpt>
      <trkpt lat="43.6656" lon="1.39211">
        <ele>124</ele>
        <time>2024-04-04T17:37:44Z</time>
      </trkpt>
      <trkpt lat="43.6656" lon="1.39211">
        <ele>124</ele>
        <time>2024-04-04T17:37:45Z</time>
      </trkpt>
      <trkpt lat="43.6656" lon="1.39211">
        <ele>124</ele>
        <time>2024-04-04T17:37:46Z</time>
      </trkpt>
      <trkpt lat="43.66562" lon="1.39213">
        <ele>124</ele>
        <time>2024-04-04T17:37:47Z</time>
      </trkpt>
      <trkpt lat="43.66562" lon="1.39213">
        <ele>124</ele>
        <time>2024-04-04T17:37:48Z</time>
      </trkpt>
      <trkpt lat="43.66562" lon="1.39213">
        <ele>124</ele>
        <time>2024-04-04T17:37:49Z</time>
      </trkpt>
      <trkpt lat="43.66562" lon="1.39213">
        <ele>124</ele>
        <time>2024-04-04T17:37:50Z</time>
      </trkpt>
      <trkpt lat="43.66562" lon="1.39213">
        <ele>124</ele>
        <time>2024-04-04T17:37:51Z</time>
      </trkpt>
      <trkpt lat="43.66564" lon="1.39213">
        <ele>124</ele>
        <time>2024-04-04T17:37:52Z</time>
      </trkpt>
      <trkpt lat="43.66564" lon="1.39213">
        <ele>124</ele>
        <time>2024-04-04T17:37:53Z</time>
      </trkpt>
      <trkpt lat="43.66564" lon="1.39213">
        <ele>124</ele>
        <time>2024-04-04T17:37:54Z</time>
      </trkpt>
      <trkpt lat="43.66564" lon="1.39213">
        <ele>124</ele>
        <time>2024-04-04T17:37:55Z</time>
      </trkpt>
      <trkpt lat="43.66564" lon="1.39213">
        <ele>124</ele>
        <time>2024-04-04T17:37:56Z</time>
      </trkpt>
      <trkpt lat="43.66564" lon="1.39213">
        <ele>124</ele>
        <time>2024-04-04T17:37:57Z</time>
      </trkpt>
      <trkpt lat="43.66562" lon="1.39211">
        <ele>124</ele>
        <time>2024-04-04T17:37:58Z</time>
      </trkpt>
      <trkpt lat="43.66562" lon="1.39211">
        <ele>124</ele>
        <time>2024-04-04T17:37:59Z</time>
      </trkpt>
      <trkpt lat="43.66562" lon="1.39211">
        <ele>124</ele>
        <time>2024-04-04T17:38:00Z</time>
      </trkpt>
      <trkpt lat="43.66561" lon="1.3921">
        <ele>124</ele>
        <time>2024-04-04T17:38:01Z</time>
      </trkpt>
      <trkpt lat="43.66561" lon="1.3921">
        <ele>124</ele>
        <time>2024-04-04T17:38:02Z</time>
      </trkpt>
      <trkpt lat="43.66561" lon="1.3921">
        <ele>124</ele>
        <time>2024-04-04T17:38:03Z</time>
      </trkpt>
      <trkpt lat="43.66561" lon="1.3921">
        <ele>124</ele>
        <time>2024-04-04T17:38:04Z</time>
      </trkpt>
      <trkpt lat="43.66561" lon="1.3921">
        <ele>124</ele>
        <time>2024-04-04T17:38:05Z</time>
      </trkpt>
      <trkpt lat="43.66561" lon="1.3921">
        <ele>124</ele>
        <time>2024-04-04T17:38:06Z</time>
      </trkpt>
      <trkpt lat="43.66561" lon="1.3921">
        <ele>124</ele>
        <time>2024-04-04T17:38:07Z</time>
      </trkpt>
      <trkpt lat="43.66561" lon="1.3921">
        <ele>124</ele>
        <time>2024-04-04T17:38:08Z</time>
      </trkpt>
      <trkpt lat="43.66561" lon="1.3921">
        <ele>124</ele>
        <time>2024-04-04T17:38:09Z</time>
      </trkpt>
      <trkpt lat="43.66561" lon="1.3921">
        <ele>124</ele>
        <time>2024-04-04T17:38:10Z</time>
      </trkpt>
      <trkpt lat="43.66561" lon="1.3921">
        <ele>124</ele>
        <time>2024-04-04T17:38:11Z</time>
      </trkpt>
      <trkpt lat="43.66561" lon="1.3921">
        <ele>124</ele>
        <time>2024-04-04T17:38:12Z</time>
      </trkpt>
      <trkpt lat="43.66563" lon="1.39209">
        <ele>124</ele>
        <time>2024-04-04T17:38:13Z</time>
      </trkpt>
      <trkpt lat="43.66563" lon="1.39209">
        <ele>124</ele>
        <time>2024-04-04T17:38:14Z</time>
      </trkpt>
      <trkpt lat="43.66564" lon="1.39207">
        <ele>124</ele>
        <time>2024-04-04T17:38:15Z</time>
      </trkpt>
      <trkpt lat="43.66564" lon="1.39207">
        <ele>124</ele>
        <time>2024-04-04T17:38:16Z</time>
      </trkpt>
      <trkpt lat="43.66564" lon="1.39207">
        <ele>124</ele>
        <time>2024-04-04T17:38:17Z</time>
      </trkpt>
      <trkpt lat="43.66564" lon="1.39207">
        <ele>124</ele>
        <time>2024-04-04T17:38:18Z</time>
      </trkpt>
      <trkpt lat="43.66564" lon="1.39207">
        <ele>124</ele>
        <time>2024-04-04T17:38:19Z</time>
      </trkpt>
      <trkpt lat="43.66564" lon="1.39207">
        <ele>124</ele>
        <time>2024-04-04T17:38:20Z</time>
      </trkpt>
      <trkpt lat="43.66564" lon="1.39207">
        <ele>124</ele>
        <time>2024-04-04T17:38:21Z</time>
      </trkpt>
      <trkpt lat="43.66564" lon="1.39207">
        <ele>124</ele>
        <time>2024-04-04T17:38:22Z</time>
      </trkpt>
      <trkpt lat="43.66564" lon="1.39207">
        <ele>124</ele>
        <time>2024-04-04T17:38:23Z</time>
      </trkpt>
      <trkpt lat="43.66564" lon="1.39207">
        <ele>124</ele>
        <time>2024-04-04T17:38:24Z</time>
      </trkpt>
      <trkpt lat="43.66564" lon="1.39207">
        <ele>124</ele>
        <time>2024-04-04T17:38:25Z</time>
      </trkpt>
      <trkpt lat="43.66564" lon="1.39207">
        <ele>125</ele>
        <time>2024-04-04T17:38:26Z</time>
      </trkpt>
      <trkpt lat="43.66564" lon="1.39207">
        <ele>125</ele>
        <time>2024-04-04T17:38:27Z</time>
      </trkpt>
      <trkpt lat="43.66564" lon="1.39207">
        <ele>125</ele>
        <time>2024-04-04T17:38:28Z</time>
      </trkpt>
      <trkpt lat="43.66564" lon="1.39207">
        <ele>125</ele>
        <time>2024-04-04T17:38:29Z</time>
      </trkpt>
      <trkpt lat="43.66564" lon="1.39207">
        <ele>125</ele>
        <time>2024-04-04T17:38:30Z</time>
      </trkpt>
      <trkpt lat="43.66564" lon="1.39207">
        <ele>125</ele>
        <time>2024-04-04T17:38:31Z</time>
      </trkpt>
      <trkpt lat="43.66564" lon="1.39207">
        <ele>125</ele>
        <time>2024-04-04T17:38:32Z</time>
      </trkpt>
      <trkpt lat="43.66564" lon="1.39207">
        <ele>125</ele>
        <time>2024-04-04T17:38:33Z</time>
      </trkpt>
      <trkpt lat="43.66564" lon="1.39207">
        <ele>125</ele>
        <time>2024-04-04T17:38:34Z</time>
      </trkpt>
      <trkpt lat="43.66564" lon="1.39207">
        <ele>125</ele>
        <time>2024-04-04T17:38:35Z</time>
      </trkpt>
      <trkpt lat="43.66564" lon="1.39207">
        <ele>125</ele>
        <time>2024-04-04T17:38:36Z</time>
      </trkpt>
      <trkpt lat="43.66564" lon="1.39207">
        <ele>125</ele>
        <time>2024-04-04T17:38:37Z</time>
      </trkpt>
      <trkpt lat="43.66564" lon="1.39207">
        <ele>125</ele>
        <time>2024-04-04T17:38:38Z</time>
      </trkpt>
      <trkpt lat="43.66564" lon="1.39207">
        <ele>125</ele>
        <time>2024-04-04T17:38:39Z</time>
      </trkpt>
      <trkpt lat="43.66564" lon="1.39207">
        <ele>125</ele>
        <time>2024-04-04T17:38:40Z</time>
      </trkpt>
      <trkpt lat="43.66565" lon="1.39206">
        <ele>125</ele>
        <time>2024-04-04T17:38:41Z</time>
      </trkpt>
      <trkpt lat="43.66565" lon="1.39206">
        <ele>125</ele>
        <time>2024-04-04T17:38:42Z</time>
      </trkpt>
      <trkpt lat="43.66565" lon="1.39206">
        <ele>125</ele>
        <time>2024-04-04T17:38:43Z</time>
      </trkpt>
      <trkpt lat="43.66565" lon="1.39206">
        <ele>125</ele>
        <time>2024-04-04T17:38:44Z</time>
      </trkpt>
      <trkpt lat="43.66565" lon="1.39206">
        <ele>125</ele>
        <time>2024-04-04T17:38:45Z</time>
      </trkpt>
      <trkpt lat="43.66565" lon="1.39206">
        <ele>124</ele>
        <time>2024-04-04T17:38:46Z</time>
      </trkpt>
      <trkpt lat="43.66565" lon="1.39206">
        <ele>124</ele>
        <time>2024-04-04T17:38:47Z</time>
      </trkpt>
      <trkpt lat="43.66565" lon="1.39206">
        <ele>124</ele>
        <time>2024-04-04T17:38:48Z</time>
      </trkpt>
      <trkpt lat="43.66564" lon="1.39208">
        <ele>124</ele>
        <time>2024-04-04T17:38:49Z</time>
      </trkpt>
      <trkpt lat="43.66564" lon="1.39208">
        <ele>124</ele>
        <time>2024-04-04T17:38:50Z</time>
      </trkpt>
      <trkpt lat="43.66564" lon="1.39208">
        <ele>125</ele>
        <time>2024-04-04T17:38:51Z</time>
      </trkpt>
      <trkpt lat="43.66564" lon="1.39208">
        <ele>125</ele>
        <time>2024-04-04T17:38:52Z</time>
      </trkpt>
      <trkpt lat="43.66564" lon="1.39208">
        <ele>125</ele>
        <time>2024-04-04T17:38:53Z</time>
      </trkpt>
      <trkpt lat="43.66563" lon="1.39208">
        <ele>125</ele>
        <time>2024-04-04T17:38:54Z</time>
      </trkpt>
      <trkpt lat="43.66563" lon="1.39208">
        <ele>125</ele>
        <time>2024-04-04T17:38:55Z</time>
      </trkpt>
      <trkpt lat="43.66563" lon="1.39208">
        <ele>125</ele>
        <time>2024-04-04T17:38:56Z</time>
      </trkpt>
      <trkpt lat="43.66563" lon="1.39208">
        <ele>125</ele>
        <time>2024-04-04T17:38:57Z</time>
      </trkpt>
      <trkpt lat="43.66563" lon="1.39208">
        <ele>125</ele>
        <time>2024-04-04T17:38:58Z</time>
      </trkpt>
      <trkpt lat="43.66563" lon="1.39208">
        <ele>125</ele>
        <time>2024-04-04T17:38:59Z</time>
      </trkpt>
      <trkpt lat="43.66563" lon="1.39208">
        <ele>125</ele>
        <time>2024-04-04T17:39:00Z</time>
      </trkpt>
      <trkpt lat="43.66563" lon="1.39208">
        <ele>125</ele>
        <time>2024-04-04T17:39:01Z</time>
      </trkpt>
      <trkpt lat="43.66563" lon="1.39208">
        <ele>125</ele>
        <time>2024-04-04T17:39:02Z</time>
      </trkpt>
      <trkpt lat="43.66563" lon="1.39208">
        <ele>125</ele>
        <time>2024-04-04T17:39:03Z</time>
      </trkpt>
      <trkpt lat="43.66563" lon="1.39208">
        <ele>125</ele>
        <time>2024-04-04T17:39:04Z</time>
      </trkpt>
      <trkpt lat="43.66563" lon="1.39208">
        <ele>125</ele>
        <time>2024-04-04T17:39:05Z</time>
      </trkpt>
      <trkpt lat="43.66563" lon="1.39208">
        <ele>125</ele>
        <time>2024-04-04T17:39:06Z</time>
      </trkpt>
      <trkpt lat="43.66563" lon="1.39208">
        <ele>125</ele>
        <time>2024-04-04T17:39:07Z</time>
      </trkpt>
      <trkpt lat="43.66563" lon="1.39208">
        <ele>125</ele>
        <time>2024-04-04T17:39:08Z</time>
      </trkpt>
      <trkpt lat="43.66563" lon="1.39208">
        <ele>125</ele>
        <time>2024-04-04T17:39:09Z</time>
      </trkpt>
      <trkpt lat="43.66563" lon="1.39208">
        <ele>125</ele>
        <time>2024-04-04T17:39:10Z</time>
      </trkpt>
      <trkpt lat="43.66563" lon="1.39208">
        <ele>125</ele>
        <time>2024-04-04T17:39:11Z</time>
      </trkpt>
      <trkpt lat="43.66563" lon="1.39208">
        <ele>125</ele>
        <time>2024-04-04T17:39:12Z</time>
      </trkpt>
      <trkpt lat="43.66563" lon="1.39208">
        <ele>125</ele>
        <time>2024-04-04T17:39:13Z</time>
      </trkpt>
      <trkpt lat="43.66563" lon="1.39208">
        <ele>125</ele>
        <time>2024-04-04T17:39:14Z</time>
      </trkpt>
      <trkpt lat="43.66563" lon="1.39208">
        <ele>125</ele>
        <time>2024-04-04T17:39:15Z</time>
      </trkpt>
      <trkpt lat="43.66563" lon="1.39208">
        <ele>125</ele>
        <time>2024-04-04T17:39:16Z</time>
      </trkpt>
      <trkpt lat="43.66563" lon="1.39208">
        <ele>125</ele>
        <time>2024-04-04T17:39:17Z</time>
      </trkpt>
      <trkpt lat="43.66563" lon="1.39208">
        <ele>125</ele>
        <time>2024-04-04T17:39:18Z</time>
      </trkpt>
      <trkpt lat="43.66563" lon="1.39208">
        <ele>125</ele>
        <time>2024-04-04T17:39:19Z</time>
      </trkpt>
      <trkpt lat="43.66563" lon="1.39208">
        <ele>125</ele>
        <time>2024-04-04T17:39:20Z</time>
      </trkpt>
      <trkpt lat="43.66563" lon="1.39208">
        <ele>125</ele>
        <time>2024-04-04T17:39:21Z</time>
      </trkpt>
      <trkpt lat="43.66563" lon="1.39208">
        <ele>125</ele>
        <time>2024-04-04T17:39:22Z</time>
      </trkpt>
      <trkpt lat="43.66563" lon="1.39208">
        <ele>125</ele>
        <time>2024-04-04T17:39:23Z</time>
      </trkpt>
      <trkpt lat="43.66563" lon="1.39208">
        <ele>125</ele>
        <time>2024-04-04T17:39:24Z</time>
      </trkpt>
      <trkpt lat="43.66564" lon="1.39206">
        <ele>125</ele>
        <time>2024-04-04T17:39:25Z</time>
      </trkpt>
      <trkpt lat="43.66564" lon="1.39206">
        <ele>125</ele>
        <time>2024-04-04T17:39:26Z</time>
      </trkpt>
      <trkpt lat="43.66564" lon="1.39206">
        <ele>125</ele>
        <time>2024-04-04T17:39:27Z</time>
      </trkpt>
      <trkpt lat="43.66564" lon="1.39206">
        <ele>125</ele>
        <time>2024-04-04T17:39:28Z</time>
      </trkpt>
      <trkpt lat="43.66564" lon="1.39206">
        <ele>125</ele>
        <time>2024-04-04T17:39:29Z</time>
      </trkpt>
      <trkpt lat="43.66564" lon="1.39206">
        <ele>125</ele>
        <time>2024-04-04T17:39:30Z</time>
      </trkpt>
      <trkpt lat="43.66564" lon="1.39206">
        <ele>125</ele>
        <time>2024-04-04T17:39:31Z</time>
      </trkpt>
      <trkpt lat="43.66564" lon="1.39206">
        <ele>125</ele>
        <time>2024-04-04T17:39:32Z</time>
      </trkpt>
      <trkpt lat="43.66564" lon="1.39206">
        <ele>125</ele>
        <time>2024-04-04T17:39:33Z</time>
      </trkpt>
      <trkpt lat="43.66564" lon="1.39206">
        <ele>125</ele>
        <time>2024-04-04T17:39:34Z</time>
      </trkpt>
      <trkpt lat="43.66564" lon="1.39206">
        <ele>125</ele>
        <time>2024-04-04T17:39:35Z</time>
      </trkpt>
      <trkpt lat="43.66564" lon="1.39206">
        <ele>125</ele>
        <time>2024-04-04T17:39:36Z</time>
      </trkpt>
      <trkpt lat="43.66564" lon="1.39206">
        <ele>125</ele>
        <time>2024-04-04T17:39:37Z</time>
      </trkpt>
      <trkpt lat="43.66564" lon="1.39206">
        <ele>125</ele>
        <time>2024-04-04T17:39:38Z</time>
      </trkpt>
      <trkpt lat="43.66564" lon="1.39206">
        <ele>125</ele>
        <time>2024-04-04T17:39:39Z</time>
      </trkpt>
      <trkpt lat="43.66564" lon="1.39206">
        <ele>125</ele>
        <time>2024-04-04T17:39:40Z</time>
      </trkpt>
      <trkpt lat="43.66564" lon="1.39206">
        <ele>125</ele>
        <time>2024-04-04T17:39:41Z</time>
      </trkpt>
      <trkpt lat="43.66564" lon="1.39206">
        <ele>125</ele>
        <time>2024-04-04T17:39:42Z</time>
      </trkpt>
      <trkpt lat="43.66564" lon="1.39206">
        <ele>125</ele>
        <time>2024-04-04T17:39:43Z</time>
      </trkpt>
      <trkpt lat="43.66564" lon="1.39206">
        <ele>125</ele>
        <time>2024-04-04T17:39:44Z</time>
      </trkpt>
      <trkpt lat="43.66564" lon="1.39206">
        <ele>125</ele>
        <time>2024-04-04T17:39:45Z</time>
      </trkpt>
      <trkpt lat="43.66564" lon="1.39206">
        <ele>125</ele>
        <time>2024-04-04T17:39:46Z</time>
      </trkpt>
      <trkpt lat="43.66564" lon="1.39206">
        <ele>125</ele>
        <time>2024-04-04T17:39:47Z</time>
      </trkpt>
      <trkpt lat="43.66564" lon="1.39206">
        <ele>125</ele>
        <time>2024-04-04T17:39:48Z</time>
      </trkpt>
      <trkpt lat="43.66564" lon="1.39206">
        <ele>125</ele>
        <time>2024-04-04T17:39:49Z</time>
      </trkpt>
      <trkpt lat="43.66564" lon="1.39206">
        <ele>125</ele>
        <time>2024-04-04T17:39:50Z</time>
      </trkpt>
      <trkpt lat="43.66564" lon="1.39206">
        <ele>125</ele>
        <time>2024-04-04T17:39:51Z</time>
      </trkpt>
      <trkpt lat="43.66564" lon="1.39206">
        <ele>125</ele>
        <time>2024-04-04T17:39:52Z</time>
      </trkpt>
      <trkpt lat="43.66564" lon="1.39206">
        <ele>125</ele>
        <time>2024-04-04T17:39:53Z</time>
      </trkpt>
      <trkpt lat="43.66564" lon="1.39206">
        <ele>125</ele>
        <time>2024-04-04T17:39:54Z</time>
      </trkpt>
      <trkpt lat="43.66564" lon="1.39206">
        <ele>125</ele>
        <time>2024-04-04T17:39:55Z</time>
      </trkpt>
      <trkpt lat="43.66564" lon="1.39206">
        <ele>125</ele>
        <time>2024-04-04T17:39:56Z</time>
      </trkpt>
      <trkpt lat="43.66564" lon="1.39206">
        <ele>125</ele>
        <time>2024-04-04T17:39:57Z</time>
      </trkpt>
      <trkpt lat="43.66564" lon="1.39206">
        <ele>125</ele>
        <time>2024-04-04T17:39:58Z</time>
      </trkpt>
      <trkpt lat="43.66564" lon="1.39206">
        <ele>125</ele>
        <time>2024-04-04T17:39:59Z</time>
      </trkpt>
      <trkpt lat="43.66564" lon="1.39206">
        <ele>125</ele>
        <time>2024-04-04T17:40:00Z</time>
      </trkpt>
      <trkpt lat="43.66564" lon="1.39206">
        <ele>125</ele>
        <time>2024-04-04T17:40:01Z</time>
      </trkpt>
      <trkpt lat="43.66564" lon="1.39206">
        <ele>125</ele>
        <time>2024-04-04T17:40:02Z</time>
      </trkpt>
      <trkpt lat="43.66564" lon="1.39206">
        <ele>125</ele>
        <time>2024-04-04T17:40:03Z</time>
      </trkpt>
      <trkpt lat="43.66564" lon="1.39206">
        <ele>125</ele>
        <time>2024-04-04T17:40:04Z</time>
      </trkpt>
      <trkpt lat="43.66564" lon="1.39206">
        <ele>125</ele>
        <time>2024-04-04T17:40:05Z</time>
      </trkpt>
      <trkpt lat="43.66564" lon="1.39206">
        <ele>125</ele>
        <time>2024-04-04T17:40:06Z</time>
      </trkpt>
      <trkpt lat="43.66561" lon="1.39205">
        <ele>125</ele>
        <time>2024-04-04T17:40:07Z</time>
      </trkpt>
      <trkpt lat="43.66561" lon="1.39205">
        <ele>125</ele>
        <time>2024-04-04T17:40:08Z</time>
      </trkpt>
      <trkpt lat="43.66561" lon="1.39205">
        <ele>125</ele>
        <time>2024-04-04T17:40:09Z</time>
      </trkpt>
      <trkpt lat="43.66561" lon="1.39205">
        <ele>125</ele>
        <time>2024-04-04T17:40:10Z</time>
      </trkpt>
      <trkpt lat="43.66561" lon="1.39205">
        <ele>125</ele>
        <time>2024-04-04T17:40:11Z</time>
      </trkpt>
      <trkpt lat="43.66561" lon="1.39205">
        <ele>125</ele>
        <time>2024-04-04T17:40:12Z</time>
      </trkpt>
      <trkpt lat="43.66561" lon="1.39205">
        <ele>125</ele>
        <time>2024-04-04T17:40:13Z</time>
      </trkpt>
      <trkpt lat="43.66561" lon="1.39205">
        <ele>125</ele>
        <time>2024-04-04T17:40:14Z</time>
      </trkpt>
      <trkpt lat="43.66561" lon="1.39205">
        <ele>125</ele>
        <time>2024-04-04T17:40:15Z</time>
      </trkpt>
      <trkpt lat="43.66561" lon="1.39205">
        <ele>125</ele>
        <time>2024-04-04T17:40:16Z</time>
      </trkpt>
      <trkpt lat="43.66561" lon="1.39205">
        <ele>125</ele>
        <time>2024-04-04T17:40:17Z</time>
      </trkpt>
      <trkpt lat="43.66561" lon="1.39205">
        <ele>125</ele>
        <time>2024-04-04T17:40:18Z</time>
      </trkpt>
      <trkpt lat="43.66561" lon="1.39205">
        <ele>125</ele>
        <time>2024-04-04T17:40:19Z</time>
      </trkpt>
      <trkpt lat="43.66561" lon="1.39205">
        <ele>125</ele>
        <time>2024-04-04T17:40:20Z</time>
      </trkpt>
      <trkpt lat="43.66561" lon="1.39205">
        <ele>125</ele>
        <time>2024-04-04T17:40:21Z</time>
      </trkpt>
      <trkpt lat="43.66561" lon="1.39205">
        <ele>125</ele>
        <time>2024-04-04T17:40:22Z</time>
      </trkpt>
      <trkpt lat="43.66561" lon="1.39205">
        <ele>125</ele>
        <time>2024-04-04T17:40:23Z</time>
      </trkpt>
      <trkpt lat="43.66561" lon="1.39205">
        <ele>125</ele>
        <time>2024-04-04T17:40:24Z</time>
      </trkpt>
      <trkpt lat="43.66561" lon="1.39205">
        <ele>125</ele>
        <time>2024-04-04T17:40:25Z</time>
      </trkpt>
      <trkpt lat="43.66561" lon="1.39205">
        <ele>125</ele>
        <time>2024-04-04T17:40:26Z</time>
      </trkpt>
      <trkpt lat="43.66561" lon="1.39205">
        <ele>125</ele>
        <time>2024-04-04T17:40:27Z</time>
      </trkpt>
      <trkpt lat="43.66561" lon="1.39205">
        <ele>125</ele>
        <time>2024-04-04T17:40:28Z</time>
      </trkpt>
      <trkpt lat="43.66561" lon="1.39205">
        <ele>125</ele>
        <time>2024-04-04T17:40:29Z</time>
      </trkpt>
      <trkpt lat="43.66561" lon="1.39205">
        <ele>125</ele>
        <time>2024-04-04T17:40:30Z</time>
      </trkpt>
      <trkpt lat="43.66561" lon="1.39205">
        <ele>125</ele>
        <time>2024-04-04T17:40:31Z</time>
      </trkpt>
      <trkpt lat="43.66561" lon="1.39205">
        <ele>125</ele>
        <time>2024-04-04T17:40:32Z</time>
      </trkpt>
      <trkpt lat="43.66561" lon="1.39205">
        <ele>125</ele>
        <time>2024-04-04T17:40:33Z</time>
      </trkpt>
      <trkpt lat="43.66561" lon="1.39205">
        <ele>125</ele>
        <time>2024-04-04T17:40:34Z</time>
      </trkpt>
      <trkpt lat="43.66561" lon="1.39205">
        <ele>125</ele>
        <time>2024-04-04T17:40:35Z</time>
      </trkpt>
      <trkpt lat="43.66563" lon="1.39203">
        <ele>125</ele>
        <time>2024-04-04T17:40:36Z</time>
      </trkpt>
      <trkpt lat="43.66563" lon="1.39203">
        <ele>125</ele>
        <time>2024-04-04T17:40:37Z</time>
      </trkpt>
      <trkpt lat="43.66565" lon="1.392">
        <ele>125</ele>
        <time>2024-04-04T17:40:38Z</time>
      </trkpt>
      <trkpt lat="43.66565" lon="1.392">
        <ele>125</ele>
        <time>2024-04-04T17:40:39Z</time>
      </trkpt>
      <trkpt lat="43.66566" lon="1.39198">
        <ele>125</ele>
        <time>2024-04-04T17:40:40Z</time>
      </trkpt>
      <trkpt lat="43.66566" lon="1.39198">
        <ele>125</ele>
        <time>2024-04-04T17:40:41Z</time>
      </trkpt>
      <trkpt lat="43.66566" lon="1.39198">
        <ele>125</ele>
        <time>2024-04-04T17:40:42Z</time>
      </trkpt>
      <trkpt lat="43.66566" lon="1.39198">
        <ele>125</ele>
        <time>2024-04-04T17:40:43Z</time>
      </trkpt>
      <trkpt lat="43.66566" lon="1.39198">
        <ele>125</ele>
        <time>2024-04-04T17:40:44Z</time>
      </trkpt>
      <trkpt lat="43.66566" lon="1.39198">
        <ele>125</ele>
        <time>2024-04-04T17:40:45Z</time>
      </trkpt>
      <trkpt lat="43.66566" lon="1.39198">
        <ele>125</ele>
        <time>2024-04-04T17:40:46Z</time>
      </trkpt>
      <trkpt lat="43.66566" lon="1.39198">
        <ele>125</ele>
        <time>2024-04-04T17:40:47Z</time>
      </trkpt>
      <trkpt lat="43.66566" lon="1.39198">
        <ele>125</ele>
        <time>2024-04-04T17:40:48Z</time>
      </trkpt>
      <trkpt lat="43.66566" lon="1.39198">
        <ele>125</ele>
        <time>2024-04-04T17:40:49Z</time>
      </trkpt>
      <trkpt lat="43.66566" lon="1.39198">
        <ele>125</ele>
        <time>2024-04-04T17:40:50Z</time>
      </trkpt>
      <trkpt lat="43.66566" lon="1.39198">
        <ele>125</ele>
        <time>2024-04-04T17:40:51Z</time>
      </trkpt>
      <trkpt lat="43.66566" lon="1.39198">
        <ele>125</ele>
        <time>2024-04-04T17:40:52Z</time>
      </trkpt>
      <trkpt lat="43.66566" lon="1.39198">
        <ele>125</ele>
        <time>2024-04-04T17:40:53Z</time>
      </trkpt>
      <trkpt lat="43.66566" lon="1.39198">
        <ele>125</ele>
        <time>2024-04-04T17:40:54Z</time>
      </trkpt>
      <trkpt lat="43.66566" lon="1.39198">
        <ele>125</ele>
        <time>2024-04-04T17:40:55Z</time>
      </trkpt>
      <trkpt lat="43.66566" lon="1.39198">
        <ele>125</ele>
        <time>2024-04-04T17:40:56Z</time>
      </trkpt>
      <trkpt lat="43.66566" lon="1.39198">
        <ele>125</ele>
        <time>2024-04-04T17:40:57Z</time>
      </trkpt>
      <trkpt lat="43.66566" lon="1.39198">
        <ele>125</ele>
        <time>2024-04-04T17:40:58Z</time>
      </trkpt>
      <trkpt lat="43.66566" lon="1.39198">
        <ele>125</ele>
        <time>2024-04-04T17:40:59Z</time>
      </trkpt>
      <trkpt lat="43.66566" lon="1.39198">
        <ele>125</ele>
        <time>2024-04-04T17:41:00Z</time>
      </trkpt>
      <trkpt lat="43.66566" lon="1.39198">
        <ele>125</ele>
        <time>2024-04-04T17:41:01Z</time>
      </trkpt>
      <trkpt lat="43.66566" lon="1.39198">
        <ele>125</ele>
        <time>2024-04-04T17:41:02Z</time>
      </trkpt>
      <trkpt lat="43.66566" lon="1.39198">
        <ele>125</ele>
        <time>2024-04-04T17:41:03Z</time>
      </trkpt>
      <trkpt lat="43.66566" lon="1.39198">
        <ele>125</ele>
        <time>2024-04-04T17:41:04Z</time>
      </trkpt>
      <trkpt lat="43.66566" lon="1.39198">
        <ele>125</ele>
        <time>2024-04-04T17:41:05Z</time>
      </trkpt>
      <trkpt lat="43.66566" lon="1.39198">
        <ele>125</ele>
        <time>2024-04-04T17:41:06Z</time>
      </trkpt>
      <trkpt lat="43.66566" lon="1.39198">
        <ele>125</ele>
        <time>2024-04-04T17:41:07Z</time>
      </trkpt>
      <trkpt lat="43.66566" lon="1.39198">
        <ele>125</ele>
        <time>2024-04-04T17:41:08Z</time>
      </trkpt>
      <trkpt lat="43.66566" lon="1.39198">
        <ele>125</ele>
        <time>2024-04-04T17:41:09Z</time>
      </trkpt>
      <trkpt lat="43.66566" lon="1.39198">
        <ele>125</ele>
        <time>2024-04-04T17:41:10Z</time>
      </trkpt>
      <trkpt lat="43.66566" lon="1.39198">
        <ele>125</ele>
        <time>2024-04-04T17:41:11Z</time>
      </trkpt>
      <trkpt lat="43.66566" lon="1.39198">
        <ele>125</ele>
        <time>2024-04-04T17:41:12Z</time>
      </trkpt>
      <trkpt lat="43.66566" lon="1.39198">
        <ele>125</ele>
        <time>2024-04-04T17:41:13Z</time>
      </trkpt>
      <trkpt lat="43.66566" lon="1.39198">
        <ele>125</ele>
        <time>2024-04-04T17:41:14Z</time>
      </trkpt>
      <trkpt lat="43.66566" lon="1.39198">
        <ele>125</ele>
        <time>2024-04-04T17:41:15Z</time>
      </trkpt>
      <trkpt lat="43.66566" lon="1.39198">
        <ele>125</ele>
        <time>2024-04-04T17:41:16Z</time>
      </trkpt>
      <trkpt lat="43.66566" lon="1.39198">
        <ele>125</ele>
        <time>2024-04-04T17:41:17Z</time>
      </trkpt>
      <trkpt lat="43.66566" lon="1.39198">
        <ele>125</ele>
        <time>2024-04-04T17:41:18Z</time>
      </trkpt>
      <trkpt lat="43.66566" lon="1.39198">
        <ele>125</ele>
        <time>2024-04-04T17:41:19Z</time>
      </trkpt>
      <trkpt lat="43.66566" lon="1.39198">
        <ele>125</ele>
        <time>2024-04-04T17:41:20Z</time>
      </trkpt>
      <trkpt lat="43.66566" lon="1.39198">
        <ele>125</ele>
        <time>2024-04-04T17:41:21Z</time>
      </trkpt>
      <trkpt lat="43.66566" lon="1.39198">
        <ele>125</ele>
        <time>2024-04-04T17:41:22Z</time>
      </trkpt>
      <trkpt lat="43.66566" lon="1.39198">
        <ele>125</ele>
        <time>2024-04-04T17:41:23Z</time>
      </trkpt>
      <trkpt lat="43.66566" lon="1.39198">
        <ele>125</ele>
        <time>2024-04-04T17:41:24Z</time>
      </trkpt>
      <trkpt lat="43.66566" lon="1.39198">
        <ele>125</ele>
        <time>2024-04-04T17:41:25Z</time>
      </trkpt>
      <trkpt lat="43.66566" lon="1.39198">
        <ele>125</ele>
        <time>2024-04-04T17:41:26Z</time>
      </trkpt>
      <trkpt lat="43.66566" lon="1.39198">
        <ele>125</ele>
        <time>2024-04-04T17:41:27Z</time>
      </trkpt>
      <trkpt lat="43.66566" lon="1.39198">
        <ele>125</ele>
        <time>2024-04-04T17:41:28Z</time>
      </trkpt>
      <trkpt lat="43.66566" lon="1.39198">
        <ele>125</ele>
        <time>2024-04-04T17:41:29Z</time>
      </trkpt>
      <trkpt lat="43.66565" lon="1.39196">
        <ele>125</ele>
        <time>2024-04-04T17:41:30Z</time>
      </trkpt>
      <trkpt lat="43.66565" lon="1.39196">
        <ele>125</ele>
        <time>2024-04-04T17:41:31Z</time>
      </trkpt>
      <trkpt lat="43.66565" lon="1.39196">
        <ele>125</ele>
        <time>2024-04-04T17:41:32Z</time>
      </trkpt>
      <trkpt lat="43.66565" lon="1.39196">
        <ele>125</ele>
        <time>2024-04-04T17:41:33Z</time>
      </trkpt>
      <trkpt lat="43.66565" lon="1.39196">
        <ele>125</ele>
        <time>2024-04-04T17:41:34Z</time>
      </trkpt>
      <trkpt lat="43.66565" lon="1.39196">
        <ele>125</ele>
        <time>2024-04-04T17:41:35Z</time>
      </trkpt>
      <trkpt lat="43.66565" lon="1.39196">
        <ele>125</ele>
        <time>2024-04-04T17:41:36Z</time>
      </trkpt>
      <trkpt lat="43.66565" lon="1.39196">
        <ele>125</ele>
        <time>2024-04-04T17:41:37Z</time>
      </trkpt>
      <trkpt lat="43.66565" lon="1.39196">
        <ele>125</ele>
        <time>2024-04-04T17:41:38Z</time>
      </trkpt>
      <trkpt lat="43.66565" lon="1.39196">
        <ele>125</ele>
        <time>2024-04-04T17:41:39Z</time>
      </trkpt>
      <trkpt lat="43.66565" lon="1.39196">
        <ele>125</ele>
        <time>2024-04-04T17:41:40Z</time>
      </trkpt>
      <trkpt lat="43.66565" lon="1.39196">
        <ele>125</ele>
        <time>2024-04-04T17:41:41Z</time>
      </trkpt>
      <trkpt lat="43.66565" lon="1.39196">
        <ele>125</ele>
        <time>2024-04-04T17:41:42Z</time>
      </trkpt>
      <trkpt lat="43.66565" lon="1.39196">
        <ele>125</ele>
        <time>2024-04-04T17:41:43Z</time>
      </trkpt>
      <trkpt lat="43.66565" lon="1.39196">
        <ele>125</ele>
        <time>2024-04-04T17:41:44Z</time>
      </trkpt>
      <trkpt lat="43.66565" lon="1.39196">
        <ele>125</ele>
        <time>2024-04-04T17:41:45Z</time>
      </trkpt>
      <trkpt lat="43.66565" lon="1.39196">
        <ele>125</ele>
        <time>2024-04-04T17:41:46Z</time>
      </trkpt>
      <trkpt lat="43.66565" lon="1.39196">
        <ele>125</ele>
        <time>2024-04-04T17:41:47Z</time>
      </trkpt>
      <trkpt lat="43.66565" lon="1.39196">
        <ele>125</ele>
        <time>2024-04-04T17:41:48Z</time>
      </trkpt>
      <trkpt lat="43.66565" lon="1.39196">
        <ele>125</ele>
        <time>2024-04-04T17:41:49Z</time>
      </trkpt>
      <trkpt lat="43.66565" lon="1.39196">
        <ele>125</ele>
        <time>2024-04-04T17:41:50Z</time>
      </trkpt>
      <trkpt lat="43.66565" lon="1.39196">
        <ele>125</ele>
        <time>2024-04-04T17:41:51Z</time>
      </trkpt>
      <trkpt lat="43.66565" lon="1.39196">
        <ele>125</ele>
        <time>2024-04-04T17:41:52Z</time>
      </trkpt>
      <trkpt lat="43.66565" lon="1.39196">
        <ele>125</ele>
        <time>2024-04-04T17:41:53Z</time>
      </trkpt>
      <trkpt lat="43.66565" lon="1.39196">
        <ele>125</ele>
        <time>2024-04-04T17:41:54Z</time>
      </trkpt>
      <trkpt lat="43.66565" lon="1.39196">
        <ele>125</ele>
        <time>2024-04-04T17:41:55Z</time>
      </trkpt>
      <trkpt lat="43.66565" lon="1.39196">
        <ele>125</ele>
        <time>2024-04-04T17:41:56Z</time>
      </trkpt>
      <trkpt lat="43.66565" lon="1.39196">
        <ele>125</ele>
        <time>2024-04-04T17:41:57Z</time>
      </trkpt>
      <trkpt lat="43.66565" lon="1.39196">
        <ele>125</ele>
        <time>2024-04-04T17:41:58Z</time>
      </trkpt>
      <trkpt lat="43.66565" lon="1.39196">
        <ele>125</ele>
        <time>2024-04-04T17:41:59Z</time>
      </trkpt>
      <trkpt lat="43.66565" lon="1.39196">
        <ele>125</ele>
        <time>2024-04-04T17:42:00Z</time>
      </trkpt>
      <trkpt lat="43.66565" lon="1.39196">
        <ele>125</ele>
        <time>2024-04-04T17:42:01Z</time>
      </trkpt>
      <trkpt lat="43.66565" lon="1.39196">
        <ele>125</ele>
        <time>2024-04-04T17:42:02Z</time>
      </trkpt>
      <trkpt lat="43.66565" lon="1.39196">
        <ele>125</ele>
        <time>2024-04-04T17:42:03Z</time>
      </trkpt>
      <trkpt lat="43.66565" lon="1.39196">
        <ele>125</ele>
        <time>2024-04-04T17:42:04Z</time>
      </trkpt>
      <trkpt lat="43.66565" lon="1.39196">
        <ele>125</ele>
        <time>2024-04-04T17:42:05Z</time>
      </trkpt>
      <trkpt lat="43.66565" lon="1.39196">
        <ele>125</ele>
        <time>2024-04-04T17:42:06Z</time>
      </trkpt>
      <trkpt lat="43.66565" lon="1.39196">
        <ele>125</ele>
        <time>2024-04-04T17:42:07Z</time>
      </trkpt>
      <trkpt lat="43.66565" lon="1.39196">
        <ele>125</ele>
        <time>2024-04-04T17:42:08Z</time>
      </trkpt>
      <trkpt lat="43.66565" lon="1.39196">
        <ele>125</ele>
        <time>2024-04-04T17:42:09Z</time>
      </trkpt>
      <trkpt lat="43.66565" lon="1.39196">
        <ele>125</ele>
        <time>2024-04-04T17:42:10Z</time>
      </trkpt>
      <trkpt lat="43.66565" lon="1.39196">
        <ele>125</ele>
        <time>2024-04-04T17:42:11Z</time>
      </trkpt>
      <trkpt lat="43.66565" lon="1.39196">
        <ele>125</ele>
        <time>2024-04-04T17:42:12Z</time>
      </trkpt>
      <trkpt lat="43.66565" lon="1.39196">
        <ele>125</ele>
        <time>2024-04-04T17:42:13Z</time>
      </trkpt>
      <trkpt lat="43.66565" lon="1.39196">
        <ele>125</ele>
        <time>2024-04-04T17:42:14Z</time>
      </trkpt>
      <trkpt lat="43.66565" lon="1.39196">
        <ele>125</ele>
        <time>2024-04-04T17:42:15Z</time>
      </trkpt>
      <trkpt lat="43.66565" lon="1.39196">
        <ele>125</ele>
        <time>2024-04-04T17:42:16Z</time>
      </trkpt>
      <trkpt lat="43.66565" lon="1.39196">
        <ele>125</ele>
        <time>2024-04-04T17:42:17Z</time>
      </trkpt>
      <trkpt lat="43.66565" lon="1.39196">
        <ele>125</ele>
        <time>2024-04-04T17:42:18Z</time>
      </trkpt>
      <trkpt lat="43.66565" lon="1.39196">
        <ele>125</ele>
        <time>2024-04-04T17:42:19Z</time>
      </trkpt>
      <trkpt lat="43.66565" lon="1.39196">
        <ele>125</ele>
        <time>2024-04-04T17:42:20Z</time>
      </trkpt>
      <trkpt lat="43.66565" lon="1.39196">
        <ele>125</ele>
        <time>2024-04-04T17:42:21Z</time>
      </trkpt>
      <trkpt lat="43.66565" lon="1.39196">
        <ele>125</ele>
        <time>2024-04-04T17:42:22Z</time>
      </trkpt>
      <trkpt lat="43.66565" lon="1.39196">
        <ele>125</ele>
        <time>2024-04-04T17:42:23Z</time>
      </trkpt>
      <trkpt lat="43.66565" lon="1.39196">
        <ele>125</ele>
        <time>2024-04-04T17:42:24Z</time>
      </trkpt>
      <trkpt lat="43.66565" lon="1.39196">
        <ele>125</ele>
        <time>2024-04-04T17:42:25Z</time>
      </trkpt>
      <trkpt lat="43.66565" lon="1.39196">
        <ele>125</ele>
        <time>2024-04-04T17:42:26Z</time>
      </trkpt>
      <trkpt lat="43.66565" lon="1.39196">
        <ele>125</ele>
        <time>2024-04-04T17:42:27Z</time>
      </trkpt>
      <trkpt lat="43.66565" lon="1.39196">
        <ele>125</ele>
        <time>2024-04-04T17:42:28Z</time>
      </trkpt>
      <trkpt lat="43.66565" lon="1.39196">
        <ele>125</ele>
        <time>2024-04-04T17:42:29Z</time>
      </trkpt>
      <trkpt lat="43.66565" lon="1.39196">
        <ele>125</ele>
        <time>2024-04-04T17:42:30Z</time>
      </trkpt>
      <trkpt lat="43.66565" lon="1.39196">
        <ele>125</ele>
        <time>2024-04-04T17:42:31Z</time>
      </trkpt>
      <trkpt lat="43.66565" lon="1.39196">
        <ele>125</ele>
        <time>2024-04-04T17:42:32Z</time>
      </trkpt>
      <trkpt lat="43.66565" lon="1.39196">
        <ele>125</ele>
        <time>2024-04-04T17:42:33Z</time>
      </trkpt>
      <trkpt lat="43.66565" lon="1.39196">
        <ele>125</ele>
        <time>2024-04-04T17:42:34Z</time>
      </trkpt>
      <trkpt lat="43.66565" lon="1.39196">
        <ele>125</ele>
        <time>2024-04-04T17:42:35Z</time>
      </trkpt>
      <trkpt lat="43.66565" lon="1.39196">
        <ele>125</ele>
        <time>2024-04-04T17:42:36Z</time>
      </trkpt>
      <trkpt lat="43.66565" lon="1.39196">
        <ele>125</ele>
        <time>2024-04-04T17:42:37Z</time>
      </trkpt>
      <trkpt lat="43.66565" lon="1.39196">
        <ele>125</ele>
        <time>2024-04-04T17:42:38Z</time>
      </trkpt>
      <trkpt lat="43.66565" lon="1.39196">
        <ele>125</ele>
        <time>2024-04-04T17:42:39Z</time>
      </trkpt>
      <trkpt lat="43.66565" lon="1.39196">
        <ele>125</ele>
        <time>2024-04-04T17:42:40Z</time>
      </trkpt>
      <trkpt lat="43.66565" lon="1.39196">
        <ele>125</ele>
        <time>2024-04-04T17:42:41Z</time>
      </trkpt>
      <trkpt lat="43.66565" lon="1.39196">
        <ele>125</ele>
        <time>2024-04-04T17:42:42Z</time>
      </trkpt>
      <trkpt lat="43.66565" lon="1.39196">
        <ele>125</ele>
        <time>2024-04-04T17:42:43Z</time>
      </trkpt>
      <trkpt lat="43.66565" lon="1.39196">
        <ele>125</ele>
        <time>2024-04-04T17:42:44Z</time>
      </trkpt>
      <trkpt lat="43.66565" lon="1.39196">
        <ele>125</ele>
        <time>2024-04-04T17:42:45Z</time>
      </trkpt>
      <trkpt lat="43.66565" lon="1.39196">
        <ele>125</ele>
        <time>2024-04-04T17:42:46Z</time>
      </trkpt>
      <trkpt lat="43.66565" lon="1.39194">
        <ele>125</ele>
        <time>2024-04-04T17:42:47Z</time>
      </trkpt>
      <trkpt lat="43.6656" lon="1.39213">
        <ele>125</ele>
        <time>2024-04-04T17:45:21Z</time>
      </trkpt>
      <trkpt lat="43.6656" lon="1.39213">
        <ele>125</ele>
        <time>2024-04-04T17:45:22Z</time>
      </trkpt>
      <trkpt lat="43.66559" lon="1.39217">
        <ele>125</ele>
        <time>2024-04-04T17:45:23Z</time>
      </trkpt>
      <trkpt lat="43.66559" lon="1.39217">
        <ele>125</ele>
        <time>2024-04-04T17:45:24Z</time>
      </trkpt>
      <trkpt lat="43.66557" lon="1.39225">
        <ele>125</ele>
        <time>2024-04-04T17:45:25Z</time>
      </trkpt>
      <trkpt lat="43.66556" lon="1.39228">
        <ele>125</ele>
        <time>2024-04-04T17:45:26Z</time>
      </trkpt>
      <trkpt lat="43.66555" lon="1.39232">
        <ele>125</ele>
        <time>2024-04-04T17:45:27Z</time>
      </trkpt>
      <trkpt lat="43.66554" lon="1.39236">
        <ele>125</ele>
        <time>2024-04-04T17:45:28Z</time>
      </trkpt>
      <trkpt lat="43.66553" lon="1.39239">
        <ele>125</ele>
        <time>2024-04-04T17:45:29Z</time>
      </trkpt>
      <trkpt lat="43.66551" lon="1.39242">
        <ele>125</ele>
        <time>2024-04-04T17:45:30Z</time>
      </trkpt>
      <trkpt lat="43.6655" lon="1.39246">
        <ele>125</ele>
        <time>2024-04-04T17:45:31Z</time>
      </trkpt>
      <trkpt lat="43.6655" lon="1.39246">
        <ele>125</ele>
        <time>2024-04-04T17:45:32Z</time>
      </trkpt>
      <trkpt lat="43.66547" lon="1.39253">
        <ele>125</ele>
        <time>2024-04-04T17:45:33Z</time>
      </trkpt>
      <trkpt lat="43.66547" lon="1.39253">
        <ele>125</ele>
        <time>2024-04-04T17:45:34Z</time>
      </trkpt>
      <trkpt lat="43.66544" lon="1.39261">
        <ele>125</ele>
        <time>2024-04-04T17:45:35Z</time>
      </trkpt>
      <trkpt lat="43.66542" lon="1.39264">
        <ele>125</ele>
        <time>2024-04-04T17:45:36Z</time>
      </trkpt>
      <trkpt lat="43.66542" lon="1.39264">
        <ele>125</ele>
        <time>2024-04-04T17:45:37Z</time>
      </trkpt>
      <trkpt lat="43.66538" lon="1.39268">
        <ele>125</ele>
        <time>2024-04-04T17:45:38Z</time>
      </trkpt>
      <trkpt lat="43.66536" lon="1.39269">
        <ele>125</ele>
        <time>2024-04-04T17:45:39Z</time>
      </trkpt>
      <trkpt lat="43.66533" lon="1.3927">
        <ele>125</ele>
        <time>2024-04-04T17:45:40Z</time>
      </trkpt>
      <trkpt lat="43.6653" lon="1.39271">
        <ele>125</ele>
        <time>2024-04-04T17:45:41Z</time>
      </trkpt>
      <trkpt lat="43.66527" lon="1.39272">
        <ele>125</ele>
        <time>2024-04-04T17:45:42Z</time>
      </trkpt>
      <trkpt lat="43.66524" lon="1.39272">
        <ele>125</ele>
        <time>2024-04-04T17:45:43Z</time>
      </trkpt>
      <trkpt lat="43.66524" lon="1.39272">
        <ele>125</ele>
        <time>2024-04-04T17:45:44Z</time>
      </trkpt>
      <trkpt lat="43.66519" lon="1.39272">
        <ele>125</ele>
        <time>2024-04-04T17:45:45Z</time>
      </trkpt>
      <trkpt lat="43.66517" lon="1.39273">
        <ele>125</ele>
        <time>2024-04-04T17:45:46Z</time>
      </trkpt>
      <trkpt lat="43.66516" lon="1.39275">
        <ele>125</ele>
        <time>2024-04-04T17:45:47Z</time>
      </trkpt>
      <trkpt lat="43.66515" lon="1.39278">
        <ele>125</ele>
        <time>2024-04-04T17:45:48Z</time>
      </trkpt>
      <trkpt lat="43.66513" lon="1.39282">
        <ele>125</ele>
        <time>2024-04-04T17:45:49Z</time>
      </trkpt>
      <trkpt lat="43.66512" lon="1.39285">
        <ele>125</ele>
        <time>2024-04-04T17:45:50Z</time>
      </trkpt>
      <trkpt lat="43.66511" lon="1.39287">
        <ele>125</ele>
        <time>2024-04-04T17:45:51Z</time>
      </trkpt>
      <trkpt lat="43.6651" lon="1.3929">
        <ele>125</ele>
        <time>2024-04-04T17:45:52Z</time>
      </trkpt>
      <trkpt lat="43.66509" lon="1.39293">
        <ele>124</ele>
        <time>2024-04-04T17:45:53Z</time>
      </trkpt>
      <trkpt lat="43.66507" lon="1.39295">
        <ele>124</ele>
        <time>2024-04-04T17:45:54Z</time>
      </trkpt>
      <trkpt lat="43.66506" lon="1.39298">
        <ele>124</ele>
        <time>2024-04-04T17:45:55Z</time>
      </trkpt>
      <trkpt lat="43.66506" lon="1.39298">
        <ele>124</ele>
        <time>2024-04-04T17:45:56Z</time>
      </trkpt>
      <trkpt lat="43.66503" lon="1.39304">
        <ele>124</ele>
        <time>2024-04-04T17:45:57Z</time>
      </trkpt>
      <trkpt lat="43.66501" lon="1.39306">
        <ele>124</ele>
        <time>2024-04-04T17:45:58Z</time>
      </trkpt>
      <trkpt lat="43.66498" lon="1.39309">
        <ele>124</ele>
        <time>2024-04-04T17:45:59Z</time>
      </trkpt>
      <trkpt lat="43.66495" lon="1.39311">
        <ele>124</ele>
        <time>2024-04-04T17:46:00Z</time>
      </trkpt>
      <trkpt lat="43.66492" lon="1.39313">
        <ele>124</ele>
        <time>2024-04-04T17:46:01Z</time>
      </trkpt>
      <trkpt lat="43.66492" lon="1.39313">
        <ele>125</ele>
        <time>2024-04-04T17:46:02Z</time>
      </trkpt>
      <trkpt lat="43.66487" lon="1.39317">
        <ele>125</ele>
        <time>2024-04-04T17:46:03Z</time>
      </trkpt>
      <trkpt lat="43.66485" lon="1.39318">
        <ele>125</ele>
        <time>2024-04-04T17:46:04Z</time>
      </trkpt>
      <trkpt lat="43.66482" lon="1.3932">
        <ele>125</ele>
        <time>2024-04-04T17:46:05Z</time>
      </trkpt>
      <trkpt lat="43.66482" lon="1.3932">
        <ele>125</ele>
        <time>2024-04-04T17:46:06Z</time>
      </trkpt>
      <trkpt lat="43.66477" lon="1.39323">
        <ele>125</ele>
        <time>2024-04-04T17:46:07Z</time>
      </trkpt>
      <trkpt lat="43.66474" lon="1.39323">
        <ele>125</ele>
        <time>2024-04-04T17:46:08Z</time>
      </trkpt>
      <trkpt lat="43.66471" lon="1.39324">
        <ele>125</ele>
        <time>2024-04-04T17:46:09Z</time>
      </trkpt>
      <trkpt lat="43.66468" lon="1.39324">
        <ele>125</ele>
        <time>2024-04-04T17:46:10Z</time>
      </trkpt>
      <trkpt lat="43.66466" lon="1.39325">
        <ele>125</ele>
        <time>2024-04-04T17:46:11Z</time>
      </trkpt>
      <trkpt lat="43.66463" lon="1.39326">
        <ele>125</ele>
        <time>2024-04-04T17:46:12Z</time>
      </trkpt>
      <trkpt lat="43.66463" lon="1.39326">
        <ele>125</ele>
        <time>2024-04-04T17:46:13Z</time>
      </trkpt>
      <trkpt lat="43.66458" lon="1.39326">
        <ele>126</ele>
        <time>2024-04-04T17:46:14Z</time>
      </trkpt>
      <trkpt lat="43.66455" lon="1.39326">
        <ele>126</ele>
        <time>2024-04-04T17:46:15Z</time>
      </trkpt>
      <trkpt lat="43.66452" lon="1.39326">
        <ele>126</ele>
        <time>2024-04-04T17:46:16Z</time>
      </trkpt>
      <trkpt lat="43.66452" lon="1.39326">
        <ele>126</ele>
        <time>2024-04-04T17:46:17Z</time>
      </trkpt>
      <trkpt lat="43.66447" lon="1.39326">
        <ele>126</ele>
        <time>2024-04-04T17:46:18Z</time>
      </trkpt>
      <trkpt lat="43.66444" lon="1.39327">
        <ele>126</ele>
        <time>2024-04-04T17:46:19Z</time>
      </trkpt>
      <trkpt lat="43.66442" lon="1.39327">
        <ele>126</ele>
        <time>2024-04-04T17:46:20Z</time>
      </trkpt>
      <trkpt lat="43.66439" lon="1.39327">
        <ele>126</ele>
        <time>2024-04-04T17:46:21Z</time>
      </trkpt>
      <trkpt lat="43.66436" lon="1.39327">
        <ele>126</ele>
        <time>2024-04-04T17:46:22Z</time>
      </trkpt>
      <trkpt lat="43.66433" lon="1.39327">
        <ele>126</ele>
        <time>2024-04-04T17:46:23Z</time>
      </trkpt>
      <trkpt lat="43.66431" lon="1.39327">
        <ele>126</ele>
        <time>2024-04-04T17:46:24Z</time>
      </trkpt>
      <trkpt lat="43.66428" lon="1.39326">
        <ele>126</ele>
        <time>2024-04-04T17:46:25Z</time>
      </trkpt>
      <trkpt lat="43.66426" lon="1.39325">
        <ele>125</ele>
        <time>2024-04-04T17:46:26Z</time>
      </trkpt>
      <trkpt lat="43.66423" lon="1.39324">
        <ele>125</ele>
        <time>2024-04-04T17:46:27Z</time>
      </trkpt>
      <trkpt lat="43.66421" lon="1.39324">
        <ele>125</ele>
        <time>2024-04-04T17:46:28Z</time>
      </trkpt>
      <trkpt lat="43.66421" lon="1.39324">
        <ele>125</ele>
        <time>2024-04-04T17:46:29Z</time>
      </trkpt>
      <trkpt lat="43.66416" lon="1.39322">
        <ele>125</ele>
        <time>2024-04-04T17:46:30Z</time>
      </trkpt>
      <trkpt lat="43.66414" lon="1.39321">
        <ele>125</ele>
        <time>2024-04-04T17:46:31Z</time>
      </trkpt>
      <trkpt lat="43.66411" lon="1.3932">
        <ele>125</ele>
        <time>2024-04-04T17:46:32Z</time>
      </trkpt>
      <trkpt lat="43.66409" lon="1.39318">
        <ele>125</ele>
        <time>2024-04-04T17:46:33Z</time>
      </trkpt>
      <trkpt lat="43.66407" lon="1.39316">
        <ele>125</ele>
        <time>2024-04-04T17:46:34Z</time>
      </trkpt>
      <trkpt lat="43.66404" lon="1.39315">
        <ele>125</ele>
        <time>2024-04-04T17:46:35Z</time>
      </trkpt>
      <trkpt lat="43.66402" lon="1.39314">
        <ele>125</ele>
        <time>2024-04-04T17:46:36Z</time>
      </trkpt>
      <trkpt lat="43.664" lon="1.39312">
        <ele>125</ele>
        <time>2024-04-04T17:46:37Z</time>
      </trkpt>
      <trkpt lat="43.664" lon="1.39312">
        <ele>125</ele>
        <time>2024-04-04T17:46:38Z</time>
      </trkpt>
      <trkpt lat="43.66395" lon="1.39309">
        <ele>125</ele>
        <time>2024-04-04T17:46:39Z</time>
      </trkpt>
      <trkpt lat="43.66394" lon="1.39307">
        <ele>125</ele>
        <time>2024-04-04T17:46:40Z</time>
      </trkpt>
      <trkpt lat="43.66394" lon="1.39307">
        <ele>125</ele>
        <time>2024-04-04T17:46:41Z</time>
      </trkpt>
      <trkpt lat="43.66389" lon="1.39303">
        <ele>125</ele>
        <time>2024-04-04T17:46:42Z</time>
      </trkpt>
      <trkpt lat="43.66387" lon="1.39302">
        <ele>125</ele>
        <time>2024-04-04T17:46:43Z</time>
      </trkpt>
      <trkpt lat="43.66385" lon="1.393">
        <ele>125</ele>
        <time>2024-04-04T17:46:44Z</time>
      </trkpt>
      <trkpt lat="43.66383" lon="1.393">
        <ele>125</ele>
        <time>2024-04-04T17:46:45Z</time>
      </trkpt>
      <trkpt lat="43.66381" lon="1.39299">
        <ele>125</ele>
        <time>2024-04-04T17:46:46Z</time>
      </trkpt>
      <trkpt lat="43.66379" lon="1.39297">
        <ele>125</ele>
        <time>2024-04-04T17:46:47Z</time>
      </trkpt>
      <trkpt lat="43.66377" lon="1.39295">
        <ele>125</ele>
        <time>2024-04-04T17:46:48Z</time>
      </trkpt>
      <trkpt lat="43.66375" lon="1.39292">
        <ele>125</ele>
        <time>2024-04-04T17:46:49Z</time>
      </trkpt>
      <trkpt lat="43.66373" lon="1.3929">
        <ele>125</ele>
        <time>2024-04-04T17:46:50Z</time>
      </trkpt>
      <trkpt lat="43.66371" lon="1.39289">
        <ele>125</ele>
        <time>2024-04-04T17:46:51Z</time>
      </trkpt>
      <trkpt lat="43.66368" lon="1.39287">
        <ele>125</ele>
        <time>2024-04-04T17:46:52Z</time>
      </trkpt>
      <trkpt lat="43.66368" lon="1.39287">
        <ele>125</ele>
        <time>2024-04-04T17:46:53Z</time>
      </trkpt>
      <trkpt lat="43.66363" lon="1.39285">
        <ele>125</ele>
        <time>2024-04-04T17:46:54Z</time>
      </trkpt>
      <trkpt lat="43.66363" lon="1.39285">
        <ele>125</ele>
        <time>2024-04-04T17:46:55Z</time>
      </trkpt>
      <trkpt lat="43.66358" lon="1.39283">
        <ele>125</ele>
        <time>2024-04-04T17:46:56Z</time>
      </trkpt>
      <trkpt lat="43.66358" lon="1.39283">
        <ele>125</ele>
        <time>2024-04-04T17:46:57Z</time>
      </trkpt>
      <trkpt lat="43.66354" lon="1.39283">
        <ele>125</ele>
        <time>2024-04-04T17:46:58Z</time>
      </trkpt>
      <trkpt lat="43.66354" lon="1.39283">
        <ele>125</ele>
        <time>2024-04-04T17:46:59Z</time>
      </trkpt>
      <trkpt lat="43.66351" lon="1.39284">
        <ele>125</ele>
        <time>2024-04-04T17:47:00Z</time>
      </trkpt>
      <trkpt lat="43.66349" lon="1.39285">
        <ele>125</ele>
        <time>2024-04-04T17:47:01Z</time>
      </trkpt>
      <trkpt lat="43.66347" lon="1.39287">
        <ele>125</ele>
        <time>2024-04-04T17:47:02Z</time>
      </trkpt>
      <trkpt lat="43.66344" lon="1.39288">
        <ele>125</ele>
        <time>2024-04-04T17:47:03Z</time>
      </trkpt>
      <trkpt lat="43.66344" lon="1.39288">
        <ele>125</ele>
        <time>2024-04-04T17:47:04Z</time>
      </trkpt>
      <trkpt lat="43.66339" lon="1.3929">
        <ele>125</ele>
        <time>2024-04-04T17:47:05Z</time>
      </trkpt>
      <trkpt lat="43.66337" lon="1.39291">
        <ele>125</ele>
        <time>2024-04-04T17:47:06Z</time>
      </trkpt>
      <trkpt lat="43.66335" lon="1.39293">
        <ele>125</ele>
        <time>2024-04-04T17:47:07Z</time>
      </trkpt>
      <trkpt lat="43.66332" lon="1.39294">
        <ele>125</ele>
        <time>2024-04-04T17:47:08Z</time>
      </trkpt>
      <trkpt lat="43.66332" lon="1.39294">
        <ele>125</ele>
        <time>2024-04-04T17:47:09Z</time>
      </trkpt>
      <trkpt lat="43.66326" lon="1.39296">
        <ele>125</ele>
        <time>2024-04-04T17:47:10Z</time>
      </trkpt>
      <trkpt lat="43.66326" lon="1.39296">
        <ele>125</ele>
        <time>2024-04-04T17:47:11Z</time>
      </trkpt>
      <trkpt lat="43.66322" lon="1.39295">
        <ele>125</ele>
        <time>2024-04-04T17:47:12Z</time>
      </trkpt>
      <trkpt lat="43.6632" lon="1.39294">
        <ele>125</ele>
        <time>2024-04-04T17:47:13Z</time>
      </trkpt>
      <trkpt lat="43.66317" lon="1.39293">
        <ele>125</ele>
        <time>2024-04-04T17:47:14Z</time>
      </trkpt>
      <trkpt lat="43.66315" lon="1.39291">
        <ele>125</ele>
        <time>2024-04-04T17:47:15Z</time>
      </trkpt>
      <trkpt lat="43.66312" lon="1.3929">
        <ele>125</ele>
        <time>2024-04-04T17:47:16Z</time>
      </trkpt>
      <trkpt lat="43.6631" lon="1.39287">
        <ele>125</ele>
        <time>2024-04-04T17:47:17Z</time>
      </trkpt>
      <trkpt lat="43.66308" lon="1.39286">
        <ele>125</ele>
        <time>2024-04-04T17:47:18Z</time>
      </trkpt>
      <trkpt lat="43.66306" lon="1.39283">
        <ele>125</ele>
        <time>2024-04-04T17:47:19Z</time>
      </trkpt>
      <trkpt lat="43.66304" lon="1.39281">
        <ele>125</ele>
        <time>2024-04-04T17:47:20Z</time>
      </trkpt>
      <trkpt lat="43.66302" lon="1.39279">
        <ele>125</ele>
        <time>2024-04-04T17:47:21Z</time>
      </trkpt>
      <trkpt lat="43.663" lon="1.39277">
        <ele>125</ele>
        <time>2024-04-04T17:47:22Z</time>
      </trkpt>
      <trkpt lat="43.66298" lon="1.39274">
        <ele>125</ele>
        <time>2024-04-04T17:47:23Z</time>
      </trkpt>
      <trkpt lat="43.66296" lon="1.39272">
        <ele>125</ele>
        <time>2024-04-04T17:47:24Z</time>
      </trkpt>
      <trkpt lat="43.66294" lon="1.39269">
        <ele>125</ele>
        <time>2024-04-04T17:47:25Z</time>
      </trkpt>
      <trkpt lat="43.66294" lon="1.39269">
        <ele>125</ele>
        <time>2024-04-04T17:47:26Z</time>
      </trkpt>
      <trkpt lat="43.66291" lon="1.39264">
        <ele>125</ele>
        <time>2024-04-04T17:47:27Z</time>
      </trkpt>
      <trkpt lat="43.6629" lon="1.39262">
        <ele>125</ele>
        <time>2024-04-04T17:47:28Z</time>
      </trkpt>
      <trkpt lat="43.66289" lon="1.39259">
        <ele>125</ele>
        <time>2024-04-04T17:47:29Z</time>
      </trkpt>
      <trkpt lat="43.66288" lon="1.39257">
        <ele>125</ele>
        <time>2024-04-04T17:47:30Z</time>
      </trkpt>
      <trkpt lat="43.66287" lon="1.39253">
        <ele>125</ele>
        <time>2024-04-04T17:47:31Z</time>
      </trkpt>
      <trkpt lat="43.66286" lon="1.39251">
        <ele>125</ele>
        <time>2024-04-04T17:47:32Z</time>
      </trkpt>
      <trkpt lat="43.66286" lon="1.39251">
        <ele>125</ele>
        <time>2024-04-04T17:47:33Z</time>
      </trkpt>
      <trkpt lat="43.66285" lon="1.39245">
        <ele>125</ele>
        <time>2024-04-04T17:47:34Z</time>
      </trkpt>
      <trkpt lat="43.66285" lon="1.39245">
        <ele>125</ele>
        <time>2024-04-04T17:47:35Z</time>
      </trkpt>
      <trkpt lat="43.66284" lon="1.3924">
        <ele>125</ele>
        <time>2024-04-04T17:47:36Z</time>
      </trkpt>
      <trkpt lat="43.66284" lon="1.39237">
        <ele>125</ele>
        <time>2024-04-04T17:47:37Z</time>
      </trkpt>
      <trkpt lat="43.66284" lon="1.39234">
        <ele>125</ele>
        <time>2024-04-04T17:47:38Z</time>
      </trkpt>
      <trkpt lat="43.66284" lon="1.39234">
        <ele>125</ele>
        <time>2024-04-04T17:47:39Z</time>
      </trkpt>
      <trkpt lat="43.66282" lon="1.39227">
        <ele>125</ele>
        <time>2024-04-04T17:47:40Z</time>
      </trkpt>
      <trkpt lat="43.66281" lon="1.39223">
        <ele>125</ele>
        <time>2024-04-04T17:47:41Z</time>
      </trkpt>
      <trkpt lat="43.66281" lon="1.39219">
        <ele>125</ele>
        <time>2024-04-04T17:47:42Z</time>
      </trkpt>
      <trkpt lat="43.6628" lon="1.39216">
        <ele>125</ele>
        <time>2024-04-04T17:47:43Z</time>
      </trkpt>
      <trkpt lat="43.6628" lon="1.39212">
        <ele>125</ele>
        <time>2024-04-04T17:47:44Z</time>
      </trkpt>
      <trkpt lat="43.6628" lon="1.39209">
        <ele>125</ele>
        <time>2024-04-04T17:47:45Z</time>
      </trkpt>
      <trkpt lat="43.6628" lon="1.39205">
        <ele>125</ele>
        <time>2024-04-04T17:47:46Z</time>
      </trkpt>
      <trkpt lat="43.6628" lon="1.39205">
        <ele>125</ele>
        <time>2024-04-04T17:47:47Z</time>
      </trkpt>
      <trkpt lat="43.66279" lon="1.39202">
        <ele>125</ele>
        <time>2024-04-04T17:47:48Z</time>
      </trkpt>
      <trkpt lat="43.66278" lon="1.39195">
        <ele>125</ele>
        <time>2024-04-04T17:47:49Z</time>
      </trkpt>
      <trkpt lat="43.66278" lon="1.39195">
        <ele>125</ele>
        <time>2024-04-04T17:47:50Z</time>
      </trkpt>
      <trkpt lat="43.66276" lon="1.3919">
        <ele>125</ele>
        <time>2024-04-04T17:47:51Z</time>
      </trkpt>
      <trkpt lat="43.66274" lon="1.39185">
        <ele>125</ele>
        <time>2024-04-04T17:47:52Z</time>
      </trkpt>
      <trkpt lat="43.66273" lon="1.3918">
        <ele>125</ele>
        <time>2024-04-04T17:47:53Z</time>
      </trkpt>
      <trkpt lat="43.66271" lon="1.39178">
        <ele>125</ele>
        <time>2024-04-04T17:47:54Z</time>
      </trkpt>
      <trkpt lat="43.66269" lon="1.39176">
        <ele>125</ele>
        <time>2024-04-04T17:47:55Z</time>
      </trkpt>
      <trkpt lat="43.66269" lon="1.39176">
        <ele>125</ele>
        <time>2024-04-04T17:47:56Z</time>
      </trkpt>
      <trkpt lat="43.66264" lon="1.39173">
        <ele>125</ele>
        <time>2024-04-04T17:47:57Z</time>
      </trkpt>
      <trkpt lat="43.66264" lon="1.39173">
        <ele>125</ele>
        <time>2024-04-04T17:47:58Z</time>
      </trkpt>
      <trkpt lat="43.66262" lon="1.39171">
        <ele>125</ele>
        <time>2024-04-04T17:47:59Z</time>
      </trkpt>
      <trkpt lat="43.66259" lon="1.39169">
        <ele>125</ele>
        <time>2024-04-04T17:48:00Z</time>
      </trkpt>
      <trkpt lat="43.66257" lon="1.39169">
        <ele>125</ele>
        <time>2024-04-04T17:48:01Z</time>
      </trkpt>
      <trkpt lat="43.66254" lon="1.3917">
        <ele>125</ele>
        <time>2024-04-04T17:48:02Z</time>
      </trkpt>
      <trkpt lat="43.66254" lon="1.3917">
        <ele>125</ele>
        <time>2024-04-04T17:48:03Z</time>
      </trkpt>
      <trkpt lat="43.6625" lon="1.39172">
        <ele>125</ele>
        <time>2024-04-04T17:48:04Z</time>
      </trkpt>
      <trkpt lat="43.66248" lon="1.39173">
        <ele>125</ele>
        <time>2024-04-04T17:48:05Z</time>
      </trkpt>
      <trkpt lat="43.66245" lon="1.39174">
        <ele>126</ele>
        <time>2024-04-04T17:48:06Z</time>
      </trkpt>
      <trkpt lat="43.66243" lon="1.39175">
        <ele>126</ele>
        <time>2024-04-04T17:48:07Z</time>
      </trkpt>
      <trkpt lat="43.6624" lon="1.39174">
        <ele>126</ele>
        <time>2024-04-04T17:48:08Z</time>
      </trkpt>
      <trkpt lat="43.66237" lon="1.39173">
        <ele>126</ele>
        <time>2024-04-04T17:48:09Z</time>
      </trkpt>
      <trkpt lat="43.66234" lon="1.39171">
        <ele>126</ele>
        <time>2024-04-04T17:48:10Z</time>
      </trkpt>
      <trkpt lat="43.66232" lon="1.39169">
        <ele>126</ele>
        <time>2024-04-04T17:48:11Z</time>
      </trkpt>
      <trkpt lat="43.6623" lon="1.39167">
        <ele>126</ele>
        <time>2024-04-04T17:48:12Z</time>
      </trkpt>
      <trkpt lat="43.66228" lon="1.39163">
        <ele>126</ele>
        <time>2024-04-04T17:48:13Z</time>
      </trkpt>
      <trkpt lat="43.66227" lon="1.39159">
        <ele>126</ele>
        <time>2024-04-04T17:48:14Z</time>
      </trkpt>
      <trkpt lat="43.66225" lon="1.39157">
        <ele>126</ele>
        <time>2024-04-04T17:48:15Z</time>
      </trkpt>
      <trkpt lat="43.66224" lon="1.39154">
        <ele>126</ele>
        <time>2024-04-04T17:48:16Z</time>
      </trkpt>
      <trkpt lat="43.66223" lon="1.39151">
        <ele>126</ele>
        <time>2024-04-04T17:48:17Z</time>
      </trkpt>
      <trkpt lat="43.66221" lon="1.39148">
        <ele>126</ele>
        <time>2024-04-04T17:48:18Z</time>
      </trkpt>
      <trkpt lat="43.66219" lon="1.39145">
        <ele>125</ele>
        <time>2024-04-04T17:48:19Z</time>
      </trkpt>
      <trkpt lat="43.66217" lon="1.39143">
        <ele>125</ele>
        <time>2024-04-04T17:48:20Z</time>
      </trkpt>
      <trkpt lat="43.66217" lon="1.39143">
        <ele>125</ele>
        <time>2024-04-04T17:48:21Z</time>
      </trkpt>
      <trkpt lat="43.66214" lon="1.39141">
        <ele>125</ele>
        <time>2024-04-04T17:48:22Z</time>
      </trkpt>
      <trkpt lat="43.66213" lon="1.39143">
        <ele>125</ele>
        <time>2024-04-04T17:48:23Z</time>
      </trkpt>
      <trkpt lat="43.66213" lon="1.39143">
        <ele>125</ele>
        <time>2024-04-04T17:48:24Z</time>
      </trkpt>
      <trkpt lat="43.66208" lon="1.39145">
        <ele>125</ele>
        <time>2024-04-04T17:48:25Z</time>
      </trkpt>
      <trkpt lat="43.66208" lon="1.39145">
        <ele>125</ele>
        <time>2024-04-04T17:48:26Z</time>
      </trkpt>
      <trkpt lat="43.66204" lon="1.39147">
        <ele>125</ele>
        <time>2024-04-04T17:48:27Z</time>
      </trkpt>
      <trkpt lat="43.66202" lon="1.39148">
        <ele>125</ele>
        <time>2024-04-04T17:48:28Z</time>
      </trkpt>
      <trkpt lat="43.662" lon="1.3915">
        <ele>125</ele>
        <time>2024-04-04T17:48:29Z</time>
      </trkpt>
      <trkpt lat="43.66197" lon="1.39151">
        <ele>125</ele>
        <time>2024-04-04T17:48:30Z</time>
      </trkpt>
      <trkpt lat="43.66196" lon="1.39153">
        <ele>125</ele>
        <time>2024-04-04T17:48:31Z</time>
      </trkpt>
      <trkpt lat="43.66194" lon="1.39154">
        <ele>125</ele>
        <time>2024-04-04T17:48:32Z</time>
      </trkpt>
      <trkpt lat="43.66193" lon="1.39156">
        <ele>125</ele>
        <time>2024-04-04T17:48:33Z</time>
      </trkpt>
      <trkpt lat="43.66191" lon="1.39158">
        <ele>125</ele>
        <time>2024-04-04T17:48:34Z</time>
      </trkpt>
      <trkpt lat="43.6619" lon="1.39161">
        <ele>125</ele>
        <time>2024-04-04T17:48:35Z</time>
      </trkpt>
      <trkpt lat="43.6619" lon="1.39161">
        <ele>125</ele>
        <time>2024-04-04T17:48:36Z</time>
      </trkpt>
      <trkpt lat="43.66188" lon="1.39162">
        <ele>125</ele>
        <time>2024-04-04T17:48:37Z</time>
      </trkpt>
      <trkpt lat="43.66186" lon="1.39165">
        <ele>125</ele>
        <time>2024-04-04T17:48:38Z</time>
      </trkpt>
      <trkpt lat="43.66184" lon="1.39166">
        <ele>125</ele>
        <time>2024-04-04T17:48:39Z</time>
      </trkpt>
      <trkpt lat="43.66184" lon="1.39166">
        <ele>125</ele>
        <time>2024-04-04T17:48:40Z</time>
      </trkpt>
      <trkpt lat="43.66184" lon="1.39166">
        <ele>125</ele>
        <time>2024-04-04T17:48:41Z</time>
      </trkpt>
      <trkpt lat="43.6618" lon="1.39171">
        <ele>126</ele>
        <time>2024-04-04T17:48:42Z</time>
      </trkpt>
      <trkpt lat="43.6618" lon="1.39171">
        <ele>126</ele>
        <time>2024-04-04T17:48:43Z</time>
      </trkpt>
      <trkpt lat="43.66176" lon="1.39174">
        <ele>126</ele>
        <time>2024-04-04T17:48:44Z</time>
      </trkpt>
      <trkpt lat="43.66174" lon="1.39175">
        <ele>126</ele>
        <time>2024-04-04T17:48:45Z</time>
      </trkpt>
      <trkpt lat="43.66174" lon="1.39175">
        <ele>125</ele>
        <time>2024-04-04T17:48:46Z</time>
      </trkpt>
      <trkpt lat="43.6617" lon="1.39176">
        <ele>125</ele>
        <time>2024-04-04T17:48:47Z</time>
      </trkpt>
      <trkpt lat="43.6617" lon="1.39176">
        <ele>125</ele>
        <time>2024-04-04T17:48:48Z</time>
      </trkpt>
      <trkpt lat="43.66167" lon="1.39176">
        <ele>125</ele>
        <time>2024-04-04T17:48:49Z</time>
      </trkpt>
      <trkpt lat="43.66165" lon="1.39178">
        <ele>126</ele>
        <time>2024-04-04T17:48:50Z</time>
      </trkpt>
      <trkpt lat="43.66162" lon="1.39179">
        <ele>126</ele>
        <time>2024-04-04T17:48:51Z</time>
      </trkpt>
      <trkpt lat="43.66159" lon="1.3918">
        <ele>126</ele>
        <time>2024-04-04T17:48:52Z</time>
      </trkpt>
      <trkpt lat="43.66157" lon="1.39182">
        <ele>126</ele>
        <time>2024-04-04T17:48:53Z</time>
      </trkpt>
      <trkpt lat="43.66154" lon="1.39183">
        <ele>126</ele>
        <time>2024-04-04T17:48:54Z</time>
      </trkpt>
      <trkpt lat="43.66151" lon="1.39185">
        <ele>126</ele>
        <time>2024-04-04T17:48:55Z</time>
      </trkpt>
      <trkpt lat="43.66149" lon="1.39187">
        <ele>126</ele>
        <time>2024-04-04T17:48:56Z</time>
      </trkpt>
      <trkpt lat="43.66143" lon="1.39191">
        <ele>126</ele>
        <time>2024-04-04T17:48:57Z</time>
      </trkpt>
      <trkpt lat="43.66142" lon="1.39191">
        <ele>126</ele>
        <time>2024-04-04T17:48:58Z</time>
      </trkpt>
      <trkpt lat="43.66142" lon="1.39191">
        <ele>126</ele>
        <time>2024-04-04T17:48:59Z</time>
      </trkpt>
      <trkpt lat="43.66139" lon="1.39192">
        <ele>126</ele>
        <time>2024-04-04T17:49:00Z</time>
      </trkpt>
      <trkpt lat="43.66137" lon="1.39193">
        <ele>126</ele>
        <time>2024-04-04T17:49:01Z</time>
      </trkpt>
      <trkpt lat="43.66135" lon="1.39194">
        <ele>126</ele>
        <time>2024-04-04T17:49:02Z</time>
      </trkpt>
      <trkpt lat="43.66132" lon="1.39194">
        <ele>126</ele>
        <time>2024-04-04T17:49:03Z</time>
      </trkpt>
      <trkpt lat="43.66129" lon="1.39196">
        <ele>126</ele>
        <time>2024-04-04T17:49:04Z</time>
      </trkpt>
      <trkpt lat="43.66126" lon="1.39197">
        <ele>126</ele>
        <time>2024-04-04T17:49:05Z</time>
      </trkpt>
      <trkpt lat="43.66123" lon="1.39198">
        <ele>126</ele>
        <time>2024-04-04T17:49:06Z</time>
      </trkpt>
      <trkpt lat="43.6612" lon="1.39199">
        <ele>126</ele>
        <time>2024-04-04T17:49:07Z</time>
      </trkpt>
      <trkpt lat="43.66118" lon="1.39201">
        <ele>126</ele>
        <time>2024-04-04T17:49:08Z</time>
      </trkpt>
      <trkpt lat="43.66115" lon="1.39202">
        <ele>126</ele>
        <time>2024-04-04T17:49:09Z</time>
      </trkpt>
      <trkpt lat="43.66112" lon="1.39203">
        <ele>126</ele>
        <time>2024-04-04T17:49:10Z</time>
      </trkpt>
      <trkpt lat="43.6611" lon="1.39205">
        <ele>126</ele>
        <time>2024-04-04T17:49:11Z</time>
      </trkpt>
      <trkpt lat="43.66107" lon="1.39206">
        <ele>126</ele>
        <time>2024-04-04T17:49:12Z</time>
      </trkpt>
      <trkpt lat="43.66105" lon="1.39207">
        <ele>126</ele>
        <time>2024-04-04T17:49:13Z</time>
      </trkpt>
      <trkpt lat="43.66102" lon="1.3921">
        <ele>126</ele>
        <time>2024-04-04T17:49:14Z</time>
      </trkpt>
      <trkpt lat="43.66099" lon="1.39213">
        <ele>126</ele>
        <time>2024-04-04T17:49:15Z</time>
      </trkpt>
      <trkpt lat="43.66097" lon="1.39215">
        <ele>126</ele>
        <time>2024-04-04T17:49:16Z</time>
      </trkpt>
      <trkpt lat="43.66095" lon="1.39217">
        <ele>126</ele>
        <time>2024-04-04T17:49:17Z</time>
      </trkpt>
      <trkpt lat="43.66095" lon="1.39217">
        <ele>126</ele>
        <time>2024-04-04T17:49:18Z</time>
      </trkpt>
      <trkpt lat="43.66095" lon="1.39217">
        <ele>126</ele>
        <time>2024-04-04T17:49:19Z</time>
      </trkpt>
      <trkpt lat="43.6609" lon="1.39218">
        <ele>126</ele>
        <time>2024-04-04T17:49:20Z</time>
      </trkpt>
      <trkpt lat="43.66087" lon="1.39219">
        <ele>126</ele>
        <time>2024-04-04T17:49:21Z</time>
      </trkpt>
      <trkpt lat="43.66085" lon="1.3922">
        <ele>126</ele>
        <time>2024-04-04T17:49:22Z</time>
      </trkpt>
      <trkpt lat="43.66083" lon="1.39221">
        <ele>126</ele>
        <time>2024-04-04T17:49:23Z</time>
      </trkpt>
      <trkpt lat="43.66081" lon="1.39221">
        <ele>126</ele>
        <time>2024-04-04T17:49:24Z</time>
      </trkpt>
      <trkpt lat="43.66079" lon="1.39221">
        <ele>126</ele>
        <time>2024-04-04T17:49:25Z</time>
      </trkpt>
      <trkpt lat="43.66079" lon="1.39221">
        <ele>126</ele>
        <time>2024-04-04T17:49:26Z</time>
      </trkpt>
      <trkpt lat="43.66075" lon="1.39222">
        <ele>126</ele>
        <time>2024-04-04T17:49:27Z</time>
      </trkpt>
      <trkpt lat="43.66071" lon="1.39223">
        <ele>126</ele>
        <time>2024-04-04T17:49:28Z</time>
      </trkpt>
      <trkpt lat="43.66068" lon="1.39223">
        <ele>126</ele>
        <time>2024-04-04T17:49:29Z</time>
      </trkpt>
      <trkpt lat="43.66064" lon="1.39224">
        <ele>126</ele>
        <time>2024-04-04T17:49:30Z</time>
      </trkpt>
      <trkpt lat="43.66064" lon="1.39224">
        <ele>126</ele>
        <time>2024-04-04T17:49:31Z</time>
      </trkpt>
      <trkpt lat="43.66058" lon="1.39224">
        <ele>126</ele>
        <time>2024-04-04T17:49:32Z</time>
      </trkpt>
      <trkpt lat="43.66058" lon="1.39224">
        <ele>126</ele>
        <time>2024-04-04T17:49:33Z</time>
      </trkpt>
      <trkpt lat="43.66053" lon="1.39224">
        <ele>126</ele>
        <time>2024-04-04T17:49:34Z</time>
      </trkpt>
      <trkpt lat="43.6605" lon="1.39224">
        <ele>126</ele>
        <time>2024-04-04T17:49:35Z</time>
      </trkpt>
      <trkpt lat="43.66048" lon="1.39224">
        <ele>126</ele>
        <time>2024-04-04T17:49:36Z</time>
      </trkpt>
      <trkpt lat="43.66046" lon="1.39223">
        <ele>126</ele>
        <time>2024-04-04T17:49:37Z</time>
      </trkpt>
      <trkpt lat="43.66044" lon="1.39222">
        <ele>127</ele>
        <time>2024-04-04T17:49:38Z</time>
      </trkpt>
      <trkpt lat="43.66042" lon="1.39222">
        <ele>127</ele>
        <time>2024-04-04T17:49:39Z</time>
      </trkpt>
      <trkpt lat="43.66042" lon="1.39222">
        <ele>127</ele>
        <time>2024-04-04T17:49:40Z</time>
      </trkpt>
      <trkpt lat="43.66037" lon="1.39222">
        <ele>127</ele>
        <time>2024-04-04T17:49:41Z</time>
      </trkpt>
      <trkpt lat="43.66035" lon="1.39222">
        <ele>127</ele>
        <time>2024-04-04T17:49:42Z</time>
      </trkpt>
      <trkpt lat="43.66035" lon="1.39222">
        <ele>126</ele>
        <time>2024-04-04T17:49:43Z</time>
      </trkpt>
      <trkpt lat="43.6603" lon="1.39224">
        <ele>126</ele>
        <time>2024-04-04T17:49:44Z</time>
      </trkpt>
      <trkpt lat="43.66028" lon="1.39225">
        <ele>126</ele>
        <time>2024-04-04T17:49:45Z</time>
      </trkpt>
      <trkpt lat="43.66026" lon="1.39227">
        <ele>126</ele>
        <time>2024-04-04T17:49:46Z</time>
      </trkpt>
      <trkpt lat="43.66023" lon="1.39228">
        <ele>126</ele>
        <time>2024-04-04T17:49:47Z</time>
      </trkpt>
      <trkpt lat="43.66021" lon="1.3923">
        <ele>126</ele>
        <time>2024-04-04T17:49:48Z</time>
      </trkpt>
      <trkpt lat="43.66019" lon="1.39232">
        <ele>126</ele>
        <time>2024-04-04T17:49:49Z</time>
      </trkpt>
      <trkpt lat="43.66018" lon="1.39233">
        <ele>126</ele>
        <time>2024-04-04T17:49:50Z</time>
      </trkpt>
      <trkpt lat="43.66016" lon="1.39234">
        <ele>126</ele>
        <time>2024-04-04T17:49:51Z</time>
      </trkpt>
      <trkpt lat="43.66016" lon="1.39234">
        <ele>127</ele>
        <time>2024-04-04T17:49:52Z</time>
      </trkpt>
      <trkpt lat="43.66014" lon="1.39236">
        <ele>127</ele>
        <time>2024-04-04T17:49:53Z</time>
      </trkpt>
      <trkpt lat="43.6601" lon="1.39239">
        <ele>127</ele>
        <time>2024-04-04T17:49:54Z</time>
      </trkpt>
      <trkpt lat="43.66008" lon="1.39241">
        <ele>127</ele>
        <time>2024-04-04T17:49:55Z</time>
      </trkpt>
      <trkpt lat="43.66006" lon="1.39243">
        <ele>127</ele>
        <time>2024-04-04T17:49:56Z</time>
      </trkpt>
      <trkpt lat="43.66006" lon="1.39243">
        <ele>127</ele>
        <time>2024-04-04T17:49:57Z</time>
      </trkpt>
      <trkpt lat="43.66004" lon="1.39244">
        <ele>127</ele>
        <time>2024-04-04T17:49:58Z</time>
      </trkpt>
      <trkpt lat="43.66001" lon="1.39245">
        <ele>127</ele>
        <time>2024-04-04T17:49:59Z</time>
      </trkpt>
      <trkpt lat="43.65997" lon="1.39246">
        <ele>126</ele>
        <time>2024-04-04T17:50:00Z</time>
      </trkpt>
      <trkpt lat="43.65994" lon="1.39247">
        <ele>127</ele>
        <time>2024-04-04T17:50:01Z</time>
      </trkpt>
      <trkpt lat="43.65991" lon="1.39248">
        <ele>127</ele>
        <time>2024-04-04T17:50:02Z</time>
      </trkpt>
      <trkpt lat="43.65988" lon="1.39248">
        <ele>126</ele>
        <time>2024-04-04T17:50:03Z</time>
      </trkpt>
      <trkpt lat="43.65988" lon="1.39248">
        <ele>126</ele>
        <time>2024-04-04T17:50:04Z</time>
      </trkpt>
      <trkpt lat="43.65983" lon="1.39249">
        <ele>126</ele>
        <time>2024-04-04T17:50:05Z</time>
      </trkpt>
      <trkpt lat="43.65981" lon="1.3925">
        <ele>126</ele>
        <time>2024-04-04T17:50:06Z</time>
      </trkpt>
      <trkpt lat="43.65979" lon="1.39252">
        <ele>126</ele>
        <time>2024-04-04T17:50:07Z</time>
      </trkpt>
      <trkpt lat="43.65977" lon="1.39253">
        <ele>126</ele>
        <time>2024-04-04T17:50:08Z</time>
      </trkpt>
      <trkpt lat="43.65977" lon="1.39253">
        <ele>126</ele>
        <time>2024-04-04T17:50:09Z</time>
      </trkpt>
      <trkpt lat="43.65972" lon="1.39256">
        <ele>126</ele>
        <time>2024-04-04T17:50:10Z</time>
      </trkpt>
      <trkpt lat="43.65969" lon="1.39257">
        <ele>126</ele>
        <time>2024-04-04T17:50:11Z</time>
      </trkpt>
      <trkpt lat="43.65966" lon="1.39258">
        <ele>126</ele>
        <time>2024-04-04T17:50:12Z</time>
      </trkpt>
      <trkpt lat="43.65964" lon="1.39258">
        <ele>126</ele>
        <time>2024-04-04T17:50:13Z</time>
      </trkpt>
      <trkpt lat="43.65961" lon="1.39259">
        <ele>126</ele>
        <time>2024-04-04T17:50:14Z</time>
      </trkpt>
      <trkpt lat="43.65959" lon="1.39259">
        <ele>127</ele>
        <time>2024-04-04T17:50:15Z</time>
      </trkpt>
      <trkpt lat="43.65959" lon="1.39259">
        <ele>127</ele>
        <time>2024-04-04T17:50:16Z</time>
      </trkpt>
      <trkpt lat="43.65954" lon="1.3926">
        <ele>126</ele>
        <time>2024-04-04T17:50:17Z</time>
      </trkpt>
      <trkpt lat="43.65952" lon="1.39259">
        <ele>126</ele>
        <time>2024-04-04T17:50:18Z</time>
      </trkpt>
      <trkpt lat="43.65949" lon="1.39259">
        <ele>126</ele>
        <time>2024-04-04T17:50:19Z</time>
      </trkpt>
      <trkpt lat="43.65947" lon="1.39258">
        <ele>126</ele>
        <time>2024-04-04T17:50:20Z</time>
      </trkpt>
      <trkpt lat="43.65945" lon="1.39258">
        <ele>126</ele>
        <time>2024-04-04T17:50:21Z</time>
      </trkpt>
      <trkpt lat="43.65945" lon="1.39258">
        <ele>126</ele>
        <time>2024-04-04T17:50:22Z</time>
      </trkpt>
      <trkpt lat="43.65945" lon="1.39258">
        <ele>126</ele>
        <time>2024-04-04T17:50:23Z</time>
      </trkpt>
      <trkpt lat="43.65939" lon="1.39257">
        <ele>126</ele>
        <time>2024-04-04T17:50:24Z</time>
      </trkpt>
      <trkpt lat="43.65936" lon="1.39257">
        <ele>126</ele>
        <time>2024-04-04T17:50:25Z</time>
      </trkpt>
      <trkpt lat="43.65933" lon="1.39257">
        <ele>126</ele>
        <time>2024-04-04T17:50:26Z</time>
      </trkpt>
      <trkpt lat="43.6593" lon="1.39258">
        <ele>126</ele>
        <time>2024-04-04T17:50:27Z</time>
      </trkpt>
      <trkpt lat="43.65928" lon="1.39258">
        <ele>127</ele>
        <time>2024-04-04T17:50:28Z</time>
      </trkpt>
      <trkpt lat="43.65926" lon="1.39258">
        <ele>127</ele>
        <time>2024-04-04T17:50:29Z</time>
      </trkpt>
      <trkpt lat="43.65923" lon="1.39259">
        <ele>127</ele>
        <time>2024-04-04T17:50:30Z</time>
      </trkpt>
      <trkpt lat="43.65921" lon="1.3926">
        <ele>127</ele>
        <time>2024-04-04T17:50:31Z</time>
      </trkpt>
      <trkpt lat="43.65919" lon="1.39259">
        <ele>127</ele>
        <time>2024-04-04T17:50:32Z</time>
      </trkpt>
      <trkpt lat="43.65916" lon="1.39259">
        <ele>127</ele>
        <time>2024-04-04T17:50:33Z</time>
      </trkpt>
      <trkpt lat="43.65914" lon="1.3926">
        <ele>127</ele>
        <time>2024-04-04T17:50:34Z</time>
      </trkpt>
      <trkpt lat="43.65911" lon="1.3926">
        <ele>127</ele>
        <time>2024-04-04T17:50:35Z</time>
      </trkpt>
      <trkpt lat="43.65909" lon="1.3926">
        <ele>127</ele>
        <time>2024-04-04T17:50:36Z</time>
      </trkpt>
      <trkpt lat="43.65909" lon="1.3926">
        <ele>127</ele>
        <time>2024-04-04T17:50:37Z</time>
      </trkpt>
      <trkpt lat="43.65903" lon="1.39259">
        <ele>127</ele>
        <time>2024-04-04T17:50:38Z</time>
      </trkpt>
      <trkpt lat="43.65901" lon="1.39257">
        <ele>127</ele>
        <time>2024-04-04T17:50:39Z</time>
      </trkpt>
      <trkpt lat="43.65897" lon="1.39257">
        <ele>127</ele>
        <time>2024-04-04T17:50:40Z</time>
      </trkpt>
      <trkpt lat="43.65894" lon="1.39257">
        <ele>127</ele>
        <time>2024-04-04T17:50:41Z</time>
      </trkpt>
      <trkpt lat="43.65892" lon="1.39257">
        <ele>127</ele>
        <time>2024-04-04T17:50:42Z</time>
      </trkpt>
      <trkpt lat="43.65889" lon="1.39257">
        <ele>127</ele>
        <time>2024-04-04T17:50:43Z</time>
      </trkpt>
      <trkpt lat="43.65889" lon="1.39257">
        <ele>127</ele>
        <time>2024-04-04T17:50:44Z</time>
      </trkpt>
      <trkpt lat="43.65883" lon="1.39258">
        <ele>127</ele>
        <time>2024-04-04T17:50:45Z</time>
      </trkpt>
      <trkpt lat="43.65881" lon="1.39258">
        <ele>127</ele>
        <time>2024-04-04T17:50:46Z</time>
      </trkpt>
      <trkpt lat="43.65878" lon="1.39257">
        <ele>126</ele>
        <time>2024-04-04T17:50:47Z</time>
      </trkpt>
      <trkpt lat="43.65878" lon="1.39257">
        <ele>127</ele>
        <time>2024-04-04T17:50:48Z</time>
      </trkpt>
      <trkpt lat="43.65873" lon="1.39258">
        <ele>127</ele>
        <time>2024-04-04T17:50:49Z</time>
      </trkpt>
      <trkpt lat="43.65873" lon="1.39258">
        <ele>127</ele>
        <time>2024-04-04T17:50:50Z</time>
      </trkpt>
      <trkpt lat="43.65868" lon="1.39257">
        <ele>127</ele>
        <time>2024-04-04T17:50:51Z</time>
      </trkpt>
      <trkpt lat="43.65866" lon="1.39256">
        <ele>126</ele>
        <time>2024-04-04T17:50:52Z</time>
      </trkpt>
      <trkpt lat="43.65863" lon="1.39255">
        <ele>127</ele>
        <time>2024-04-04T17:50:53Z</time>
      </trkpt>
      <trkpt lat="43.65861" lon="1.39254">
        <ele>127</ele>
        <time>2024-04-04T17:50:54Z</time>
      </trkpt>
      <trkpt lat="43.65861" lon="1.39254">
        <ele>127</ele>
        <time>2024-04-04T17:50:55Z</time>
      </trkpt>
      <trkpt lat="43.65858" lon="1.39252">
        <ele>126</ele>
        <time>2024-04-04T17:50:56Z</time>
      </trkpt>
      <trkpt lat="43.65858" lon="1.39252">
        <ele>126</ele>
        <time>2024-04-04T17:50:57Z</time>
      </trkpt>
      <trkpt lat="43.65852" lon="1.39249">
        <ele>126</ele>
        <time>2024-04-04T17:50:58Z</time>
      </trkpt>
      <trkpt lat="43.6585" lon="1.39247">
        <ele>127</ele>
        <time>2024-04-04T17:50:59Z</time>
      </trkpt>
      <trkpt lat="43.65848" lon="1.39245">
        <ele>127</ele>
        <time>2024-04-04T17:51:00Z</time>
      </trkpt>
      <trkpt lat="43.65846" lon="1.39244">
        <ele>127</ele>
        <time>2024-04-04T17:51:01Z</time>
      </trkpt>
      <trkpt lat="43.65843" lon="1.39242">
        <ele>127</ele>
        <time>2024-04-04T17:51:02Z</time>
      </trkpt>
      <trkpt lat="43.65839" lon="1.3924">
        <ele>128</ele>
        <time>2024-04-04T17:51:04Z</time>
      </trkpt>
      <trkpt lat="43.65836" lon="1.39239">
        <ele>128</ele>
        <time>2024-04-04T17:51:05Z</time>
      </trkpt>
      <trkpt lat="43.65834" lon="1.39238">
        <ele>127</ele>
        <time>2024-04-04T17:51:06Z</time>
      </trkpt>
      <trkpt lat="43.65832" lon="1.39237">
        <ele>128</ele>
        <time>2024-04-04T17:51:07Z</time>
      </trkpt>
      <trkpt lat="43.6583" lon="1.39236">
        <ele>128</ele>
        <time>2024-04-04T17:51:08Z</time>
      </trkpt>
      <trkpt lat="43.6583" lon="1.39236">
        <ele>128</ele>
        <time>2024-04-04T17:51:09Z</time>
      </trkpt>
      <trkpt lat="43.65826" lon="1.39233">
        <ele>128</ele>
        <time>2024-04-04T17:51:10Z</time>
      </trkpt>
      <trkpt lat="43.65826" lon="1.39233">
        <ele>128</ele>
        <time>2024-04-04T17:51:11Z</time>
      </trkpt>
      <trkpt lat="43.6582" lon="1.39231">
        <ele>127</ele>
        <time>2024-04-04T17:51:12Z</time>
      </trkpt>
      <trkpt lat="43.65818" lon="1.39231">
        <ele>128</ele>
        <time>2024-04-04T17:51:13Z</time>
      </trkpt>
      <trkpt lat="43.65815" lon="1.39229">
        <ele>128</ele>
        <time>2024-04-04T17:51:14Z</time>
      </trkpt>
      <trkpt lat="43.65813" lon="1.39229">
        <ele>127</ele>
        <time>2024-04-04T17:51:15Z</time>
      </trkpt>
      <trkpt lat="43.6581" lon="1.39227">
        <ele>127</ele>
        <time>2024-04-04T17:51:16Z</time>
      </trkpt>
      <trkpt lat="43.65808" lon="1.39227">
        <ele>127</ele>
        <time>2024-04-04T17:51:17Z</time>
      </trkpt>
      <trkpt lat="43.65808" lon="1.39227">
        <ele>127</ele>
        <time>2024-04-04T17:51:18Z</time>
      </trkpt>
      <trkpt lat="43.65803" lon="1.39227">
        <ele>127</ele>
        <time>2024-04-04T17:51:19Z</time>
      </trkpt>
      <trkpt lat="43.658" lon="1.39226">
        <ele>127</ele>
        <time>2024-04-04T17:51:20Z</time>
      </trkpt>
      <trkpt lat="43.65797" lon="1.39226">
        <ele>127</ele>
        <time>2024-04-04T17:51:21Z</time>
      </trkpt>
      <trkpt lat="43.65794" lon="1.39225">
        <ele>127</ele>
        <time>2024-04-04T17:51:22Z</time>
      </trkpt>
      <trkpt lat="43.65791" lon="1.39225">
        <ele>127</ele>
        <time>2024-04-04T17:51:23Z</time>
      </trkpt>
      <trkpt lat="43.65789" lon="1.39224">
        <ele>127</ele>
        <time>2024-04-04T17:51:24Z</time>
      </trkpt>
      <trkpt lat="43.65789" lon="1.39224">
        <ele>127</ele>
        <time>2024-04-04T17:51:25Z</time>
      </trkpt>
      <trkpt lat="43.65785" lon="1.39221">
        <ele>127</ele>
        <time>2024-04-04T17:51:26Z</time>
      </trkpt>
      <trkpt lat="43.65783" lon="1.39218">
        <ele>128</ele>
        <time>2024-04-04T17:51:27Z</time>
      </trkpt>
      <trkpt lat="43.65781" lon="1.39215">
        <ele>128</ele>
        <time>2024-04-04T17:51:28Z</time>
      </trkpt>
      <trkpt lat="43.65778" lon="1.39213">
        <ele>128</ele>
        <time>2024-04-04T17:51:29Z</time>
      </trkpt>
      <trkpt lat="43.65778" lon="1.39213">
        <ele>128</ele>
        <time>2024-04-04T17:51:30Z</time>
      </trkpt>
      <trkpt lat="43.65774" lon="1.39207">
        <ele>128</ele>
        <time>2024-04-04T17:51:31Z</time>
      </trkpt>
      <trkpt lat="43.65772" lon="1.39205">
        <ele>128</ele>
        <time>2024-04-04T17:51:32Z</time>
      </trkpt>
      <trkpt lat="43.65769" lon="1.39203">
        <ele>128</ele>
        <time>2024-04-04T17:51:33Z</time>
      </trkpt>
      <trkpt lat="43.65767" lon="1.39201">
        <ele>129</ele>
        <time>2024-04-04T17:51:34Z</time>
      </trkpt>
      <trkpt lat="43.65765" lon="1.392">
        <ele>129</ele>
        <time>2024-04-04T17:51:35Z</time>
      </trkpt>
      <trkpt lat="43.65763" lon="1.39198">
        <ele>129</ele>
        <time>2024-04-04T17:51:36Z</time>
      </trkpt>
      <trkpt lat="43.65762" lon="1.39196">
        <ele>129</ele>
        <time>2024-04-04T17:51:37Z</time>
      </trkpt>
      <trkpt lat="43.6576" lon="1.39194">
        <ele>129</ele>
        <time>2024-04-04T17:51:38Z</time>
      </trkpt>
      <trkpt lat="43.65758" lon="1.39193">
        <ele>129</ele>
        <time>2024-04-04T17:51:39Z</time>
      </trkpt>
      <trkpt lat="43.65755" lon="1.39191">
        <ele>129</ele>
        <time>2024-04-04T17:51:40Z</time>
      </trkpt>
      <trkpt lat="43.65753" lon="1.39189">
        <ele>129</ele>
        <time>2024-04-04T17:51:41Z</time>
      </trkpt>
      <trkpt lat="43.65753" lon="1.39189">
        <ele>129</ele>
        <time>2024-04-04T17:51:42Z</time>
      </trkpt>
      <trkpt lat="43.65748" lon="1.39187">
        <ele>129</ele>
        <time>2024-04-04T17:51:43Z</time>
      </trkpt>
      <trkpt lat="43.65748" lon="1.39187">
        <ele>129</ele>
        <time>2024-04-04T17:51:44Z</time>
      </trkpt>
      <trkpt lat="43.65743" lon="1.39184">
        <ele>129</ele>
        <time>2024-04-04T17:51:45Z</time>
      </trkpt>
      <trkpt lat="43.65741" lon="1.39183">
        <ele>129</ele>
        <time>2024-04-04T17:51:46Z</time>
      </trkpt>
      <trkpt lat="43.65739" lon="1.39181">
        <ele>129</ele>
        <time>2024-04-04T17:51:47Z</time>
      </trkpt>
      <trkpt lat="43.65737" lon="1.39179">
        <ele>128</ele>
        <time>2024-04-04T17:51:48Z</time>
      </trkpt>
      <trkpt lat="43.65735" lon="1.39178">
        <ele>128</ele>
        <time>2024-04-04T17:51:49Z</time>
      </trkpt>
      <trkpt lat="43.65733" lon="1.39176">
        <ele>128</ele>
        <time>2024-04-04T17:51:50Z</time>
      </trkpt>
      <trkpt lat="43.65731" lon="1.39174">
        <ele>128</ele>
        <time>2024-04-04T17:51:51Z</time>
      </trkpt>
      <trkpt lat="43.65729" lon="1.39172">
        <ele>128</ele>
        <time>2024-04-04T17:51:52Z</time>
      </trkpt>
      <trkpt lat="43.65726" lon="1.3917">
        <ele>128</ele>
        <time>2024-04-04T17:51:53Z</time>
      </trkpt>
      <trkpt lat="43.65724" lon="1.39169">
        <ele>128</ele>
        <time>2024-04-04T17:51:54Z</time>
      </trkpt>
      <trkpt lat="43.65722" lon="1.39168">
        <ele>128</ele>
        <time>2024-04-04T17:51:55Z</time>
      </trkpt>
      <trkpt lat="43.6572" lon="1.39167">
        <ele>128</ele>
        <time>2024-04-04T17:51:56Z</time>
      </trkpt>
      <trkpt lat="43.65718" lon="1.39165">
        <ele>128</ele>
        <time>2024-04-04T17:51:57Z</time>
      </trkpt>
      <trkpt lat="43.65718" lon="1.39165">
        <ele>128</ele>
        <time>2024-04-04T17:51:58Z</time>
      </trkpt>
      <trkpt lat="43.65714" lon="1.39162">
        <ele>128</ele>
        <time>2024-04-04T17:51:59Z</time>
      </trkpt>
      <trkpt lat="43.65712" lon="1.3916">
        <ele>128</ele>
        <time>2024-04-04T17:52:00Z</time>
      </trkpt>
      <trkpt lat="43.6571" lon="1.39159">
        <ele>128</ele>
        <time>2024-04-04T17:52:01Z</time>
      </trkpt>
      <trkpt lat="43.65708" lon="1.39156">
        <ele>128</ele>
        <time>2024-04-04T17:52:02Z</time>
      </trkpt>
      <trkpt lat="43.65706" lon="1.39154">
        <ele>128</ele>
        <time>2024-04-04T17:52:03Z</time>
      </trkpt>
      <trkpt lat="43.65704" lon="1.39152">
        <ele>128</ele>
        <time>2024-04-04T17:52:04Z</time>
      </trkpt>
      <trkpt lat="43.65701" lon="1.3915">
        <ele>128</ele>
        <time>2024-04-04T17:52:05Z</time>
      </trkpt>
      <trkpt lat="43.65699" lon="1.39148">
        <ele>128</ele>
        <time>2024-04-04T17:52:06Z</time>
      </trkpt>
      <trkpt lat="43.65697" lon="1.39146">
        <ele>128</ele>
        <time>2024-04-04T17:52:07Z</time>
      </trkpt>
      <trkpt lat="43.65695" lon="1.39144">
        <ele>128</ele>
        <time>2024-04-04T17:52:08Z</time>
      </trkpt>
      <trkpt lat="43.65694" lon="1.39142">
        <ele>128</ele>
        <time>2024-04-04T17:52:09Z</time>
      </trkpt>
      <trkpt lat="43.65692" lon="1.39141">
        <ele>128</ele>
        <time>2024-04-04T17:52:10Z</time>
      </trkpt>
      <trkpt lat="43.6569" lon="1.3914">
        <ele>128</ele>
        <time>2024-04-04T17:52:11Z</time>
      </trkpt>
      <trkpt lat="43.65688" lon="1.39139">
        <ele>128</ele>
        <time>2024-04-04T17:52:12Z</time>
      </trkpt>
      <trkpt lat="43.65688" lon="1.39139">
        <ele>128</ele>
        <time>2024-04-04T17:52:13Z</time>
      </trkpt>
      <trkpt lat="43.65683" lon="1.39137">
        <ele>128</ele>
        <time>2024-04-04T17:52:14Z</time>
      </trkpt>
      <trkpt lat="43.6568" lon="1.39136">
        <ele>127</ele>
        <time>2024-04-04T17:52:15Z</time>
      </trkpt>
      <trkpt lat="43.65677" lon="1.39135">
        <ele>127</ele>
        <time>2024-04-04T17:52:16Z</time>
      </trkpt>
      <trkpt lat="43.65675" lon="1.39133">
        <ele>127</ele>
        <time>2024-04-04T17:52:17Z</time>
      </trkpt>
      <trkpt lat="43.65672" lon="1.39133">
        <ele>127</ele>
        <time>2024-04-04T17:52:18Z</time>
      </trkpt>
      <trkpt lat="43.65669" lon="1.39132">
        <ele>127</ele>
        <time>2024-04-04T17:52:19Z</time>
      </trkpt>
      <trkpt lat="43.65667" lon="1.3913">
        <ele>127</ele>
        <time>2024-04-04T17:52:20Z</time>
      </trkpt>
      <trkpt lat="43.65664" lon="1.39129">
        <ele>127</ele>
        <time>2024-04-04T17:52:21Z</time>
      </trkpt>
      <trkpt lat="43.65664" lon="1.39129">
        <ele>127</ele>
        <time>2024-04-04T17:52:22Z</time>
      </trkpt>
      <trkpt lat="43.6566" lon="1.39124">
        <ele>128</ele>
        <time>2024-04-04T17:52:23Z</time>
      </trkpt>
      <trkpt lat="43.65657" lon="1.39122">
        <ele>128</ele>
        <time>2024-04-04T17:52:24Z</time>
      </trkpt>
      <trkpt lat="43.65655" lon="1.3912">
        <ele>128</ele>
        <time>2024-04-04T17:52:25Z</time>
      </trkpt>
      <trkpt lat="43.65655" lon="1.3912">
        <ele>128</ele>
        <time>2024-04-04T17:52:26Z</time>
      </trkpt>
      <trkpt lat="43.65651" lon="1.39116">
        <ele>128</ele>
        <time>2024-04-04T17:52:27Z</time>
      </trkpt>
      <trkpt lat="43.65649" lon="1.39115">
        <ele>128</ele>
        <time>2024-04-04T17:52:28Z</time>
      </trkpt>
      <trkpt lat="43.65646" lon="1.39113">
        <ele>128</ele>
        <time>2024-04-04T17:52:29Z</time>
      </trkpt>
      <trkpt lat="43.65644" lon="1.39111">
        <ele>128</ele>
        <time>2024-04-04T17:52:30Z</time>
      </trkpt>
      <trkpt lat="43.65641" lon="1.3911">
        <ele>128</ele>
        <time>2024-04-04T17:52:31Z</time>
      </trkpt>
      <trkpt lat="43.65639" lon="1.39108">
        <ele>128</ele>
        <time>2024-04-04T17:52:32Z</time>
      </trkpt>
      <trkpt lat="43.65639" lon="1.39108">
        <ele>128</ele>
        <time>2024-04-04T17:52:33Z</time>
      </trkpt>
      <trkpt lat="43.65635" lon="1.39105">
        <ele>128</ele>
        <time>2024-04-04T17:52:34Z</time>
      </trkpt>
      <trkpt lat="43.65632" lon="1.39103">
        <ele>128</ele>
        <time>2024-04-04T17:52:35Z</time>
      </trkpt>
      <trkpt lat="43.6563" lon="1.39101">
        <ele>128</ele>
        <time>2024-04-04T17:52:36Z</time>
      </trkpt>
      <trkpt lat="43.65628" lon="1.39099">
        <ele>128</ele>
        <time>2024-04-04T17:52:37Z</time>
      </trkpt>
      <trkpt lat="43.65625" lon="1.39098">
        <ele>128</ele>
        <time>2024-04-04T17:52:38Z</time>
      </trkpt>
      <trkpt lat="43.65623" lon="1.39096">
        <ele>128</ele>
        <time>2024-04-04T17:52:39Z</time>
      </trkpt>
      <trkpt lat="43.65621" lon="1.39094">
        <ele>128</ele>
        <time>2024-04-04T17:52:40Z</time>
      </trkpt>
      <trkpt lat="43.65621" lon="1.39094">
        <ele>129</ele>
        <time>2024-04-04T17:52:41Z</time>
      </trkpt>
      <trkpt lat="43.65616" lon="1.39091">
        <ele>129</ele>
        <time>2024-04-04T17:52:42Z</time>
      </trkpt>
      <trkpt lat="43.65614" lon="1.39089">
        <ele>129</ele>
        <time>2024-04-04T17:52:43Z</time>
      </trkpt>
      <trkpt lat="43.65614" lon="1.39089">
        <ele>129</ele>
        <time>2024-04-04T17:52:44Z</time>
      </trkpt>
      <trkpt lat="43.65609" lon="1.39087">
        <ele>129</ele>
        <time>2024-04-04T17:52:45Z</time>
      </trkpt>
      <trkpt lat="43.65607" lon="1.39086">
        <ele>129</ele>
        <time>2024-04-04T17:52:46Z</time>
      </trkpt>
      <trkpt lat="43.65604" lon="1.39085">
        <ele>129</ele>
        <time>2024-04-04T17:52:47Z</time>
      </trkpt>
      <trkpt lat="43.65602" lon="1.39083">
        <ele>129</ele>
        <time>2024-04-04T17:52:48Z</time>
      </trkpt>
      <trkpt lat="43.65599" lon="1.39082">
        <ele>129</ele>
        <time>2024-04-04T17:52:49Z</time>
      </trkpt>
      <trkpt lat="43.65597" lon="1.39081">
        <ele>129</ele>
        <time>2024-04-04T17:52:50Z</time>
      </trkpt>
      <trkpt lat="43.65594" lon="1.3908">
        <ele>129</ele>
        <time>2024-04-04T17:52:51Z</time>
      </trkpt>
      <trkpt lat="43.65592" lon="1.39079">
        <ele>129</ele>
        <time>2024-04-04T17:52:52Z</time>
      </trkpt>
      <trkpt lat="43.65592" lon="1.39079">
        <ele>129</ele>
        <time>2024-04-04T17:52:53Z</time>
      </trkpt>
      <trkpt lat="43.65587" lon="1.39076">
        <ele>130</ele>
        <time>2024-04-04T17:52:54Z</time>
      </trkpt>
      <trkpt lat="43.65584" lon="1.39076">
        <ele>130</ele>
        <time>2024-04-04T17:52:55Z</time>
      </trkpt>
      <trkpt lat="43.65582" lon="1.39075">
        <ele>129</ele>
        <time>2024-04-04T17:52:56Z</time>
      </trkpt>
      <trkpt lat="43.6558" lon="1.39073">
        <ele>129</ele>
        <time>2024-04-04T17:52:57Z</time>
      </trkpt>
      <trkpt lat="43.65577" lon="1.39071">
        <ele>129</ele>
        <time>2024-04-04T17:52:58Z</time>
      </trkpt>
      <trkpt lat="43.65575" lon="1.3907">
        <ele>129</ele>
        <time>2024-04-04T17:52:59Z</time>
      </trkpt>
      <trkpt lat="43.65575" lon="1.3907">
        <ele>129</ele>
        <time>2024-04-04T17:53:00Z</time>
      </trkpt>
      <trkpt lat="43.65571" lon="1.39065">
        <ele>129</ele>
        <time>2024-04-04T17:53:01Z</time>
      </trkpt>
      <trkpt lat="43.65568" lon="1.39063">
        <ele>129</ele>
        <time>2024-04-04T17:53:02Z</time>
      </trkpt>
      <trkpt lat="43.65566" lon="1.39061">
        <ele>129</ele>
        <time>2024-04-04T17:53:03Z</time>
      </trkpt>
      <trkpt lat="43.65564" lon="1.39059">
        <ele>129</ele>
        <time>2024-04-04T17:53:04Z</time>
      </trkpt>
      <trkpt lat="43.65562" lon="1.39057">
        <ele>130</ele>
        <time>2024-04-04T17:53:05Z</time>
      </trkpt>
      <trkpt lat="43.6556" lon="1.39055">
        <ele>130</ele>
        <time>2024-04-04T17:53:06Z</time>
      </trkpt>
      <trkpt lat="43.65558" lon="1.39053">
        <ele>129</ele>
        <time>2024-04-04T17:53:07Z</time>
      </trkpt>
      <trkpt lat="43.65555" lon="1.39051">
        <ele>129</ele>
        <time>2024-04-04T17:53:08Z</time>
      </trkpt>
      <trkpt lat="43.65553" lon="1.3905">
        <ele>129</ele>
        <time>2024-04-04T17:53:09Z</time>
      </trkpt>
      <trkpt lat="43.65551" lon="1.39048">
        <ele>129</ele>
        <time>2024-04-04T17:53:10Z</time>
      </trkpt>
      <trkpt lat="43.65549" lon="1.39046">
        <ele>129</ele>
        <time>2024-04-04T17:53:11Z</time>
      </trkpt>
      <trkpt lat="43.65549" lon="1.39046">
        <ele>129</ele>
        <time>2024-04-04T17:53:12Z</time>
      </trkpt>
      <trkpt lat="43.65544" lon="1.39042">
        <ele>129</ele>
        <time>2024-04-04T17:53:13Z</time>
      </trkpt>
      <trkpt lat="43.65542" lon="1.39041">
        <ele>129</ele>
        <time>2024-04-04T17:53:14Z</time>
      </trkpt>
      <trkpt lat="43.6554" lon="1.3904">
        <ele>129</ele>
        <time>2024-04-04T17:53:15Z</time>
      </trkpt>
      <trkpt lat="43.65537" lon="1.39039">
        <ele>129</ele>
        <time>2024-04-04T17:53:16Z</time>
      </trkpt>
      <trkpt lat="43.65535" lon="1.39038">
        <ele>129</ele>
        <time>2024-04-04T17:53:17Z</time>
      </trkpt>
      <trkpt lat="43.65533" lon="1.39036">
        <ele>129</ele>
        <time>2024-04-04T17:53:18Z</time>
      </trkpt>
      <trkpt lat="43.65531" lon="1.39035">
        <ele>129</ele>
        <time>2024-04-04T17:53:19Z</time>
      </trkpt>
      <trkpt lat="43.65528" lon="1.39033">
        <ele>129</ele>
        <time>2024-04-04T17:53:20Z</time>
      </trkpt>
      <trkpt lat="43.65526" lon="1.39032">
        <ele>129</ele>
        <time>2024-04-04T17:53:21Z</time>
      </trkpt>
      <trkpt lat="43.65524" lon="1.39031">
        <ele>129</ele>
        <time>2024-04-04T17:53:22Z</time>
      </trkpt>
      <trkpt lat="43.65522" lon="1.39029">
        <ele>129</ele>
        <time>2024-04-04T17:53:23Z</time>
      </trkpt>
      <trkpt lat="43.65519" lon="1.39028">
        <ele>129</ele>
        <time>2024-04-04T17:53:24Z</time>
      </trkpt>
      <trkpt lat="43.65519" lon="1.39028">
        <ele>129</ele>
        <time>2024-04-04T17:53:25Z</time>
      </trkpt>
      <trkpt lat="43.65515" lon="1.39026">
        <ele>129</ele>
        <time>2024-04-04T17:53:26Z</time>
      </trkpt>
      <trkpt lat="43.65515" lon="1.39026">
        <ele>129</ele>
        <time>2024-04-04T17:53:27Z</time>
      </trkpt>
      <trkpt lat="43.65511" lon="1.39025">
        <ele>130</ele>
        <time>2024-04-04T17:53:28Z</time>
      </trkpt>
      <trkpt lat="43.65508" lon="1.39024">
        <ele>130</ele>
        <time>2024-04-04T17:53:29Z</time>
      </trkpt>
      <trkpt lat="43.65508" lon="1.39024">
        <ele>130</ele>
        <time>2024-04-04T17:53:30Z</time>
      </trkpt>
      <trkpt lat="43.65503" lon="1.39022">
        <ele>130</ele>
        <time>2024-04-04T17:53:31Z</time>
      </trkpt>
      <trkpt lat="43.65501" lon="1.39021">
        <ele>130</ele>
        <time>2024-04-04T17:53:32Z</time>
      </trkpt>
      <trkpt lat="43.65498" lon="1.39021">
        <ele>130</ele>
        <time>2024-04-04T17:53:33Z</time>
      </trkpt>
      <trkpt lat="43.65496" lon="1.39019">
        <ele>130</ele>
        <time>2024-04-04T17:53:34Z</time>
      </trkpt>
      <trkpt lat="43.65494" lon="1.39018">
        <ele>129</ele>
        <time>2024-04-04T17:53:35Z</time>
      </trkpt>
      <trkpt lat="43.65494" lon="1.39018">
        <ele>129</ele>
        <time>2024-04-04T17:53:36Z</time>
      </trkpt>
      <trkpt lat="43.65489" lon="1.39015">
        <ele>129</ele>
        <time>2024-04-04T17:53:37Z</time>
      </trkpt>
      <trkpt lat="43.65486" lon="1.39014">
        <ele>129</ele>
        <time>2024-04-04T17:53:38Z</time>
      </trkpt>
      <trkpt lat="43.65486" lon="1.39014">
        <ele>130</ele>
        <time>2024-04-04T17:53:39Z</time>
      </trkpt>
      <trkpt lat="43.65482" lon="1.39011">
        <ele>130</ele>
        <time>2024-04-04T17:53:40Z</time>
      </trkpt>
      <trkpt lat="43.65482" lon="1.39011">
        <ele>130</ele>
        <time>2024-04-04T17:53:41Z</time>
      </trkpt>
      <trkpt lat="43.65478" lon="1.39007">
        <ele>130</ele>
        <time>2024-04-04T17:53:42Z</time>
      </trkpt>
      <trkpt lat="43.65478" lon="1.39007">
        <ele>130</ele>
        <time>2024-04-04T17:53:43Z</time>
      </trkpt>
      <trkpt lat="43.65474" lon="1.39005">
        <ele>131</ele>
        <time>2024-04-04T17:53:44Z</time>
      </trkpt>
      <trkpt lat="43.65472" lon="1.39002">
        <ele>131</ele>
        <time>2024-04-04T17:53:45Z</time>
      </trkpt>
      <trkpt lat="43.65472" lon="1.39002">
        <ele>131</ele>
        <time>2024-04-04T17:53:46Z</time>
      </trkpt>
      <trkpt lat="43.65471" lon="1.39001">
        <ele>131</ele>
        <time>2024-04-04T17:53:47Z</time>
      </trkpt>
      <trkpt lat="43.65468" lon="1.38997">
        <ele>131</ele>
        <time>2024-04-04T17:53:48Z</time>
      </trkpt>
      <trkpt lat="43.65466" lon="1.38995">
        <ele>131</ele>
        <time>2024-04-04T17:53:49Z</time>
      </trkpt>
      <trkpt lat="43.65465" lon="1.38992">
        <ele>131</ele>
        <time>2024-04-04T17:53:50Z</time>
      </trkpt>
      <trkpt lat="43.65464" lon="1.38989">
        <ele>131</ele>
        <time>2024-04-04T17:53:51Z</time>
      </trkpt>
      <trkpt lat="43.65463" lon="1.38987">
        <ele>131</ele>
        <time>2024-04-04T17:53:52Z</time>
      </trkpt>
      <trkpt lat="43.65463" lon="1.38987">
        <ele>131</ele>
        <time>2024-04-04T17:53:53Z</time>
      </trkpt>
      <trkpt lat="43.65461" lon="1.38981">
        <ele>131</ele>
        <time>2024-04-04T17:53:54Z</time>
      </trkpt>
      <trkpt lat="43.65459" lon="1.38979">
        <ele>131</ele>
        <time>2024-04-04T17:53:55Z</time>
      </trkpt>
      <trkpt lat="43.65458" lon="1.38976">
        <ele>131</ele>
        <time>2024-04-04T17:53:56Z</time>
      </trkpt>
      <trkpt lat="43.65458" lon="1.38976">
        <ele>131</ele>
        <time>2024-04-04T17:53:57Z</time>
      </trkpt>
      <trkpt lat="43.65456" lon="1.3897">
        <ele>131</ele>
        <time>2024-04-04T17:53:58Z</time>
      </trkpt>
      <trkpt lat="43.65456" lon="1.3897">
        <ele>131</ele>
        <time>2024-04-04T17:53:59Z</time>
      </trkpt>
      <trkpt lat="43.65453" lon="1.38963">
        <ele>132</ele>
        <time>2024-04-04T17:54:00Z</time>
      </trkpt>
      <trkpt lat="43.65452" lon="1.3896">
        <ele>132</ele>
        <time>2024-04-04T17:54:01Z</time>
      </trkpt>
      <trkpt lat="43.65452" lon="1.3896">
        <ele>132</ele>
        <time>2024-04-04T17:54:02Z</time>
      </trkpt>
      <trkpt lat="43.65451" lon="1.38955">
        <ele>132</ele>
        <time>2024-04-04T17:54:03Z</time>
      </trkpt>
      <trkpt lat="43.6545" lon="1.38952">
        <ele>132</ele>
        <time>2024-04-04T17:54:04Z</time>
      </trkpt>
      <trkpt lat="43.65449" lon="1.3895">
        <ele>132</ele>
        <time>2024-04-04T17:54:05Z</time>
      </trkpt>
      <trkpt lat="43.65449" lon="1.3895">
        <ele>132</ele>
        <time>2024-04-04T17:54:06Z</time>
      </trkpt>
      <trkpt lat="43.65447" lon="1.38947">
        <ele>132</ele>
        <time>2024-04-04T17:54:07Z</time>
      </trkpt>
      <trkpt lat="43.65447" lon="1.38947">
        <ele>132</ele>
        <time>2024-04-04T17:54:08Z</time>
      </trkpt>
      <trkpt lat="43.65445" lon="1.38945">
        <ele>132</ele>
        <time>2024-04-04T17:54:09Z</time>
      </trkpt>
      <trkpt lat="43.65445" lon="1.38945">
        <ele>133</ele>
        <time>2024-04-04T17:54:10Z</time>
      </trkpt>
      <trkpt lat="43.65443" lon="1.38942">
        <ele>133</ele>
        <time>2024-04-04T17:54:11Z</time>
      </trkpt>
      <trkpt lat="43.65443" lon="1.38942">
        <ele>133</ele>
        <time>2024-04-04T17:54:12Z</time>
      </trkpt>
      <trkpt lat="43.65442" lon="1.38938">
        <ele>134</ele>
        <time>2024-04-04T17:54:13Z</time>
      </trkpt>
      <trkpt lat="43.65442" lon="1.38938">
        <ele>134</ele>
        <time>2024-04-04T17:54:14Z</time>
      </trkpt>
      <trkpt lat="43.6544" lon="1.38934">
        <ele>134</ele>
        <time>2024-04-04T17:54:15Z</time>
      </trkpt>
      <trkpt lat="43.6544" lon="1.38934">
        <ele>134</ele>
        <time>2024-04-04T17:54:16Z</time>
      </trkpt>
      <trkpt lat="43.65438" lon="1.38932">
        <ele>134</ele>
        <time>2024-04-04T17:54:17Z</time>
      </trkpt>
      <trkpt lat="43.65438" lon="1.38932">
        <ele>135</ele>
        <time>2024-04-04T17:54:18Z</time>
      </trkpt>
      <trkpt lat="43.65437" lon="1.38929">
        <ele>136</ele>
        <time>2024-04-04T17:54:19Z</time>
      </trkpt>
      <trkpt lat="43.65437" lon="1.38929">
        <ele>136</ele>
        <time>2024-04-04T17:54:20Z</time>
      </trkpt>
      <trkpt lat="43.65435" lon="1.38926">
        <ele>136</ele>
        <time>2024-04-04T17:54:21Z</time>
      </trkpt>
      <trkpt lat="43.65435" lon="1.38926">
        <ele>136</ele>
        <time>2024-04-04T17:54:22Z</time>
      </trkpt>
      <trkpt lat="43.65433" lon="1.38922">
        <ele>136</ele>
        <time>2024-04-04T17:54:23Z</time>
      </trkpt>
      <trkpt lat="43.65433" lon="1.38922">
        <ele>137</ele>
        <time>2024-04-04T17:54:24Z</time>
      </trkpt>
      <trkpt lat="43.65431" lon="1.38919">
        <ele>137</ele>
        <time>2024-04-04T17:54:25Z</time>
      </trkpt>
      <trkpt lat="43.65431" lon="1.38919">
        <ele>137</ele>
        <time>2024-04-04T17:54:26Z</time>
      </trkpt>
      <trkpt lat="43.65429" lon="1.38916">
        <ele>137</ele>
        <time>2024-04-04T17:54:27Z</time>
      </trkpt>
      <trkpt lat="43.65429" lon="1.38916">
        <ele>138</ele>
        <time>2024-04-04T17:54:28Z</time>
      </trkpt>
      <trkpt lat="43.65429" lon="1.38916">
        <ele>138</ele>
        <time>2024-04-04T17:54:29Z</time>
      </trkpt>
      <trkpt lat="43.65427" lon="1.38913">
        <ele>138</ele>
        <time>2024-04-04T17:54:30Z</time>
      </trkpt>
      <trkpt lat="43.65425" lon="1.38911">
        <ele>138</ele>
        <time>2024-04-04T17:54:31Z</time>
      </trkpt>
      <trkpt lat="43.65425" lon="1.38911">
        <ele>138</ele>
        <time>2024-04-04T17:54:32Z</time>
      </trkpt>
      <trkpt lat="43.65424" lon="1.38908">
        <ele>138</ele>
        <time>2024-04-04T17:54:33Z</time>
      </trkpt>
      <trkpt lat="43.65424" lon="1.38908">
        <ele>138</ele>
        <time>2024-04-04T17:54:34Z</time>
      </trkpt>
      <trkpt lat="43.65422" lon="1.38904">
        <ele>138</ele>
        <time>2024-04-04T17:54:35Z</time>
      </trkpt>
      <trkpt lat="43.65422" lon="1.38904">
        <ele>138</ele>
        <time>2024-04-04T17:54:36Z</time>
      </trkpt>
      <trkpt lat="43.65422" lon="1.38899">
        <ele>138</ele>
        <time>2024-04-04T17:54:37Z</time>
      </trkpt>
      <trkpt lat="43.65422" lon="1.38899">
        <ele>138</ele>
        <time>2024-04-04T17:54:38Z</time>
      </trkpt>
      <trkpt lat="43.6542" lon="1.38895">
        <ele>138</ele>
        <time>2024-04-04T17:54:39Z</time>
      </trkpt>
      <trkpt lat="43.6542" lon="1.38892">
        <ele>138</ele>
        <time>2024-04-04T17:54:40Z</time>
      </trkpt>
      <trkpt lat="43.65419" lon="1.38889">
        <ele>139</ele>
        <time>2024-04-04T17:54:41Z</time>
      </trkpt>
      <trkpt lat="43.65418" lon="1.38886">
        <ele>140</ele>
        <time>2024-04-04T17:54:42Z</time>
      </trkpt>
      <trkpt lat="43.65418" lon="1.38886">
        <ele>140</ele>
        <time>2024-04-04T17:54:43Z</time>
      </trkpt>
      <trkpt lat="43.65418" lon="1.38879">
        <ele>140</ele>
        <time>2024-04-04T17:54:44Z</time>
      </trkpt>
      <trkpt lat="43.65417" lon="1.38876">
        <ele>140</ele>
        <time>2024-04-04T17:54:45Z</time>
      </trkpt>
      <trkpt lat="43.65417" lon="1.38873">
        <ele>140</ele>
        <time>2024-04-04T17:54:46Z</time>
      </trkpt>
      <trkpt lat="43.65416" lon="1.38869">
        <ele>140</ele>
        <time>2024-04-04T17:54:47Z</time>
      </trkpt>
      <trkpt lat="43.65415" lon="1.38866">
        <ele>140</ele>
        <time>2024-04-04T17:54:48Z</time>
      </trkpt>
      <trkpt lat="43.65414" lon="1.38864">
        <ele>141</ele>
        <time>2024-04-04T17:54:49Z</time>
      </trkpt>
      <trkpt lat="43.65414" lon="1.38864">
        <ele>141</ele>
        <time>2024-04-04T17:54:50Z</time>
      </trkpt>
      <trkpt lat="43.6541" lon="1.3886">
        <ele>141</ele>
        <time>2024-04-04T17:54:51Z</time>
      </trkpt>
      <trkpt lat="43.6541" lon="1.3886">
        <ele>141</ele>
        <time>2024-04-04T17:54:52Z</time>
      </trkpt>
      <trkpt lat="43.65405" lon="1.38858">
        <ele>141</ele>
        <time>2024-04-04T17:54:53Z</time>
      </trkpt>
      <trkpt lat="43.65405" lon="1.38858">
        <ele>142</ele>
        <time>2024-04-04T17:54:54Z</time>
      </trkpt>
      <trkpt lat="43.654" lon="1.38858">
        <ele>142</ele>
        <time>2024-04-04T17:54:55Z</time>
      </trkpt>
      <trkpt lat="43.65398" lon="1.38858">
        <ele>142</ele>
        <time>2024-04-04T17:54:56Z</time>
      </trkpt>
      <trkpt lat="43.65396" lon="1.38858">
        <ele>142</ele>
        <time>2024-04-04T17:54:57Z</time>
      </trkpt>
      <trkpt lat="43.65394" lon="1.38858">
        <ele>142</ele>
        <time>2024-04-04T17:54:58Z</time>
      </trkpt>
      <trkpt lat="43.65392" lon="1.38858">
        <ele>142</ele>
        <time>2024-04-04T17:54:59Z</time>
      </trkpt>
      <trkpt lat="43.65389" lon="1.38858">
        <ele>142</ele>
        <time>2024-04-04T17:55:00Z</time>
      </trkpt>
      <trkpt lat="43.65385" lon="1.38858">
        <ele>142</ele>
        <time>2024-04-04T17:55:01Z</time>
      </trkpt>
      <trkpt lat="43.65385" lon="1.38858">
        <ele>142</ele>
        <time>2024-04-04T17:55:02Z</time>
      </trkpt>
      <trkpt lat="43.6538" lon="1.38857">
        <ele>143</ele>
        <time>2024-04-04T17:55:03Z</time>
      </trkpt>
      <trkpt lat="43.6538" lon="1.38857">
        <ele>143</ele>
        <time>2024-04-04T17:55:04Z</time>
      </trkpt>
      <trkpt lat="43.65375" lon="1.38856">
        <ele>143</ele>
        <time>2024-04-04T17:55:05Z</time>
      </trkpt>
      <trkpt lat="43.65373" lon="1.38855">
        <ele>143</ele>
        <time>2024-04-04T17:55:06Z</time>
      </trkpt>
      <trkpt lat="43.65371" lon="1.38854">
        <ele>143</ele>
        <time>2024-04-04T17:55:07Z</time>
      </trkpt>
      <trkpt lat="43.65371" lon="1.38854">
        <ele>143</ele>
        <time>2024-04-04T17:55:08Z</time>
      </trkpt>
      <trkpt lat="43.65368" lon="1.38851">
        <ele>143</ele>
        <time>2024-04-04T17:55:09Z</time>
      </trkpt>
      <trkpt lat="43.65366" lon="1.38849">
        <ele>143</ele>
        <time>2024-04-04T17:55:10Z</time>
      </trkpt>
      <trkpt lat="43.65364" lon="1.38846">
        <ele>143</ele>
        <time>2024-04-04T17:55:11Z</time>
      </trkpt>
      <trkpt lat="43.65362" lon="1.38844">
        <ele>143</ele>
        <time>2024-04-04T17:55:12Z</time>
      </trkpt>
      <trkpt lat="43.6536" lon="1.38842">
        <ele>143</ele>
        <time>2024-04-04T17:55:13Z</time>
      </trkpt>
      <trkpt lat="43.65358" lon="1.3884">
        <ele>143</ele>
        <time>2024-04-04T17:55:14Z</time>
      </trkpt>
      <trkpt lat="43.65356" lon="1.38838">
        <ele>144</ele>
        <time>2024-04-04T17:55:15Z</time>
      </trkpt>
      <trkpt lat="43.65354" lon="1.38835">
        <ele>144</ele>
        <time>2024-04-04T17:55:16Z</time>
      </trkpt>
      <trkpt lat="43.65353" lon="1.38833">
        <ele>144</ele>
        <time>2024-04-04T17:55:17Z</time>
      </trkpt>
      <trkpt lat="43.65353" lon="1.38833">
        <ele>144</ele>
        <time>2024-04-04T17:55:18Z</time>
      </trkpt>
      <trkpt lat="43.65349" lon="1.38828">
        <ele>144</ele>
        <time>2024-04-04T17:55:19Z</time>
      </trkpt>
      <trkpt lat="43.65349" lon="1.38828">
        <ele>144</ele>
        <time>2024-04-04T17:55:20Z</time>
      </trkpt>
      <trkpt lat="43.65345" lon="1.38823">
        <ele>144</ele>
        <time>2024-04-04T17:55:21Z</time>
      </trkpt>
      <trkpt lat="43.65344" lon="1.3882">
        <ele>144</ele>
        <time>2024-04-04T17:55:22Z</time>
      </trkpt>
      <trkpt lat="43.65344" lon="1.3882">
        <ele>144</ele>
        <time>2024-04-04T17:55:23Z</time>
      </trkpt>
      <trkpt lat="43.65341" lon="1.38814">
        <ele>144</ele>
        <time>2024-04-04T17:55:24Z</time>
      </trkpt>
      <trkpt lat="43.65341" lon="1.38814">
        <ele>144</ele>
        <time>2024-04-04T17:55:25Z</time>
      </trkpt>
      <trkpt lat="43.65338" lon="1.38807">
        <ele>144</ele>
        <time>2024-04-04T17:55:26Z</time>
      </trkpt>
      <trkpt lat="43.65337" lon="1.38804">
        <ele>144</ele>
        <time>2024-04-04T17:55:27Z</time>
      </trkpt>
      <trkpt lat="43.65337" lon="1.38804">
        <ele>144</ele>
        <time>2024-04-04T17:55:28Z</time>
      </trkpt>
      <trkpt lat="43.65334" lon="1.38798">
        <ele>144</ele>
        <time>2024-04-04T17:55:29Z</time>
      </trkpt>
      <trkpt lat="43.65333" lon="1.38794">
        <ele>144</ele>
        <time>2024-04-04T17:55:30Z</time>
      </trkpt>
      <trkpt lat="43.65333" lon="1.38792">
        <ele>144</ele>
        <time>2024-04-04T17:55:31Z</time>
      </trkpt>
      <trkpt lat="43.65333" lon="1.38792">
        <ele>144</ele>
        <time>2024-04-04T17:55:32Z</time>
      </trkpt>
      <trkpt lat="43.65331" lon="1.38786">
        <ele>144</ele>
        <time>2024-04-04T17:55:33Z</time>
      </trkpt>
      <trkpt lat="43.65331" lon="1.38786">
        <ele>144</ele>
        <time>2024-04-04T17:55:34Z</time>
      </trkpt>
      <trkpt lat="43.65329" lon="1.38779">
        <ele>144</ele>
        <time>2024-04-04T17:55:35Z</time>
      </trkpt>
      <trkpt lat="43.65328" lon="1.38776">
        <ele>144</ele>
        <time>2024-04-04T17:55:36Z</time>
      </trkpt>
      <trkpt lat="43.65328" lon="1.38776">
        <ele>144</ele>
        <time>2024-04-04T17:55:37Z</time>
      </trkpt>
      <trkpt lat="43.65325" lon="1.38768">
        <ele>144</ele>
        <time>2024-04-04T17:55:38Z</time>
      </trkpt>
      <trkpt lat="43.65324" lon="1.38764">
        <ele>144</ele>
        <time>2024-04-04T17:55:39Z</time>
      </trkpt>
      <trkpt lat="43.65323" lon="1.38761">
        <ele>144</ele>
        <time>2024-04-04T17:55:40Z</time>
      </trkpt>
      <trkpt lat="43.65322" lon="1.38758">
        <ele>144</ele>
        <time>2024-04-04T17:55:41Z</time>
      </trkpt>
      <trkpt lat="43.65321" lon="1.38755">
        <ele>144</ele>
        <time>2024-04-04T17:55:42Z</time>
      </trkpt>
      <trkpt lat="43.6532" lon="1.38753">
        <ele>144</ele>
        <time>2024-04-04T17:55:43Z</time>
      </trkpt>
      <trkpt lat="43.65319" lon="1.3875">
        <ele>144</ele>
        <time>2024-04-04T17:55:44Z</time>
      </trkpt>
      <trkpt lat="43.65318" lon="1.38747">
        <ele>144</ele>
        <time>2024-04-04T17:55:45Z</time>
      </trkpt>
      <trkpt lat="43.65317" lon="1.38744">
        <ele>144</ele>
        <time>2024-04-04T17:55:46Z</time>
      </trkpt>
      <trkpt lat="43.65316" lon="1.38741">
        <ele>143</ele>
        <time>2024-04-04T17:55:47Z</time>
      </trkpt>
      <trkpt lat="43.65315" lon="1.38737">
        <ele>143</ele>
        <time>2024-04-04T17:55:48Z</time>
      </trkpt>
      <trkpt lat="43.65314" lon="1.38734">
        <ele>143</ele>
        <time>2024-04-04T17:55:49Z</time>
      </trkpt>
      <trkpt lat="43.65313" lon="1.3873">
        <ele>143</ele>
        <time>2024-04-04T17:55:50Z</time>
      </trkpt>
      <trkpt lat="43.65313" lon="1.3873">
        <ele>143</ele>
        <time>2024-04-04T17:55:51Z</time>
      </trkpt>
      <trkpt lat="43.65311" lon="1.38723">
        <ele>143</ele>
        <time>2024-04-04T17:55:52Z</time>
      </trkpt>
      <trkpt lat="43.65311" lon="1.38723">
        <ele>143</ele>
        <time>2024-04-04T17:55:53Z</time>
      </trkpt>
      <trkpt lat="43.6531" lon="1.38717">
        <ele>142</ele>
        <time>2024-04-04T17:55:54Z</time>
      </trkpt>
      <trkpt lat="43.65309" lon="1.38714">
        <ele>142</ele>
        <time>2024-04-04T17:55:55Z</time>
      </trkpt>
      <trkpt lat="43.65308" lon="1.38711">
        <ele>142</ele>
        <time>2024-04-04T17:55:56Z</time>
      </trkpt>
      <trkpt lat="43.65308" lon="1.38711">
        <ele>142</ele>
        <time>2024-04-04T17:55:57Z</time>
      </trkpt>
      <trkpt lat="43.65306" lon="1.38705">
        <ele>142</ele>
        <time>2024-04-04T17:55:58Z</time>
      </trkpt>
      <trkpt lat="43.65305" lon="1.38701">
        <ele>142</ele>
        <time>2024-04-04T17:55:59Z</time>
      </trkpt>
      <trkpt lat="43.65304" lon="1.38697">
        <ele>142</ele>
        <time>2024-04-04T17:56:00Z</time>
      </trkpt>
      <trkpt lat="43.65304" lon="1.38697">
        <ele>142</ele>
        <time>2024-04-04T17:56:01Z</time>
      </trkpt>
      <trkpt lat="43.65302" lon="1.3869">
        <ele>142</ele>
        <time>2024-04-04T17:56:02Z</time>
      </trkpt>
      <trkpt lat="43.65301" lon="1.38686">
        <ele>142</ele>
        <time>2024-04-04T17:56:03Z</time>
      </trkpt>
      <trkpt lat="43.653" lon="1.38683">
        <ele>142</ele>
        <time>2024-04-04T17:56:04Z</time>
      </trkpt>
      <trkpt lat="43.65299" lon="1.38679">
        <ele>142</ele>
        <time>2024-04-04T17:56:05Z</time>
      </trkpt>
      <trkpt lat="43.65299" lon="1.38679">
        <ele>142</ele>
        <time>2024-04-04T17:56:06Z</time>
      </trkpt>
      <trkpt lat="43.65296" lon="1.38672">
        <ele>142</ele>
        <time>2024-04-04T17:56:07Z</time>
      </trkpt>
      <trkpt lat="43.65296" lon="1.38672">
        <ele>143</ele>
        <time>2024-04-04T17:56:08Z</time>
      </trkpt>
      <trkpt lat="43.65294" lon="1.38666">
        <ele>143</ele>
        <time>2024-04-04T17:56:09Z</time>
      </trkpt>
      <trkpt lat="43.65293" lon="1.38663">
        <ele>143</ele>
        <time>2024-04-04T17:56:10Z</time>
      </trkpt>
      <trkpt lat="43.65292" lon="1.3866">
        <ele>143</ele>
        <time>2024-04-04T17:56:11Z</time>
      </trkpt>
      <trkpt lat="43.65292" lon="1.3866">
        <ele>143</ele>
        <time>2024-04-04T17:56:12Z</time>
      </trkpt>
      <trkpt lat="43.65289" lon="1.38654">
        <ele>143</ele>
        <time>2024-04-04T17:56:13Z</time>
      </trkpt>
      <trkpt lat="43.65287" lon="1.38651">
        <ele>143</ele>
        <time>2024-04-04T17:56:14Z</time>
      </trkpt>
      <trkpt lat="43.65286" lon="1.38648">
        <ele>144</ele>
        <time>2024-04-04T17:56:15Z</time>
      </trkpt>
      <trkpt lat="43.65284" lon="1.38645">
        <ele>144</ele>
        <time>2024-04-04T17:56:16Z</time>
      </trkpt>
      <trkpt lat="43.65282" lon="1.38642">
        <ele>144</ele>
        <time>2024-04-04T17:56:17Z</time>
      </trkpt>
      <trkpt lat="43.6528" lon="1.38639">
        <ele>144</ele>
        <time>2024-04-04T17:56:18Z</time>
      </trkpt>
      <trkpt lat="43.65278" lon="1.38635">
        <ele>144</ele>
        <time>2024-04-04T17:56:19Z</time>
      </trkpt>
      <trkpt lat="43.65277" lon="1.38633">
        <ele>144</ele>
        <time>2024-04-04T17:56:20Z</time>
      </trkpt>
      <trkpt lat="43.65275" lon="1.3863">
        <ele>144</ele>
        <time>2024-04-04T17:56:21Z</time>
      </trkpt>
      <trkpt lat="43.65274" lon="1.38628">
        <ele>143</ele>
        <time>2024-04-04T17:56:22Z</time>
      </trkpt>
      <trkpt lat="43.65272" lon="1.38625">
        <ele>143</ele>
        <time>2024-04-04T17:56:23Z</time>
      </trkpt>
      <trkpt lat="43.6527" lon="1.38622">
        <ele>143</ele>
        <time>2024-04-04T17:56:24Z</time>
      </trkpt>
      <trkpt lat="43.65269" lon="1.3862">
        <ele>143</ele>
        <time>2024-04-04T17:56:25Z</time>
      </trkpt>
      <trkpt lat="43.65267" lon="1.38617">
        <ele>143</ele>
        <time>2024-04-04T17:56:26Z</time>
      </trkpt>
      <trkpt lat="43.65266" lon="1.38614">
        <ele>143</ele>
        <time>2024-04-04T17:56:27Z</time>
      </trkpt>
      <trkpt lat="43.65265" lon="1.38612">
        <ele>143</ele>
        <time>2024-04-04T17:56:28Z</time>
      </trkpt>
      <trkpt lat="43.65265" lon="1.38612">
        <ele>143</ele>
        <time>2024-04-04T17:56:29Z</time>
      </trkpt>
      <trkpt lat="43.65262" lon="1.38606">
        <ele>142</ele>
        <time>2024-04-04T17:56:30Z</time>
      </trkpt>
      <trkpt lat="43.6526" lon="1.38602">
        <ele>142</ele>
        <time>2024-04-04T17:56:31Z</time>
      </trkpt>
      <trkpt lat="43.65259" lon="1.386">
        <ele>142</ele>
        <time>2024-04-04T17:56:32Z</time>
      </trkpt>
      <trkpt lat="43.65258" lon="1.38596">
        <ele>142</ele>
        <time>2024-04-04T17:56:33Z</time>
      </trkpt>
      <trkpt lat="43.65257" lon="1.38593">
        <ele>142</ele>
        <time>2024-04-04T17:56:34Z</time>
      </trkpt>
      <trkpt lat="43.65256" lon="1.3859">
        <ele>142</ele>
        <time>2024-04-04T17:56:35Z</time>
      </trkpt>
      <trkpt lat="43.65256" lon="1.3859">
        <ele>142</ele>
        <time>2024-04-04T17:56:36Z</time>
      </trkpt>
      <trkpt lat="43.65255" lon="1.38584">
        <ele>142</ele>
        <time>2024-04-04T17:56:37Z</time>
      </trkpt>
      <trkpt lat="43.65253" lon="1.38581">
        <ele>142</ele>
        <time>2024-04-04T17:56:38Z</time>
      </trkpt>
      <trkpt lat="43.65252" lon="1.38577">
        <ele>142</ele>
        <time>2024-04-04T17:56:39Z</time>
      </trkpt>
      <trkpt lat="43.65251" lon="1.38574">
        <ele>142</ele>
        <time>2024-04-04T17:56:40Z</time>
      </trkpt>
      <trkpt lat="43.6525" lon="1.38571">
        <ele>142</ele>
        <time>2024-04-04T17:56:41Z</time>
      </trkpt>
      <trkpt lat="43.6525" lon="1.38567">
        <ele>142</ele>
        <time>2024-04-04T17:56:42Z</time>
      </trkpt>
      <trkpt lat="43.6525" lon="1.38567">
        <ele>142</ele>
        <time>2024-04-04T17:56:43Z</time>
      </trkpt>
      <trkpt lat="43.65247" lon="1.38561">
        <ele>142</ele>
        <time>2024-04-04T17:56:44Z</time>
      </trkpt>
      <trkpt lat="43.65246" lon="1.38557">
        <ele>142</ele>
        <time>2024-04-04T17:56:45Z</time>
      </trkpt>
      <trkpt lat="43.65245" lon="1.38553">
        <ele>142</ele>
        <time>2024-04-04T17:56:46Z</time>
      </trkpt>
      <trkpt lat="43.65244" lon="1.3855">
        <ele>142</ele>
        <time>2024-04-04T17:56:47Z</time>
      </trkpt>
      <trkpt lat="43.65243" lon="1.38546">
        <ele>142</ele>
        <time>2024-04-04T17:56:48Z</time>
      </trkpt>
      <trkpt lat="43.65242" lon="1.38542">
        <ele>142</ele>
        <time>2024-04-04T17:56:49Z</time>
      </trkpt>
      <trkpt lat="43.65242" lon="1.38542">
        <ele>142</ele>
        <time>2024-04-04T17:56:50Z</time>
      </trkpt>
      <trkpt lat="43.65239" lon="1.38536">
        <ele>142</ele>
        <time>2024-04-04T17:56:51Z</time>
      </trkpt>
      <trkpt lat="43.65239" lon="1.38533">
        <ele>142</ele>
        <time>2024-04-04T17:56:52Z</time>
      </trkpt>
      <trkpt lat="43.65238" lon="1.3853">
        <ele>142</ele>
        <time>2024-04-04T17:56:53Z</time>
      </trkpt>
      <trkpt lat="43.65237" lon="1.38527">
        <ele>142</ele>
        <time>2024-04-04T17:56:54Z</time>
      </trkpt>
      <trkpt lat="43.65237" lon="1.38524">
        <ele>142</ele>
        <time>2024-04-04T17:56:55Z</time>
      </trkpt>
      <trkpt lat="43.65236" lon="1.38521">
        <ele>142</ele>
        <time>2024-04-04T17:56:56Z</time>
      </trkpt>
      <trkpt lat="43.65235" lon="1.38518">
        <ele>142</ele>
        <time>2024-04-04T17:56:57Z</time>
      </trkpt>
      <trkpt lat="43.65235" lon="1.38518">
        <ele>142</ele>
        <time>2024-04-04T17:56:58Z</time>
      </trkpt>
      <trkpt lat="43.65233" lon="1.3851">
        <ele>143</ele>
        <time>2024-04-04T17:56:59Z</time>
      </trkpt>
      <trkpt lat="43.65233" lon="1.3851">
        <ele>143</ele>
        <time>2024-04-04T17:57:00Z</time>
      </trkpt>
      <trkpt lat="43.65232" lon="1.38504">
        <ele>143</ele>
        <time>2024-04-04T17:57:01Z</time>
      </trkpt>
      <trkpt lat="43.65231" lon="1.38501">
        <ele>143</ele>
        <time>2024-04-04T17:57:02Z</time>
      </trkpt>
      <trkpt lat="43.6523" lon="1.38498">
        <ele>143</ele>
        <time>2024-04-04T17:57:03Z</time>
      </trkpt>
      <trkpt lat="43.65229" lon="1.38494">
        <ele>143</ele>
        <time>2024-04-04T17:57:04Z</time>
      </trkpt>
      <trkpt lat="43.65228" lon="1.38491">
        <ele>143</ele>
        <time>2024-04-04T17:57:05Z</time>
      </trkpt>
      <trkpt lat="43.65227" lon="1.38489">
        <ele>143</ele>
        <time>2024-04-04T17:57:06Z</time>
      </trkpt>
      <trkpt lat="43.65227" lon="1.38489">
        <ele>143</ele>
        <time>2024-04-04T17:57:07Z</time>
      </trkpt>
      <trkpt lat="43.65224" lon="1.38481">
        <ele>143</ele>
        <time>2024-04-04T17:57:08Z</time>
      </trkpt>
      <trkpt lat="43.65224" lon="1.38477">
        <ele>143</ele>
        <time>2024-04-04T17:57:09Z</time>
      </trkpt>
      <trkpt lat="43.65223" lon="1.38473">
        <ele>143</ele>
        <time>2024-04-04T17:57:10Z</time>
      </trkpt>
      <trkpt lat="43.65222" lon="1.3847">
        <ele>143</ele>
        <time>2024-04-04T17:57:11Z</time>
      </trkpt>
      <trkpt lat="43.65221" lon="1.38466">
        <ele>143</ele>
        <time>2024-04-04T17:57:12Z</time>
      </trkpt>
      <trkpt lat="43.65221" lon="1.38466">
        <ele>143</ele>
        <time>2024-04-04T17:57:13Z</time>
      </trkpt>
      <trkpt lat="43.65219" lon="1.38458">
        <ele>143</ele>
        <time>2024-04-04T17:57:14Z</time>
      </trkpt>
      <trkpt lat="43.65217" lon="1.38455">
        <ele>143</ele>
        <time>2024-04-04T17:57:15Z</time>
      </trkpt>
      <trkpt lat="43.65217" lon="1.38455">
        <ele>143</ele>
        <time>2024-04-04T17:57:16Z</time>
      </trkpt>
      <trkpt lat="43.65215" lon="1.38447">
        <ele>143</ele>
        <time>2024-04-04T17:57:17Z</time>
      </trkpt>
      <trkpt lat="43.65215" lon="1.38447">
        <ele>143</ele>
        <time>2024-04-04T17:57:18Z</time>
      </trkpt>
      <trkpt lat="43.65213" lon="1.38439">
        <ele>143</ele>
        <time>2024-04-04T17:57:19Z</time>
      </trkpt>
      <trkpt lat="43.65213" lon="1.38439">
        <ele>143</ele>
        <time>2024-04-04T17:57:20Z</time>
      </trkpt>
      <trkpt lat="43.6521" lon="1.38432">
        <ele>143</ele>
        <time>2024-04-04T17:57:21Z</time>
      </trkpt>
      <trkpt lat="43.65209" lon="1.38429">
        <ele>143</ele>
        <time>2024-04-04T17:57:22Z</time>
      </trkpt>
      <trkpt lat="43.65207" lon="1.38425">
        <ele>143</ele>
        <time>2024-04-04T17:57:23Z</time>
      </trkpt>
      <trkpt lat="43.65206" lon="1.38422">
        <ele>143</ele>
        <time>2024-04-04T17:57:24Z</time>
      </trkpt>
      <trkpt lat="43.65205" lon="1.38419">
        <ele>143</ele>
        <time>2024-04-04T17:57:25Z</time>
      </trkpt>
      <trkpt lat="43.65205" lon="1.38419">
        <ele>144</ele>
        <time>2024-04-04T17:57:26Z</time>
      </trkpt>
      <trkpt lat="43.65202" lon="1.38413">
        <ele>145</ele>
        <time>2024-04-04T17:57:27Z</time>
      </trkpt>
      <trkpt lat="43.652" lon="1.3841">
        <ele>145</ele>
        <time>2024-04-04T17:57:28Z</time>
      </trkpt>
      <trkpt lat="43.65198" lon="1.38407">
        <ele>145</ele>
        <time>2024-04-04T17:57:29Z</time>
      </trkpt>
      <trkpt lat="43.65197" lon="1.38404">
        <ele>145</ele>
        <time>2024-04-04T17:57:30Z</time>
      </trkpt>
      <trkpt lat="43.65195" lon="1.38402">
        <ele>146</ele>
        <time>2024-04-04T17:57:31Z</time>
      </trkpt>
      <trkpt lat="43.65194" lon="1.38399">
        <ele>146</ele>
        <time>2024-04-04T17:57:32Z</time>
      </trkpt>
      <trkpt lat="43.65192" lon="1.38396">
        <ele>146</ele>
        <time>2024-04-04T17:57:33Z</time>
      </trkpt>
      <trkpt lat="43.65191" lon="1.38393">
        <ele>146</ele>
        <time>2024-04-04T17:57:34Z</time>
      </trkpt>
      <trkpt lat="43.65191" lon="1.38393">
        <ele>146</ele>
        <time>2024-04-04T17:57:35Z</time>
      </trkpt>
      <trkpt lat="43.65189" lon="1.38386">
        <ele>146</ele>
        <time>2024-04-04T17:57:36Z</time>
      </trkpt>
      <trkpt lat="43.65189" lon="1.38386">
        <ele>146</ele>
        <time>2024-04-04T17:57:37Z</time>
      </trkpt>
      <trkpt lat="43.65188" lon="1.38378">
        <ele>146</ele>
        <time>2024-04-04T17:57:38Z</time>
      </trkpt>
      <trkpt lat="43.65188" lon="1.38378">
        <ele>146</ele>
        <time>2024-04-04T17:57:39Z</time>
      </trkpt>
      <trkpt lat="43.65187" lon="1.38371">
        <ele>147</ele>
        <time>2024-04-04T17:57:40Z</time>
      </trkpt>
      <trkpt lat="43.65187" lon="1.38367">
        <ele>147</ele>
        <time>2024-04-04T17:57:41Z</time>
      </trkpt>
      <trkpt lat="43.65187" lon="1.38364">
        <ele>147</ele>
        <time>2024-04-04T17:57:42Z</time>
      </trkpt>
      <trkpt lat="43.65186" lon="1.3836">
        <ele>147</ele>
        <time>2024-04-04T17:57:43Z</time>
      </trkpt>
      <trkpt lat="43.65186" lon="1.38356">
        <ele>147</ele>
        <time>2024-04-04T17:57:44Z</time>
      </trkpt>
      <trkpt lat="43.65186" lon="1.38356">
        <ele>147</ele>
        <time>2024-04-04T17:57:45Z</time>
      </trkpt>
      <trkpt lat="43.65185" lon="1.38349">
        <ele>147</ele>
        <time>2024-04-04T17:57:46Z</time>
      </trkpt>
      <trkpt lat="43.65184" lon="1.38345">
        <ele>147</ele>
        <time>2024-04-04T17:57:47Z</time>
      </trkpt>
      <trkpt lat="43.65184" lon="1.38342">
        <ele>147</ele>
        <time>2024-04-04T17:57:48Z</time>
      </trkpt>
      <trkpt lat="43.65184" lon="1.38338">
        <ele>147</ele>
        <time>2024-04-04T17:57:49Z</time>
      </trkpt>
      <trkpt lat="43.65183" lon="1.38335">
        <ele>147</ele>
        <time>2024-04-04T17:57:50Z</time>
      </trkpt>
      <trkpt lat="43.65183" lon="1.38331">
        <ele>147</ele>
        <time>2024-04-04T17:57:51Z</time>
      </trkpt>
      <trkpt lat="43.65183" lon="1.38331">
        <ele>147</ele>
        <time>2024-04-04T17:57:52Z</time>
      </trkpt>
      <trkpt lat="43.65182" lon="1.38324">
        <ele>147</ele>
        <time>2024-04-04T17:57:53Z</time>
      </trkpt>
      <trkpt lat="43.65182" lon="1.3832">
        <ele>147</ele>
        <time>2024-04-04T17:57:54Z</time>
      </trkpt>
      <trkpt lat="43.65181" lon="1.38317">
        <ele>147</ele>
        <time>2024-04-04T17:57:55Z</time>
      </trkpt>
      <trkpt lat="43.65181" lon="1.38313">
        <ele>147</ele>
        <time>2024-04-04T17:57:56Z</time>
      </trkpt>
      <trkpt lat="43.65181" lon="1.38313">
        <ele>147</ele>
        <time>2024-04-04T17:57:57Z</time>
      </trkpt>
      <trkpt lat="43.6518" lon="1.38306">
        <ele>147</ele>
        <time>2024-04-04T17:57:58Z</time>
      </trkpt>
      <trkpt lat="43.6518" lon="1.38306">
        <ele>147</ele>
        <time>2024-04-04T17:57:59Z</time>
      </trkpt>
      <trkpt lat="43.65179" lon="1.38299">
        <ele>147</ele>
        <time>2024-04-04T17:58:00Z</time>
      </trkpt>
      <trkpt lat="43.65178" lon="1.38295">
        <ele>147</ele>
        <time>2024-04-04T17:58:01Z</time>
      </trkpt>
      <trkpt lat="43.65178" lon="1.38292">
        <ele>147</ele>
        <time>2024-04-04T17:58:02Z</time>
      </trkpt>
      <trkpt lat="43.65177" lon="1.38288">
        <ele>147</ele>
        <time>2024-04-04T17:58:03Z</time>
      </trkpt>
      <trkpt lat="43.65177" lon="1.38288">
        <ele>147</ele>
        <time>2024-04-04T17:58:04Z</time>
      </trkpt>
      <trkpt lat="43.65175" lon="1.38281">
        <ele>147</ele>
        <time>2024-04-04T17:58:05Z</time>
      </trkpt>
      <trkpt lat="43.65175" lon="1.38278">
        <ele>147</ele>
        <time>2024-04-04T17:58:06Z</time>
      </trkpt>
      <trkpt lat="43.65174" lon="1.38275">
        <ele>147</ele>
        <time>2024-04-04T17:58:07Z</time>
      </trkpt>
      <trkpt lat="43.65174" lon="1.38271">
        <ele>147</ele>
        <time>2024-04-04T17:58:08Z</time>
      </trkpt>
      <trkpt lat="43.65173" lon="1.38268">
        <ele>147</ele>
        <time>2024-04-04T17:58:09Z</time>
      </trkpt>
      <trkpt lat="43.65172" lon="1.38264">
        <ele>147</ele>
        <time>2024-04-04T17:58:10Z</time>
      </trkpt>
      <trkpt lat="43.65171" lon="1.3826">
        <ele>147</ele>
        <time>2024-04-04T17:58:11Z</time>
      </trkpt>
      <trkpt lat="43.6517" lon="1.38257">
        <ele>147</ele>
        <time>2024-04-04T17:58:12Z</time>
      </trkpt>
      <trkpt lat="43.6517" lon="1.38254">
        <ele>146</ele>
        <time>2024-04-04T17:58:13Z</time>
      </trkpt>
      <trkpt lat="43.6517" lon="1.38254">
        <ele>146</ele>
        <time>2024-04-04T17:58:14Z</time>
      </trkpt>
      <trkpt lat="43.65168" lon="1.38247">
        <ele>146</ele>
        <time>2024-04-04T17:58:15Z</time>
      </trkpt>
      <trkpt lat="43.65168" lon="1.38247">
        <ele>146</ele>
        <time>2024-04-04T17:58:16Z</time>
      </trkpt>
      <trkpt lat="43.65167" lon="1.38241">
        <ele>146</ele>
        <time>2024-04-04T17:58:17Z</time>
      </trkpt>
      <trkpt lat="43.65167" lon="1.38238">
        <ele>146</ele>
        <time>2024-04-04T17:58:18Z</time>
      </trkpt>
      <trkpt lat="43.65167" lon="1.38238">
        <ele>146</ele>
        <time>2024-04-04T17:58:19Z</time>
      </trkpt>
      <trkpt lat="43.65166" lon="1.3823">
        <ele>146</ele>
        <time>2024-04-04T17:58:20Z</time>
      </trkpt>
      <trkpt lat="43.65165" lon="1.38227">
        <ele>146</ele>
        <time>2024-04-04T17:58:21Z</time>
      </trkpt>
      <trkpt lat="43.65165" lon="1.38223">
        <ele>146</ele>
        <time>2024-04-04T17:58:22Z</time>
      </trkpt>
      <trkpt lat="43.65165" lon="1.3822">
        <ele>146</ele>
        <time>2024-04-04T17:58:23Z</time>
      </trkpt>
      <trkpt lat="43.65165" lon="1.38216">
        <ele>146</ele>
        <time>2024-04-04T17:58:24Z</time>
      </trkpt>
      <trkpt lat="43.65165" lon="1.38216">
        <ele>147</ele>
        <time>2024-04-04T17:58:25Z</time>
      </trkpt>
      <trkpt lat="43.65165" lon="1.3821">
        <ele>147</ele>
        <time>2024-04-04T17:58:26Z</time>
      </trkpt>
      <trkpt lat="43.65165" lon="1.38206">
        <ele>147</ele>
        <time>2024-04-04T17:58:27Z</time>
      </trkpt>
      <trkpt lat="43.65165" lon="1.38206">
        <ele>147</ele>
        <time>2024-04-04T17:58:28Z</time>
      </trkpt>
      <trkpt lat="43.65165" lon="1.382">
        <ele>147</ele>
        <time>2024-04-04T17:58:29Z</time>
      </trkpt>
      <trkpt lat="43.65166" lon="1.38196">
        <ele>147</ele>
        <time>2024-04-04T17:58:30Z</time>
      </trkpt>
      <trkpt lat="43.65167" lon="1.38193">
        <ele>147</ele>
        <time>2024-04-04T17:58:31Z</time>
      </trkpt>
      <trkpt lat="43.65169" lon="1.3819">
        <ele>147</ele>
        <time>2024-04-04T17:58:32Z</time>
      </trkpt>
      <trkpt lat="43.6517" lon="1.38187">
        <ele>147</ele>
        <time>2024-04-04T17:58:33Z</time>
      </trkpt>
      <trkpt lat="43.65172" lon="1.38185">
        <ele>147</ele>
        <time>2024-04-04T17:58:34Z</time>
      </trkpt>
      <trkpt lat="43.65174" lon="1.38182">
        <ele>147</ele>
        <time>2024-04-04T17:58:35Z</time>
      </trkpt>
      <trkpt lat="43.65176" lon="1.3818">
        <ele>147</ele>
        <time>2024-04-04T17:58:36Z</time>
      </trkpt>
      <trkpt lat="43.65178" lon="1.38178">
        <ele>148</ele>
        <time>2024-04-04T17:58:37Z</time>
      </trkpt>
      <trkpt lat="43.6518" lon="1.38175">
        <ele>148</ele>
        <time>2024-04-04T17:58:38Z</time>
      </trkpt>
      <trkpt lat="43.65182" lon="1.38173">
        <ele>148</ele>
        <time>2024-04-04T17:58:39Z</time>
      </trkpt>
      <trkpt lat="43.65184" lon="1.38171">
        <ele>148</ele>
        <time>2024-04-04T17:58:40Z</time>
      </trkpt>
      <trkpt lat="43.65186" lon="1.38169">
        <ele>148</ele>
        <time>2024-04-04T17:58:41Z</time>
      </trkpt>
      <trkpt lat="43.65188" lon="1.38167">
        <ele>148</ele>
        <time>2024-04-04T17:58:42Z</time>
      </trkpt>
      <trkpt lat="43.6519" lon="1.38165">
        <ele>148</ele>
        <time>2024-04-04T17:58:43Z</time>
      </trkpt>
      <trkpt lat="43.65192" lon="1.38163">
        <ele>148</ele>
        <time>2024-04-04T17:58:44Z</time>
      </trkpt>
      <trkpt lat="43.65194" lon="1.38161">
        <ele>148</ele>
        <time>2024-04-04T17:58:45Z</time>
      </trkpt>
      <trkpt lat="43.65196" lon="1.38159">
        <ele>148</ele>
        <time>2024-04-04T17:58:46Z</time>
      </trkpt>
      <trkpt lat="43.65198" lon="1.38157">
        <ele>148</ele>
        <time>2024-04-04T17:58:47Z</time>
      </trkpt>
      <trkpt lat="43.652" lon="1.38156">
        <ele>149</ele>
        <time>2024-04-04T17:58:48Z</time>
      </trkpt>
      <trkpt lat="43.65202" lon="1.38154">
        <ele>149</ele>
        <time>2024-04-04T17:58:49Z</time>
      </trkpt>
      <trkpt lat="43.65204" lon="1.38153">
        <ele>149</ele>
        <time>2024-04-04T17:58:50Z</time>
      </trkpt>
      <trkpt lat="43.65206" lon="1.38151">
        <ele>149</ele>
        <time>2024-04-04T17:58:51Z</time>
      </trkpt>
      <trkpt lat="43.65208" lon="1.3815">
        <ele>149</ele>
        <time>2024-04-04T17:58:52Z</time>
      </trkpt>
      <trkpt lat="43.65208" lon="1.3815">
        <ele>148</ele>
        <time>2024-04-04T17:58:53Z</time>
      </trkpt>
      <trkpt lat="43.65213" lon="1.38147">
        <ele>148</ele>
        <time>2024-04-04T17:58:54Z</time>
      </trkpt>
      <trkpt lat="43.65215" lon="1.38146">
        <ele>149</ele>
        <time>2024-04-04T17:58:55Z</time>
      </trkpt>
      <trkpt lat="43.65218" lon="1.38144">
        <ele>149</ele>
        <time>2024-04-04T17:58:56Z</time>
      </trkpt>
      <trkpt lat="43.6522" lon="1.38142">
        <ele>149</ele>
        <time>2024-04-04T17:58:57Z</time>
      </trkpt>
      <trkpt lat="43.65223" lon="1.3814">
        <ele>149</ele>
        <time>2024-04-04T17:58:58Z</time>
      </trkpt>
      <trkpt lat="43.65223" lon="1.3814">
        <ele>149</ele>
        <time>2024-04-04T17:58:59Z</time>
      </trkpt>
      <trkpt lat="43.65227" lon="1.38137">
        <ele>149</ele>
        <time>2024-04-04T17:59:00Z</time>
      </trkpt>
      <trkpt lat="43.65229" lon="1.38136">
        <ele>149</ele>
        <time>2024-04-04T17:59:01Z</time>
      </trkpt>
      <trkpt lat="43.65232" lon="1.38134">
        <ele>149</ele>
        <time>2024-04-04T17:59:02Z</time>
      </trkpt>
      <trkpt lat="43.65232" lon="1.38134">
        <ele>149</ele>
        <time>2024-04-04T17:59:03Z</time>
      </trkpt>
      <trkpt lat="43.65237" lon="1.38131">
        <ele>149</ele>
        <time>2024-04-04T17:59:04Z</time>
      </trkpt>
      <trkpt lat="43.65239" lon="1.38129">
        <ele>149</ele>
        <time>2024-04-04T17:59:05Z</time>
      </trkpt>
      <trkpt lat="43.65241" lon="1.38127">
        <ele>149</ele>
        <time>2024-04-04T17:59:06Z</time>
      </trkpt>
      <trkpt lat="43.65243" lon="1.38124">
        <ele>149</ele>
        <time>2024-04-04T17:59:07Z</time>
      </trkpt>
      <trkpt lat="43.65245" lon="1.38121">
        <ele>149</ele>
        <time>2024-04-04T17:59:08Z</time>
      </trkpt>
      <trkpt lat="43.65245" lon="1.38118">
        <ele>149</ele>
        <time>2024-04-04T17:59:09Z</time>
      </trkpt>
      <trkpt lat="43.65245" lon="1.38115">
        <ele>149</ele>
        <time>2024-04-04T17:59:10Z</time>
      </trkpt>
      <trkpt lat="43.65244" lon="1.38112">
        <ele>149</ele>
        <time>2024-04-04T17:59:11Z</time>
      </trkpt>
      <trkpt lat="43.65243" lon="1.38109">
        <ele>149</ele>
        <time>2024-04-04T17:59:12Z</time>
      </trkpt>
      <trkpt lat="43.65242" lon="1.38106">
        <ele>149</ele>
        <time>2024-04-04T17:59:13Z</time>
      </trkpt>
      <trkpt lat="43.6524" lon="1.38103">
        <ele>149</ele>
        <time>2024-04-04T17:59:14Z</time>
      </trkpt>
      <trkpt lat="43.65239" lon="1.381">
        <ele>149</ele>
        <time>2024-04-04T17:59:15Z</time>
      </trkpt>
      <trkpt lat="43.65239" lon="1.38097">
        <ele>149</ele>
        <time>2024-04-04T17:59:16Z</time>
      </trkpt>
      <trkpt lat="43.65238" lon="1.38094">
        <ele>149</ele>
        <time>2024-04-04T17:59:17Z</time>
      </trkpt>
      <trkpt lat="43.65237" lon="1.38091">
        <ele>149</ele>
        <time>2024-04-04T17:59:18Z</time>
      </trkpt>
      <trkpt lat="43.65236" lon="1.38088">
        <ele>149</ele>
        <time>2024-04-04T17:59:19Z</time>
      </trkpt>
      <trkpt lat="43.65236" lon="1.38088">
        <ele>149</ele>
        <time>2024-04-04T17:59:20Z</time>
      </trkpt>
      <trkpt lat="43.65233" lon="1.38081">
        <ele>149</ele>
        <time>2024-04-04T17:59:21Z</time>
      </trkpt>
      <trkpt lat="43.65232" lon="1.38078">
        <ele>149</ele>
        <time>2024-04-04T17:59:22Z</time>
      </trkpt>
      <trkpt lat="43.65231" lon="1.38075">
        <ele>149</ele>
        <time>2024-04-04T17:59:23Z</time>
      </trkpt>
      <trkpt lat="43.6523" lon="1.38071">
        <ele>149</ele>
        <time>2024-04-04T17:59:24Z</time>
      </trkpt>
      <trkpt lat="43.65229" lon="1.38068">
        <ele>149</ele>
        <time>2024-04-04T17:59:25Z</time>
      </trkpt>
      <trkpt lat="43.65228" lon="1.38064">
        <ele>149</ele>
        <time>2024-04-04T17:59:26Z</time>
      </trkpt>
      <trkpt lat="43.65227" lon="1.38061">
        <ele>149</ele>
        <time>2024-04-04T17:59:27Z</time>
      </trkpt>
      <trkpt lat="43.65226" lon="1.38057">
        <ele>149</ele>
        <time>2024-04-04T17:59:28Z</time>
      </trkpt>
      <trkpt lat="43.65225" lon="1.38054">
        <ele>150</ele>
        <time>2024-04-04T17:59:29Z</time>
      </trkpt>
      <trkpt lat="43.65225" lon="1.38054">
        <ele>150</ele>
        <time>2024-04-04T17:59:30Z</time>
      </trkpt>
      <trkpt lat="43.65223" lon="1.38047">
        <ele>150</ele>
        <time>2024-04-04T17:59:31Z</time>
      </trkpt>
      <trkpt lat="43.65222" lon="1.38044">
        <ele>150</ele>
        <time>2024-04-04T17:59:32Z</time>
      </trkpt>
      <trkpt lat="43.65221" lon="1.38041">
        <ele>150</ele>
        <time>2024-04-04T17:59:33Z</time>
      </trkpt>
      <trkpt lat="43.65221" lon="1.38041">
        <ele>149</ele>
        <time>2024-04-04T17:59:34Z</time>
      </trkpt>
      <trkpt lat="43.6522" lon="1.38038">
        <ele>149</ele>
        <time>2024-04-04T17:59:35Z</time>
      </trkpt>
      <trkpt lat="43.65219" lon="1.38036">
        <ele>149</ele>
        <time>2024-04-04T17:59:36Z</time>
      </trkpt>
      <trkpt lat="43.65219" lon="1.38036">
        <ele>149</ele>
        <time>2024-04-04T17:59:37Z</time>
      </trkpt>
      <trkpt lat="43.65216" lon="1.38033">
        <ele>149</ele>
        <time>2024-04-04T17:59:38Z</time>
      </trkpt>
      <trkpt lat="43.65213" lon="1.3803">
        <ele>149</ele>
        <time>2024-04-04T17:59:39Z</time>
      </trkpt>
      <trkpt lat="43.6521" lon="1.38029">
        <ele>149</ele>
        <time>2024-04-04T17:59:40Z</time>
      </trkpt>
      <trkpt lat="43.6521" lon="1.38029">
        <ele>149</ele>
        <time>2024-04-04T17:59:41Z</time>
      </trkpt>
      <trkpt lat="43.65205" lon="1.38029">
        <ele>150</ele>
        <time>2024-04-04T17:59:42Z</time>
      </trkpt>
      <trkpt lat="43.65202" lon="1.38031">
        <ele>150</ele>
        <time>2024-04-04T17:59:43Z</time>
      </trkpt>
      <trkpt lat="43.652" lon="1.38033">
        <ele>150</ele>
        <time>2024-04-04T17:59:44Z</time>
      </trkpt>
      <trkpt lat="43.65198" lon="1.38035">
        <ele>150</ele>
        <time>2024-04-04T17:59:45Z</time>
      </trkpt>
      <trkpt lat="43.65196" lon="1.38037">
        <ele>150</ele>
        <time>2024-04-04T17:59:46Z</time>
      </trkpt>
      <trkpt lat="43.65194" lon="1.38039">
        <ele>150</ele>
        <time>2024-04-04T17:59:47Z</time>
      </trkpt>
      <trkpt lat="43.65194" lon="1.38039">
        <ele>150</ele>
        <time>2024-04-04T17:59:48Z</time>
      </trkpt>
      <trkpt lat="43.65189" lon="1.38042">
        <ele>150</ele>
        <time>2024-04-04T17:59:49Z</time>
      </trkpt>
      <trkpt lat="43.65186" lon="1.38042">
        <ele>150</ele>
        <time>2024-04-04T17:59:50Z</time>
      </trkpt>
      <trkpt lat="43.65184" lon="1.38043">
        <ele>150</ele>
        <time>2024-04-04T17:59:51Z</time>
      </trkpt>
      <trkpt lat="43.65181" lon="1.38044">
        <ele>150</ele>
        <time>2024-04-04T17:59:52Z</time>
      </trkpt>
      <trkpt lat="43.65179" lon="1.38045">
        <ele>150</ele>
        <time>2024-04-04T17:59:53Z</time>
      </trkpt>
      <trkpt lat="43.65177" lon="1.38046">
        <ele>150</ele>
        <time>2024-04-04T17:59:54Z</time>
      </trkpt>
      <trkpt lat="43.65175" lon="1.38048">
        <ele>150</ele>
        <time>2024-04-04T17:59:55Z</time>
      </trkpt>
      <trkpt lat="43.65175" lon="1.38048">
        <ele>150</ele>
        <time>2024-04-04T17:59:56Z</time>
      </trkpt>
      <trkpt lat="43.6517" lon="1.38051">
        <ele>150</ele>
        <time>2024-04-04T17:59:57Z</time>
      </trkpt>
      <trkpt lat="43.6517" lon="1.38051">
        <ele>150</ele>
        <time>2024-04-04T17:59:58Z</time>
      </trkpt>
      <trkpt lat="43.65166" lon="1.38054">
        <ele>150</ele>
        <time>2024-04-04T17:59:59Z</time>
      </trkpt>
      <trkpt lat="43.65164" lon="1.38056">
        <ele>150</ele>
        <time>2024-04-04T18:00:00Z</time>
      </trkpt>
      <trkpt lat="43.65162" lon="1.38058">
        <ele>150</ele>
        <time>2024-04-04T18:00:01Z</time>
      </trkpt>
      <trkpt lat="43.65159" lon="1.38059">
        <ele>150</ele>
        <time>2024-04-04T18:00:02Z</time>
      </trkpt>
      <trkpt lat="43.65157" lon="1.38061">
        <ele>150</ele>
        <time>2024-04-04T18:00:03Z</time>
      </trkpt>
      <trkpt lat="43.65157" lon="1.38061">
        <ele>150</ele>
        <time>2024-04-04T18:00:04Z</time>
      </trkpt>
      <trkpt lat="43.65152" lon="1.38065">
        <ele>150</ele>
        <time>2024-04-04T18:00:05Z</time>
      </trkpt>
      <trkpt lat="43.6515" lon="1.38067">
        <ele>150</ele>
        <time>2024-04-04T18:00:06Z</time>
      </trkpt>
      <trkpt lat="43.65148" lon="1.38069">
        <ele>150</ele>
        <time>2024-04-04T18:00:07Z</time>
      </trkpt>
      <trkpt lat="43.65146" lon="1.3807">
        <ele>150</ele>
        <time>2024-04-04T18:00:08Z</time>
      </trkpt>
      <trkpt lat="43.65143" lon="1.38072">
        <ele>150</ele>
        <time>2024-04-04T18:00:09Z</time>
      </trkpt>
      <trkpt lat="43.65143" lon="1.38072">
        <ele>150</ele>
        <time>2024-04-04T18:00:10Z</time>
      </trkpt>
      <trkpt lat="43.65139" lon="1.38075">
        <ele>150</ele>
        <time>2024-04-04T18:00:11Z</time>
      </trkpt>
      <trkpt lat="43.65137" lon="1.38077">
        <ele>150</ele>
        <time>2024-04-04T18:00:12Z</time>
      </trkpt>
      <trkpt lat="43.65135" lon="1.38079">
        <ele>150</ele>
        <time>2024-04-04T18:00:13Z</time>
      </trkpt>
      <trkpt lat="43.65132" lon="1.3808">
        <ele>150</ele>
        <time>2024-04-04T18:00:14Z</time>
      </trkpt>
      <trkpt lat="43.6513" lon="1.38082">
        <ele>150</ele>
        <time>2024-04-04T18:00:15Z</time>
      </trkpt>
      <trkpt lat="43.65128" lon="1.38084">
        <ele>150</ele>
        <time>2024-04-04T18:00:16Z</time>
      </trkpt>
      <trkpt lat="43.65126" lon="1.38085">
        <ele>150</ele>
        <time>2024-04-04T18:00:17Z</time>
      </trkpt>
      <trkpt lat="43.65124" lon="1.38087">
        <ele>150</ele>
        <time>2024-04-04T18:00:18Z</time>
      </trkpt>
      <trkpt lat="43.65122" lon="1.38088">
        <ele>150</ele>
        <time>2024-04-04T18:00:19Z</time>
      </trkpt>
      <trkpt lat="43.6512" lon="1.3809">
        <ele>150</ele>
        <time>2024-04-04T18:00:20Z</time>
      </trkpt>
      <trkpt lat="43.65117" lon="1.38092">
        <ele>151</ele>
        <time>2024-04-04T18:00:21Z</time>
      </trkpt>
      <trkpt lat="43.65115" lon="1.38094">
        <ele>151</ele>
        <time>2024-04-04T18:00:22Z</time>
      </trkpt>
      <trkpt lat="43.65113" lon="1.38096">
        <ele>151</ele>
        <time>2024-04-04T18:00:23Z</time>
      </trkpt>
      <trkpt lat="43.6511" lon="1.38097">
        <ele>151</ele>
        <time>2024-04-04T18:00:24Z</time>
      </trkpt>
      <trkpt lat="43.65108" lon="1.38099">
        <ele>151</ele>
        <time>2024-04-04T18:00:25Z</time>
      </trkpt>
      <trkpt lat="43.65106" lon="1.38101">
        <ele>151</ele>
        <time>2024-04-04T18:00:26Z</time>
      </trkpt>
      <trkpt lat="43.65106" lon="1.38101">
        <ele>151</ele>
        <time>2024-04-04T18:00:27Z</time>
      </trkpt>
      <trkpt lat="43.65102" lon="1.38103">
        <ele>151</ele>
        <time>2024-04-04T18:00:28Z</time>
      </trkpt>
      <trkpt lat="43.65102" lon="1.38103">
        <ele>151</ele>
        <time>2024-04-04T18:00:29Z</time>
      </trkpt>
      <trkpt lat="43.65097" lon="1.38107">
        <ele>151</ele>
        <time>2024-04-04T18:00:30Z</time>
      </trkpt>
      <trkpt lat="43.65095" lon="1.38109">
        <ele>150</ele>
        <time>2024-04-04T18:00:31Z</time>
      </trkpt>
      <trkpt lat="43.65095" lon="1.38109">
        <ele>150</ele>
        <time>2024-04-04T18:00:32Z</time>
      </trkpt>
      <trkpt lat="43.6509" lon="1.38112">
        <ele>150</ele>
        <time>2024-04-04T18:00:33Z</time>
      </trkpt>
      <trkpt lat="43.6509" lon="1.38112">
        <ele>150</ele>
        <time>2024-04-04T18:00:34Z</time>
      </trkpt>
      <trkpt lat="43.65086" lon="1.38115">
        <ele>150</ele>
        <time>2024-04-04T18:00:35Z</time>
      </trkpt>
      <trkpt lat="43.65084" lon="1.38117">
        <ele>150</ele>
        <time>2024-04-04T18:00:36Z</time>
      </trkpt>
      <trkpt lat="43.65082" lon="1.38119">
        <ele>150</ele>
        <time>2024-04-04T18:00:37Z</time>
      </trkpt>
      <trkpt lat="43.65079" lon="1.38122">
        <ele>150</ele>
        <time>2024-04-04T18:00:38Z</time>
      </trkpt>
      <trkpt lat="43.65077" lon="1.38124">
        <ele>150</ele>
        <time>2024-04-04T18:00:39Z</time>
      </trkpt>
      <trkpt lat="43.65074" lon="1.38126">
        <ele>150</ele>
        <time>2024-04-04T18:00:40Z</time>
      </trkpt>
      <trkpt lat="43.65074" lon="1.38126">
        <ele>150</ele>
        <time>2024-04-04T18:00:41Z</time>
      </trkpt>
      <trkpt lat="43.65069" lon="1.3813">
        <ele>150</ele>
        <time>2024-04-04T18:00:42Z</time>
      </trkpt>
      <trkpt lat="43.65069" lon="1.3813">
        <ele>149</ele>
        <time>2024-04-04T18:00:43Z</time>
      </trkpt>
      <trkpt lat="43.65065" lon="1.38126">
        <ele>150</ele>
        <time>2024-04-04T18:00:44Z</time>
      </trkpt>
      <trkpt lat="43.65063" lon="1.38123">
        <ele>150</ele>
        <time>2024-04-04T18:00:45Z</time>
      </trkpt>
      <trkpt lat="43.65062" lon="1.38119">
        <ele>149</ele>
        <time>2024-04-04T18:00:46Z</time>
      </trkpt>
      <trkpt lat="43.65062" lon="1.38119">
        <ele>149</ele>
        <time>2024-04-04T18:00:47Z</time>
      </trkpt>
      <trkpt lat="43.6506" lon="1.38113">
        <ele>149</ele>
        <time>2024-04-04T18:00:48Z</time>
      </trkpt>
      <trkpt lat="43.6506" lon="1.38113">
        <ele>149</ele>
        <time>2024-04-04T18:00:49Z</time>
      </trkpt>
      <trkpt lat="43.65058" lon="1.38107">
        <ele>149</ele>
        <time>2024-04-04T18:00:50Z</time>
      </trkpt>
      <trkpt lat="43.65058" lon="1.38107">
        <ele>149</ele>
        <time>2024-04-04T18:00:51Z</time>
      </trkpt>
      <trkpt lat="43.65055" lon="1.381">
        <ele>149</ele>
        <time>2024-04-04T18:00:52Z</time>
      </trkpt>
      <trkpt lat="43.65054" lon="1.38097">
        <ele>149</ele>
        <time>2024-04-04T18:00:53Z</time>
      </trkpt>
      <trkpt lat="43.65052" lon="1.38094">
        <ele>149</ele>
        <time>2024-04-04T18:00:54Z</time>
      </trkpt>
      <trkpt lat="43.6505" lon="1.38091">
        <ele>149</ele>
        <time>2024-04-04T18:00:55Z</time>
      </trkpt>
      <trkpt lat="43.65048" lon="1.38088">
        <ele>148</ele>
        <time>2024-04-04T18:00:56Z</time>
      </trkpt>
      <trkpt lat="43.65047" lon="1.38084">
        <ele>148</ele>
        <time>2024-04-04T18:00:57Z</time>
      </trkpt>
      <trkpt lat="43.65046" lon="1.38081">
        <ele>148</ele>
        <time>2024-04-04T18:00:58Z</time>
      </trkpt>
      <trkpt lat="43.65044" lon="1.38078">
        <ele>148</ele>
        <time>2024-04-04T18:00:59Z</time>
      </trkpt>
      <trkpt lat="43.65043" lon="1.38074">
        <ele>148</ele>
        <time>2024-04-04T18:01:00Z</time>
      </trkpt>
      <trkpt lat="43.65041" lon="1.38072">
        <ele>148</ele>
        <time>2024-04-04T18:01:01Z</time>
      </trkpt>
      <trkpt lat="43.6504" lon="1.38068">
        <ele>148</ele>
        <time>2024-04-04T18:01:02Z</time>
      </trkpt>
      <trkpt lat="43.65038" lon="1.38065">
        <ele>148</ele>
        <time>2024-04-04T18:01:03Z</time>
      </trkpt>
      <trkpt lat="43.65037" lon="1.38062">
        <ele>148</ele>
        <time>2024-04-04T18:01:04Z</time>
      </trkpt>
      <trkpt lat="43.65035" lon="1.38059">
        <ele>148</ele>
        <time>2024-04-04T18:01:05Z</time>
      </trkpt>
      <trkpt lat="43.65034" lon="1.38056">
        <ele>147</ele>
        <time>2024-04-04T18:01:06Z</time>
      </trkpt>
      <trkpt lat="43.65032" lon="1.38053">
        <ele>147</ele>
        <time>2024-04-04T18:01:07Z</time>
      </trkpt>
      <trkpt lat="43.6503" lon="1.38051">
        <ele>147</ele>
        <time>2024-04-04T18:01:08Z</time>
      </trkpt>
      <trkpt lat="43.6503" lon="1.38051">
        <ele>147</ele>
        <time>2024-04-04T18:01:09Z</time>
      </trkpt>
      <trkpt lat="43.65027" lon="1.38044">
        <ele>147</ele>
        <time>2024-04-04T18:01:10Z</time>
      </trkpt>
      <trkpt lat="43.65025" lon="1.38041">
        <ele>147</ele>
        <time>2024-04-04T18:01:11Z</time>
      </trkpt>
      <trkpt lat="43.65023" lon="1.38038">
        <ele>147</ele>
        <time>2024-04-04T18:01:12Z</time>
      </trkpt>
      <trkpt lat="43.65022" lon="1.38036">
        <ele>147</ele>
        <time>2024-04-04T18:01:13Z</time>
      </trkpt>
      <trkpt lat="43.6502" lon="1.38033">
        <ele>147</ele>
        <time>2024-04-04T18:01:14Z</time>
      </trkpt>
      <trkpt lat="43.65019" lon="1.3803">
        <ele>148</ele>
        <time>2024-04-04T18:01:15Z</time>
      </trkpt>
      <trkpt lat="43.65019" lon="1.3803">
        <ele>148</ele>
        <time>2024-04-04T18:01:16Z</time>
      </trkpt>
      <trkpt lat="43.65015" lon="1.38023">
        <ele>147</ele>
        <time>2024-04-04T18:01:17Z</time>
      </trkpt>
      <trkpt lat="43.65013" lon="1.3802">
        <ele>147</ele>
        <time>2024-04-04T18:01:18Z</time>
      </trkpt>
      <trkpt lat="43.65012" lon="1.38017">
        <ele>147</ele>
        <time>2024-04-04T18:01:19Z</time>
      </trkpt>
      <trkpt lat="43.6501" lon="1.38014">
        <ele>147</ele>
        <time>2024-04-04T18:01:20Z</time>
      </trkpt>
      <trkpt lat="43.6501" lon="1.38014">
        <ele>147</ele>
        <time>2024-04-04T18:01:21Z</time>
      </trkpt>
      <trkpt lat="43.65007" lon="1.38008">
        <ele>148</ele>
        <time>2024-04-04T18:01:22Z</time>
      </trkpt>
      <trkpt lat="43.65005" lon="1.38005">
        <ele>148</ele>
        <time>2024-04-04T18:01:23Z</time>
      </trkpt>
      <trkpt lat="43.65003" lon="1.38003">
        <ele>148</ele>
        <time>2024-04-04T18:01:24Z</time>
      </trkpt>
      <trkpt lat="43.65002" lon="1.38">
        <ele>148</ele>
        <time>2024-04-04T18:01:25Z</time>
      </trkpt>
      <trkpt lat="43.65" lon="1.37997">
        <ele>148</ele>
        <time>2024-04-04T18:01:26Z</time>
      </trkpt>
      <trkpt lat="43.64998" lon="1.37995">
        <ele>148</ele>
        <time>2024-04-04T18:01:27Z</time>
      </trkpt>
      <trkpt lat="43.64998" lon="1.37995">
        <ele>148</ele>
        <time>2024-04-04T18:01:28Z</time>
      </trkpt>
      <trkpt lat="43.64994" lon="1.3799">
        <ele>148</ele>
        <time>2024-04-04T18:01:29Z</time>
      </trkpt>
      <trkpt lat="43.64993" lon="1.37987">
        <ele>148</ele>
        <time>2024-04-04T18:01:30Z</time>
      </trkpt>
      <trkpt lat="43.64991" lon="1.37984">
        <ele>148</ele>
        <time>2024-04-04T18:01:31Z</time>
      </trkpt>
      <trkpt lat="43.64989" lon="1.37981">
        <ele>148</ele>
        <time>2024-04-04T18:01:32Z</time>
      </trkpt>
      <trkpt lat="43.64989" lon="1.37981">
        <ele>148</ele>
        <time>2024-04-04T18:01:33Z</time>
      </trkpt>
      <trkpt lat="43.64985" lon="1.37976">
        <ele>148</ele>
        <time>2024-04-04T18:01:34Z</time>
      </trkpt>
      <trkpt lat="43.64985" lon="1.37976">
        <ele>148</ele>
        <time>2024-04-04T18:01:35Z</time>
      </trkpt>
      <trkpt lat="43.64982" lon="1.3797">
        <ele>148</ele>
        <time>2024-04-04T18:01:36Z</time>
      </trkpt>
      <trkpt lat="43.6498" lon="1.37967">
        <ele>148</ele>
        <time>2024-04-04T18:01:37Z</time>
      </trkpt>
      <trkpt lat="43.64978" lon="1.37964">
        <ele>148</ele>
        <time>2024-04-04T18:01:38Z</time>
      </trkpt>
      <trkpt lat="43.64977" lon="1.37961">
        <ele>148</ele>
        <time>2024-04-04T18:01:39Z</time>
      </trkpt>
      <trkpt lat="43.64975" lon="1.37957">
        <ele>148</ele>
        <time>2024-04-04T18:01:40Z</time>
      </trkpt>
      <trkpt lat="43.64975" lon="1.37957">
        <ele>148</ele>
        <time>2024-04-04T18:01:41Z</time>
      </trkpt>
      <trkpt lat="43.64972" lon="1.37952">
        <ele>148</ele>
        <time>2024-04-04T18:01:42Z</time>
      </trkpt>
      <trkpt lat="43.6497" lon="1.37949">
        <ele>148</ele>
        <time>2024-04-04T18:01:43Z</time>
      </trkpt>
      <trkpt lat="43.6497" lon="1.37949">
        <ele>148</ele>
        <time>2024-04-04T18:01:44Z</time>
      </trkpt>
      <trkpt lat="43.64966" lon="1.37944">
        <ele>148</ele>
        <time>2024-04-04T18:01:45Z</time>
      </trkpt>
      <trkpt lat="43.64966" lon="1.37944">
        <ele>148</ele>
        <time>2024-04-04T18:01:46Z</time>
      </trkpt>
      <trkpt lat="43.64963" lon="1.37939">
        <ele>148</ele>
        <time>2024-04-04T18:01:47Z</time>
      </trkpt>
      <trkpt lat="43.64961" lon="1.37936">
        <ele>148</ele>
        <time>2024-04-04T18:01:48Z</time>
      </trkpt>
      <trkpt lat="43.6496" lon="1.37934">
        <ele>148</ele>
        <time>2024-04-04T18:01:49Z</time>
      </trkpt>
      <trkpt lat="43.6496" lon="1.37934">
        <ele>149</ele>
        <time>2024-04-04T18:01:50Z</time>
      </trkpt>
      <trkpt lat="43.64956" lon="1.37928">
        <ele>149</ele>
        <time>2024-04-04T18:01:51Z</time>
      </trkpt>
      <trkpt lat="43.64956" lon="1.37928">
        <ele>149</ele>
        <time>2024-04-04T18:01:52Z</time>
      </trkpt>
      <trkpt lat="43.64954" lon="1.37922">
        <ele>149</ele>
        <time>2024-04-04T18:01:53Z</time>
      </trkpt>
      <trkpt lat="43.64953" lon="1.37919">
        <ele>149</ele>
        <time>2024-04-04T18:01:54Z</time>
      </trkpt>
      <trkpt lat="43.64952" lon="1.37915">
        <ele>149</ele>
        <time>2024-04-04T18:01:55Z</time>
      </trkpt>
      <trkpt lat="43.64951" lon="1.37912">
        <ele>149</ele>
        <time>2024-04-04T18:01:56Z</time>
      </trkpt>
      <trkpt lat="43.64951" lon="1.37912">
        <ele>149</ele>
        <time>2024-04-04T18:01:57Z</time>
      </trkpt>
      <trkpt lat="43.64949" lon="1.37905">
        <ele>149</ele>
        <time>2024-04-04T18:01:58Z</time>
      </trkpt>
      <trkpt lat="43.64948" lon="1.37902">
        <ele>149</ele>
        <time>2024-04-04T18:01:59Z</time>
      </trkpt>
      <trkpt lat="43.64948" lon="1.37898">
        <ele>149</ele>
        <time>2024-04-04T18:02:00Z</time>
      </trkpt>
      <trkpt lat="43.64947" lon="1.37894">
        <ele>150</ele>
        <time>2024-04-04T18:02:01Z</time>
      </trkpt>
      <trkpt lat="43.64946" lon="1.3789">
        <ele>150</ele>
        <time>2024-04-04T18:02:02Z</time>
      </trkpt>
      <trkpt lat="43.64945" lon="1.37886">
        <ele>150</ele>
        <time>2024-04-04T18:02:03Z</time>
      </trkpt>
      <trkpt lat="43.64944" lon="1.37883">
        <ele>149</ele>
        <time>2024-04-04T18:02:04Z</time>
      </trkpt>
      <trkpt lat="43.64942" lon="1.3788">
        <ele>149</ele>
        <time>2024-04-04T18:02:05Z</time>
      </trkpt>
      <trkpt lat="43.64939" lon="1.37879">
        <ele>150</ele>
        <time>2024-04-04T18:02:06Z</time>
      </trkpt>
      <trkpt lat="43.64939" lon="1.37879">
        <ele>150</ele>
        <time>2024-04-04T18:02:07Z</time>
      </trkpt>
      <trkpt lat="43.64935" lon="1.37875">
        <ele>150</ele>
        <time>2024-04-04T18:02:08Z</time>
      </trkpt>
      <trkpt lat="43.64934" lon="1.37871">
        <ele>150</ele>
        <time>2024-04-04T18:02:09Z</time>
      </trkpt>
      <trkpt lat="43.64934" lon="1.37868">
        <ele>150</ele>
        <time>2024-04-04T18:02:10Z</time>
      </trkpt>
      <trkpt lat="43.64934" lon="1.37868">
        <ele>149</ele>
        <time>2024-04-04T18:02:11Z</time>
      </trkpt>
      <trkpt lat="43.64932" lon="1.37861">
        <ele>149</ele>
        <time>2024-04-04T18:02:12Z</time>
      </trkpt>
      <trkpt lat="43.64932" lon="1.37858">
        <ele>149</ele>
        <time>2024-04-04T18:02:13Z</time>
      </trkpt>
      <trkpt lat="43.64932" lon="1.37858">
        <ele>149</ele>
        <time>2024-04-04T18:02:14Z</time>
      </trkpt>
      <trkpt lat="43.64931" lon="1.37851">
        <ele>149</ele>
        <time>2024-04-04T18:02:15Z</time>
      </trkpt>
      <trkpt lat="43.6493" lon="1.37848">
        <ele>149</ele>
        <time>2024-04-04T18:02:16Z</time>
      </trkpt>
      <trkpt lat="43.64929" lon="1.37845">
        <ele>149</ele>
        <time>2024-04-04T18:02:17Z</time>
      </trkpt>
      <trkpt lat="43.64928" lon="1.37842">
        <ele>149</ele>
        <time>2024-04-04T18:02:18Z</time>
      </trkpt>
      <trkpt lat="43.64927" lon="1.37839">
        <ele>149</ele>
        <time>2024-04-04T18:02:19Z</time>
      </trkpt>
      <trkpt lat="43.64925" lon="1.37837">
        <ele>149</ele>
        <time>2024-04-04T18:02:20Z</time>
      </trkpt>
      <trkpt lat="43.64923" lon="1.37834">
        <ele>149</ele>
        <time>2024-04-04T18:02:21Z</time>
      </trkpt>
      <trkpt lat="43.64923" lon="1.37834">
        <ele>149</ele>
        <time>2024-04-04T18:02:22Z</time>
      </trkpt>
      <trkpt lat="43.64919" lon="1.37828">
        <ele>150</ele>
        <time>2024-04-04T18:02:23Z</time>
      </trkpt>
      <trkpt lat="43.64917" lon="1.37825">
        <ele>150</ele>
        <time>2024-04-04T18:02:24Z</time>
      </trkpt>
      <trkpt lat="43.64915" lon="1.37823">
        <ele>150</ele>
        <time>2024-04-04T18:02:25Z</time>
      </trkpt>
      <trkpt lat="43.64913" lon="1.3782">
        <ele>149</ele>
        <time>2024-04-04T18:02:26Z</time>
      </trkpt>
      <trkpt lat="43.64912" lon="1.37817">
        <ele>149</ele>
        <time>2024-04-04T18:02:27Z</time>
      </trkpt>
      <trkpt lat="43.64911" lon="1.37813">
        <ele>149</ele>
        <time>2024-04-04T18:02:28Z</time>
      </trkpt>
      <trkpt lat="43.6491" lon="1.3781">
        <ele>149</ele>
        <time>2024-04-04T18:02:29Z</time>
      </trkpt>
      <trkpt lat="43.6491" lon="1.3781">
        <ele>150</ele>
        <time>2024-04-04T18:02:30Z</time>
      </trkpt>
      <trkpt lat="43.64909" lon="1.37803">
        <ele>150</ele>
        <time>2024-04-04T18:02:31Z</time>
      </trkpt>
      <trkpt lat="43.64909" lon="1.37803">
        <ele>150</ele>
        <time>2024-04-04T18:02:32Z</time>
      </trkpt>
      <trkpt lat="43.64907" lon="1.37797">
        <ele>150</ele>
        <time>2024-04-04T18:02:33Z</time>
      </trkpt>
      <trkpt lat="43.64907" lon="1.37797">
        <ele>150</ele>
        <time>2024-04-04T18:02:34Z</time>
      </trkpt>
      <trkpt lat="43.64905" lon="1.3779">
        <ele>150</ele>
        <time>2024-04-04T18:02:35Z</time>
      </trkpt>
      <trkpt lat="43.64904" lon="1.37787">
        <ele>150</ele>
        <time>2024-04-04T18:02:36Z</time>
      </trkpt>
      <trkpt lat="43.64903" lon="1.37783">
        <ele>150</ele>
        <time>2024-04-04T18:02:37Z</time>
      </trkpt>
      <trkpt lat="43.64902" lon="1.3778">
        <ele>150</ele>
        <time>2024-04-04T18:02:38Z</time>
      </trkpt>
      <trkpt lat="43.64901" lon="1.37776">
        <ele>150</ele>
        <time>2024-04-04T18:02:39Z</time>
      </trkpt>
      <trkpt lat="43.64901" lon="1.37776">
        <ele>150</ele>
        <time>2024-04-04T18:02:40Z</time>
      </trkpt>
      <trkpt lat="43.64899" lon="1.37769">
        <ele>150</ele>
        <time>2024-04-04T18:02:41Z</time>
      </trkpt>
      <trkpt lat="43.64898" lon="1.37766">
        <ele>150</ele>
        <time>2024-04-04T18:02:42Z</time>
      </trkpt>
      <trkpt lat="43.64897" lon="1.37762">
        <ele>150</ele>
        <time>2024-04-04T18:02:43Z</time>
      </trkpt>
      <trkpt lat="43.64896" lon="1.37759">
        <ele>150</ele>
        <time>2024-04-04T18:02:44Z</time>
      </trkpt>
      <trkpt lat="43.64895" lon="1.37755">
        <ele>150</ele>
        <time>2024-04-04T18:02:45Z</time>
      </trkpt>
      <trkpt lat="43.64894" lon="1.37751">
        <ele>150</ele>
        <time>2024-04-04T18:02:46Z</time>
      </trkpt>
      <trkpt lat="43.64893" lon="1.37748">
        <ele>151</ele>
        <time>2024-04-04T18:02:47Z</time>
      </trkpt>
      <trkpt lat="43.64893" lon="1.37744">
        <ele>151</ele>
        <time>2024-04-04T18:02:48Z</time>
      </trkpt>
      <trkpt lat="43.64893" lon="1.37744">
        <ele>151</ele>
        <time>2024-04-04T18:02:49Z</time>
      </trkpt>
      <trkpt lat="43.64892" lon="1.37738">
        <ele>151</ele>
        <time>2024-04-04T18:02:50Z</time>
      </trkpt>
      <trkpt lat="43.64892" lon="1.37738">
        <ele>151</ele>
        <time>2024-04-04T18:02:51Z</time>
      </trkpt>
      <trkpt lat="43.6489" lon="1.37731">
        <ele>151</ele>
        <time>2024-04-04T18:02:52Z</time>
      </trkpt>
      <trkpt lat="43.64889" lon="1.37728">
        <ele>151</ele>
        <time>2024-04-04T18:02:53Z</time>
      </trkpt>
      <trkpt lat="43.64888" lon="1.37724">
        <ele>151</ele>
        <time>2024-04-04T18:02:54Z</time>
      </trkpt>
      <trkpt lat="43.64888" lon="1.37721">
        <ele>151</ele>
        <time>2024-04-04T18:02:55Z</time>
      </trkpt>
      <trkpt lat="43.64887" lon="1.37717">
        <ele>151</ele>
        <time>2024-04-04T18:02:56Z</time>
      </trkpt>
      <trkpt lat="43.64886" lon="1.37713">
        <ele>151</ele>
        <time>2024-04-04T18:02:57Z</time>
      </trkpt>
      <trkpt lat="43.64885" lon="1.3771">
        <ele>151</ele>
        <time>2024-04-04T18:02:58Z</time>
      </trkpt>
      <trkpt lat="43.64885" lon="1.37707">
        <ele>151</ele>
        <time>2024-04-04T18:02:59Z</time>
      </trkpt>
      <trkpt lat="43.64884" lon="1.37703">
        <ele>151</ele>
        <time>2024-04-04T18:03:00Z</time>
      </trkpt>
      <trkpt lat="43.64883" lon="1.377">
        <ele>151</ele>
        <time>2024-04-04T18:03:01Z</time>
      </trkpt>
      <trkpt lat="43.64883" lon="1.377">
        <ele>151</ele>
        <time>2024-04-04T18:03:02Z</time>
      </trkpt>
      <trkpt lat="43.64881" lon="1.37692">
        <ele>150</ele>
        <time>2024-04-04T18:03:03Z</time>
      </trkpt>
      <trkpt lat="43.64881" lon="1.37692">
        <ele>150</ele>
        <time>2024-04-04T18:03:04Z</time>
      </trkpt>
      <trkpt lat="43.6488" lon="1.37685">
        <ele>150</ele>
        <time>2024-04-04T18:03:05Z</time>
      </trkpt>
      <trkpt lat="43.64879" lon="1.37681">
        <ele>150</ele>
        <time>2024-04-04T18:03:06Z</time>
      </trkpt>
      <trkpt lat="43.64878" lon="1.37678">
        <ele>150</ele>
        <time>2024-04-04T18:03:07Z</time>
      </trkpt>
      <trkpt lat="43.64877" lon="1.37674">
        <ele>150</ele>
        <time>2024-04-04T18:03:08Z</time>
      </trkpt>
      <trkpt lat="43.64877" lon="1.37671">
        <ele>150</ele>
        <time>2024-04-04T18:03:09Z</time>
      </trkpt>
      <trkpt lat="43.64876" lon="1.37667">
        <ele>150</ele>
        <time>2024-04-04T18:03:10Z</time>
      </trkpt>
      <trkpt lat="43.64875" lon="1.37663">
        <ele>150</ele>
        <time>2024-04-04T18:03:11Z</time>
      </trkpt>
      <trkpt lat="43.64874" lon="1.37659">
        <ele>151</ele>
        <time>2024-04-04T18:03:12Z</time>
      </trkpt>
      <trkpt lat="43.64874" lon="1.37656">
        <ele>152</ele>
        <time>2024-04-04T18:03:13Z</time>
      </trkpt>
      <trkpt lat="43.64874" lon="1.37656">
        <ele>152</ele>
        <time>2024-04-04T18:03:14Z</time>
      </trkpt>
    </trkseg>
  </trk>
</gpx>